<?xml version="1.0" encoding="UTF-8" standalone="no" ?>
<gpx xmlns="http://www.topografix.com/GPX/1/1" xmlns:xsi="http://www.w3.org/2001/XMLSchema-instance" xsi:schemaLocation="http://www.topografix.com/GPX/1/1 http://www.topografix.com/GPX/1/1/gpx.xsd" version="1.1" creator="VisuGPX - https://www.visugpx.com">
  <metadata>
    <name>Bigreen 2010</name>
    <desc><![CDATA[Parcours Rouge]]></desc>
  </metadata>
  <trk>
    <name><![CDATA[Bigreen 2010]]></name>
    <cmt><![CDATA[Avec Gérald et son Tonton Georges (62 ans le Monsieur, Respect!)
Niveau matos, freins réglé, dérailleur arriere neuf, plateau du milieu neuf]]></cmt>
    <trkseg>
      <trkpt lat="43.68916" lon="6.71273">
        <ele>758.56213378906</ele>
        <time>2010-03-28T07:33:13Z</time>
      </trkpt>
      <trkpt lat="43.68917" lon="6.71272">
        <ele>758.79565429688</ele>
        <time>2010-03-28T07:33:14Z</time>
      </trkpt>
      <trkpt lat="43.68922" lon="6.71276">
        <ele>759.31921386719</ele>
        <time>2010-03-28T07:33:18Z</time>
      </trkpt>
      <trkpt lat="43.68923" lon="6.71277">
        <ele>759.47943115234</ele>
        <time>2010-03-28T07:33:19Z</time>
      </trkpt>
      <trkpt lat="43.68925" lon="6.71278">
        <ele>759.76837158203</ele>
        <time>2010-03-28T07:33:21Z</time>
      </trkpt>
      <trkpt lat="43.68929" lon="6.71285">
        <ele>760.04876708984</ele>
        <time>2010-03-28T07:33:27Z</time>
      </trkpt>
      <trkpt lat="43.68921" lon="6.713">
        <ele>757.81140136719</ele>
        <time>2010-03-28T07:33:32Z</time>
      </trkpt>
      <trkpt lat="43.68915" lon="6.71309">
        <ele>755.94415283203</ele>
        <time>2010-03-28T07:33:34Z</time>
      </trkpt>
      <trkpt lat="43.68914" lon="6.7133">
        <ele>754.45288085938</ele>
        <time>2010-03-28T07:33:39Z</time>
      </trkpt>
      <trkpt lat="43.68922" lon="6.71355">
        <ele>754.58581542969</ele>
        <time>2010-03-28T07:33:45Z</time>
      </trkpt>
      <trkpt lat="43.6894" lon="6.71367">
        <ele>757.06939697266</ele>
        <time>2010-03-28T07:33:52Z</time>
      </trkpt>
      <trkpt lat="43.6895" lon="6.71373">
        <ele>758.41442871094</ele>
        <time>2010-03-28T07:33:56Z</time>
      </trkpt>
      <trkpt lat="43.68958" lon="6.71369">
        <ele>760.00183105469</ele>
        <time>2010-03-28T07:33:59Z</time>
      </trkpt>
      <trkpt lat="43.68967" lon="6.71352">
        <ele>762.79187011719</ele>
        <time>2010-03-28T07:34:05Z</time>
      </trkpt>
      <trkpt lat="43.68972" lon="6.71355">
        <ele>763.49597167969</ele>
        <time>2010-03-28T07:34:07Z</time>
      </trkpt>
      <trkpt lat="43.68987" lon="6.71362">
        <ele>765.71997070312</ele>
        <time>2010-03-28T07:34:14Z</time>
      </trkpt>
      <trkpt lat="43.69005" lon="6.71365">
        <ele>768.24597167969</ele>
        <time>2010-03-28T07:34:20Z</time>
      </trkpt>
      <trkpt lat="43.69012" lon="6.71366">
        <ele>768.95941162109</ele>
        <time>2010-03-28T07:34:23Z</time>
      </trkpt>
      <trkpt lat="43.69017" lon="6.71369">
        <ele>769.26751708984</ele>
        <time>2010-03-28T07:34:29Z</time>
      </trkpt>
      <trkpt lat="43.69017" lon="6.71366">
        <ele>769.47991943359</ele>
        <time>2010-03-28T07:34:33Z</time>
      </trkpt>
      <trkpt lat="43.69027" lon="6.71367">
        <ele>770.53466796875</ele>
        <time>2010-03-28T07:34:39Z</time>
      </trkpt>
      <trkpt lat="43.69043" lon="6.71369">
        <ele>772.13879394531</ele>
        <time>2010-03-28T07:34:44Z</time>
      </trkpt>
      <trkpt lat="43.69062" lon="6.71372">
        <ele>774.04742431641</ele>
        <time>2010-03-28T07:34:48Z</time>
      </trkpt>
      <trkpt lat="43.69067" lon="6.71381">
        <ele>773.70172119141</ele>
        <time>2010-03-28T07:34:50Z</time>
      </trkpt>
      <trkpt lat="43.69072" lon="6.71379">
        <ele>774.40228271484</ele>
        <time>2010-03-28T07:34:52Z</time>
      </trkpt>
      <trkpt lat="43.69089" lon="6.71387">
        <ele>775.61633300781</ele>
        <time>2010-03-28T07:34:57Z</time>
      </trkpt>
      <trkpt lat="43.69114" lon="6.71405">
        <ele>776.46343994141</ele>
        <time>2010-03-28T07:35:03Z</time>
      </trkpt>
      <trkpt lat="43.69135" lon="6.71418">
        <ele>776.82214355469</ele>
        <time>2010-03-28T07:35:09Z</time>
      </trkpt>
      <trkpt lat="43.69153" lon="6.71436">
        <ele>776.17340087891</ele>
        <time>2010-03-28T07:35:13Z</time>
      </trkpt>
      <trkpt lat="43.69178" lon="6.71467">
        <ele>774.44165039062</ele>
        <time>2010-03-28T07:35:18Z</time>
      </trkpt>
      <trkpt lat="43.69194" lon="6.71466">
        <ele>776.20599365234</ele>
        <time>2010-03-28T07:35:23Z</time>
      </trkpt>
      <trkpt lat="43.69196" lon="6.71463">
        <ele>776.88781738281</ele>
        <time>2010-03-28T07:35:24Z</time>
      </trkpt>
      <trkpt lat="43.69219" lon="6.71477">
        <ele>776.83081054688</ele>
        <time>2010-03-28T07:35:29Z</time>
      </trkpt>
      <trkpt lat="43.69221" lon="6.71481">
        <ele>776.35845947266</ele>
        <time>2010-03-28T07:35:30Z</time>
      </trkpt>
      <trkpt lat="43.69228" lon="6.71492">
        <ele>774.91638183594</ele>
        <time>2010-03-28T07:35:35Z</time>
      </trkpt>
      <trkpt lat="43.69239" lon="6.71505">
        <ele>773.78704833984</ele>
        <time>2010-03-28T07:35:41Z</time>
      </trkpt>
      <trkpt lat="43.69244" lon="6.71523">
        <ele>772.66741943359</ele>
        <time>2010-03-28T07:35:45Z</time>
      </trkpt>
      <trkpt lat="43.69239" lon="6.71549">
        <ele>769.97045898438</ele>
        <time>2010-03-28T07:35:48Z</time>
      </trkpt>
      <trkpt lat="43.69236" lon="6.71563">
        <ele>768.42724609375</ele>
        <time>2010-03-28T07:35:50Z</time>
      </trkpt>
      <trkpt lat="43.69218" lon="6.71609">
        <ele>764.02685546875</ele>
        <time>2010-03-28T07:35:57Z</time>
      </trkpt>
      <trkpt lat="43.69207" lon="6.71625">
        <ele>762.12225341797</ele>
        <time>2010-03-28T07:36:00Z</time>
      </trkpt>
      <trkpt lat="43.69204" lon="6.71631">
        <ele>761.40496826172</ele>
        <time>2010-03-28T07:36:01Z</time>
      </trkpt>
      <trkpt lat="43.69188" lon="6.71663">
        <ele>757.56158447266</ele>
        <time>2010-03-28T07:36:06Z</time>
      </trkpt>
      <trkpt lat="43.69179" lon="6.71687">
        <ele>756.98168945312</ele>
        <time>2010-03-28T07:36:10Z</time>
      </trkpt>
      <trkpt lat="43.69169" lon="6.71715">
        <ele>756.81451416016</ele>
        <time>2010-03-28T07:36:15Z</time>
      </trkpt>
      <trkpt lat="43.69164" lon="6.71732">
        <ele>756.76239013672</ele>
        <time>2010-03-28T07:36:18Z</time>
      </trkpt>
      <trkpt lat="43.69162" lon="6.71751">
        <ele>757.30377197266</ele>
        <time>2010-03-28T07:36:21Z</time>
      </trkpt>
      <trkpt lat="43.69168" lon="6.71796">
        <ele>762.03564453125</ele>
        <time>2010-03-28T07:36:28Z</time>
      </trkpt>
      <trkpt lat="43.69169" lon="6.718">
        <ele>762.65765380859</ele>
        <time>2010-03-28T07:36:29Z</time>
      </trkpt>
      <trkpt lat="43.6917" lon="6.7181">
        <ele>763.61834716797</ele>
        <time>2010-03-28T07:36:32Z</time>
      </trkpt>
      <trkpt lat="43.69173" lon="6.71827">
        <ele>765.87457275391</ele>
        <time>2010-03-28T07:36:37Z</time>
      </trkpt>
      <trkpt lat="43.69186" lon="6.71871">
        <ele>770.13903808594</ele>
        <time>2010-03-28T07:36:43Z</time>
      </trkpt>
      <trkpt lat="43.69212" lon="6.71906">
        <ele>776.30505371094</ele>
        <time>2010-03-28T07:36:48Z</time>
      </trkpt>
      <trkpt lat="43.69242" lon="6.71928">
        <ele>781.34143066406</ele>
        <time>2010-03-28T07:36:53Z</time>
      </trkpt>
      <trkpt lat="43.69261" lon="6.71948">
        <ele>783.44116210938</ele>
        <time>2010-03-28T07:36:57Z</time>
      </trkpt>
      <trkpt lat="43.69287" lon="6.7199">
        <ele>785.44842529297</ele>
        <time>2010-03-28T07:37:04Z</time>
      </trkpt>
      <trkpt lat="43.69297" lon="6.72003">
        <ele>786.41760253906</ele>
        <time>2010-03-28T07:37:07Z</time>
      </trkpt>
      <trkpt lat="43.6931" lon="6.72016">
        <ele>788.08843994141</ele>
        <time>2010-03-28T07:37:11Z</time>
      </trkpt>
      <trkpt lat="43.6932" lon="6.72038">
        <ele>788.30816650391</ele>
        <time>2010-03-28T07:37:16Z</time>
      </trkpt>
      <trkpt lat="43.69321" lon="6.72042">
        <ele>788.22119140625</ele>
        <time>2010-03-28T07:37:17Z</time>
      </trkpt>
      <trkpt lat="43.69328" lon="6.72062">
        <ele>787.90075683594</ele>
        <time>2010-03-28T07:37:21Z</time>
      </trkpt>
      <trkpt lat="43.69333" lon="6.72097">
        <ele>787.64447021484</ele>
        <time>2010-03-28T07:37:28Z</time>
      </trkpt>
      <trkpt lat="43.69336" lon="6.72132">
        <ele>789.81231689453</ele>
        <time>2010-03-28T07:37:35Z</time>
      </trkpt>
      <trkpt lat="43.69337" lon="6.7215">
        <ele>791.04968261719</ele>
        <time>2010-03-28T07:37:40Z</time>
      </trkpt>
      <trkpt lat="43.69339" lon="6.72168">
        <ele>792.31390380859</ele>
        <time>2010-03-28T07:37:45Z</time>
      </trkpt>
      <trkpt lat="43.69344" lon="6.72196">
        <ele>795.98736572266</ele>
        <time>2010-03-28T07:37:51Z</time>
      </trkpt>
      <trkpt lat="43.69347" lon="6.72224">
        <ele>799.17529296875</ele>
        <time>2010-03-28T07:37:57Z</time>
      </trkpt>
      <trkpt lat="43.69349" lon="6.72253">
        <ele>802.185546875</ele>
        <time>2010-03-28T07:38:03Z</time>
      </trkpt>
      <trkpt lat="43.69351" lon="6.72268">
        <ele>803.24212646484</ele>
        <time>2010-03-28T07:38:06Z</time>
      </trkpt>
      <trkpt lat="43.69353" lon="6.72272">
        <ele>803.69580078125</ele>
        <time>2010-03-28T07:38:07Z</time>
      </trkpt>
      <trkpt lat="43.69355" lon="6.72276">
        <ele>804.18621826172</ele>
        <time>2010-03-28T07:38:08Z</time>
      </trkpt>
      <trkpt lat="43.69357" lon="6.7228">
        <ele>804.64947509766</ele>
        <time>2010-03-28T07:38:09Z</time>
      </trkpt>
      <trkpt lat="43.6936" lon="6.72283">
        <ele>805.10388183594</ele>
        <time>2010-03-28T07:38:10Z</time>
      </trkpt>
      <trkpt lat="43.69362" lon="6.72285">
        <ele>805.49139404297</ele>
        <time>2010-03-28T07:38:11Z</time>
      </trkpt>
      <trkpt lat="43.69373" lon="6.72296">
        <ele>807.16644287109</ele>
        <time>2010-03-28T07:38:15Z</time>
      </trkpt>
      <trkpt lat="43.6938" lon="6.72305">
        <ele>808.35876464844</ele>
        <time>2010-03-28T07:38:18Z</time>
      </trkpt>
      <trkpt lat="43.69387" lon="6.72315">
        <ele>809.46435546875</ele>
        <time>2010-03-28T07:38:21Z</time>
      </trkpt>
      <trkpt lat="43.6939" lon="6.72318">
        <ele>809.85626220703</ele>
        <time>2010-03-28T07:38:22Z</time>
      </trkpt>
      <trkpt lat="43.69398" lon="6.7233">
        <ele>811.12622070312</ele>
        <time>2010-03-28T07:38:26Z</time>
      </trkpt>
      <trkpt lat="43.69402" lon="6.72338">
        <ele>811.61175537109</ele>
        <time>2010-03-28T07:38:28Z</time>
      </trkpt>
      <trkpt lat="43.69403" lon="6.72342">
        <ele>811.81048583984</ele>
        <time>2010-03-28T07:38:29Z</time>
      </trkpt>
      <trkpt lat="43.69405" lon="6.72345">
        <ele>812.00756835938</ele>
        <time>2010-03-28T07:38:30Z</time>
      </trkpt>
      <trkpt lat="43.69417" lon="6.72379">
        <ele>813.56585693359</ele>
        <time>2010-03-28T07:38:38Z</time>
      </trkpt>
      <trkpt lat="43.69433" lon="6.7242">
        <ele>815.58056640625</ele>
        <time>2010-03-28T07:38:47Z</time>
      </trkpt>
      <trkpt lat="43.69449" lon="6.72459">
        <ele>817.43231201172</ele>
        <time>2010-03-28T07:38:56Z</time>
      </trkpt>
      <trkpt lat="43.69458" lon="6.72475">
        <ele>818.28607177734</ele>
        <time>2010-03-28T07:39:01Z</time>
      </trkpt>
      <trkpt lat="43.69468" lon="6.72488">
        <ele>819.25134277344</ele>
        <time>2010-03-28T07:39:06Z</time>
      </trkpt>
      <trkpt lat="43.69479" lon="6.72502">
        <ele>820.27172851562</ele>
        <time>2010-03-28T07:39:10Z</time>
      </trkpt>
      <trkpt lat="43.69494" lon="6.72521">
        <ele>821.50354003906</ele>
        <time>2010-03-28T07:39:15Z</time>
      </trkpt>
      <trkpt lat="43.69503" lon="6.72538">
        <ele>822.25726318359</ele>
        <time>2010-03-28T07:39:19Z</time>
      </trkpt>
      <trkpt lat="43.69511" lon="6.72551">
        <ele>822.92883300781</ele>
        <time>2010-03-28T07:39:24Z</time>
      </trkpt>
      <trkpt lat="43.69526" lon="6.72579">
        <ele>823.92791748047</ele>
        <time>2010-03-28T07:39:32Z</time>
      </trkpt>
      <trkpt lat="43.69541" lon="6.7261">
        <ele>824.96411132812</ele>
        <time>2010-03-28T07:39:39Z</time>
      </trkpt>
      <trkpt lat="43.6955" lon="6.72633">
        <ele>825.62329101562</ele>
        <time>2010-03-28T07:39:45Z</time>
      </trkpt>
      <trkpt lat="43.69549" lon="6.7265">
        <ele>825.51342773438</ele>
        <time>2010-03-28T07:39:49Z</time>
      </trkpt>
      <trkpt lat="43.6955" lon="6.72676">
        <ele>825.59582519531</ele>
        <time>2010-03-28T07:39:54Z</time>
      </trkpt>
      <trkpt lat="43.69543" lon="6.72693">
        <ele>825.07397460938</ele>
        <time>2010-03-28T07:39:57Z</time>
      </trkpt>
      <trkpt lat="43.69499" lon="6.72725">
        <ele>821.92950439453</ele>
        <time>2010-03-28T07:40:04Z</time>
      </trkpt>
      <trkpt lat="43.69479" lon="6.72741">
        <ele>820.76220703125</ele>
        <time>2010-03-28T07:40:07Z</time>
      </trkpt>
      <trkpt lat="43.69438" lon="6.72768">
        <ele>818.23431396484</ele>
        <time>2010-03-28T07:40:13Z</time>
      </trkpt>
      <trkpt lat="43.69424" lon="6.72776">
        <ele>817.43743896484</ele>
        <time>2010-03-28T07:40:15Z</time>
      </trkpt>
      <trkpt lat="43.69398" lon="6.72784">
        <ele>815.47387695312</ele>
        <time>2010-03-28T07:40:19Z</time>
      </trkpt>
      <trkpt lat="43.69379" lon="6.72781">
        <ele>813.8076171875</ele>
        <time>2010-03-28T07:40:23Z</time>
      </trkpt>
      <trkpt lat="43.69371" lon="6.7279">
        <ele>813.13470458984</ele>
        <time>2010-03-28T07:40:26Z</time>
      </trkpt>
      <trkpt lat="43.69365" lon="6.72794">
        <ele>812.62200927734</ele>
        <time>2010-03-28T07:40:29Z</time>
      </trkpt>
      <trkpt lat="43.6935" lon="6.7281">
        <ele>811.40435791016</ele>
        <time>2010-03-28T07:40:34Z</time>
      </trkpt>
      <trkpt lat="43.69345" lon="6.72827">
        <ele>810.95574951172</ele>
        <time>2010-03-28T07:40:37Z</time>
      </trkpt>
      <trkpt lat="43.69345" lon="6.72855">
        <ele>811.20568847656</ele>
        <time>2010-03-28T07:40:41Z</time>
      </trkpt>
      <trkpt lat="43.69347" lon="6.72884">
        <ele>811.57995605469</ele>
        <time>2010-03-28T07:40:45Z</time>
      </trkpt>
      <trkpt lat="43.69348" lon="6.72895">
        <ele>811.71850585938</ele>
        <time>2010-03-28T07:40:47Z</time>
      </trkpt>
      <trkpt lat="43.69344" lon="6.72916">
        <ele>811.61126708984</ele>
        <time>2010-03-28T07:40:51Z</time>
      </trkpt>
      <trkpt lat="43.69336" lon="6.72937">
        <ele>811.16375732422</ele>
        <time>2010-03-28T07:40:56Z</time>
      </trkpt>
      <trkpt lat="43.69328" lon="6.7296">
        <ele>810.72955322266</ele>
        <time>2010-03-28T07:41:00Z</time>
      </trkpt>
      <trkpt lat="43.69313" lon="6.72981">
        <ele>809.95245361328</ele>
        <time>2010-03-28T07:41:05Z</time>
      </trkpt>
      <trkpt lat="43.6931" lon="6.72985">
        <ele>809.82971191406</ele>
        <time>2010-03-28T07:41:06Z</time>
      </trkpt>
      <trkpt lat="43.693" lon="6.73003">
        <ele>809.3408203125</ele>
        <time>2010-03-28T07:41:11Z</time>
      </trkpt>
      <trkpt lat="43.69297" lon="6.73005">
        <ele>809.16003417969</ele>
        <time>2010-03-28T07:41:12Z</time>
      </trkpt>
      <trkpt lat="43.6927" lon="6.73006">
        <ele>807.83935546875</ele>
        <time>2010-03-28T07:41:19Z</time>
      </trkpt>
      <trkpt lat="43.69258" lon="6.73017">
        <ele>806.97302246094</ele>
        <time>2010-03-28T07:41:23Z</time>
      </trkpt>
      <trkpt lat="43.69252" lon="6.73033">
        <ele>806.30126953125</ele>
        <time>2010-03-28T07:41:27Z</time>
      </trkpt>
      <trkpt lat="43.69244" lon="6.73061">
        <ele>805.04827880859</ele>
        <time>2010-03-28T07:41:33Z</time>
      </trkpt>
      <trkpt lat="43.69241" lon="6.73085">
        <ele>804.13592529297</ele>
        <time>2010-03-28T07:41:39Z</time>
      </trkpt>
      <trkpt lat="43.69236" lon="6.73096">
        <ele>803.33312988281</ele>
        <time>2010-03-28T07:41:43Z</time>
      </trkpt>
      <trkpt lat="43.69233" lon="6.73108">
        <ele>802.56829833984</ele>
        <time>2010-03-28T07:41:47Z</time>
      </trkpt>
      <trkpt lat="43.69225" lon="6.73116">
        <ele>801.56188964844</ele>
        <time>2010-03-28T07:41:51Z</time>
      </trkpt>
      <trkpt lat="43.6921" lon="6.7312">
        <ele>800.12652587891</ele>
        <time>2010-03-28T07:41:56Z</time>
      </trkpt>
      <trkpt lat="43.69191" lon="6.73117">
        <ele>798.54119873047</ele>
        <time>2010-03-28T07:42:01Z</time>
      </trkpt>
      <trkpt lat="43.69175" lon="6.73121">
        <ele>796.93896484375</ele>
        <time>2010-03-28T07:42:05Z</time>
      </trkpt>
      <trkpt lat="43.69164" lon="6.73127">
        <ele>795.60876464844</ele>
        <time>2010-03-28T07:42:09Z</time>
      </trkpt>
      <trkpt lat="43.69153" lon="6.73133">
        <ele>793.95397949219</ele>
        <time>2010-03-28T07:42:12Z</time>
      </trkpt>
      <trkpt lat="43.69137" lon="6.73149">
        <ele>791.24401855469</ele>
        <time>2010-03-28T07:42:16Z</time>
      </trkpt>
      <trkpt lat="43.6913" lon="6.73172">
        <ele>789.34185791016</ele>
        <time>2010-03-28T07:42:19Z</time>
      </trkpt>
      <trkpt lat="43.69123" lon="6.73188">
        <ele>787.59802246094</ele>
        <time>2010-03-28T07:42:23Z</time>
      </trkpt>
      <trkpt lat="43.69123" lon="6.73189">
        <ele>787.546875</ele>
        <time>2010-03-28T07:42:26Z</time>
      </trkpt>
      <trkpt lat="43.69122" lon="6.7319">
        <ele>787.39129638672</ele>
        <time>2010-03-28T07:42:38Z</time>
      </trkpt>
      <trkpt lat="43.69121" lon="6.73192">
        <ele>787.20544433594</ele>
        <time>2010-03-28T07:42:48Z</time>
      </trkpt>
      <trkpt lat="43.69119" lon="6.73195">
        <ele>786.79327392578</ele>
        <time>2010-03-28T07:42:53Z</time>
      </trkpt>
      <trkpt lat="43.69114" lon="6.73204">
        <ele>785.67333984375</ele>
        <time>2010-03-28T07:43:00Z</time>
      </trkpt>
      <trkpt lat="43.69106" lon="6.73214">
        <ele>784.24725341797</ele>
        <time>2010-03-28T07:43:03Z</time>
      </trkpt>
      <trkpt lat="43.69101" lon="6.73241">
        <ele>782.31140136719</ele>
        <time>2010-03-28T07:43:07Z</time>
      </trkpt>
      <trkpt lat="43.69099" lon="6.73257">
        <ele>781.42102050781</ele>
        <time>2010-03-28T07:43:09Z</time>
      </trkpt>
      <trkpt lat="43.69092" lon="6.73317">
        <ele>778.45245361328</ele>
        <time>2010-03-28T07:43:15Z</time>
      </trkpt>
      <trkpt lat="43.69082" lon="6.7337">
        <ele>775.13757324219</ele>
        <time>2010-03-28T07:43:20Z</time>
      </trkpt>
      <trkpt lat="43.69074" lon="6.73407">
        <ele>772.54071044922</ele>
        <time>2010-03-28T07:43:24Z</time>
      </trkpt>
      <trkpt lat="43.69069" lon="6.73421">
        <ele>771.42797851562</ele>
        <time>2010-03-28T07:43:26Z</time>
      </trkpt>
      <trkpt lat="43.69061" lon="6.73415">
        <ele>770.93389892578</ele>
        <time>2010-03-28T07:43:29Z</time>
      </trkpt>
      <trkpt lat="43.69054" lon="6.73422">
        <ele>769.93310546875</ele>
        <time>2010-03-28T07:43:32Z</time>
      </trkpt>
      <trkpt lat="43.69047" lon="6.73431">
        <ele>768.78369140625</ele>
        <time>2010-03-28T07:43:35Z</time>
      </trkpt>
      <trkpt lat="43.69032" lon="6.73411">
        <ele>768.32073974609</ele>
        <time>2010-03-28T07:43:40Z</time>
      </trkpt>
      <trkpt lat="43.69012" lon="6.73391">
        <ele>767.09973144531</ele>
        <time>2010-03-28T07:43:45Z</time>
      </trkpt>
      <trkpt lat="43.68993" lon="6.73364">
        <ele>765.93072509766</ele>
        <time>2010-03-28T07:43:50Z</time>
      </trkpt>
      <trkpt lat="43.68991" lon="6.73352">
        <ele>766.11157226562</ele>
        <time>2010-03-28T07:43:52Z</time>
      </trkpt>
      <trkpt lat="43.6898" lon="6.73325">
        <ele>765.67498779297</ele>
        <time>2010-03-28T07:43:57Z</time>
      </trkpt>
      <trkpt lat="43.6898" lon="6.73309">
        <ele>766.30725097656</ele>
        <time>2010-03-28T07:44:00Z</time>
      </trkpt>
      <trkpt lat="43.68982" lon="6.73298">
        <ele>766.88287353516</ele>
        <time>2010-03-28T07:44:02Z</time>
      </trkpt>
      <trkpt lat="43.68985" lon="6.73275">
        <ele>768.18408203125</ele>
        <time>2010-03-28T07:44:06Z</time>
      </trkpt>
      <trkpt lat="43.68988" lon="6.73245">
        <ele>769.53344726562</ele>
        <time>2010-03-28T07:44:11Z</time>
      </trkpt>
      <trkpt lat="43.68982" lon="6.73234">
        <ele>769.11315917969</ele>
        <time>2010-03-28T07:44:14Z</time>
      </trkpt>
      <trkpt lat="43.68969" lon="6.73206">
        <ele>768.27868652344</ele>
        <time>2010-03-28T07:44:19Z</time>
      </trkpt>
      <trkpt lat="43.68954" lon="6.7319">
        <ele>766.66101074219</ele>
        <time>2010-03-28T07:44:23Z</time>
      </trkpt>
      <trkpt lat="43.68945" lon="6.73178">
        <ele>765.70550537109</ele>
        <time>2010-03-28T07:44:26Z</time>
      </trkpt>
      <trkpt lat="43.68928" lon="6.73167">
        <ele>763.65209960938</ele>
        <time>2010-03-28T07:44:31Z</time>
      </trkpt>
      <trkpt lat="43.68913" lon="6.73164">
        <ele>761.62292480469</ele>
        <time>2010-03-28T07:44:37Z</time>
      </trkpt>
      <trkpt lat="43.68909" lon="6.73164">
        <ele>761.06909179688</ele>
        <time>2010-03-28T07:44:40Z</time>
      </trkpt>
      <trkpt lat="43.689" lon="6.73172">
        <ele>759.69519042969</ele>
        <time>2010-03-28T07:44:44Z</time>
      </trkpt>
      <trkpt lat="43.68891" lon="6.73183">
        <ele>758.17993164062</ele>
        <time>2010-03-28T07:44:48Z</time>
      </trkpt>
      <trkpt lat="43.68884" lon="6.73182">
        <ele>757.16870117188</ele>
        <time>2010-03-28T07:44:53Z</time>
      </trkpt>
      <trkpt lat="43.68879" lon="6.73172">
        <ele>756.81915283203</ele>
        <time>2010-03-28T07:44:57Z</time>
      </trkpt>
      <trkpt lat="43.68866" lon="6.73142">
        <ele>756.47082519531</ele>
        <time>2010-03-28T07:45:03Z</time>
      </trkpt>
      <trkpt lat="43.6886" lon="6.73131">
        <ele>756.23046875</ele>
        <time>2010-03-28T07:45:05Z</time>
      </trkpt>
      <trkpt lat="43.68848" lon="6.73102">
        <ele>756.10919189453</ele>
        <time>2010-03-28T07:45:10Z</time>
      </trkpt>
      <trkpt lat="43.68837" lon="6.73065">
        <ele>755.01403808594</ele>
        <time>2010-03-28T07:45:16Z</time>
      </trkpt>
      <trkpt lat="43.68822" lon="6.73053">
        <ele>753.05804443359</ele>
        <time>2010-03-28T07:45:20Z</time>
      </trkpt>
      <trkpt lat="43.68805" lon="6.73062">
        <ele>751.55438232422</ele>
        <time>2010-03-28T07:45:24Z</time>
      </trkpt>
      <trkpt lat="43.68799" lon="6.7307">
        <ele>751.01879882812</ele>
        <time>2010-03-28T07:45:26Z</time>
      </trkpt>
      <trkpt lat="43.68779" lon="6.7307">
        <ele>748.95440673828</ele>
        <time>2010-03-28T07:45:32Z</time>
      </trkpt>
      <trkpt lat="43.68773" lon="6.73064">
        <ele>748.17388916016</ele>
        <time>2010-03-28T07:45:34Z</time>
      </trkpt>
      <trkpt lat="43.68748" lon="6.73051">
        <ele>745.40020751953</ele>
        <time>2010-03-28T07:45:40Z</time>
      </trkpt>
      <trkpt lat="43.6874" lon="6.73057">
        <ele>744.24468994141</ele>
        <time>2010-03-28T07:45:45Z</time>
      </trkpt>
      <trkpt lat="43.68739" lon="6.73069">
        <ele>744.37329101562</ele>
        <time>2010-03-28T07:45:49Z</time>
      </trkpt>
      <trkpt lat="43.68738" lon="6.73071">
        <ele>744.24688720703</ele>
        <time>2010-03-28T07:46:00Z</time>
      </trkpt>
      <trkpt lat="43.68738" lon="6.73071">
        <ele>744.20477294922</ele>
        <time>2010-03-28T07:46:11Z</time>
      </trkpt>
      <trkpt lat="43.68736" lon="6.73071">
        <ele>743.98822021484</ele>
        <time>2010-03-28T07:46:22Z</time>
      </trkpt>
      <trkpt lat="43.68738" lon="6.73074">
        <ele>744.29681396484</ele>
        <time>2010-03-28T07:46:28Z</time>
      </trkpt>
      <trkpt lat="43.68744" lon="6.73092">
        <ele>744.75372314453</ele>
        <time>2010-03-28T07:46:33Z</time>
      </trkpt>
      <trkpt lat="43.68754" lon="6.73122">
        <ele>744.55712890625</ele>
        <time>2010-03-28T07:46:39Z</time>
      </trkpt>
      <trkpt lat="43.68759" lon="6.73144">
        <ele>744.06726074219</ele>
        <time>2010-03-28T07:46:42Z</time>
      </trkpt>
      <trkpt lat="43.68779" lon="6.73185">
        <ele>743.37121582031</ele>
        <time>2010-03-28T07:46:48Z</time>
      </trkpt>
      <trkpt lat="43.68791" lon="6.73204">
        <ele>743.29797363281</ele>
        <time>2010-03-28T07:46:51Z</time>
      </trkpt>
      <trkpt lat="43.68803" lon="6.7323">
        <ele>743.29559326172</ele>
        <time>2010-03-28T07:46:55Z</time>
      </trkpt>
      <trkpt lat="43.68806" lon="6.73255">
        <ele>742.01470947266</ele>
        <time>2010-03-28T07:46:59Z</time>
      </trkpt>
      <trkpt lat="43.68807" lon="6.73258">
        <ele>741.8251953125</ele>
        <time>2010-03-28T07:47:00Z</time>
      </trkpt>
      <trkpt lat="43.68806" lon="6.7326">
        <ele>741.47058105469</ele>
        <time>2010-03-28T07:47:04Z</time>
      </trkpt>
      <trkpt lat="43.68802" lon="6.73256">
        <ele>740.97729492188</ele>
        <time>2010-03-28T07:47:08Z</time>
      </trkpt>
      <trkpt lat="43.68792" lon="6.73262">
        <ele>738.08306884766</ele>
        <time>2010-03-28T07:47:12Z</time>
      </trkpt>
      <trkpt lat="43.68789" lon="6.73265">
        <ele>737.31182861328</ele>
        <time>2010-03-28T07:47:13Z</time>
      </trkpt>
      <trkpt lat="43.68769" lon="6.73275">
        <ele>731.33032226562</ele>
        <time>2010-03-28T07:47:19Z</time>
      </trkpt>
      <trkpt lat="43.68756" lon="6.73288">
        <ele>726.20318603516</ele>
        <time>2010-03-28T07:47:23Z</time>
      </trkpt>
      <trkpt lat="43.68743" lon="6.73302">
        <ele>721.47570800781</ele>
        <time>2010-03-28T07:47:27Z</time>
      </trkpt>
      <trkpt lat="43.68734" lon="6.73333">
        <ele>715.44451904297</ele>
        <time>2010-03-28T07:47:32Z</time>
      </trkpt>
      <trkpt lat="43.68731" lon="6.73347">
        <ele>713.92297363281</ele>
        <time>2010-03-28T07:47:35Z</time>
      </trkpt>
      <trkpt lat="43.68728" lon="6.73358">
        <ele>712.82073974609</ele>
        <time>2010-03-28T07:47:37Z</time>
      </trkpt>
      <trkpt lat="43.68724" lon="6.73374">
        <ele>711.01513671875</ele>
        <time>2010-03-28T07:47:41Z</time>
      </trkpt>
      <trkpt lat="43.68718" lon="6.73391">
        <ele>708.78778076172</ele>
        <time>2010-03-28T07:47:48Z</time>
      </trkpt>
      <trkpt lat="43.68711" lon="6.73402">
        <ele>706.84967041016</ele>
        <time>2010-03-28T07:47:54Z</time>
      </trkpt>
      <trkpt lat="43.6871" lon="6.73404">
        <ele>706.427734375</ele>
        <time>2010-03-28T07:47:56Z</time>
      </trkpt>
      <trkpt lat="43.68701" lon="6.73421">
        <ele>703.60357666016</ele>
        <time>2010-03-28T07:48:03Z</time>
      </trkpt>
      <trkpt lat="43.68694" lon="6.73429">
        <ele>702.13024902344</ele>
        <time>2010-03-28T07:48:07Z</time>
      </trkpt>
      <trkpt lat="43.68693" lon="6.73432">
        <ele>701.73956298828</ele>
        <time>2010-03-28T07:48:08Z</time>
      </trkpt>
      <trkpt lat="43.68683" lon="6.73455">
        <ele>698.75427246094</ele>
        <time>2010-03-28T07:48:14Z</time>
      </trkpt>
      <trkpt lat="43.68679" lon="6.73461">
        <ele>697.42218017578</ele>
        <time>2010-03-28T07:48:19Z</time>
      </trkpt>
      <trkpt lat="43.68679" lon="6.73463">
        <ele>697.40399169922</ele>
        <time>2010-03-28T07:48:32Z</time>
      </trkpt>
      <trkpt lat="43.68676" lon="6.73469">
        <ele>696.3544921875</ele>
        <time>2010-03-28T07:48:37Z</time>
      </trkpt>
      <trkpt lat="43.68669" lon="6.73486">
        <ele>693.61529541016</ele>
        <time>2010-03-28T07:48:41Z</time>
      </trkpt>
      <trkpt lat="43.68665" lon="6.73498">
        <ele>691.74957275391</ele>
        <time>2010-03-28T07:48:45Z</time>
      </trkpt>
      <trkpt lat="43.68662" lon="6.73501">
        <ele>691.11999511719</ele>
        <time>2010-03-28T07:48:51Z</time>
      </trkpt>
      <trkpt lat="43.68661" lon="6.73503">
        <ele>690.68035888672</ele>
        <time>2010-03-28T07:48:58Z</time>
      </trkpt>
      <trkpt lat="43.68658" lon="6.73507">
        <ele>689.89434814453</ele>
        <time>2010-03-28T07:49:05Z</time>
      </trkpt>
      <trkpt lat="43.68655" lon="6.73516">
        <ele>688.57403564453</ele>
        <time>2010-03-28T07:49:11Z</time>
      </trkpt>
      <trkpt lat="43.68649" lon="6.73523">
        <ele>686.822265625</ele>
        <time>2010-03-28T07:49:14Z</time>
      </trkpt>
      <trkpt lat="43.68644" lon="6.73539">
        <ele>684.580078125</ele>
        <time>2010-03-28T07:49:20Z</time>
      </trkpt>
      <trkpt lat="43.68637" lon="6.73555">
        <ele>681.62744140625</ele>
        <time>2010-03-28T07:49:25Z</time>
      </trkpt>
      <trkpt lat="43.68636" lon="6.73557">
        <ele>681.17602539062</ele>
        <time>2010-03-28T07:49:26Z</time>
      </trkpt>
      <trkpt lat="43.68634" lon="6.7356">
        <ele>680.53155517578</ele>
        <time>2010-03-28T07:49:34Z</time>
      </trkpt>
      <trkpt lat="43.68634" lon="6.73563">
        <ele>680.05419921875</ele>
        <time>2010-03-28T07:49:36Z</time>
      </trkpt>
      <trkpt lat="43.68633" lon="6.73574">
        <ele>678.921875</ele>
        <time>2010-03-28T07:49:43Z</time>
      </trkpt>
      <trkpt lat="43.68628" lon="6.73584">
        <ele>676.80548095703</ele>
        <time>2010-03-28T07:49:48Z</time>
      </trkpt>
      <trkpt lat="43.68626" lon="6.73589">
        <ele>676.01501464844</ele>
        <time>2010-03-28T07:49:52Z</time>
      </trkpt>
      <trkpt lat="43.68625" lon="6.73593">
        <ele>675.30816650391</ele>
        <time>2010-03-28T07:49:59Z</time>
      </trkpt>
      <trkpt lat="43.68623" lon="6.73594">
        <ele>674.74780273438</ele>
        <time>2010-03-28T07:50:05Z</time>
      </trkpt>
      <trkpt lat="43.68622" lon="6.73589">
        <ele>674.78192138672</ele>
        <time>2010-03-28T07:50:11Z</time>
      </trkpt>
      <trkpt lat="43.68621" lon="6.73587">
        <ele>674.61480712891</ele>
        <time>2010-03-28T07:50:14Z</time>
      </trkpt>
      <trkpt lat="43.68618" lon="6.73576">
        <ele>674.77355957031</ele>
        <time>2010-03-28T07:50:20Z</time>
      </trkpt>
      <trkpt lat="43.68618" lon="6.73567">
        <ele>675.94519042969</ele>
        <time>2010-03-28T07:50:24Z</time>
      </trkpt>
      <trkpt lat="43.68621" lon="6.73548">
        <ele>678.42712402344</ele>
        <time>2010-03-28T07:50:31Z</time>
      </trkpt>
      <trkpt lat="43.68621" lon="6.73545">
        <ele>678.85650634766</ele>
        <time>2010-03-28T07:50:32Z</time>
      </trkpt>
      <trkpt lat="43.68623" lon="6.73523">
        <ele>681.39959716797</ele>
        <time>2010-03-28T07:50:38Z</time>
      </trkpt>
      <trkpt lat="43.68625" lon="6.73511">
        <ele>683.03009033203</ele>
        <time>2010-03-28T07:50:42Z</time>
      </trkpt>
      <trkpt lat="43.68626" lon="6.73495">
        <ele>684.87829589844</ele>
        <time>2010-03-28T07:50:47Z</time>
      </trkpt>
      <trkpt lat="43.68628" lon="6.73485">
        <ele>686.4970703125</ele>
        <time>2010-03-28T07:50:50Z</time>
      </trkpt>
      <trkpt lat="43.68631" lon="6.73472">
        <ele>688.54412841797</ele>
        <time>2010-03-28T07:50:56Z</time>
      </trkpt>
      <trkpt lat="43.68633" lon="6.73457">
        <ele>690.48974609375</ele>
        <time>2010-03-28T07:51:00Z</time>
      </trkpt>
      <trkpt lat="43.68634" lon="6.73446">
        <ele>691.94573974609</ele>
        <time>2010-03-28T07:51:03Z</time>
      </trkpt>
      <trkpt lat="43.68635" lon="6.73429">
        <ele>693.88623046875</ele>
        <time>2010-03-28T07:51:09Z</time>
      </trkpt>
      <trkpt lat="43.68636" lon="6.73423">
        <ele>694.76147460938</ele>
        <time>2010-03-28T07:51:11Z</time>
      </trkpt>
      <trkpt lat="43.68638" lon="6.73413">
        <ele>696.11260986328</ele>
        <time>2010-03-28T07:51:14Z</time>
      </trkpt>
      <trkpt lat="43.68638" lon="6.73398">
        <ele>698.08953857422</ele>
        <time>2010-03-28T07:51:19Z</time>
      </trkpt>
      <trkpt lat="43.68638" lon="6.73392">
        <ele>698.94732666016</ele>
        <time>2010-03-28T07:51:22Z</time>
      </trkpt>
      <trkpt lat="43.6863" lon="6.7338">
        <ele>700.091796875</ele>
        <time>2010-03-28T07:51:28Z</time>
      </trkpt>
      <trkpt lat="43.6862" lon="6.73377">
        <ele>699.94012451172</ele>
        <time>2010-03-28T07:51:33Z</time>
      </trkpt>
      <trkpt lat="43.68616" lon="6.73379">
        <ele>699.36138916016</ele>
        <time>2010-03-28T07:51:36Z</time>
      </trkpt>
      <trkpt lat="43.6861" lon="6.73377">
        <ele>699.34735107422</ele>
        <time>2010-03-28T07:51:40Z</time>
      </trkpt>
      <trkpt lat="43.68604" lon="6.73373">
        <ele>699.54858398438</ele>
        <time>2010-03-28T07:51:45Z</time>
      </trkpt>
      <trkpt lat="43.68599" lon="6.7337">
        <ele>699.73358154297</ele>
        <time>2010-03-28T07:51:52Z</time>
      </trkpt>
      <trkpt lat="43.68592" lon="6.73364">
        <ele>700.25158691406</ele>
        <time>2010-03-28T07:52:00Z</time>
      </trkpt>
      <trkpt lat="43.68586" lon="6.73363">
        <ele>700.17309570312</ele>
        <time>2010-03-28T07:52:06Z</time>
      </trkpt>
      <trkpt lat="43.68581" lon="6.73364">
        <ele>699.66381835938</ele>
        <time>2010-03-28T07:52:11Z</time>
      </trkpt>
      <trkpt lat="43.68573" lon="6.73364">
        <ele>698.94567871094</ele>
        <time>2010-03-28T07:52:17Z</time>
      </trkpt>
      <trkpt lat="43.68567" lon="6.73365">
        <ele>698.201171875</ele>
        <time>2010-03-28T07:52:22Z</time>
      </trkpt>
      <trkpt lat="43.6856" lon="6.73365">
        <ele>697.55065917969</ele>
        <time>2010-03-28T07:52:27Z</time>
      </trkpt>
      <trkpt lat="43.68556" lon="6.73365">
        <ele>697.30065917969</ele>
        <time>2010-03-28T07:52:29Z</time>
      </trkpt>
      <trkpt lat="43.68543" lon="6.73364">
        <ele>696.23059082031</ele>
        <time>2010-03-28T07:52:34Z</time>
      </trkpt>
      <trkpt lat="43.68527" lon="6.73361">
        <ele>695.14526367188</ele>
        <time>2010-03-28T07:52:39Z</time>
      </trkpt>
      <trkpt lat="43.6851" lon="6.73359">
        <ele>693.77227783203</ele>
        <time>2010-03-28T07:52:44Z</time>
      </trkpt>
      <trkpt lat="43.68491" lon="6.73355">
        <ele>692.04864501953</ele>
        <time>2010-03-28T07:52:48Z</time>
      </trkpt>
      <trkpt lat="43.68487" lon="6.73352">
        <ele>691.74157714844</ele>
        <time>2010-03-28T07:52:49Z</time>
      </trkpt>
      <trkpt lat="43.68464" lon="6.7334">
        <ele>689.63360595703</ele>
        <time>2010-03-28T07:52:54Z</time>
      </trkpt>
      <trkpt lat="43.68453" lon="6.73333">
        <ele>688.66436767578</ele>
        <time>2010-03-28T07:52:57Z</time>
      </trkpt>
      <trkpt lat="43.68439" lon="6.73316">
        <ele>687.33215332031</ele>
        <time>2010-03-28T07:53:02Z</time>
      </trkpt>
      <trkpt lat="43.68422" lon="6.73287">
        <ele>685.6787109375</ele>
        <time>2010-03-28T07:53:09Z</time>
      </trkpt>
      <trkpt lat="43.68414" lon="6.73279">
        <ele>684.35900878906</ele>
        <time>2010-03-28T07:53:12Z</time>
      </trkpt>
      <trkpt lat="43.68412" lon="6.73278">
        <ele>684.13983154297</ele>
        <time>2010-03-28T07:53:13Z</time>
      </trkpt>
      <trkpt lat="43.6841" lon="6.73281">
        <ele>683.60290527344</ele>
        <time>2010-03-28T07:53:21Z</time>
      </trkpt>
      <trkpt lat="43.68409" lon="6.73283">
        <ele>683.31085205078</ele>
        <time>2010-03-28T07:53:26Z</time>
      </trkpt>
      <trkpt lat="43.68408" lon="6.73283">
        <ele>683.06091308594</ele>
        <time>2010-03-28T07:53:35Z</time>
      </trkpt>
      <trkpt lat="43.68408" lon="6.73283">
        <ele>683.13061523438</ele>
        <time>2010-03-28T07:53:45Z</time>
      </trkpt>
      <trkpt lat="43.68408" lon="6.73284">
        <ele>683.04132080078</ele>
        <time>2010-03-28T07:53:51Z</time>
      </trkpt>
      <trkpt lat="43.68407" lon="6.73284">
        <ele>682.95556640625</ele>
        <time>2010-03-28T07:53:53Z</time>
      </trkpt>
      <trkpt lat="43.68406" lon="6.73285">
        <ele>682.69445800781</ele>
        <time>2010-03-28T07:53:58Z</time>
      </trkpt>
      <trkpt lat="43.68406" lon="6.73286">
        <ele>682.599609375</ele>
        <time>2010-03-28T07:54:02Z</time>
      </trkpt>
      <trkpt lat="43.68404" lon="6.73288">
        <ele>682.14965820312</ele>
        <time>2010-03-28T07:54:11Z</time>
      </trkpt>
      <trkpt lat="43.68403" lon="6.73289">
        <ele>681.88024902344</ele>
        <time>2010-03-28T07:54:34Z</time>
      </trkpt>
      <trkpt lat="43.68404" lon="6.73287">
        <ele>682.18572998047</ele>
        <time>2010-03-28T07:54:44Z</time>
      </trkpt>
      <trkpt lat="43.68406" lon="6.73283">
        <ele>682.71057128906</ele>
        <time>2010-03-28T07:54:52Z</time>
      </trkpt>
      <trkpt lat="43.68404" lon="6.7328">
        <ele>682.50769042969</ele>
        <time>2010-03-28T07:54:53Z</time>
      </trkpt>
      <trkpt lat="43.68392" lon="6.73252">
        <ele>681.14410400391</ele>
        <time>2010-03-28T07:54:57Z</time>
      </trkpt>
      <trkpt lat="43.6837" lon="6.73213">
        <ele>678.39636230469</ele>
        <time>2010-03-28T07:55:01Z</time>
      </trkpt>
      <trkpt lat="43.68354" lon="6.73178">
        <ele>676.62249755859</ele>
        <time>2010-03-28T07:55:04Z</time>
      </trkpt>
      <trkpt lat="43.68328" lon="6.73106">
        <ele>674.07769775391</ele>
        <time>2010-03-28T07:55:10Z</time>
      </trkpt>
      <trkpt lat="43.68325" lon="6.73099">
        <ele>673.75164794922</ele>
        <time>2010-03-28T07:55:11Z</time>
      </trkpt>
      <trkpt lat="43.68311" lon="6.73085">
        <ele>671.63763427734</ele>
        <time>2010-03-28T07:55:15Z</time>
      </trkpt>
      <trkpt lat="43.68301" lon="6.73083">
        <ele>669.73394775391</ele>
        <time>2010-03-28T07:55:17Z</time>
      </trkpt>
      <trkpt lat="43.68274" lon="6.73089">
        <ele>664.43060302734</ele>
        <time>2010-03-28T07:55:23Z</time>
      </trkpt>
      <trkpt lat="43.68251" lon="6.73104">
        <ele>659.29833984375</ele>
        <time>2010-03-28T07:55:28Z</time>
      </trkpt>
      <trkpt lat="43.68235" lon="6.7311">
        <ele>655.75671386719</ele>
        <time>2010-03-28T07:55:32Z</time>
      </trkpt>
      <trkpt lat="43.68229" lon="6.73109">
        <ele>654.552734375</ele>
        <time>2010-03-28T07:55:34Z</time>
      </trkpt>
      <trkpt lat="43.68211" lon="6.73104">
        <ele>651.05090332031</ele>
        <time>2010-03-28T07:55:39Z</time>
      </trkpt>
      <trkpt lat="43.68194" lon="6.73108">
        <ele>647.35668945312</ele>
        <time>2010-03-28T07:55:42Z</time>
      </trkpt>
      <trkpt lat="43.6817" lon="6.73132">
        <ele>641.40124511719</ele>
        <time>2010-03-28T07:55:46Z</time>
      </trkpt>
      <trkpt lat="43.68154" lon="6.73149">
        <ele>638.62915039062</ele>
        <time>2010-03-28T07:55:50Z</time>
      </trkpt>
      <trkpt lat="43.68145" lon="6.7315">
        <ele>637.70220947266</ele>
        <time>2010-03-28T07:55:54Z</time>
      </trkpt>
      <trkpt lat="43.68138" lon="6.73132">
        <ele>637.91278076172</ele>
        <time>2010-03-28T07:55:58Z</time>
      </trkpt>
      <trkpt lat="43.68134" lon="6.73122">
        <ele>638.0478515625</ele>
        <time>2010-03-28T07:56:00Z</time>
      </trkpt>
      <trkpt lat="43.68122" lon="6.73079">
        <ele>638.92822265625</ele>
        <time>2010-03-28T07:56:08Z</time>
      </trkpt>
      <trkpt lat="43.68107" lon="6.73038">
        <ele>639.08117675781</ele>
        <time>2010-03-28T07:56:16Z</time>
      </trkpt>
      <trkpt lat="43.68102" lon="6.73022">
        <ele>639.11322021484</ele>
        <time>2010-03-28T07:56:19Z</time>
      </trkpt>
      <trkpt lat="43.68096" lon="6.73004">
        <ele>639.18011474609</ele>
        <time>2010-03-28T07:56:22Z</time>
      </trkpt>
      <trkpt lat="43.68088" lon="6.72965">
        <ele>639.76428222656</ele>
        <time>2010-03-28T07:56:28Z</time>
      </trkpt>
      <trkpt lat="43.68086" lon="6.72951">
        <ele>640.06506347656</ele>
        <time>2010-03-28T07:56:30Z</time>
      </trkpt>
      <trkpt lat="43.68081" lon="6.72894">
        <ele>640.45971679688</ele>
        <time>2010-03-28T07:56:39Z</time>
      </trkpt>
      <trkpt lat="43.68085" lon="6.72859">
        <ele>640.44543457031</ele>
        <time>2010-03-28T07:56:45Z</time>
      </trkpt>
      <trkpt lat="43.68086" lon="6.72854">
        <ele>640.49401855469</ele>
        <time>2010-03-28T07:56:46Z</time>
      </trkpt>
      <trkpt lat="43.68089" lon="6.7281">
        <ele>639.73852539062</ele>
        <time>2010-03-28T07:56:55Z</time>
      </trkpt>
      <trkpt lat="43.68086" lon="6.72798">
        <ele>638.99920654297</ele>
        <time>2010-03-28T07:56:59Z</time>
      </trkpt>
      <trkpt lat="43.68079" lon="6.72798">
        <ele>638.32391357422</ele>
        <time>2010-03-28T07:57:03Z</time>
      </trkpt>
      <trkpt lat="43.68058" lon="6.7281">
        <ele>636.82000732422</ele>
        <time>2010-03-28T07:57:08Z</time>
      </trkpt>
      <trkpt lat="43.68028" lon="6.7283">
        <ele>634.57513427734</ele>
        <time>2010-03-28T07:57:13Z</time>
      </trkpt>
      <trkpt lat="43.67996" lon="6.72852">
        <ele>631.87200927734</ele>
        <time>2010-03-28T07:57:18Z</time>
      </trkpt>
      <trkpt lat="43.67978" lon="6.72865">
        <ele>630.39398193359</ele>
        <time>2010-03-28T07:57:21Z</time>
      </trkpt>
      <trkpt lat="43.67947" lon="6.72877">
        <ele>627.81109619141</ele>
        <time>2010-03-28T07:57:25Z</time>
      </trkpt>
      <trkpt lat="43.6793" lon="6.72883">
        <ele>626.3642578125</ele>
        <time>2010-03-28T07:57:27Z</time>
      </trkpt>
      <trkpt lat="43.67897" lon="6.72906">
        <ele>623.19409179688</ele>
        <time>2010-03-28T07:57:31Z</time>
      </trkpt>
      <trkpt lat="43.67893" lon="6.72905">
        <ele>622.57037353516</ele>
        <time>2010-03-28T07:57:32Z</time>
      </trkpt>
      <trkpt lat="43.67886" lon="6.72894">
        <ele>621.40307617188</ele>
        <time>2010-03-28T07:57:36Z</time>
      </trkpt>
      <trkpt lat="43.67881" lon="6.72844">
        <ele>619.60174560547</ele>
        <time>2010-03-28T07:57:43Z</time>
      </trkpt>
      <trkpt lat="43.67882" lon="6.72816">
        <ele>618.88397216797</ele>
        <time>2010-03-28T07:57:47Z</time>
      </trkpt>
      <trkpt lat="43.67883" lon="6.72788">
        <ele>618.23291015625</ele>
        <time>2010-03-28T07:57:52Z</time>
      </trkpt>
      <trkpt lat="43.67883" lon="6.72765">
        <ele>617.58337402344</ele>
        <time>2010-03-28T07:57:58Z</time>
      </trkpt>
      <trkpt lat="43.67885" lon="6.72754">
        <ele>617.51989746094</ele>
        <time>2010-03-28T07:58:02Z</time>
      </trkpt>
      <trkpt lat="43.67885" lon="6.72743">
        <ele>617.27667236328</ele>
        <time>2010-03-28T07:58:05Z</time>
      </trkpt>
      <trkpt lat="43.67887" lon="6.72722">
        <ele>617.01013183594</ele>
        <time>2010-03-28T07:58:11Z</time>
      </trkpt>
      <trkpt lat="43.67884" lon="6.72706">
        <ele>616.08856201172</ele>
        <time>2010-03-28T07:58:15Z</time>
      </trkpt>
      <trkpt lat="43.6788" lon="6.72687">
        <ele>614.86505126953</ele>
        <time>2010-03-28T07:58:19Z</time>
      </trkpt>
      <trkpt lat="43.67883" lon="6.72652">
        <ele>614.33551025391</ele>
        <time>2010-03-28T07:58:26Z</time>
      </trkpt>
      <trkpt lat="43.67887" lon="6.72632">
        <ele>614.48999023438</ele>
        <time>2010-03-28T07:58:31Z</time>
      </trkpt>
      <trkpt lat="43.67893" lon="6.7261">
        <ele>614.97180175781</ele>
        <time>2010-03-28T07:58:36Z</time>
      </trkpt>
      <trkpt lat="43.67895" lon="6.72595">
        <ele>614.9111328125</ele>
        <time>2010-03-28T07:58:40Z</time>
      </trkpt>
      <trkpt lat="43.67888" lon="6.72582">
        <ele>613.52276611328</ele>
        <time>2010-03-28T07:58:44Z</time>
      </trkpt>
      <trkpt lat="43.67882" lon="6.72577">
        <ele>612.35260009766</ele>
        <time>2010-03-28T07:58:46Z</time>
      </trkpt>
      <trkpt lat="43.67873" lon="6.72557">
        <ele>610.30377197266</ele>
        <time>2010-03-28T07:58:51Z</time>
      </trkpt>
      <trkpt lat="43.67876" lon="6.72535">
        <ele>609.98638916016</ele>
        <time>2010-03-28T07:58:56Z</time>
      </trkpt>
      <trkpt lat="43.67878" lon="6.72514">
        <ele>609.583984375</ele>
        <time>2010-03-28T07:59:00Z</time>
      </trkpt>
      <trkpt lat="43.67878" lon="6.72509">
        <ele>609.29504394531</ele>
        <time>2010-03-28T07:59:01Z</time>
      </trkpt>
      <trkpt lat="43.6787" lon="6.72499">
        <ele>607.47857666016</ele>
        <time>2010-03-28T07:59:05Z</time>
      </trkpt>
      <trkpt lat="43.67862" lon="6.72497">
        <ele>605.96905517578</ele>
        <time>2010-03-28T07:59:09Z</time>
      </trkpt>
      <trkpt lat="43.67857" lon="6.725">
        <ele>605.17413330078</ele>
        <time>2010-03-28T07:59:11Z</time>
      </trkpt>
      <trkpt lat="43.67846" lon="6.72495">
        <ele>603.13287353516</ele>
        <time>2010-03-28T07:59:16Z</time>
      </trkpt>
      <trkpt lat="43.67817" lon="6.72484">
        <ele>595.79022216797</ele>
        <time>2010-03-28T07:59:22Z</time>
      </trkpt>
      <trkpt lat="43.67808" lon="6.72501">
        <ele>593.67156982422</ele>
        <time>2010-03-28T07:59:26Z</time>
      </trkpt>
      <trkpt lat="43.67798" lon="6.72511">
        <ele>591.41021728516</ele>
        <time>2010-03-28T07:59:31Z</time>
      </trkpt>
      <trkpt lat="43.67792" lon="6.72509">
        <ele>589.56085205078</ele>
        <time>2010-03-28T07:59:36Z</time>
      </trkpt>
      <trkpt lat="43.67794" lon="6.72504">
        <ele>589.74853515625</ele>
        <time>2010-03-28T07:59:40Z</time>
      </trkpt>
      <trkpt lat="43.67798" lon="6.72488">
        <ele>590.40325927734</ele>
        <time>2010-03-28T07:59:46Z</time>
      </trkpt>
      <trkpt lat="43.67801" lon="6.72476">
        <ele>590.57312011719</ele>
        <time>2010-03-28T07:59:49Z</time>
      </trkpt>
      <trkpt lat="43.67799" lon="6.72464">
        <ele>589.75018310547</ele>
        <time>2010-03-28T07:59:53Z</time>
      </trkpt>
      <trkpt lat="43.67797" lon="6.72457">
        <ele>588.89654541016</ele>
        <time>2010-03-28T07:59:58Z</time>
      </trkpt>
      <trkpt lat="43.67796" lon="6.72456">
        <ele>588.39038085938</ele>
        <time>2010-03-28T08:00:02Z</time>
      </trkpt>
      <trkpt lat="43.67786" lon="6.72449">
        <ele>585.06170654297</ele>
        <time>2010-03-28T08:00:07Z</time>
      </trkpt>
      <trkpt lat="43.67779" lon="6.72443">
        <ele>582.92254638672</ele>
        <time>2010-03-28T08:00:11Z</time>
      </trkpt>
      <trkpt lat="43.67768" lon="6.72431">
        <ele>579.17572021484</ele>
        <time>2010-03-28T08:00:15Z</time>
      </trkpt>
      <trkpt lat="43.67759" lon="6.72425">
        <ele>576.08880615234</ele>
        <time>2010-03-28T08:00:17Z</time>
      </trkpt>
      <trkpt lat="43.67734" lon="6.72413">
        <ele>569.98370361328</ele>
        <time>2010-03-28T08:00:22Z</time>
      </trkpt>
      <trkpt lat="43.67727" lon="6.72397">
        <ele>567.86517333984</ele>
        <time>2010-03-28T08:00:26Z</time>
      </trkpt>
      <trkpt lat="43.67727" lon="6.72392">
        <ele>567.70690917969</ele>
        <time>2010-03-28T08:00:27Z</time>
      </trkpt>
      <trkpt lat="43.67741" lon="6.72348">
        <ele>568.73590087891</ele>
        <time>2010-03-28T08:00:34Z</time>
      </trkpt>
      <trkpt lat="43.67748" lon="6.72328">
        <ele>569.21771240234</ele>
        <time>2010-03-28T08:00:37Z</time>
      </trkpt>
      <trkpt lat="43.67754" lon="6.72308">
        <ele>569.67584228516</ele>
        <time>2010-03-28T08:00:40Z</time>
      </trkpt>
      <trkpt lat="43.67759" lon="6.72264">
        <ele>568.24926757812</ele>
        <time>2010-03-28T08:00:47Z</time>
      </trkpt>
      <trkpt lat="43.67757" lon="6.72253">
        <ele>567.22357177734</ele>
        <time>2010-03-28T08:00:49Z</time>
      </trkpt>
      <trkpt lat="43.67753" lon="6.72227">
        <ele>561.33209228516</ele>
        <time>2010-03-28T08:00:54Z</time>
      </trkpt>
      <trkpt lat="43.67741" lon="6.72177">
        <ele>548.50183105469</ele>
        <time>2010-03-28T08:01:03Z</time>
      </trkpt>
      <trkpt lat="43.67736" lon="6.72156">
        <ele>542.01300048828</ele>
        <time>2010-03-28T08:01:07Z</time>
      </trkpt>
      <trkpt lat="43.67733" lon="6.72146">
        <ele>538.58959960938</ele>
        <time>2010-03-28T08:01:11Z</time>
      </trkpt>
      <trkpt lat="43.6773" lon="6.72142">
        <ele>536.89202880859</ele>
        <time>2010-03-28T08:01:19Z</time>
      </trkpt>
      <trkpt lat="43.67731" lon="6.72144">
        <ele>537.59582519531</ele>
        <time>2010-03-28T08:01:32Z</time>
      </trkpt>
      <trkpt lat="43.67725" lon="6.72142">
        <ele>535.0419921875</ele>
        <time>2010-03-28T08:01:58Z</time>
      </trkpt>
      <trkpt lat="43.67723" lon="6.7214">
        <ele>534.25183105469</ele>
        <time>2010-03-28T08:02:06Z</time>
      </trkpt>
      <trkpt lat="43.67725" lon="6.72142">
        <ele>535.17071533203</ele>
        <time>2010-03-28T08:02:13Z</time>
      </trkpt>
      <trkpt lat="43.67725" lon="6.7214">
        <ele>534.77288818359</ele>
        <time>2010-03-28T08:02:26Z</time>
      </trkpt>
      <trkpt lat="43.67712" lon="6.72153">
        <ele>534.20324707031</ele>
        <time>2010-03-28T08:02:31Z</time>
      </trkpt>
      <trkpt lat="43.67696" lon="6.72173">
        <ele>534.61328125</ele>
        <time>2010-03-28T08:02:35Z</time>
      </trkpt>
      <trkpt lat="43.67692" lon="6.7218">
        <ele>534.70483398438</ele>
        <time>2010-03-28T08:02:36Z</time>
      </trkpt>
      <trkpt lat="43.67682" lon="6.72192">
        <ele>534.173828125</ele>
        <time>2010-03-28T08:02:39Z</time>
      </trkpt>
      <trkpt lat="43.67677" lon="6.72197">
        <ele>533.71606445312</ele>
        <time>2010-03-28T08:02:41Z</time>
      </trkpt>
      <trkpt lat="43.67671" lon="6.72203">
        <ele>533.13928222656</ele>
        <time>2010-03-28T08:02:43Z</time>
      </trkpt>
      <trkpt lat="43.67656" lon="6.72217">
        <ele>531.50933837891</ele>
        <time>2010-03-28T08:02:49Z</time>
      </trkpt>
      <trkpt lat="43.67654" lon="6.7222">
        <ele>531.43280029297</ele>
        <time>2010-03-28T08:02:50Z</time>
      </trkpt>
      <trkpt lat="43.6765" lon="6.72233">
        <ele>532.98675537109</ele>
        <time>2010-03-28T08:02:54Z</time>
      </trkpt>
      <trkpt lat="43.67648" lon="6.72243">
        <ele>534.41979980469</ele>
        <time>2010-03-28T08:02:57Z</time>
      </trkpt>
      <trkpt lat="43.67647" lon="6.72252">
        <ele>536.00646972656</ele>
        <time>2010-03-28T08:03:02Z</time>
      </trkpt>
      <trkpt lat="43.67647" lon="6.72257">
        <ele>536.73541259766</ele>
        <time>2010-03-28T08:03:05Z</time>
      </trkpt>
      <trkpt lat="43.67645" lon="6.7227">
        <ele>538.10797119141</ele>
        <time>2010-03-28T08:03:10Z</time>
      </trkpt>
      <trkpt lat="43.67645" lon="6.72278">
        <ele>539.21478271484</ele>
        <time>2010-03-28T08:03:12Z</time>
      </trkpt>
      <trkpt lat="43.67645" lon="6.72282">
        <ele>539.67095947266</ele>
        <time>2010-03-28T08:03:15Z</time>
      </trkpt>
      <trkpt lat="43.67643" lon="6.72295">
        <ele>541.02178955078</ele>
        <time>2010-03-28T08:03:22Z</time>
      </trkpt>
      <trkpt lat="43.67641" lon="6.72308">
        <ele>542.42858886719</ele>
        <time>2010-03-28T08:03:27Z</time>
      </trkpt>
      <trkpt lat="43.67638" lon="6.72322">
        <ele>543.55841064453</ele>
        <time>2010-03-28T08:03:32Z</time>
      </trkpt>
      <trkpt lat="43.67635" lon="6.72328">
        <ele>543.78393554688</ele>
        <time>2010-03-28T08:03:34Z</time>
      </trkpt>
      <trkpt lat="43.67633" lon="6.72334">
        <ele>543.87890625</ele>
        <time>2010-03-28T08:03:36Z</time>
      </trkpt>
      <trkpt lat="43.67628" lon="6.72345">
        <ele>543.55499267578</ele>
        <time>2010-03-28T08:03:41Z</time>
      </trkpt>
      <trkpt lat="43.6762" lon="6.7236">
        <ele>543.01281738281</ele>
        <time>2010-03-28T08:03:46Z</time>
      </trkpt>
      <trkpt lat="43.67619" lon="6.72363">
        <ele>542.78820800781</ele>
        <time>2010-03-28T08:03:47Z</time>
      </trkpt>
      <trkpt lat="43.67607" lon="6.72363">
        <ele>540.18408203125</ele>
        <time>2010-03-28T08:03:51Z</time>
      </trkpt>
      <trkpt lat="43.67587" lon="6.72365">
        <ele>535.51519775391</ele>
        <time>2010-03-28T08:03:54Z</time>
      </trkpt>
      <trkpt lat="43.67573" lon="6.72366">
        <ele>533.00531005859</ele>
        <time>2010-03-28T08:03:56Z</time>
      </trkpt>
      <trkpt lat="43.67541" lon="6.72384">
        <ele>529.26251220703</ele>
        <time>2010-03-28T08:04:01Z</time>
      </trkpt>
      <trkpt lat="43.67535" lon="6.72389">
        <ele>528.77563476562</ele>
        <time>2010-03-28T08:04:02Z</time>
      </trkpt>
      <trkpt lat="43.67521" lon="6.72405">
        <ele>527.96722412109</ele>
        <time>2010-03-28T08:04:05Z</time>
      </trkpt>
      <trkpt lat="43.67507" lon="6.72412">
        <ele>526.60632324219</ele>
        <time>2010-03-28T08:04:10Z</time>
      </trkpt>
      <trkpt lat="43.67506" lon="6.72411">
        <ele>526.25903320312</ele>
        <time>2010-03-28T08:04:11Z</time>
      </trkpt>
      <trkpt lat="43.67505" lon="6.72407">
        <ele>525.70202636719</ele>
        <time>2010-03-28T08:04:13Z</time>
      </trkpt>
      <trkpt lat="43.67505" lon="6.72406">
        <ele>525.52398681641</ele>
        <time>2010-03-28T08:04:18Z</time>
      </trkpt>
      <trkpt lat="43.67509" lon="6.72406">
        <ele>526.20196533203</ele>
        <time>2010-03-28T08:04:25Z</time>
      </trkpt>
      <trkpt lat="43.67509" lon="6.72407">
        <ele>526.37322998047</ele>
        <time>2010-03-28T08:04:28Z</time>
      </trkpt>
      <trkpt lat="43.67509" lon="6.72409">
        <ele>526.64465332031</ele>
        <time>2010-03-28T08:04:37Z</time>
      </trkpt>
      <trkpt lat="43.67506" lon="6.72408">
        <ele>525.98474121094</ele>
        <time>2010-03-28T08:04:43Z</time>
      </trkpt>
      <trkpt lat="43.67503" lon="6.72407">
        <ele>525.44964599609</ele>
        <time>2010-03-28T08:04:46Z</time>
      </trkpt>
      <trkpt lat="43.67496" lon="6.72409">
        <ele>524.44177246094</ele>
        <time>2010-03-28T08:04:53Z</time>
      </trkpt>
      <trkpt lat="43.67493" lon="6.72408">
        <ele>523.92346191406</ele>
        <time>2010-03-28T08:04:58Z</time>
      </trkpt>
      <trkpt lat="43.67485" lon="6.72407">
        <ele>522.11431884766</ele>
        <time>2010-03-28T08:05:02Z</time>
      </trkpt>
      <trkpt lat="43.67479" lon="6.72406">
        <ele>521.02282714844</ele>
        <time>2010-03-28T08:05:07Z</time>
      </trkpt>
      <trkpt lat="43.67477" lon="6.72405">
        <ele>520.3525390625</ele>
        <time>2010-03-28T08:05:10Z</time>
      </trkpt>
      <trkpt lat="43.67469" lon="6.72402">
        <ele>518.57299804688</ele>
        <time>2010-03-28T08:05:14Z</time>
      </trkpt>
      <trkpt lat="43.67464" lon="6.72399">
        <ele>517.05670166016</ele>
        <time>2010-03-28T08:05:18Z</time>
      </trkpt>
      <trkpt lat="43.67451" lon="6.72393">
        <ele>513.38513183594</ele>
        <time>2010-03-28T08:05:24Z</time>
      </trkpt>
      <trkpt lat="43.67439" lon="6.72387">
        <ele>509.57141113281</ele>
        <time>2010-03-28T08:05:30Z</time>
      </trkpt>
      <trkpt lat="43.67433" lon="6.72382">
        <ele>507.31838989258</ele>
        <time>2010-03-28T08:05:35Z</time>
      </trkpt>
      <trkpt lat="43.67432" lon="6.7238">
        <ele>506.66519165039</ele>
        <time>2010-03-28T08:05:41Z</time>
      </trkpt>
      <trkpt lat="43.67433" lon="6.72373">
        <ele>505.33312988281</ele>
        <time>2010-03-28T08:05:46Z</time>
      </trkpt>
      <trkpt lat="43.67436" lon="6.72359">
        <ele>503.16949462891</ele>
        <time>2010-03-28T08:05:50Z</time>
      </trkpt>
      <trkpt lat="43.67442" lon="6.72345">
        <ele>501.97592163086</ele>
        <time>2010-03-28T08:05:53Z</time>
      </trkpt>
      <trkpt lat="43.6745" lon="6.72333">
        <ele>501.94818115234</ele>
        <time>2010-03-28T08:05:56Z</time>
      </trkpt>
      <trkpt lat="43.67452" lon="6.72328">
        <ele>500.42434692383</ele>
        <time>2010-03-28T08:05:57Z</time>
      </trkpt>
      <trkpt lat="43.67464" lon="6.72306">
        <ele>496.32165527344</ele>
        <time>2010-03-28T08:06:02Z</time>
      </trkpt>
      <trkpt lat="43.67471" lon="6.72297">
        <ele>495.26260375977</ele>
        <time>2010-03-28T08:06:05Z</time>
      </trkpt>
      <trkpt lat="43.67474" lon="6.72273">
        <ele>488.18103027344</ele>
        <time>2010-03-28T08:06:11Z</time>
      </trkpt>
      <trkpt lat="43.67476" lon="6.72264">
        <ele>485.60070800781</ele>
        <time>2010-03-28T08:06:14Z</time>
      </trkpt>
      <trkpt lat="43.67472" lon="6.72241">
        <ele>476.13296508789</ele>
        <time>2010-03-28T08:06:21Z</time>
      </trkpt>
      <trkpt lat="43.67472" lon="6.7222">
        <ele>470.30776977539</ele>
        <time>2010-03-28T08:06:26Z</time>
      </trkpt>
      <trkpt lat="43.67477" lon="6.72196">
        <ele>465.36199951172</ele>
        <time>2010-03-28T08:06:31Z</time>
      </trkpt>
      <trkpt lat="43.67485" lon="6.72168">
        <ele>459.22125244141</ele>
        <time>2010-03-28T08:06:37Z</time>
      </trkpt>
      <trkpt lat="43.67491" lon="6.72142">
        <ele>458.53649902344</ele>
        <time>2010-03-28T08:06:42Z</time>
      </trkpt>
      <trkpt lat="43.67495" lon="6.72129">
        <ele>458.14779663086</ele>
        <time>2010-03-28T08:06:44Z</time>
      </trkpt>
      <trkpt lat="43.67503" lon="6.72106">
        <ele>457.26000976562</ele>
        <time>2010-03-28T08:06:48Z</time>
      </trkpt>
      <trkpt lat="43.67508" lon="6.72095">
        <ele>456.974609375</ele>
        <time>2010-03-28T08:06:50Z</time>
      </trkpt>
      <trkpt lat="43.67512" lon="6.72082">
        <ele>456.44314575195</ele>
        <time>2010-03-28T08:06:53Z</time>
      </trkpt>
      <trkpt lat="43.67518" lon="6.72064">
        <ele>458.47100830078</ele>
        <time>2010-03-28T08:06:57Z</time>
      </trkpt>
      <trkpt lat="43.67528" lon="6.72037">
        <ele>460.63198852539</ele>
        <time>2010-03-28T08:07:03Z</time>
      </trkpt>
      <trkpt lat="43.67537" lon="6.72019">
        <ele>461.43563842773</ele>
        <time>2010-03-28T08:07:07Z</time>
      </trkpt>
      <trkpt lat="43.67542" lon="6.72005">
        <ele>461.53244018555</ele>
        <time>2010-03-28T08:07:11Z</time>
      </trkpt>
      <trkpt lat="43.67548" lon="6.71984">
        <ele>462.46585083008</ele>
        <time>2010-03-28T08:07:16Z</time>
      </trkpt>
      <trkpt lat="43.67551" lon="6.71961">
        <ele>463.68087768555</ele>
        <time>2010-03-28T08:07:21Z</time>
      </trkpt>
      <trkpt lat="43.67556" lon="6.71939">
        <ele>464.12319946289</ele>
        <time>2010-03-28T08:07:26Z</time>
      </trkpt>
      <trkpt lat="43.67561" lon="6.7193">
        <ele>463.80880737305</ele>
        <time>2010-03-28T08:07:29Z</time>
      </trkpt>
      <trkpt lat="43.67564" lon="6.71928">
        <ele>463.38638305664</ele>
        <time>2010-03-28T08:07:32Z</time>
      </trkpt>
      <trkpt lat="43.67566" lon="6.71925">
        <ele>463.05630493164</ele>
        <time>2010-03-28T08:07:36Z</time>
      </trkpt>
      <trkpt lat="43.67569" lon="6.71921">
        <ele>462.74475097656</ele>
        <time>2010-03-28T08:07:43Z</time>
      </trkpt>
      <trkpt lat="43.67574" lon="6.71916">
        <ele>461.7685546875</ele>
        <time>2010-03-28T08:07:51Z</time>
      </trkpt>
      <trkpt lat="43.6758" lon="6.71915">
        <ele>460.88934326172</ele>
        <time>2010-03-28T08:07:55Z</time>
      </trkpt>
      <trkpt lat="43.67585" lon="6.71915">
        <ele>460.15615844727</ele>
        <time>2010-03-28T08:08:00Z</time>
      </trkpt>
      <trkpt lat="43.67587" lon="6.71913">
        <ele>460.3171081543</ele>
        <time>2010-03-28T08:08:02Z</time>
      </trkpt>
      <trkpt lat="43.67591" lon="6.71908">
        <ele>460.71615600586</ele>
        <time>2010-03-28T08:08:10Z</time>
      </trkpt>
      <trkpt lat="43.6759" lon="6.71905">
        <ele>460.96057128906</ele>
        <time>2010-03-28T08:08:15Z</time>
      </trkpt>
      <trkpt lat="43.6759" lon="6.71904">
        <ele>461.03201293945</ele>
        <time>2010-03-28T08:08:21Z</time>
      </trkpt>
      <trkpt lat="43.67591" lon="6.71903">
        <ele>461.15026855469</ele>
        <time>2010-03-28T08:08:26Z</time>
      </trkpt>
      <trkpt lat="43.67596" lon="6.71903">
        <ele>461.09112548828</ele>
        <time>2010-03-28T08:08:42Z</time>
      </trkpt>
      <trkpt lat="43.67594" lon="6.71903">
        <ele>461.09246826172</ele>
        <time>2010-03-28T08:09:07Z</time>
      </trkpt>
      <trkpt lat="43.67577" lon="6.71903">
        <ele>462.59228515625</ele>
        <time>2010-03-28T08:09:12Z</time>
      </trkpt>
      <trkpt lat="43.67565" lon="6.71901">
        <ele>465.26498413086</ele>
        <time>2010-03-28T08:09:14Z</time>
      </trkpt>
      <trkpt lat="43.67569" lon="6.71882">
        <ele>466.5283203125</ele>
        <time>2010-03-28T08:09:18Z</time>
      </trkpt>
      <trkpt lat="43.67584" lon="6.71885">
        <ele>462.65026855469</ele>
        <time>2010-03-28T08:09:20Z</time>
      </trkpt>
      <trkpt lat="43.67609" lon="6.71879">
        <ele>462.36584472656</ele>
        <time>2010-03-28T08:09:24Z</time>
      </trkpt>
      <trkpt lat="43.67666" lon="6.71834">
        <ele>460.04086303711</ele>
        <time>2010-03-28T08:09:32Z</time>
      </trkpt>
      <trkpt lat="43.67682" lon="6.71825">
        <ele>461.15771484375</ele>
        <time>2010-03-28T08:09:34Z</time>
      </trkpt>
      <trkpt lat="43.67696" lon="6.71805">
        <ele>462.99728393555</ele>
        <time>2010-03-28T08:09:38Z</time>
      </trkpt>
      <trkpt lat="43.67685" lon="6.71792">
        <ele>464.69873046875</ele>
        <time>2010-03-28T08:09:40Z</time>
      </trkpt>
      <trkpt lat="43.67674" lon="6.7179">
        <ele>465.42810058594</ele>
        <time>2010-03-28T08:09:42Z</time>
      </trkpt>
      <trkpt lat="43.67645" lon="6.71798">
        <ele>467.51177978516</ele>
        <time>2010-03-28T08:09:48Z</time>
      </trkpt>
      <trkpt lat="43.67632" lon="6.71803">
        <ele>468.35403442383</ele>
        <time>2010-03-28T08:09:51Z</time>
      </trkpt>
      <trkpt lat="43.67622" lon="6.71806">
        <ele>468.80679321289</ele>
        <time>2010-03-28T08:09:53Z</time>
      </trkpt>
      <trkpt lat="43.67603" lon="6.71813">
        <ele>469.64340209961</ele>
        <time>2010-03-28T08:09:57Z</time>
      </trkpt>
      <trkpt lat="43.67586" lon="6.71807">
        <ele>472.90933227539</ele>
        <time>2010-03-28T08:10:01Z</time>
      </trkpt>
      <trkpt lat="43.67565" lon="6.71794">
        <ele>481.46813964844</ele>
        <time>2010-03-28T08:10:06Z</time>
      </trkpt>
      <trkpt lat="43.67561" lon="6.71791">
        <ele>483.31356811523</ele>
        <time>2010-03-28T08:10:07Z</time>
      </trkpt>
      <trkpt lat="43.67542" lon="6.7179">
        <ele>488.55218505859</ele>
        <time>2010-03-28T08:10:11Z</time>
      </trkpt>
      <trkpt lat="43.67533" lon="6.71801">
        <ele>488.82781982422</ele>
        <time>2010-03-28T08:10:13Z</time>
      </trkpt>
      <trkpt lat="43.67521" lon="6.71816">
        <ele>489.63983154297</ele>
        <time>2010-03-28T08:10:16Z</time>
      </trkpt>
      <trkpt lat="43.67508" lon="6.71835">
        <ele>490.19555664062</ele>
        <time>2010-03-28T08:10:20Z</time>
      </trkpt>
      <trkpt lat="43.67485" lon="6.71869">
        <ele>489.94555664062</ele>
        <time>2010-03-28T08:10:27Z</time>
      </trkpt>
      <trkpt lat="43.67483" lon="6.71873">
        <ele>489.8625793457</ele>
        <time>2010-03-28T08:10:28Z</time>
      </trkpt>
      <trkpt lat="43.67474" lon="6.71885">
        <ele>490.13119506836</ele>
        <time>2010-03-28T08:10:31Z</time>
      </trkpt>
      <trkpt lat="43.67461" lon="6.71925">
        <ele>487.12145996094</ele>
        <time>2010-03-28T08:10:39Z</time>
      </trkpt>
      <trkpt lat="43.67457" lon="6.71935">
        <ele>486.55386352539</ele>
        <time>2010-03-28T08:10:41Z</time>
      </trkpt>
      <trkpt lat="43.67442" lon="6.71961">
        <ele>486.07577514648</ele>
        <time>2010-03-28T08:10:48Z</time>
      </trkpt>
      <trkpt lat="43.67427" lon="6.71976">
        <ele>487.70993041992</ele>
        <time>2010-03-28T08:10:53Z</time>
      </trkpt>
      <trkpt lat="43.67412" lon="6.71992">
        <ele>488.8405456543</ele>
        <time>2010-03-28T08:10:59Z</time>
      </trkpt>
      <trkpt lat="43.67399" lon="6.72004">
        <ele>488.6799621582</ele>
        <time>2010-03-28T08:11:03Z</time>
      </trkpt>
      <trkpt lat="43.67386" lon="6.72019">
        <ele>486.73446655273</ele>
        <time>2010-03-28T08:11:08Z</time>
      </trkpt>
      <trkpt lat="43.67368" lon="6.72034">
        <ele>487.09338378906</ele>
        <time>2010-03-28T08:11:14Z</time>
      </trkpt>
      <trkpt lat="43.67344" lon="6.7204">
        <ele>492.42376708984</ele>
        <time>2010-03-28T08:11:22Z</time>
      </trkpt>
      <trkpt lat="43.67331" lon="6.72053">
        <ele>493.07553100586</ele>
        <time>2010-03-28T08:11:28Z</time>
      </trkpt>
      <trkpt lat="43.67308" lon="6.72068">
        <ele>493.66003417969</ele>
        <time>2010-03-28T08:11:36Z</time>
      </trkpt>
      <trkpt lat="43.67291" lon="6.72074">
        <ele>496.02825927734</ele>
        <time>2010-03-28T08:11:42Z</time>
      </trkpt>
      <trkpt lat="43.67276" lon="6.72067">
        <ele>500.37344360352</ele>
        <time>2010-03-28T08:11:48Z</time>
      </trkpt>
      <trkpt lat="43.67255" lon="6.72059">
        <ele>505.44827270508</ele>
        <time>2010-03-28T08:11:55Z</time>
      </trkpt>
      <trkpt lat="43.67233" lon="6.72048">
        <ele>508.84774780273</ele>
        <time>2010-03-28T08:12:03Z</time>
      </trkpt>
      <trkpt lat="43.67211" lon="6.72034">
        <ele>511.92849731445</ele>
        <time>2010-03-28T08:12:11Z</time>
      </trkpt>
      <trkpt lat="43.67189" lon="6.72032">
        <ele>513.375</ele>
        <time>2010-03-28T08:12:18Z</time>
      </trkpt>
      <trkpt lat="43.67173" lon="6.7204">
        <ele>512.95849609375</ele>
        <time>2010-03-28T08:12:23Z</time>
      </trkpt>
      <trkpt lat="43.67147" lon="6.72059">
        <ele>510.99591064453</ele>
        <time>2010-03-28T08:12:31Z</time>
      </trkpt>
      <trkpt lat="43.67135" lon="6.72063">
        <ele>510.72219848633</ele>
        <time>2010-03-28T08:12:36Z</time>
      </trkpt>
      <trkpt lat="43.6712" lon="6.72071">
        <ele>509.93209838867</ele>
        <time>2010-03-28T08:12:43Z</time>
      </trkpt>
      <trkpt lat="43.67112" lon="6.72073">
        <ele>509.88949584961</ele>
        <time>2010-03-28T08:12:48Z</time>
      </trkpt>
      <trkpt lat="43.67104" lon="6.7207">
        <ele>510.61694335938</ele>
        <time>2010-03-28T08:12:54Z</time>
      </trkpt>
      <trkpt lat="43.67101" lon="6.7207">
        <ele>510.66177368164</ele>
        <time>2010-03-28T08:12:56Z</time>
      </trkpt>
      <trkpt lat="43.67099" lon="6.72069">
        <ele>510.88983154297</ele>
        <time>2010-03-28T08:12:58Z</time>
      </trkpt>
      <trkpt lat="43.67097" lon="6.72071">
        <ele>510.62133789062</ele>
        <time>2010-03-28T08:13:03Z</time>
      </trkpt>
      <trkpt lat="43.67094" lon="6.72072">
        <ele>510.45962524414</ele>
        <time>2010-03-28T08:13:13Z</time>
      </trkpt>
      <trkpt lat="43.67093" lon="6.72073">
        <ele>510.43966674805</ele>
        <time>2010-03-28T08:13:19Z</time>
      </trkpt>
      <trkpt lat="43.67089" lon="6.72075">
        <ele>510.1130065918</ele>
        <time>2010-03-28T08:13:25Z</time>
      </trkpt>
      <trkpt lat="43.67085" lon="6.72079">
        <ele>509.56494140625</ele>
        <time>2010-03-28T08:13:32Z</time>
      </trkpt>
      <trkpt lat="43.67083" lon="6.72081">
        <ele>509.39413452148</ele>
        <time>2010-03-28T08:13:35Z</time>
      </trkpt>
      <trkpt lat="43.67082" lon="6.72083">
        <ele>509.17715454102</ele>
        <time>2010-03-28T08:13:43Z</time>
      </trkpt>
      <trkpt lat="43.6708" lon="6.72088">
        <ele>508.37228393555</ele>
        <time>2010-03-28T08:13:51Z</time>
      </trkpt>
      <trkpt lat="43.6708" lon="6.72088">
        <ele>508.33221435547</ele>
        <time>2010-03-28T08:14:02Z</time>
      </trkpt>
      <trkpt lat="43.6708" lon="6.7209">
        <ele>507.87911987305</ele>
        <time>2010-03-28T08:14:18Z</time>
      </trkpt>
      <trkpt lat="43.67081" lon="6.72091">
        <ele>507.58206176758</ele>
        <time>2010-03-28T08:14:27Z</time>
      </trkpt>
      <trkpt lat="43.67085" lon="6.7209">
        <ele>507.61199951172</ele>
        <time>2010-03-28T08:14:40Z</time>
      </trkpt>
      <trkpt lat="43.67086" lon="6.7209">
        <ele>507.42953491211</ele>
        <time>2010-03-28T08:14:46Z</time>
      </trkpt>
      <trkpt lat="43.67086" lon="6.72092">
        <ele>507.04708862305</ele>
        <time>2010-03-28T08:14:51Z</time>
      </trkpt>
      <trkpt lat="43.67085" lon="6.72095">
        <ele>506.35543823242</ele>
        <time>2010-03-28T08:14:57Z</time>
      </trkpt>
      <trkpt lat="43.67089" lon="6.72096">
        <ele>506.0810546875</ele>
        <time>2010-03-28T08:15:03Z</time>
      </trkpt>
      <trkpt lat="43.67089" lon="6.72096">
        <ele>506.00961303711</ele>
        <time>2010-03-28T08:15:04Z</time>
      </trkpt>
      <trkpt lat="43.67099" lon="6.72094">
        <ele>506.34552001953</ele>
        <time>2010-03-28T08:15:09Z</time>
      </trkpt>
      <trkpt lat="43.67096" lon="6.72088">
        <ele>507.62817382812</ele>
        <time>2010-03-28T08:15:13Z</time>
      </trkpt>
      <trkpt lat="43.67095" lon="6.72087">
        <ele>507.93667602539</ele>
        <time>2010-03-28T08:15:18Z</time>
      </trkpt>
      <trkpt lat="43.67088" lon="6.72084">
        <ele>508.76623535156</ele>
        <time>2010-03-28T08:15:23Z</time>
      </trkpt>
      <trkpt lat="43.67075" lon="6.72084">
        <ele>509.44836425781</ele>
        <time>2010-03-28T08:15:27Z</time>
      </trkpt>
      <trkpt lat="43.6706" lon="6.72076">
        <ele>511.69714355469</ele>
        <time>2010-03-28T08:15:31Z</time>
      </trkpt>
      <trkpt lat="43.67045" lon="6.72067">
        <ele>513.74615478516</ele>
        <time>2010-03-28T08:15:34Z</time>
      </trkpt>
      <trkpt lat="43.67031" lon="6.72051">
        <ele>516.37298583984</ele>
        <time>2010-03-28T08:15:38Z</time>
      </trkpt>
      <trkpt lat="43.67017" lon="6.72041">
        <ele>517.95098876953</ele>
        <time>2010-03-28T08:15:44Z</time>
      </trkpt>
      <trkpt lat="43.6701" lon="6.72036">
        <ele>518.63537597656</ele>
        <time>2010-03-28T08:15:47Z</time>
      </trkpt>
      <trkpt lat="43.66997" lon="6.72024">
        <ele>520.5009765625</ele>
        <time>2010-03-28T08:15:53Z</time>
      </trkpt>
      <trkpt lat="43.66988" lon="6.72012">
        <ele>522.65612792969</ele>
        <time>2010-03-28T08:15:58Z</time>
      </trkpt>
      <trkpt lat="43.66986" lon="6.72008">
        <ele>523.27026367188</ele>
        <time>2010-03-28T08:16:02Z</time>
      </trkpt>
      <trkpt lat="43.66985" lon="6.72008">
        <ele>523.37542724609</ele>
        <time>2010-03-28T08:16:03Z</time>
      </trkpt>
      <trkpt lat="43.66976" lon="6.72007">
        <ele>524.72174072266</ele>
        <time>2010-03-28T08:16:11Z</time>
      </trkpt>
      <trkpt lat="43.66974" lon="6.7201">
        <ele>524.82476806641</ele>
        <time>2010-03-28T08:16:13Z</time>
      </trkpt>
      <trkpt lat="43.66969" lon="6.72019">
        <ele>524.95806884766</ele>
        <time>2010-03-28T08:16:21Z</time>
      </trkpt>
      <trkpt lat="43.66968" lon="6.72022">
        <ele>524.87109375</ele>
        <time>2010-03-28T08:16:25Z</time>
      </trkpt>
      <trkpt lat="43.66967" lon="6.72027">
        <ele>524.76190185547</ele>
        <time>2010-03-28T08:16:28Z</time>
      </trkpt>
      <trkpt lat="43.66968" lon="6.72041">
        <ele>523.7880859375</ele>
        <time>2010-03-28T08:16:32Z</time>
      </trkpt>
      <trkpt lat="43.66969" lon="6.72059">
        <ele>522.51550292969</ele>
        <time>2010-03-28T08:16:37Z</time>
      </trkpt>
      <trkpt lat="43.6697" lon="6.72077">
        <ele>521.19500732422</ele>
        <time>2010-03-28T08:16:42Z</time>
      </trkpt>
      <trkpt lat="43.6697" lon="6.72099">
        <ele>519.61303710938</ele>
        <time>2010-03-28T08:16:48Z</time>
      </trkpt>
      <trkpt lat="43.66971" lon="6.72123">
        <ele>517.65539550781</ele>
        <time>2010-03-28T08:16:55Z</time>
      </trkpt>
      <trkpt lat="43.66971" lon="6.7214">
        <ele>516.50543212891</ele>
        <time>2010-03-28T08:16:59Z</time>
      </trkpt>
      <trkpt lat="43.6697" lon="6.72158">
        <ele>515.55413818359</ele>
        <time>2010-03-28T08:17:04Z</time>
      </trkpt>
      <trkpt lat="43.66966" lon="6.7218">
        <ele>514.20599365234</ele>
        <time>2010-03-28T08:17:10Z</time>
      </trkpt>
      <trkpt lat="43.66963" lon="6.72198">
        <ele>512.81274414062</ele>
        <time>2010-03-28T08:17:15Z</time>
      </trkpt>
      <trkpt lat="43.66953" lon="6.72214">
        <ele>513.52075195312</ele>
        <time>2010-03-28T08:17:20Z</time>
      </trkpt>
      <trkpt lat="43.66934" lon="6.72219">
        <ele>517.26580810547</ele>
        <time>2010-03-28T08:17:24Z</time>
      </trkpt>
      <trkpt lat="43.66916" lon="6.72219">
        <ele>521.56243896484</ele>
        <time>2010-03-28T08:17:28Z</time>
      </trkpt>
      <trkpt lat="43.66894" lon="6.72228">
        <ele>525.25421142578</ele>
        <time>2010-03-28T08:17:33Z</time>
      </trkpt>
      <trkpt lat="43.66881" lon="6.72244">
        <ele>526.40130615234</ele>
        <time>2010-03-28T08:17:37Z</time>
      </trkpt>
      <trkpt lat="43.66867" lon="6.72265">
        <ele>526.35040283203</ele>
        <time>2010-03-28T08:17:41Z</time>
      </trkpt>
      <trkpt lat="43.6685" lon="6.72285">
        <ele>526.44207763672</ele>
        <time>2010-03-28T08:17:46Z</time>
      </trkpt>
      <trkpt lat="43.66835" lon="6.72317">
        <ele>523.55920410156</ele>
        <time>2010-03-28T08:17:51Z</time>
      </trkpt>
      <trkpt lat="43.66832" lon="6.72334">
        <ele>521.09295654297</ele>
        <time>2010-03-28T08:17:54Z</time>
      </trkpt>
      <trkpt lat="43.6683" lon="6.72365">
        <ele>515.66461181641</ele>
        <time>2010-03-28T08:18:00Z</time>
      </trkpt>
      <trkpt lat="43.66828" lon="6.72376">
        <ele>514.1279296875</ele>
        <time>2010-03-28T08:18:02Z</time>
      </trkpt>
      <trkpt lat="43.66824" lon="6.72398">
        <ele>510.98431396484</ele>
        <time>2010-03-28T08:18:06Z</time>
      </trkpt>
      <trkpt lat="43.66834" lon="6.72426">
        <ele>502.27603149414</ele>
        <time>2010-03-28T08:18:12Z</time>
      </trkpt>
      <trkpt lat="43.66842" lon="6.72449">
        <ele>493.86895751953</ele>
        <time>2010-03-28T08:18:17Z</time>
      </trkpt>
      <trkpt lat="43.66848" lon="6.72476">
        <ele>483.23675537109</ele>
        <time>2010-03-28T08:18:22Z</time>
      </trkpt>
      <trkpt lat="43.66849" lon="6.72506">
        <ele>473.84091186523</ele>
        <time>2010-03-28T08:18:27Z</time>
      </trkpt>
      <trkpt lat="43.6685" lon="6.72523">
        <ele>469.53924560547</ele>
        <time>2010-03-28T08:18:30Z</time>
      </trkpt>
      <trkpt lat="43.66847" lon="6.72541">
        <ele>466.13781738281</ele>
        <time>2010-03-28T08:18:33Z</time>
      </trkpt>
      <trkpt lat="43.66838" lon="6.72577">
        <ele>462.22387695312</ele>
        <time>2010-03-28T08:18:39Z</time>
      </trkpt>
      <trkpt lat="43.66832" lon="6.72603">
        <ele>460.68936157227</ele>
        <time>2010-03-28T08:18:43Z</time>
      </trkpt>
      <trkpt lat="43.66828" lon="6.72618">
        <ele>460.45193481445</ele>
        <time>2010-03-28T08:18:46Z</time>
      </trkpt>
      <trkpt lat="43.66824" lon="6.7263">
        <ele>461.42321777344</ele>
        <time>2010-03-28T08:18:50Z</time>
      </trkpt>
      <trkpt lat="43.66815" lon="6.7266">
        <ele>462.60537719727</ele>
        <time>2010-03-28T08:18:56Z</time>
      </trkpt>
      <trkpt lat="43.66811" lon="6.72684">
        <ele>462.63134765625</ele>
        <time>2010-03-28T08:19:01Z</time>
      </trkpt>
      <trkpt lat="43.66809" lon="6.72694">
        <ele>462.78823852539</ele>
        <time>2010-03-28T08:19:04Z</time>
      </trkpt>
      <trkpt lat="43.66809" lon="6.72696">
        <ele>462.54830932617</ele>
        <time>2010-03-28T08:19:09Z</time>
      </trkpt>
      <trkpt lat="43.66806" lon="6.72704">
        <ele>463.52133178711</ele>
        <time>2010-03-28T08:19:16Z</time>
      </trkpt>
      <trkpt lat="43.66801" lon="6.72711">
        <ele>466.27960205078</ele>
        <time>2010-03-28T08:19:19Z</time>
      </trkpt>
      <trkpt lat="43.66793" lon="6.72742">
        <ele>468.55114746094</ele>
        <time>2010-03-28T08:19:26Z</time>
      </trkpt>
      <trkpt lat="43.66793" lon="6.72768">
        <ele>465.85583496094</ele>
        <time>2010-03-28T08:19:30Z</time>
      </trkpt>
      <trkpt lat="43.66792" lon="6.72774">
        <ele>465.3219909668</ele>
        <time>2010-03-28T08:19:31Z</time>
      </trkpt>
      <trkpt lat="43.66794" lon="6.72797">
        <ele>460.72506713867</ele>
        <time>2010-03-28T08:19:35Z</time>
      </trkpt>
      <trkpt lat="43.66795" lon="6.72806">
        <ele>459.11404418945</ele>
        <time>2010-03-28T08:19:37Z</time>
      </trkpt>
      <trkpt lat="43.66797" lon="6.7283">
        <ele>453.46838378906</ele>
        <time>2010-03-28T08:19:44Z</time>
      </trkpt>
      <trkpt lat="43.66799" lon="6.7285">
        <ele>448.61709594727</ele>
        <time>2010-03-28T08:19:49Z</time>
      </trkpt>
      <trkpt lat="43.66792" lon="6.7286">
        <ele>452.44244384766</ele>
        <time>2010-03-28T08:19:54Z</time>
      </trkpt>
      <trkpt lat="43.66782" lon="6.72873">
        <ele>458.61572265625</ele>
        <time>2010-03-28T08:20:00Z</time>
      </trkpt>
      <trkpt lat="43.66771" lon="6.72883">
        <ele>467.01361083984</ele>
        <time>2010-03-28T08:20:05Z</time>
      </trkpt>
      <trkpt lat="43.66768" lon="6.72883">
        <ele>469.6484375</ele>
        <time>2010-03-28T08:20:09Z</time>
      </trkpt>
      <trkpt lat="43.66765" lon="6.72884">
        <ele>471.49029541016</ele>
        <time>2010-03-28T08:20:12Z</time>
      </trkpt>
      <trkpt lat="43.66761" lon="6.72888">
        <ele>473.99688720703</ele>
        <time>2010-03-28T08:20:19Z</time>
      </trkpt>
      <trkpt lat="43.66759" lon="6.72887">
        <ele>476.59149169922</ele>
        <time>2010-03-28T08:20:23Z</time>
      </trkpt>
      <trkpt lat="43.66756" lon="6.72884">
        <ele>479.65414428711</ele>
        <time>2010-03-28T08:20:25Z</time>
      </trkpt>
      <trkpt lat="43.66753" lon="6.72883">
        <ele>482.18869018555</ele>
        <time>2010-03-28T08:20:26Z</time>
      </trkpt>
      <trkpt lat="43.66745" lon="6.72878">
        <ele>487.88128662109</ele>
        <time>2010-03-28T08:20:29Z</time>
      </trkpt>
      <trkpt lat="43.66733" lon="6.72873">
        <ele>493.6110534668</ele>
        <time>2010-03-28T08:20:33Z</time>
      </trkpt>
      <trkpt lat="43.66721" lon="6.72879">
        <ele>497.40853881836</ele>
        <time>2010-03-28T08:20:37Z</time>
      </trkpt>
      <trkpt lat="43.66715" lon="6.72883">
        <ele>499.14959716797</ele>
        <time>2010-03-28T08:20:41Z</time>
      </trkpt>
      <trkpt lat="43.66706" lon="6.72887">
        <ele>502.24411010742</ele>
        <time>2010-03-28T08:20:45Z</time>
      </trkpt>
      <trkpt lat="43.667" lon="6.7289">
        <ele>504.40585327148</ele>
        <time>2010-03-28T08:20:47Z</time>
      </trkpt>
      <trkpt lat="43.66687" lon="6.72913">
        <ele>508.02352905273</ele>
        <time>2010-03-28T08:20:52Z</time>
      </trkpt>
      <trkpt lat="43.66677" lon="6.72925">
        <ele>510.76574707031</ele>
        <time>2010-03-28T08:20:55Z</time>
      </trkpt>
      <trkpt lat="43.66673" lon="6.72933">
        <ele>512.16149902344</ele>
        <time>2010-03-28T08:20:59Z</time>
      </trkpt>
      <trkpt lat="43.66671" lon="6.72935">
        <ele>512.7685546875</ele>
        <time>2010-03-28T08:21:04Z</time>
      </trkpt>
      <trkpt lat="43.66669" lon="6.7294">
        <ele>513.13604736328</ele>
        <time>2010-03-28T08:21:07Z</time>
      </trkpt>
      <trkpt lat="43.66666" lon="6.72947">
        <ele>513.79119873047</ele>
        <time>2010-03-28T08:21:09Z</time>
      </trkpt>
      <trkpt lat="43.66666" lon="6.72948">
        <ele>513.65789794922</ele>
        <time>2010-03-28T08:21:10Z</time>
      </trkpt>
      <trkpt lat="43.66665" lon="6.72951">
        <ele>513.46527099609</ele>
        <time>2010-03-28T08:21:11Z</time>
      </trkpt>
      <trkpt lat="43.66658" lon="6.72957">
        <ele>513.17877197266</ele>
        <time>2010-03-28T08:21:16Z</time>
      </trkpt>
      <trkpt lat="43.66655" lon="6.72961">
        <ele>512.93157958984</ele>
        <time>2010-03-28T08:21:18Z</time>
      </trkpt>
      <trkpt lat="43.66647" lon="6.72971">
        <ele>512.45941162109</ele>
        <time>2010-03-28T08:21:22Z</time>
      </trkpt>
      <trkpt lat="43.6664" lon="6.72979">
        <ele>512.15393066406</ele>
        <time>2010-03-28T08:21:25Z</time>
      </trkpt>
      <trkpt lat="43.66632" lon="6.7299">
        <ele>511.85882568359</ele>
        <time>2010-03-28T08:21:30Z</time>
      </trkpt>
      <trkpt lat="43.66632" lon="6.72991">
        <ele>511.71636962891</ele>
        <time>2010-03-28T08:21:35Z</time>
      </trkpt>
      <trkpt lat="43.66628" lon="6.72998">
        <ele>511.43322753906</ele>
        <time>2010-03-28T08:21:40Z</time>
      </trkpt>
      <trkpt lat="43.66622" lon="6.73007">
        <ele>510.7438659668</ele>
        <time>2010-03-28T08:21:45Z</time>
      </trkpt>
      <trkpt lat="43.66615" lon="6.73025">
        <ele>508.86477661133</ele>
        <time>2010-03-28T08:21:51Z</time>
      </trkpt>
      <trkpt lat="43.66606" lon="6.73045">
        <ele>507.60815429688</ele>
        <time>2010-03-28T08:21:57Z</time>
      </trkpt>
      <trkpt lat="43.66599" lon="6.73058">
        <ele>507.26330566406</ele>
        <time>2010-03-28T08:22:02Z</time>
      </trkpt>
      <trkpt lat="43.66586" lon="6.7306">
        <ele>509.48782348633</ele>
        <time>2010-03-28T08:22:07Z</time>
      </trkpt>
      <trkpt lat="43.66571" lon="6.73058">
        <ele>509.732421875</ele>
        <time>2010-03-28T08:22:13Z</time>
      </trkpt>
      <trkpt lat="43.66556" lon="6.73054">
        <ele>509.53457641602</ele>
        <time>2010-03-28T08:22:18Z</time>
      </trkpt>
      <trkpt lat="43.66553" lon="6.73053">
        <ele>509.52569580078</ele>
        <time>2010-03-28T08:22:19Z</time>
      </trkpt>
      <trkpt lat="43.66536" lon="6.73063">
        <ele>508.45385742188</ele>
        <time>2010-03-28T08:22:24Z</time>
      </trkpt>
      <trkpt lat="43.66529" lon="6.73066">
        <ele>508.12237548828</ele>
        <time>2010-03-28T08:22:26Z</time>
      </trkpt>
      <trkpt lat="43.66523" lon="6.73069">
        <ele>507.85955810547</ele>
        <time>2010-03-28T08:22:30Z</time>
      </trkpt>
      <trkpt lat="43.66517" lon="6.73071">
        <ele>507.65621948242</ele>
        <time>2010-03-28T08:22:34Z</time>
      </trkpt>
      <trkpt lat="43.66509" lon="6.7307">
        <ele>507.51434326172</ele>
        <time>2010-03-28T08:22:41Z</time>
      </trkpt>
      <trkpt lat="43.66497" lon="6.73071">
        <ele>507.24765014648</ele>
        <time>2010-03-28T08:22:46Z</time>
      </trkpt>
      <trkpt lat="43.66482" lon="6.73068">
        <ele>507.11560058594</ele>
        <time>2010-03-28T08:22:50Z</time>
      </trkpt>
      <trkpt lat="43.66463" lon="6.73063">
        <ele>506.93536376953</ele>
        <time>2010-03-28T08:22:55Z</time>
      </trkpt>
      <trkpt lat="43.6646" lon="6.73062">
        <ele>506.89630126953</ele>
        <time>2010-03-28T08:22:56Z</time>
      </trkpt>
      <trkpt lat="43.66447" lon="6.73049">
        <ele>506.91641235352</ele>
        <time>2010-03-28T08:23:01Z</time>
      </trkpt>
      <trkpt lat="43.66434" lon="6.7303">
        <ele>506.9762878418</ele>
        <time>2010-03-28T08:23:06Z</time>
      </trkpt>
      <trkpt lat="43.66427" lon="6.73009">
        <ele>507.12557983398</ele>
        <time>2010-03-28T08:23:10Z</time>
      </trkpt>
      <trkpt lat="43.66419" lon="6.7299">
        <ele>507.4128112793</ele>
        <time>2010-03-28T08:23:15Z</time>
      </trkpt>
      <trkpt lat="43.66417" lon="6.72982">
        <ele>507.65786743164</ele>
        <time>2010-03-28T08:23:18Z</time>
      </trkpt>
      <trkpt lat="43.66415" lon="6.72967">
        <ele>508.09259033203</ele>
        <time>2010-03-28T08:23:23Z</time>
      </trkpt>
      <trkpt lat="43.6641" lon="6.72957">
        <ele>508.23031616211</ele>
        <time>2010-03-28T08:23:27Z</time>
      </trkpt>
      <trkpt lat="43.66409" lon="6.72951">
        <ele>508.41577148438</ele>
        <time>2010-03-28T08:23:30Z</time>
      </trkpt>
      <trkpt lat="43.66409" lon="6.72938">
        <ele>508.87432861328</ele>
        <time>2010-03-28T08:23:35Z</time>
      </trkpt>
      <trkpt lat="43.66407" lon="6.72913">
        <ele>509.75744628906</ele>
        <time>2010-03-28T08:23:41Z</time>
      </trkpt>
      <trkpt lat="43.66407" lon="6.72888">
        <ele>510.46337890625</ele>
        <time>2010-03-28T08:23:46Z</time>
      </trkpt>
      <trkpt lat="43.66403" lon="6.72874">
        <ele>510.77822875977</ele>
        <time>2010-03-28T08:23:49Z</time>
      </trkpt>
      <trkpt lat="43.66401" lon="6.7287">
        <ele>510.85797119141</ele>
        <time>2010-03-28T08:23:53Z</time>
      </trkpt>
      <trkpt lat="43.664" lon="6.7287">
        <ele>510.85485839844</ele>
        <time>2010-03-28T08:23:57Z</time>
      </trkpt>
      <trkpt lat="43.66398" lon="6.72848">
        <ele>511.52160644531</ele>
        <time>2010-03-28T08:24:02Z</time>
      </trkpt>
      <trkpt lat="43.66399" lon="6.72843">
        <ele>511.70239257812</ele>
        <time>2010-03-28T08:24:03Z</time>
      </trkpt>
      <trkpt lat="43.66403" lon="6.72812">
        <ele>512.64581298828</ele>
        <time>2010-03-28T08:24:09Z</time>
      </trkpt>
      <trkpt lat="43.66399" lon="6.72798">
        <ele>513.12170410156</ele>
        <time>2010-03-28T08:24:12Z</time>
      </trkpt>
      <trkpt lat="43.66386" lon="6.72781">
        <ele>513.92791748047</ele>
        <time>2010-03-28T08:24:16Z</time>
      </trkpt>
      <trkpt lat="43.66375" lon="6.72762">
        <ele>514.99664306641</ele>
        <time>2010-03-28T08:24:20Z</time>
      </trkpt>
      <trkpt lat="43.66369" lon="6.72748">
        <ele>515.80438232422</ele>
        <time>2010-03-28T08:24:23Z</time>
      </trkpt>
      <trkpt lat="43.66359" lon="6.72733">
        <ele>516.93072509766</ele>
        <time>2010-03-28T08:24:26Z</time>
      </trkpt>
      <trkpt lat="43.66335" lon="6.72722">
        <ele>518.60113525391</ele>
        <time>2010-03-28T08:24:32Z</time>
      </trkpt>
      <trkpt lat="43.66331" lon="6.72723">
        <ele>518.94586181641</ele>
        <time>2010-03-28T08:24:33Z</time>
      </trkpt>
      <trkpt lat="43.66314" lon="6.72731">
        <ele>521.27746582031</ele>
        <time>2010-03-28T08:24:39Z</time>
      </trkpt>
      <trkpt lat="43.663" lon="6.72752">
        <ele>522.00231933594</ele>
        <time>2010-03-28T08:24:44Z</time>
      </trkpt>
      <trkpt lat="43.663" lon="6.72759">
        <ele>521.56781005859</ele>
        <time>2010-03-28T08:24:47Z</time>
      </trkpt>
      <trkpt lat="43.66294" lon="6.72773">
        <ele>521.33410644531</ele>
        <time>2010-03-28T08:24:51Z</time>
      </trkpt>
      <trkpt lat="43.66285" lon="6.72792">
        <ele>521.16204833984</ele>
        <time>2010-03-28T08:24:56Z</time>
      </trkpt>
      <trkpt lat="43.66271" lon="6.72807">
        <ele>521.70202636719</ele>
        <time>2010-03-28T08:25:00Z</time>
      </trkpt>
      <trkpt lat="43.66264" lon="6.72817">
        <ele>521.83898925781</ele>
        <time>2010-03-28T08:25:02Z</time>
      </trkpt>
      <trkpt lat="43.66248" lon="6.72847">
        <ele>520.86175537109</ele>
        <time>2010-03-28T08:25:07Z</time>
      </trkpt>
      <trkpt lat="43.66244" lon="6.72853">
        <ele>520.60534667969</ele>
        <time>2010-03-28T08:25:08Z</time>
      </trkpt>
      <trkpt lat="43.66226" lon="6.72882">
        <ele>518.95281982422</ele>
        <time>2010-03-28T08:25:13Z</time>
      </trkpt>
      <trkpt lat="43.66218" lon="6.72899">
        <ele>517.53540039062</ele>
        <time>2010-03-28T08:25:16Z</time>
      </trkpt>
      <trkpt lat="43.66212" lon="6.72909">
        <ele>516.71221923828</ele>
        <time>2010-03-28T08:25:18Z</time>
      </trkpt>
      <trkpt lat="43.66201" lon="6.72937">
        <ele>514.48120117188</ele>
        <time>2010-03-28T08:25:22Z</time>
      </trkpt>
      <trkpt lat="43.66198" lon="6.7295">
        <ele>513.48779296875</ele>
        <time>2010-03-28T08:25:24Z</time>
      </trkpt>
      <trkpt lat="43.66189" lon="6.72967">
        <ele>512.26721191406</ele>
        <time>2010-03-28T08:25:28Z</time>
      </trkpt>
      <trkpt lat="43.66177" lon="6.72978">
        <ele>511.72085571289</ele>
        <time>2010-03-28T08:25:33Z</time>
      </trkpt>
      <trkpt lat="43.66163" lon="6.72984">
        <ele>511.72241210938</ele>
        <time>2010-03-28T08:25:37Z</time>
      </trkpt>
      <trkpt lat="43.66135" lon="6.72983">
        <ele>513.38189697266</ele>
        <time>2010-03-28T08:25:44Z</time>
      </trkpt>
      <trkpt lat="43.66117" lon="6.7298">
        <ele>514.58227539062</ele>
        <time>2010-03-28T08:25:48Z</time>
      </trkpt>
      <trkpt lat="43.66096" lon="6.72978">
        <ele>515.88824462891</ele>
        <time>2010-03-28T08:25:54Z</time>
      </trkpt>
      <trkpt lat="43.66089" lon="6.72981">
        <ele>516.07885742188</ele>
        <time>2010-03-28T08:25:58Z</time>
      </trkpt>
      <trkpt lat="43.66084" lon="6.72978">
        <ele>516.52075195312</ele>
        <time>2010-03-28T08:26:03Z</time>
      </trkpt>
      <trkpt lat="43.66079" lon="6.72976">
        <ele>517.13098144531</ele>
        <time>2010-03-28T08:26:07Z</time>
      </trkpt>
      <trkpt lat="43.66072" lon="6.72976">
        <ele>517.65979003906</ele>
        <time>2010-03-28T08:26:14Z</time>
      </trkpt>
      <trkpt lat="43.66071" lon="6.72978">
        <ele>517.70330810547</ele>
        <time>2010-03-28T08:26:18Z</time>
      </trkpt>
      <trkpt lat="43.66068" lon="6.72983">
        <ele>517.53503417969</ele>
        <time>2010-03-28T08:26:21Z</time>
      </trkpt>
      <trkpt lat="43.66067" lon="6.72989">
        <ele>517.23773193359</ele>
        <time>2010-03-28T08:26:24Z</time>
      </trkpt>
      <trkpt lat="43.66066" lon="6.7299">
        <ele>517.24688720703</ele>
        <time>2010-03-28T08:26:26Z</time>
      </trkpt>
      <trkpt lat="43.66064" lon="6.72992">
        <ele>517.22790527344</ele>
        <time>2010-03-28T08:26:28Z</time>
      </trkpt>
      <trkpt lat="43.66066" lon="6.72996">
        <ele>516.81671142578</ele>
        <time>2010-03-28T08:26:36Z</time>
      </trkpt>
      <trkpt lat="43.66065" lon="6.72997">
        <ele>516.73870849609</ele>
        <time>2010-03-28T08:26:38Z</time>
      </trkpt>
      <trkpt lat="43.66064" lon="6.73001">
        <ele>516.56945800781</ele>
        <time>2010-03-28T08:26:43Z</time>
      </trkpt>
      <trkpt lat="43.66065" lon="6.73007">
        <ele>516.18658447266</ele>
        <time>2010-03-28T08:26:49Z</time>
      </trkpt>
      <trkpt lat="43.66065" lon="6.73014">
        <ele>515.79052734375</ele>
        <time>2010-03-28T08:26:54Z</time>
      </trkpt>
      <trkpt lat="43.66066" lon="6.73022">
        <ele>515.36639404297</ele>
        <time>2010-03-28T08:26:57Z</time>
      </trkpt>
      <trkpt lat="43.66064" lon="6.73044">
        <ele>514.37353515625</ele>
        <time>2010-03-28T08:27:02Z</time>
      </trkpt>
      <trkpt lat="43.66061" lon="6.73056">
        <ele>513.97833251953</ele>
        <time>2010-03-28T08:27:04Z</time>
      </trkpt>
      <trkpt lat="43.66055" lon="6.73081">
        <ele>513.17193603516</ele>
        <time>2010-03-28T08:27:11Z</time>
      </trkpt>
      <trkpt lat="43.66045" lon="6.73086">
        <ele>513.65734863281</ele>
        <time>2010-03-28T08:27:16Z</time>
      </trkpt>
      <trkpt lat="43.66037" lon="6.73087">
        <ele>514.22283935547</ele>
        <time>2010-03-28T08:27:22Z</time>
      </trkpt>
      <trkpt lat="43.66027" lon="6.73094">
        <ele>514.85961914062</ele>
        <time>2010-03-28T08:27:28Z</time>
      </trkpt>
      <trkpt lat="43.66016" lon="6.73104">
        <ele>515.62274169922</ele>
        <time>2010-03-28T08:27:34Z</time>
      </trkpt>
      <trkpt lat="43.66001" lon="6.73114">
        <ele>516.93292236328</ele>
        <time>2010-03-28T08:27:40Z</time>
      </trkpt>
      <trkpt lat="43.65998" lon="6.73116">
        <ele>517.06134033203</ele>
        <time>2010-03-28T08:27:41Z</time>
      </trkpt>
      <trkpt lat="43.65984" lon="6.7312">
        <ele>517.39691162109</ele>
        <time>2010-03-28T08:27:46Z</time>
      </trkpt>
      <trkpt lat="43.65982" lon="6.73121">
        <ele>517.44207763672</ele>
        <time>2010-03-28T08:27:49Z</time>
      </trkpt>
      <trkpt lat="43.65973" lon="6.73128">
        <ele>517.62823486328</ele>
        <time>2010-03-28T08:27:55Z</time>
      </trkpt>
      <trkpt lat="43.65965" lon="6.73135">
        <ele>517.73968505859</ele>
        <time>2010-03-28T08:28:00Z</time>
      </trkpt>
      <trkpt lat="43.65961" lon="6.73138">
        <ele>517.79840087891</ele>
        <time>2010-03-28T08:28:02Z</time>
      </trkpt>
      <trkpt lat="43.65951" lon="6.73141">
        <ele>517.94909667969</ele>
        <time>2010-03-28T08:28:06Z</time>
      </trkpt>
      <trkpt lat="43.65931" lon="6.73151">
        <ele>518.14758300781</ele>
        <time>2010-03-28T08:28:13Z</time>
      </trkpt>
      <trkpt lat="43.65916" lon="6.73154">
        <ele>518.27471923828</ele>
        <time>2010-03-28T08:28:18Z</time>
      </trkpt>
      <trkpt lat="43.65897" lon="6.73149">
        <ele>517.32366943359</ele>
        <time>2010-03-28T08:28:24Z</time>
      </trkpt>
      <trkpt lat="43.65879" lon="6.73146">
        <ele>516.57995605469</ele>
        <time>2010-03-28T08:28:30Z</time>
      </trkpt>
      <trkpt lat="43.65859" lon="6.73148">
        <ele>515.36767578125</ele>
        <time>2010-03-28T08:28:36Z</time>
      </trkpt>
      <trkpt lat="43.65833" lon="6.7315">
        <ele>513.75823974609</ele>
        <time>2010-03-28T08:28:43Z</time>
      </trkpt>
      <trkpt lat="43.65814" lon="6.73152">
        <ele>513.88903808594</ele>
        <time>2010-03-28T08:28:48Z</time>
      </trkpt>
      <trkpt lat="43.658" lon="6.73152">
        <ele>514.00268554688</ele>
        <time>2010-03-28T08:28:51Z</time>
      </trkpt>
      <trkpt lat="43.6577" lon="6.73153">
        <ele>514.35925292969</ele>
        <time>2010-03-28T08:28:57Z</time>
      </trkpt>
      <trkpt lat="43.65743" lon="6.73144">
        <ele>515.95739746094</ele>
        <time>2010-03-28T08:29:03Z</time>
      </trkpt>
      <trkpt lat="43.65725" lon="6.73149">
        <ele>515.85424804688</ele>
        <time>2010-03-28T08:29:07Z</time>
      </trkpt>
      <trkpt lat="43.65713" lon="6.73161">
        <ele>515.0146484375</ele>
        <time>2010-03-28T08:29:10Z</time>
      </trkpt>
      <trkpt lat="43.6569" lon="6.73177">
        <ele>514.02374267578</ele>
        <time>2010-03-28T08:29:15Z</time>
      </trkpt>
      <trkpt lat="43.65673" lon="6.73195">
        <ele>512.68572998047</ele>
        <time>2010-03-28T08:29:20Z</time>
      </trkpt>
      <trkpt lat="43.65665" lon="6.73208">
        <ele>511.43344116211</ele>
        <time>2010-03-28T08:29:23Z</time>
      </trkpt>
      <trkpt lat="43.65651" lon="6.73222">
        <ele>509.34628295898</ele>
        <time>2010-03-28T08:29:27Z</time>
      </trkpt>
      <trkpt lat="43.65639" lon="6.73231">
        <ele>507.99020385742</ele>
        <time>2010-03-28T08:29:30Z</time>
      </trkpt>
      <trkpt lat="43.6561" lon="6.73254">
        <ele>505.35604858398</ele>
        <time>2010-03-28T08:29:37Z</time>
      </trkpt>
      <trkpt lat="43.65587" lon="6.73275">
        <ele>503.57986450195</ele>
        <time>2010-03-28T08:29:43Z</time>
      </trkpt>
      <trkpt lat="43.65564" lon="6.73292">
        <ele>501.6572265625</ele>
        <time>2010-03-28T08:29:48Z</time>
      </trkpt>
      <trkpt lat="43.65554" lon="6.73295">
        <ele>501.14129638672</ele>
        <time>2010-03-28T08:29:50Z</time>
      </trkpt>
      <trkpt lat="43.65514" lon="6.733">
        <ele>499.49911499023</ele>
        <time>2010-03-28T08:29:57Z</time>
      </trkpt>
      <trkpt lat="43.65481" lon="6.73305">
        <ele>497.26342773438</ele>
        <time>2010-03-28T08:30:03Z</time>
      </trkpt>
      <trkpt lat="43.65477" lon="6.73306">
        <ele>496.88623046875</ele>
        <time>2010-03-28T08:30:04Z</time>
      </trkpt>
      <trkpt lat="43.65455" lon="6.73306">
        <ele>494.89126586914</ele>
        <time>2010-03-28T08:30:09Z</time>
      </trkpt>
      <trkpt lat="43.65446" lon="6.73301">
        <ele>493.97006225586</ele>
        <time>2010-03-28T08:30:12Z</time>
      </trkpt>
      <trkpt lat="43.65437" lon="6.73299">
        <ele>493.06994628906</ele>
        <time>2010-03-28T08:30:14Z</time>
      </trkpt>
      <trkpt lat="43.65407" lon="6.73303">
        <ele>490.31225585938</ele>
        <time>2010-03-28T08:30:20Z</time>
      </trkpt>
      <trkpt lat="43.65395" lon="6.73306">
        <ele>489.17837524414</ele>
        <time>2010-03-28T08:30:23Z</time>
      </trkpt>
      <trkpt lat="43.65388" lon="6.73307">
        <ele>488.47158813477</ele>
        <time>2010-03-28T08:30:28Z</time>
      </trkpt>
      <trkpt lat="43.65388" lon="6.73307">
        <ele>488.5244140625</ele>
        <time>2010-03-28T08:30:35Z</time>
      </trkpt>
      <trkpt lat="43.65389" lon="6.73307">
        <ele>488.58584594727</ele>
        <time>2010-03-28T08:30:44Z</time>
      </trkpt>
      <trkpt lat="43.65388" lon="6.7332">
        <ele>488.84228515625</ele>
        <time>2010-03-28T08:31:11Z</time>
      </trkpt>
      <trkpt lat="43.6538" lon="6.73328">
        <ele>488.28979492188</ele>
        <time>2010-03-28T08:31:15Z</time>
      </trkpt>
      <trkpt lat="43.65369" lon="6.7334">
        <ele>487.63790893555</ele>
        <time>2010-03-28T08:31:18Z</time>
      </trkpt>
      <trkpt lat="43.65355" lon="6.73333">
        <ele>486.06997680664</ele>
        <time>2010-03-28T08:31:22Z</time>
      </trkpt>
      <trkpt lat="43.65347" lon="6.7333">
        <ele>485.15365600586</ele>
        <time>2010-03-28T08:31:24Z</time>
      </trkpt>
      <trkpt lat="43.65329" lon="6.73323">
        <ele>483.20547485352</ele>
        <time>2010-03-28T08:31:28Z</time>
      </trkpt>
      <trkpt lat="43.6532" lon="6.73317">
        <ele>482.06521606445</ele>
        <time>2010-03-28T08:31:30Z</time>
      </trkpt>
      <trkpt lat="43.65302" lon="6.73303">
        <ele>479.42132568359</ele>
        <time>2010-03-28T08:31:34Z</time>
      </trkpt>
      <trkpt lat="43.65268" lon="6.7328">
        <ele>474.25686645508</ele>
        <time>2010-03-28T08:31:40Z</time>
      </trkpt>
      <trkpt lat="43.65227" lon="6.73253">
        <ele>468.26007080078</ele>
        <time>2010-03-28T08:31:46Z</time>
      </trkpt>
      <trkpt lat="43.65204" lon="6.73236">
        <ele>465.30700683594</ele>
        <time>2010-03-28T08:31:50Z</time>
      </trkpt>
      <trkpt lat="43.65178" lon="6.73231">
        <ele>462.93087768555</ele>
        <time>2010-03-28T08:31:55Z</time>
      </trkpt>
      <trkpt lat="43.65172" lon="6.73229">
        <ele>462.4455871582</ele>
        <time>2010-03-28T08:31:56Z</time>
      </trkpt>
      <trkpt lat="43.65138" lon="6.73224">
        <ele>458.70626831055</ele>
        <time>2010-03-28T08:32:01Z</time>
      </trkpt>
      <trkpt lat="43.65112" lon="6.73223">
        <ele>455.76971435547</ele>
        <time>2010-03-28T08:32:05Z</time>
      </trkpt>
      <trkpt lat="43.65085" lon="6.73221">
        <ele>452.81942749023</ele>
        <time>2010-03-28T08:32:10Z</time>
      </trkpt>
      <trkpt lat="43.65081" lon="6.73221">
        <ele>452.40850830078</ele>
        <time>2010-03-28T08:32:11Z</time>
      </trkpt>
      <trkpt lat="43.65069" lon="6.73219">
        <ele>451.35366821289</ele>
        <time>2010-03-28T08:32:14Z</time>
      </trkpt>
      <trkpt lat="43.65045" lon="6.73223">
        <ele>449.59634399414</ele>
        <time>2010-03-28T08:32:18Z</time>
      </trkpt>
      <trkpt lat="43.65014" lon="6.73222">
        <ele>447.05987548828</ele>
        <time>2010-03-28T08:32:23Z</time>
      </trkpt>
      <trkpt lat="43.64989" lon="6.73218">
        <ele>445.17477416992</ele>
        <time>2010-03-28T08:32:29Z</time>
      </trkpt>
      <trkpt lat="43.6497" lon="6.73222">
        <ele>444.06631469727</ele>
        <time>2010-03-28T08:32:35Z</time>
      </trkpt>
      <trkpt lat="43.64954" lon="6.73222">
        <ele>443.05316162109</ele>
        <time>2010-03-28T08:32:38Z</time>
      </trkpt>
      <trkpt lat="43.64926" lon="6.73227">
        <ele>441.31573486328</ele>
        <time>2010-03-28T08:32:42Z</time>
      </trkpt>
      <trkpt lat="43.64902" lon="6.73233">
        <ele>440.65133666992</ele>
        <time>2010-03-28T08:32:45Z</time>
      </trkpt>
      <trkpt lat="43.64876" lon="6.73248">
        <ele>440.49526977539</ele>
        <time>2010-03-28T08:32:49Z</time>
      </trkpt>
      <trkpt lat="43.64862" lon="6.73255">
        <ele>440.39413452148</ele>
        <time>2010-03-28T08:32:52Z</time>
      </trkpt>
      <trkpt lat="43.64843" lon="6.73263">
        <ele>440.14529418945</ele>
        <time>2010-03-28T08:32:57Z</time>
      </trkpt>
      <trkpt lat="43.64827" lon="6.7327">
        <ele>440</ele>
        <time>2010-03-28T08:33:01Z</time>
      </trkpt>
      <trkpt lat="43.64812" lon="6.73275">
        <ele>440</ele>
        <time>2010-03-28T08:33:08Z</time>
      </trkpt>
      <trkpt lat="43.64801" lon="6.7328">
        <ele>440</ele>
        <time>2010-03-28T08:33:12Z</time>
      </trkpt>
      <trkpt lat="43.6479" lon="6.73283">
        <ele>440</ele>
        <time>2010-03-28T08:33:16Z</time>
      </trkpt>
      <trkpt lat="43.64782" lon="6.73286">
        <ele>440</ele>
        <time>2010-03-28T08:33:19Z</time>
      </trkpt>
      <trkpt lat="43.64766" lon="6.7329">
        <ele>440</ele>
        <time>2010-03-28T08:33:26Z</time>
      </trkpt>
      <trkpt lat="43.64743" lon="6.73294">
        <ele>439.64721679688</ele>
        <time>2010-03-28T08:33:31Z</time>
      </trkpt>
      <trkpt lat="43.64714" lon="6.73297">
        <ele>438.10894775391</ele>
        <time>2010-03-28T08:33:37Z</time>
      </trkpt>
      <trkpt lat="43.64704" lon="6.733">
        <ele>437.57553100586</ele>
        <time>2010-03-28T08:33:39Z</time>
      </trkpt>
      <trkpt lat="43.64694" lon="6.73305">
        <ele>437.07122802734</ele>
        <time>2010-03-28T08:33:41Z</time>
      </trkpt>
      <trkpt lat="43.64673" lon="6.73308">
        <ele>436.0100402832</ele>
        <time>2010-03-28T08:33:45Z</time>
      </trkpt>
      <trkpt lat="43.64642" lon="6.73319">
        <ele>433.49786376953</ele>
        <time>2010-03-28T08:33:51Z</time>
      </trkpt>
      <trkpt lat="43.64625" lon="6.73324">
        <ele>431.90655517578</ele>
        <time>2010-03-28T08:33:55Z</time>
      </trkpt>
      <trkpt lat="43.64603" lon="6.73327">
        <ele>429.82086181641</ele>
        <time>2010-03-28T08:34:00Z</time>
      </trkpt>
      <trkpt lat="43.64585" lon="6.7333">
        <ele>428.09796142578</ele>
        <time>2010-03-28T08:34:04Z</time>
      </trkpt>
      <trkpt lat="43.64574" lon="6.73332">
        <ele>427.20938110352</ele>
        <time>2010-03-28T08:34:06Z</time>
      </trkpt>
      <trkpt lat="43.64543" lon="6.73333">
        <ele>424.59301757812</ele>
        <time>2010-03-28T08:34:11Z</time>
      </trkpt>
      <trkpt lat="43.64509" lon="6.73334">
        <ele>421.74456787109</ele>
        <time>2010-03-28T08:34:16Z</time>
      </trkpt>
      <trkpt lat="43.6447" lon="6.73328">
        <ele>420.70611572266</ele>
        <time>2010-03-28T08:34:21Z</time>
      </trkpt>
      <trkpt lat="43.6445" lon="6.73337">
        <ele>420.36413574219</ele>
        <time>2010-03-28T08:34:25Z</time>
      </trkpt>
      <trkpt lat="43.64432" lon="6.7335">
        <ele>419.89633178711</ele>
        <time>2010-03-28T08:34:29Z</time>
      </trkpt>
      <trkpt lat="43.64403" lon="6.73372">
        <ele>418.05731201172</ele>
        <time>2010-03-28T08:34:35Z</time>
      </trkpt>
      <trkpt lat="43.64399" lon="6.73375">
        <ele>417.6330871582</ele>
        <time>2010-03-28T08:34:36Z</time>
      </trkpt>
      <trkpt lat="43.6438" lon="6.73384">
        <ele>415.71835327148</ele>
        <time>2010-03-28T08:34:41Z</time>
      </trkpt>
      <trkpt lat="43.64371" lon="6.73385">
        <ele>414.93252563477</ele>
        <time>2010-03-28T08:34:45Z</time>
      </trkpt>
      <trkpt lat="43.64363" lon="6.73387">
        <ele>414.09750366211</ele>
        <time>2010-03-28T08:34:49Z</time>
      </trkpt>
      <trkpt lat="43.64361" lon="6.73387">
        <ele>413.89990234375</ele>
        <time>2010-03-28T08:34:50Z</time>
      </trkpt>
      <trkpt lat="43.64347" lon="6.73387">
        <ele>412.74722290039</ele>
        <time>2010-03-28T08:34:54Z</time>
      </trkpt>
      <trkpt lat="43.6434" lon="6.73385">
        <ele>412.18310546875</ele>
        <time>2010-03-28T08:34:56Z</time>
      </trkpt>
      <trkpt lat="43.64336" lon="6.73385">
        <ele>411.9013671875</ele>
        <time>2010-03-28T08:34:57Z</time>
      </trkpt>
      <trkpt lat="43.64329" lon="6.73386">
        <ele>411.41946411133</ele>
        <time>2010-03-28T08:34:59Z</time>
      </trkpt>
      <trkpt lat="43.64326" lon="6.73387">
        <ele>411.25811767578</ele>
        <time>2010-03-28T08:35:00Z</time>
      </trkpt>
      <trkpt lat="43.64307" lon="6.73392">
        <ele>410.21322631836</ele>
        <time>2010-03-28T08:35:05Z</time>
      </trkpt>
      <trkpt lat="43.64291" lon="6.73395">
        <ele>409.42291259766</ele>
        <time>2010-03-28T08:35:09Z</time>
      </trkpt>
      <trkpt lat="43.64276" lon="6.73395">
        <ele>408.93765258789</ele>
        <time>2010-03-28T08:35:13Z</time>
      </trkpt>
      <trkpt lat="43.64255" lon="6.73393">
        <ele>408.39764404297</ele>
        <time>2010-03-28T08:35:18Z</time>
      </trkpt>
      <trkpt lat="43.6424" lon="6.73388">
        <ele>408.05865478516</ele>
        <time>2010-03-28T08:35:23Z</time>
      </trkpt>
      <trkpt lat="43.64238" lon="6.73389">
        <ele>407.78167724609</ele>
        <time>2010-03-28T08:35:29Z</time>
      </trkpt>
      <trkpt lat="43.6424" lon="6.73393">
        <ele>407.52069091797</ele>
        <time>2010-03-28T08:35:36Z</time>
      </trkpt>
      <trkpt lat="43.64241" lon="6.73399">
        <ele>407.10498046875</ele>
        <time>2010-03-28T08:35:45Z</time>
      </trkpt>
      <trkpt lat="43.64242" lon="6.734">
        <ele>407.10296630859</ele>
        <time>2010-03-28T08:35:51Z</time>
      </trkpt>
      <trkpt lat="43.64244" lon="6.73399">
        <ele>407.26260375977</ele>
        <time>2010-03-28T08:35:59Z</time>
      </trkpt>
      <trkpt lat="43.64245" lon="6.73401">
        <ele>407.20230102539</ele>
        <time>2010-03-28T08:36:09Z</time>
      </trkpt>
      <trkpt lat="43.64244" lon="6.73403">
        <ele>406.96697998047</ele>
        <time>2010-03-28T08:36:12Z</time>
      </trkpt>
      <trkpt lat="43.64233" lon="6.73406">
        <ele>405.96649169922</ele>
        <time>2010-03-28T08:36:17Z</time>
      </trkpt>
      <trkpt lat="43.64215" lon="6.73411">
        <ele>404.37313842773</ele>
        <time>2010-03-28T08:36:21Z</time>
      </trkpt>
      <trkpt lat="43.64197" lon="6.73421">
        <ele>402.61953735352</ele>
        <time>2010-03-28T08:36:24Z</time>
      </trkpt>
      <trkpt lat="43.64167" lon="6.73436">
        <ele>400.57849121094</ele>
        <time>2010-03-28T08:36:28Z</time>
      </trkpt>
      <trkpt lat="43.64144" lon="6.73444">
        <ele>398.55639648438</ele>
        <time>2010-03-28T08:36:32Z</time>
      </trkpt>
      <trkpt lat="43.64134" lon="6.73447">
        <ele>397.6572265625</ele>
        <time>2010-03-28T08:36:35Z</time>
      </trkpt>
      <trkpt lat="43.64118" lon="6.73453">
        <ele>396.1067199707</ele>
        <time>2010-03-28T08:36:41Z</time>
      </trkpt>
      <trkpt lat="43.64091" lon="6.73464">
        <ele>393.41302490234</ele>
        <time>2010-03-28T08:36:46Z</time>
      </trkpt>
      <trkpt lat="43.64067" lon="6.7347">
        <ele>391.16192626953</ele>
        <time>2010-03-28T08:36:50Z</time>
      </trkpt>
      <trkpt lat="43.64026" lon="6.73483">
        <ele>386.908203125</ele>
        <time>2010-03-28T08:36:55Z</time>
      </trkpt>
      <trkpt lat="43.63969" lon="6.73506">
        <ele>381.88543701172</ele>
        <time>2010-03-28T08:37:02Z</time>
      </trkpt>
      <trkpt lat="43.63929" lon="6.73521">
        <ele>380.44348144531</ele>
        <time>2010-03-28T08:37:07Z</time>
      </trkpt>
      <trkpt lat="43.63909" lon="6.73531">
        <ele>379.56317138672</ele>
        <time>2010-03-28T08:37:10Z</time>
      </trkpt>
      <trkpt lat="43.63875" lon="6.73558">
        <ele>376.58447265625</ele>
        <time>2010-03-28T08:37:15Z</time>
      </trkpt>
      <trkpt lat="43.63844" lon="6.73583">
        <ele>372.2272644043</ele>
        <time>2010-03-28T08:37:20Z</time>
      </trkpt>
      <trkpt lat="43.63831" lon="6.73613">
        <ele>370.77490234375</ele>
        <time>2010-03-28T08:37:24Z</time>
      </trkpt>
      <trkpt lat="43.63838" lon="6.73626">
        <ele>371.55471801758</ele>
        <time>2010-03-28T08:37:26Z</time>
      </trkpt>
      <trkpt lat="43.63842" lon="6.73637">
        <ele>372.00442504883</ele>
        <time>2010-03-28T08:37:28Z</time>
      </trkpt>
      <trkpt lat="43.63846" lon="6.73675">
        <ele>373.06842041016</ele>
        <time>2010-03-28T08:37:34Z</time>
      </trkpt>
      <trkpt lat="43.63847" lon="6.7369">
        <ele>374.07000732422</ele>
        <time>2010-03-28T08:37:37Z</time>
      </trkpt>
      <trkpt lat="43.63851" lon="6.73706">
        <ele>375.54299926758</ele>
        <time>2010-03-28T08:37:41Z</time>
      </trkpt>
      <trkpt lat="43.63848" lon="6.73718">
        <ele>376.09274291992</ele>
        <time>2010-03-28T08:37:45Z</time>
      </trkpt>
      <trkpt lat="43.63843" lon="6.73734">
        <ele>376.62966918945</ele>
        <time>2010-03-28T08:37:51Z</time>
      </trkpt>
      <trkpt lat="43.63838" lon="6.73738">
        <ele>376.47323608398</ele>
        <time>2010-03-28T08:37:53Z</time>
      </trkpt>
      <trkpt lat="43.6383" lon="6.73747">
        <ele>376.42999267578</ele>
        <time>2010-03-28T08:37:58Z</time>
      </trkpt>
      <trkpt lat="43.63828" lon="6.7375">
        <ele>376.40374755859</ele>
        <time>2010-03-28T08:38:07Z</time>
      </trkpt>
      <trkpt lat="43.63826" lon="6.7375">
        <ele>376.21069335938</ele>
        <time>2010-03-28T08:38:11Z</time>
      </trkpt>
      <trkpt lat="43.63819" lon="6.73757">
        <ele>375.58123779297</ele>
        <time>2010-03-28T08:38:15Z</time>
      </trkpt>
      <trkpt lat="43.63807" lon="6.73772">
        <ele>374.67028808594</ele>
        <time>2010-03-28T08:38:20Z</time>
      </trkpt>
      <trkpt lat="43.63805" lon="6.73773">
        <ele>374.49407958984</ele>
        <time>2010-03-28T08:38:21Z</time>
      </trkpt>
      <trkpt lat="43.63791" lon="6.73774">
        <ele>372.95367431641</ele>
        <time>2010-03-28T08:38:25Z</time>
      </trkpt>
      <trkpt lat="43.63774" lon="6.73774">
        <ele>371.14895629883</ele>
        <time>2010-03-28T08:38:30Z</time>
      </trkpt>
      <trkpt lat="43.63767" lon="6.73796">
        <ele>370.96472167969</ele>
        <time>2010-03-28T08:38:35Z</time>
      </trkpt>
      <trkpt lat="43.63766" lon="6.73804">
        <ele>370.99444580078</ele>
        <time>2010-03-28T08:38:37Z</time>
      </trkpt>
      <trkpt lat="43.63766" lon="6.73831">
        <ele>371.71771240234</ele>
        <time>2010-03-28T08:38:42Z</time>
      </trkpt>
      <trkpt lat="43.6377" lon="6.73852">
        <ele>371.91586303711</ele>
        <time>2010-03-28T08:38:46Z</time>
      </trkpt>
      <trkpt lat="43.63771" lon="6.73879">
        <ele>371.63208007812</ele>
        <time>2010-03-28T08:38:52Z</time>
      </trkpt>
      <trkpt lat="43.63771" lon="6.73881">
        <ele>371.60186767578</ele>
        <time>2010-03-28T08:38:53Z</time>
      </trkpt>
      <trkpt lat="43.63776" lon="6.73893">
        <ele>371.86911010742</ele>
        <time>2010-03-28T08:38:58Z</time>
      </trkpt>
      <trkpt lat="43.63774" lon="6.73899">
        <ele>371.62045288086</ele>
        <time>2010-03-28T08:39:00Z</time>
      </trkpt>
      <trkpt lat="43.63767" lon="6.73925">
        <ele>370.4953918457</ele>
        <time>2010-03-28T08:39:05Z</time>
      </trkpt>
      <trkpt lat="43.63765" lon="6.73947">
        <ele>370.04592895508</ele>
        <time>2010-03-28T08:39:08Z</time>
      </trkpt>
      <trkpt lat="43.63771" lon="6.73971">
        <ele>370.20422363281</ele>
        <time>2010-03-28T08:39:13Z</time>
      </trkpt>
      <trkpt lat="43.63769" lon="6.73982">
        <ele>369.87280273438</ele>
        <time>2010-03-28T08:39:16Z</time>
      </trkpt>
      <trkpt lat="43.63761" lon="6.74002">
        <ele>368.95056152344</ele>
        <time>2010-03-28T08:39:21Z</time>
      </trkpt>
      <trkpt lat="43.63757" lon="6.74016">
        <ele>368.77017211914</ele>
        <time>2010-03-28T08:39:26Z</time>
      </trkpt>
      <trkpt lat="43.63749" lon="6.7403">
        <ele>368.29843139648</ele>
        <time>2010-03-28T08:39:30Z</time>
      </trkpt>
      <trkpt lat="43.63745" lon="6.74045">
        <ele>368.07470703125</ele>
        <time>2010-03-28T08:39:34Z</time>
      </trkpt>
      <trkpt lat="43.63731" lon="6.74078">
        <ele>367.28890991211</ele>
        <time>2010-03-28T08:39:40Z</time>
      </trkpt>
      <trkpt lat="43.63728" lon="6.74088">
        <ele>367.23016357422</ele>
        <time>2010-03-28T08:39:42Z</time>
      </trkpt>
      <trkpt lat="43.63721" lon="6.74101">
        <ele>366.96807861328</ele>
        <time>2010-03-28T08:39:45Z</time>
      </trkpt>
      <trkpt lat="43.63714" lon="6.74125">
        <ele>366.97152709961</ele>
        <time>2010-03-28T08:39:50Z</time>
      </trkpt>
      <trkpt lat="43.63707" lon="6.74147">
        <ele>366.87423706055</ele>
        <time>2010-03-28T08:39:54Z</time>
      </trkpt>
      <trkpt lat="43.637" lon="6.74175">
        <ele>367.03903198242</ele>
        <time>2010-03-28T08:39:59Z</time>
      </trkpt>
      <trkpt lat="43.637" lon="6.74179">
        <ele>367.10998535156</ele>
        <time>2010-03-28T08:40:00Z</time>
      </trkpt>
      <trkpt lat="43.637" lon="6.74181">
        <ele>367.12142944336</ele>
        <time>2010-03-28T08:40:02Z</time>
      </trkpt>
      <trkpt lat="43.63697" lon="6.74192">
        <ele>367.15005493164</ele>
        <time>2010-03-28T08:40:06Z</time>
      </trkpt>
      <trkpt lat="43.63701" lon="6.7421">
        <ele>367.94540405273</ele>
        <time>2010-03-28T08:40:12Z</time>
      </trkpt>
      <trkpt lat="43.63703" lon="6.74222">
        <ele>368.40203857422</ele>
        <time>2010-03-28T08:40:16Z</time>
      </trkpt>
      <trkpt lat="43.63699" lon="6.74244">
        <ele>368.54623413086</ele>
        <time>2010-03-28T08:40:20Z</time>
      </trkpt>
      <trkpt lat="43.63697" lon="6.74255">
        <ele>368.66479492188</ele>
        <time>2010-03-28T08:40:24Z</time>
      </trkpt>
      <trkpt lat="43.63696" lon="6.74256">
        <ele>368.6149597168</ele>
        <time>2010-03-28T08:40:25Z</time>
      </trkpt>
      <trkpt lat="43.63688" lon="6.74269">
        <ele>368.37380981445</ele>
        <time>2010-03-28T08:40:31Z</time>
      </trkpt>
      <trkpt lat="43.63679" lon="6.74277">
        <ele>367.95751953125</ele>
        <time>2010-03-28T08:40:34Z</time>
      </trkpt>
      <trkpt lat="43.63669" lon="6.74295">
        <ele>367.81661987305</ele>
        <time>2010-03-28T08:40:40Z</time>
      </trkpt>
      <trkpt lat="43.63668" lon="6.74301">
        <ele>367.92230224609</ele>
        <time>2010-03-28T08:40:43Z</time>
      </trkpt>
      <trkpt lat="43.63661" lon="6.74317">
        <ele>369.22534179688</ele>
        <time>2010-03-28T08:40:49Z</time>
      </trkpt>
      <trkpt lat="43.63658" lon="6.74324">
        <ele>369.87512207031</ele>
        <time>2010-03-28T08:40:51Z</time>
      </trkpt>
      <trkpt lat="43.63652" lon="6.74336">
        <ele>371.04272460938</ele>
        <time>2010-03-28T08:40:55Z</time>
      </trkpt>
      <trkpt lat="43.63647" lon="6.74366">
        <ele>372.26721191406</ele>
        <time>2010-03-28T08:41:01Z</time>
      </trkpt>
      <trkpt lat="43.63652" lon="6.74384">
        <ele>372.09552001953</ele>
        <time>2010-03-28T08:41:05Z</time>
      </trkpt>
      <trkpt lat="43.63655" lon="6.74397">
        <ele>372.00299072266</ele>
        <time>2010-03-28T08:41:08Z</time>
      </trkpt>
      <trkpt lat="43.63657" lon="6.74418">
        <ele>372.18798828125</ele>
        <time>2010-03-28T08:41:13Z</time>
      </trkpt>
      <trkpt lat="43.63662" lon="6.74443">
        <ele>372.15081787109</ele>
        <time>2010-03-28T08:41:18Z</time>
      </trkpt>
      <trkpt lat="43.63661" lon="6.74459">
        <ele>372.60021972656</ele>
        <time>2010-03-28T08:41:22Z</time>
      </trkpt>
      <trkpt lat="43.63658" lon="6.74473">
        <ele>373.26702880859</ele>
        <time>2010-03-28T08:41:27Z</time>
      </trkpt>
      <trkpt lat="43.63658" lon="6.7448">
        <ele>373.39691162109</ele>
        <time>2010-03-28T08:41:30Z</time>
      </trkpt>
      <trkpt lat="43.63658" lon="6.74484">
        <ele>373.5143737793</ele>
        <time>2010-03-28T08:41:31Z</time>
      </trkpt>
      <trkpt lat="43.63657" lon="6.74488">
        <ele>373.6330871582</ele>
        <time>2010-03-28T08:41:32Z</time>
      </trkpt>
      <trkpt lat="43.63655" lon="6.74509">
        <ele>374.28155517578</ele>
        <time>2010-03-28T08:41:37Z</time>
      </trkpt>
      <trkpt lat="43.63654" lon="6.74531">
        <ele>374.95031738281</ele>
        <time>2010-03-28T08:41:41Z</time>
      </trkpt>
      <trkpt lat="43.63652" lon="6.74548">
        <ele>375.43075561523</ele>
        <time>2010-03-28T08:41:45Z</time>
      </trkpt>
      <trkpt lat="43.63652" lon="6.7456">
        <ele>375.74444580078</ele>
        <time>2010-03-28T08:41:48Z</time>
      </trkpt>
      <trkpt lat="43.63659" lon="6.74584">
        <ele>375.63418579102</ele>
        <time>2010-03-28T08:41:53Z</time>
      </trkpt>
      <trkpt lat="43.63665" lon="6.74612">
        <ele>375.82015991211</ele>
        <time>2010-03-28T08:41:59Z</time>
      </trkpt>
      <trkpt lat="43.63667" lon="6.74633">
        <ele>376.20565795898</ele>
        <time>2010-03-28T08:42:04Z</time>
      </trkpt>
      <trkpt lat="43.63664" lon="6.74638">
        <ele>376.43341064453</ele>
        <time>2010-03-28T08:42:06Z</time>
      </trkpt>
      <trkpt lat="43.6366" lon="6.74645">
        <ele>376.7744140625</ele>
        <time>2010-03-28T08:42:11Z</time>
      </trkpt>
      <trkpt lat="43.63657" lon="6.74652">
        <ele>377.10000610352</ele>
        <time>2010-03-28T08:42:15Z</time>
      </trkpt>
      <trkpt lat="43.63646" lon="6.74671">
        <ele>377.82498168945</ele>
        <time>2010-03-28T08:42:22Z</time>
      </trkpt>
      <trkpt lat="43.63637" lon="6.74693">
        <ele>378.35546875</ele>
        <time>2010-03-28T08:42:28Z</time>
      </trkpt>
      <trkpt lat="43.63634" lon="6.74712">
        <ele>378.62817382812</ele>
        <time>2010-03-28T08:42:32Z</time>
      </trkpt>
      <trkpt lat="43.63629" lon="6.74727">
        <ele>378.82281494141</ele>
        <time>2010-03-28T08:42:37Z</time>
      </trkpt>
      <trkpt lat="43.63621" lon="6.74735">
        <ele>378.93856811523</ele>
        <time>2010-03-28T08:42:41Z</time>
      </trkpt>
      <trkpt lat="43.63602" lon="6.74746">
        <ele>379.01712036133</ele>
        <time>2010-03-28T08:42:47Z</time>
      </trkpt>
      <trkpt lat="43.63589" lon="6.74762">
        <ele>379.31552124023</ele>
        <time>2010-03-28T08:42:52Z</time>
      </trkpt>
      <trkpt lat="43.63584" lon="6.7477">
        <ele>379.47589111328</ele>
        <time>2010-03-28T08:42:55Z</time>
      </trkpt>
      <trkpt lat="43.63584" lon="6.74782">
        <ele>379.77517700195</ele>
        <time>2010-03-28T08:43:00Z</time>
      </trkpt>
      <trkpt lat="43.63587" lon="6.74786">
        <ele>379.90347290039</ele>
        <time>2010-03-28T08:43:02Z</time>
      </trkpt>
      <trkpt lat="43.63595" lon="6.74793">
        <ele>380.17254638672</ele>
        <time>2010-03-28T08:43:09Z</time>
      </trkpt>
      <trkpt lat="43.63603" lon="6.748">
        <ele>380.48098754883</ele>
        <time>2010-03-28T08:43:14Z</time>
      </trkpt>
      <trkpt lat="43.63605" lon="6.74802">
        <ele>380.58197021484</ele>
        <time>2010-03-28T08:43:16Z</time>
      </trkpt>
      <trkpt lat="43.63613" lon="6.74806">
        <ele>380.83306884766</ele>
        <time>2010-03-28T08:43:22Z</time>
      </trkpt>
      <trkpt lat="43.63617" lon="6.74806">
        <ele>380.8918762207</ele>
        <time>2010-03-28T08:43:24Z</time>
      </trkpt>
      <trkpt lat="43.63622" lon="6.74804">
        <ele>380.90414428711</ele>
        <time>2010-03-28T08:43:27Z</time>
      </trkpt>
      <trkpt lat="43.63631" lon="6.74802">
        <ele>380.96005249023</ele>
        <time>2010-03-28T08:43:31Z</time>
      </trkpt>
      <trkpt lat="43.63648" lon="6.74801">
        <ele>381.16000366211</ele>
        <time>2010-03-28T08:43:38Z</time>
      </trkpt>
      <trkpt lat="43.63659" lon="6.74797">
        <ele>381.17190551758</ele>
        <time>2010-03-28T08:43:44Z</time>
      </trkpt>
      <trkpt lat="43.63674" lon="6.74795">
        <ele>382.07604980469</ele>
        <time>2010-03-28T08:43:50Z</time>
      </trkpt>
      <trkpt lat="43.63687" lon="6.74794">
        <ele>383.50427246094</ele>
        <time>2010-03-28T08:43:55Z</time>
      </trkpt>
      <trkpt lat="43.63697" lon="6.74793">
        <ele>384.74710083008</ele>
        <time>2010-03-28T08:44:00Z</time>
      </trkpt>
      <trkpt lat="43.63714" lon="6.74794">
        <ele>386.8024597168</ele>
        <time>2010-03-28T08:44:07Z</time>
      </trkpt>
      <trkpt lat="43.63726" lon="6.74793">
        <ele>388.14141845703</ele>
        <time>2010-03-28T08:44:12Z</time>
      </trkpt>
      <trkpt lat="43.6373" lon="6.7479">
        <ele>388.49389648438</ele>
        <time>2010-03-28T08:44:14Z</time>
      </trkpt>
      <trkpt lat="43.63744" lon="6.74791">
        <ele>390.21737670898</ele>
        <time>2010-03-28T08:44:20Z</time>
      </trkpt>
      <trkpt lat="43.63746" lon="6.74791">
        <ele>390.52178955078</ele>
        <time>2010-03-28T08:44:21Z</time>
      </trkpt>
      <trkpt lat="43.63755" lon="6.74788">
        <ele>390.85250854492</ele>
        <time>2010-03-28T08:44:25Z</time>
      </trkpt>
      <trkpt lat="43.63765" lon="6.74789">
        <ele>390.94775390625</ele>
        <time>2010-03-28T08:44:29Z</time>
      </trkpt>
      <trkpt lat="43.63774" lon="6.74785">
        <ele>390.83212280273</ele>
        <time>2010-03-28T08:44:34Z</time>
      </trkpt>
      <trkpt lat="43.63787" lon="6.74779">
        <ele>390.69482421875</ele>
        <time>2010-03-28T08:44:41Z</time>
      </trkpt>
      <trkpt lat="43.63794" lon="6.74778">
        <ele>390.68252563477</ele>
        <time>2010-03-28T08:44:44Z</time>
      </trkpt>
      <trkpt lat="43.638" lon="6.74778">
        <ele>390.74411010742</ele>
        <time>2010-03-28T08:44:47Z</time>
      </trkpt>
      <trkpt lat="43.63807" lon="6.74786">
        <ele>391.11505126953</ele>
        <time>2010-03-28T08:44:51Z</time>
      </trkpt>
      <trkpt lat="43.63814" lon="6.74794">
        <ele>391.4645690918</ele>
        <time>2010-03-28T08:44:56Z</time>
      </trkpt>
      <trkpt lat="43.63824" lon="6.74804">
        <ele>391.91119384766</ele>
        <time>2010-03-28T08:45:01Z</time>
      </trkpt>
      <trkpt lat="43.63826" lon="6.74808">
        <ele>392.05294799805</ele>
        <time>2010-03-28T08:45:03Z</time>
      </trkpt>
      <trkpt lat="43.63828" lon="6.74809">
        <ele>392.08837890625</ele>
        <time>2010-03-28T08:45:05Z</time>
      </trkpt>
      <trkpt lat="43.63839" lon="6.7481">
        <ele>392.06451416016</ele>
        <time>2010-03-28T08:45:10Z</time>
      </trkpt>
      <trkpt lat="43.63847" lon="6.74811">
        <ele>391.91375732422</ele>
        <time>2010-03-28T08:45:13Z</time>
      </trkpt>
      <trkpt lat="43.63851" lon="6.74814">
        <ele>391.92041015625</ele>
        <time>2010-03-28T08:45:16Z</time>
      </trkpt>
      <trkpt lat="43.63857" lon="6.74825">
        <ele>392.15118408203</ele>
        <time>2010-03-28T08:45:21Z</time>
      </trkpt>
      <trkpt lat="43.6386" lon="6.74828">
        <ele>392.19003295898</ele>
        <time>2010-03-28T08:45:22Z</time>
      </trkpt>
      <trkpt lat="43.63876" lon="6.74849">
        <ele>392.35601806641</ele>
        <time>2010-03-28T08:45:28Z</time>
      </trkpt>
      <trkpt lat="43.6388" lon="6.74857">
        <ele>392.45098876953</ele>
        <time>2010-03-28T08:45:30Z</time>
      </trkpt>
      <trkpt lat="43.63878" lon="6.74886">
        <ele>393.19256591797</ele>
        <time>2010-03-28T08:45:36Z</time>
      </trkpt>
      <trkpt lat="43.63876" lon="6.74907">
        <ele>393.76248168945</ele>
        <time>2010-03-28T08:45:41Z</time>
      </trkpt>
      <trkpt lat="43.63877" lon="6.74929">
        <ele>394.24542236328</ele>
        <time>2010-03-28T08:45:45Z</time>
      </trkpt>
      <trkpt lat="43.63885" lon="6.7495">
        <ele>394.55328369141</ele>
        <time>2010-03-28T08:45:49Z</time>
      </trkpt>
      <trkpt lat="43.63894" lon="6.74964">
        <ele>394.69976806641</ele>
        <time>2010-03-28T08:45:53Z</time>
      </trkpt>
      <trkpt lat="43.63911" lon="6.74986">
        <ele>394.77758789062</ele>
        <time>2010-03-28T08:45:59Z</time>
      </trkpt>
      <trkpt lat="43.63923" lon="6.74995">
        <ele>394.73806762695</ele>
        <time>2010-03-28T08:46:02Z</time>
      </trkpt>
      <trkpt lat="43.63939" lon="6.75007">
        <ele>394.72436523438</ele>
        <time>2010-03-28T08:46:06Z</time>
      </trkpt>
      <trkpt lat="43.63945" lon="6.75008">
        <ele>394.61508178711</ele>
        <time>2010-03-28T08:46:08Z</time>
      </trkpt>
      <trkpt lat="43.63958" lon="6.75009">
        <ele>394.33126831055</ele>
        <time>2010-03-28T08:46:14Z</time>
      </trkpt>
      <trkpt lat="43.63964" lon="6.75012">
        <ele>394.31066894531</ele>
        <time>2010-03-28T08:46:17Z</time>
      </trkpt>
      <trkpt lat="43.63972" lon="6.75013">
        <ele>394.13327026367</ele>
        <time>2010-03-28T08:46:23Z</time>
      </trkpt>
      <trkpt lat="43.63977" lon="6.75009">
        <ele>393.86892700195</ele>
        <time>2010-03-28T08:46:27Z</time>
      </trkpt>
      <trkpt lat="43.63979" lon="6.75013">
        <ele>393.96276855469</ele>
        <time>2010-03-28T08:46:35Z</time>
      </trkpt>
      <trkpt lat="43.63977" lon="6.75019">
        <ele>394.22024536133</ele>
        <time>2010-03-28T08:46:39Z</time>
      </trkpt>
      <trkpt lat="43.63977" lon="6.75018">
        <ele>394.19393920898</ele>
        <time>2010-03-28T08:46:47Z</time>
      </trkpt>
      <trkpt lat="43.63977" lon="6.75019">
        <ele>394.24429321289</ele>
        <time>2010-03-28T08:46:51Z</time>
      </trkpt>
      <trkpt lat="43.63981" lon="6.75026">
        <ele>394.4016418457</ele>
        <time>2010-03-28T08:46:55Z</time>
      </trkpt>
      <trkpt lat="43.63986" lon="6.75045">
        <ele>394.95724487305</ele>
        <time>2010-03-28T08:47:02Z</time>
      </trkpt>
      <trkpt lat="43.63992" lon="6.75052">
        <ele>395.0556640625</ele>
        <time>2010-03-28T08:47:06Z</time>
      </trkpt>
      <trkpt lat="43.64" lon="6.75065">
        <ele>395.33074951172</ele>
        <time>2010-03-28T08:47:11Z</time>
      </trkpt>
      <trkpt lat="43.64014" lon="6.75072">
        <ele>395.43661499023</ele>
        <time>2010-03-28T08:47:17Z</time>
      </trkpt>
      <trkpt lat="43.64017" lon="6.75071">
        <ele>395.36221313477</ele>
        <time>2010-03-28T08:47:19Z</time>
      </trkpt>
      <trkpt lat="43.6403" lon="6.75084">
        <ele>395.64910888672</ele>
        <time>2010-03-28T08:47:25Z</time>
      </trkpt>
      <trkpt lat="43.64038" lon="6.75089">
        <ele>395.81161499023</ele>
        <time>2010-03-28T08:47:29Z</time>
      </trkpt>
      <trkpt lat="43.6404" lon="6.75087">
        <ele>395.71548461914</ele>
        <time>2010-03-28T08:47:31Z</time>
      </trkpt>
      <trkpt lat="43.64046" lon="6.75088">
        <ele>395.65368652344</ele>
        <time>2010-03-28T08:47:35Z</time>
      </trkpt>
      <trkpt lat="43.64057" lon="6.75095">
        <ele>395.8757019043</ele>
        <time>2010-03-28T08:47:41Z</time>
      </trkpt>
      <trkpt lat="43.64063" lon="6.75102">
        <ele>396.15264892578</ele>
        <time>2010-03-28T08:47:45Z</time>
      </trkpt>
      <trkpt lat="43.64079" lon="6.75116">
        <ele>396.62643432617</ele>
        <time>2010-03-28T08:47:51Z</time>
      </trkpt>
      <trkpt lat="43.64093" lon="6.75135">
        <ele>397.36480712891</ele>
        <time>2010-03-28T08:47:56Z</time>
      </trkpt>
      <trkpt lat="43.64109" lon="6.75159">
        <ele>398.11520385742</ele>
        <time>2010-03-28T08:48:02Z</time>
      </trkpt>
      <trkpt lat="43.64118" lon="6.75174">
        <ele>398.37106323242</ele>
        <time>2010-03-28T08:48:06Z</time>
      </trkpt>
      <trkpt lat="43.64128" lon="6.75177">
        <ele>398.1552734375</ele>
        <time>2010-03-28T08:48:10Z</time>
      </trkpt>
      <trkpt lat="43.64148" lon="6.75187">
        <ele>397.80392456055</ele>
        <time>2010-03-28T08:48:17Z</time>
      </trkpt>
      <trkpt lat="43.64161" lon="6.752">
        <ele>397.60638427734</ele>
        <time>2010-03-28T08:48:22Z</time>
      </trkpt>
      <trkpt lat="43.64179" lon="6.75216">
        <ele>397.86862182617</ele>
        <time>2010-03-28T08:48:29Z</time>
      </trkpt>
      <trkpt lat="43.64187" lon="6.75221">
        <ele>398.06274414062</ele>
        <time>2010-03-28T08:48:32Z</time>
      </trkpt>
      <trkpt lat="43.64197" lon="6.75244">
        <ele>398.34072875977</ele>
        <time>2010-03-28T08:48:40Z</time>
      </trkpt>
      <trkpt lat="43.64202" lon="6.75259">
        <ele>398.48873901367</ele>
        <time>2010-03-28T08:48:45Z</time>
      </trkpt>
      <trkpt lat="43.64209" lon="6.75276">
        <ele>398.6598815918</ele>
        <time>2010-03-28T08:48:51Z</time>
      </trkpt>
      <trkpt lat="43.64218" lon="6.753">
        <ele>398.84588623047</ele>
        <time>2010-03-28T08:48:57Z</time>
      </trkpt>
      <trkpt lat="43.64236" lon="6.75342">
        <ele>398.98178100586</ele>
        <time>2010-03-28T08:49:04Z</time>
      </trkpt>
      <trkpt lat="43.64251" lon="6.75381">
        <ele>399.01593017578</ele>
        <time>2010-03-28T08:49:10Z</time>
      </trkpt>
      <trkpt lat="43.64267" lon="6.75415">
        <ele>399.20361328125</ele>
        <time>2010-03-28T08:49:15Z</time>
      </trkpt>
      <trkpt lat="43.64289" lon="6.75434">
        <ele>399.46911621094</ele>
        <time>2010-03-28T08:49:19Z</time>
      </trkpt>
      <trkpt lat="43.64294" lon="6.75437">
        <ele>399.533203125</ele>
        <time>2010-03-28T08:49:20Z</time>
      </trkpt>
      <trkpt lat="43.64314" lon="6.75439">
        <ele>399.77124023438</ele>
        <time>2010-03-28T08:49:24Z</time>
      </trkpt>
      <trkpt lat="43.64335" lon="6.75451">
        <ele>400</ele>
        <time>2010-03-28T08:49:28Z</time>
      </trkpt>
      <trkpt lat="43.64343" lon="6.75461">
        <ele>400</ele>
        <time>2010-03-28T08:49:30Z</time>
      </trkpt>
      <trkpt lat="43.64359" lon="6.75481">
        <ele>400</ele>
        <time>2010-03-28T08:49:34Z</time>
      </trkpt>
      <trkpt lat="43.64367" lon="6.75492">
        <ele>400</ele>
        <time>2010-03-28T08:49:37Z</time>
      </trkpt>
      <trkpt lat="43.6438" lon="6.75513">
        <ele>400</ele>
        <time>2010-03-28T08:49:42Z</time>
      </trkpt>
      <trkpt lat="43.64389" lon="6.75543">
        <ele>400</ele>
        <time>2010-03-28T08:49:50Z</time>
      </trkpt>
      <trkpt lat="43.64394" lon="6.75566">
        <ele>400</ele>
        <time>2010-03-28T08:49:56Z</time>
      </trkpt>
      <trkpt lat="43.64404" lon="6.75593">
        <ele>400</ele>
        <time>2010-03-28T08:50:01Z</time>
      </trkpt>
      <trkpt lat="43.64412" lon="6.75619">
        <ele>400</ele>
        <time>2010-03-28T08:50:05Z</time>
      </trkpt>
      <trkpt lat="43.64421" lon="6.75645">
        <ele>400.04840087891</ele>
        <time>2010-03-28T08:50:10Z</time>
      </trkpt>
      <trkpt lat="43.64433" lon="6.75668">
        <ele>400.19946289062</ele>
        <time>2010-03-28T08:50:16Z</time>
      </trkpt>
      <trkpt lat="43.64437" lon="6.75693">
        <ele>400.24981689453</ele>
        <time>2010-03-28T08:50:22Z</time>
      </trkpt>
      <trkpt lat="43.64433" lon="6.75725">
        <ele>400.19946289062</ele>
        <time>2010-03-28T08:50:28Z</time>
      </trkpt>
      <trkpt lat="43.64431" lon="6.75738">
        <ele>400.17657470703</ele>
        <time>2010-03-28T08:50:30Z</time>
      </trkpt>
      <trkpt lat="43.64428" lon="6.75751">
        <ele>400.13995361328</ele>
        <time>2010-03-28T08:50:32Z</time>
      </trkpt>
      <trkpt lat="43.64424" lon="6.7578">
        <ele>400.08502197266</ele>
        <time>2010-03-28T08:50:36Z</time>
      </trkpt>
      <trkpt lat="43.64423" lon="6.75786">
        <ele>400.0712890625</ele>
        <time>2010-03-28T08:50:37Z</time>
      </trkpt>
      <trkpt lat="43.64413" lon="6.75797">
        <ele>400</ele>
        <time>2010-03-28T08:50:41Z</time>
      </trkpt>
      <trkpt lat="43.64404" lon="6.75808">
        <ele>400</ele>
        <time>2010-03-28T08:50:45Z</time>
      </trkpt>
      <trkpt lat="43.64406" lon="6.75811">
        <ele>400</ele>
        <time>2010-03-28T08:50:53Z</time>
      </trkpt>
      <trkpt lat="43.64407" lon="6.75816">
        <ele>400</ele>
        <time>2010-03-28T08:50:58Z</time>
      </trkpt>
      <trkpt lat="43.64403" lon="6.75822">
        <ele>400</ele>
        <time>2010-03-28T08:51:03Z</time>
      </trkpt>
      <trkpt lat="43.64402" lon="6.75835">
        <ele>400</ele>
        <time>2010-03-28T08:51:08Z</time>
      </trkpt>
      <trkpt lat="43.64404" lon="6.75848">
        <ele>400</ele>
        <time>2010-03-28T08:51:12Z</time>
      </trkpt>
      <trkpt lat="43.64409" lon="6.75864">
        <ele>400</ele>
        <time>2010-03-28T08:51:16Z</time>
      </trkpt>
      <trkpt lat="43.64417" lon="6.75881">
        <ele>400.00411987305</ele>
        <time>2010-03-28T08:51:21Z</time>
      </trkpt>
      <trkpt lat="43.64419" lon="6.75884">
        <ele>400.04104614258</ele>
        <time>2010-03-28T08:51:22Z</time>
      </trkpt>
      <trkpt lat="43.64422" lon="6.7589">
        <ele>400.10470581055</ele>
        <time>2010-03-28T08:51:24Z</time>
      </trkpt>
      <trkpt lat="43.64434" lon="6.75894">
        <ele>400.35205078125</ele>
        <time>2010-03-28T08:51:29Z</time>
      </trkpt>
      <trkpt lat="43.6445" lon="6.75894">
        <ele>400.68673706055</ele>
        <time>2010-03-28T08:51:36Z</time>
      </trkpt>
      <trkpt lat="43.64463" lon="6.75894">
        <ele>400.96875</ele>
        <time>2010-03-28T08:51:42Z</time>
      </trkpt>
      <trkpt lat="43.64477" lon="6.75894">
        <ele>401.24908447266</ele>
        <time>2010-03-28T08:51:47Z</time>
      </trkpt>
      <trkpt lat="43.64482" lon="6.75897">
        <ele>401.39196777344</ele>
        <time>2010-03-28T08:51:49Z</time>
      </trkpt>
      <trkpt lat="43.64488" lon="6.75904">
        <ele>401.5866394043</ele>
        <time>2010-03-28T08:51:54Z</time>
      </trkpt>
      <trkpt lat="43.64491" lon="6.75907">
        <ele>401.66986083984</ele>
        <time>2010-03-28T08:52:04Z</time>
      </trkpt>
      <trkpt lat="43.64492" lon="6.75912">
        <ele>401.74618530273</ele>
        <time>2010-03-28T08:52:10Z</time>
      </trkpt>
      <trkpt lat="43.64493" lon="6.75918">
        <ele>401.84182739258</ele>
        <time>2010-03-28T08:52:18Z</time>
      </trkpt>
      <trkpt lat="43.64493" lon="6.75919">
        <ele>401.86737060547</ele>
        <time>2010-03-28T08:52:22Z</time>
      </trkpt>
      <trkpt lat="43.64494" lon="6.75922">
        <ele>401.91091918945</ele>
        <time>2010-03-28T08:52:32Z</time>
      </trkpt>
      <trkpt lat="43.64495" lon="6.75923">
        <ele>401.95697021484</ele>
        <time>2010-03-28T08:52:36Z</time>
      </trkpt>
      <trkpt lat="43.64497" lon="6.75935">
        <ele>402.13641357422</ele>
        <time>2010-03-28T08:52:42Z</time>
      </trkpt>
      <trkpt lat="43.645" lon="6.75937">
        <ele>402.28372192383</ele>
        <time>2010-03-28T08:52:46Z</time>
      </trkpt>
      <trkpt lat="43.64509" lon="6.75934">
        <ele>402.97952270508</ele>
        <time>2010-03-28T08:52:55Z</time>
      </trkpt>
      <trkpt lat="43.6451" lon="6.75934">
        <ele>403.08193969727</ele>
        <time>2010-03-28T08:52:56Z</time>
      </trkpt>
      <trkpt lat="43.64513" lon="6.7594">
        <ele>403.37603759766</ele>
        <time>2010-03-28T08:53:01Z</time>
      </trkpt>
      <trkpt lat="43.64517" lon="6.7595">
        <ele>403.8132019043</ele>
        <time>2010-03-28T08:53:05Z</time>
      </trkpt>
      <trkpt lat="43.64528" lon="6.75961">
        <ele>404.90783691406</ele>
        <time>2010-03-28T08:53:12Z</time>
      </trkpt>
      <trkpt lat="43.64528" lon="6.75974">
        <ele>404.99710083008</ele>
        <time>2010-03-28T08:53:16Z</time>
      </trkpt>
      <trkpt lat="43.64526" lon="6.75977">
        <ele>404.90383911133</ele>
        <time>2010-03-28T08:53:17Z</time>
      </trkpt>
      <trkpt lat="43.64522" lon="6.75982">
        <ele>404.61486816406</ele>
        <time>2010-03-28T08:53:19Z</time>
      </trkpt>
      <trkpt lat="43.64519" lon="6.75994">
        <ele>404.49871826172</ele>
        <time>2010-03-28T08:53:23Z</time>
      </trkpt>
      <trkpt lat="43.64525" lon="6.76005">
        <ele>405.10601806641</ele>
        <time>2010-03-28T08:53:28Z</time>
      </trkpt>
      <trkpt lat="43.64523" lon="6.76011">
        <ele>404.99682617188</ele>
        <time>2010-03-28T08:53:31Z</time>
      </trkpt>
      <trkpt lat="43.64523" lon="6.76023">
        <ele>405.00399780273</ele>
        <time>2010-03-28T08:53:35Z</time>
      </trkpt>
      <trkpt lat="43.64526" lon="6.76036">
        <ele>405.31600952148</ele>
        <time>2010-03-28T08:53:40Z</time>
      </trkpt>
      <trkpt lat="43.64528" lon="6.7605">
        <ele>405.54400634766</ele>
        <time>2010-03-28T08:53:46Z</time>
      </trkpt>
      <trkpt lat="43.64534" lon="6.76047">
        <ele>406.05276489258</ele>
        <time>2010-03-28T08:53:50Z</time>
      </trkpt>
      <trkpt lat="43.64548" lon="6.76044">
        <ele>407.31454467773</ele>
        <time>2010-03-28T08:53:58Z</time>
      </trkpt>
      <trkpt lat="43.64557" lon="6.76044">
        <ele>408.1057434082</ele>
        <time>2010-03-28T08:54:03Z</time>
      </trkpt>
      <trkpt lat="43.64568" lon="6.76045">
        <ele>409.10906982422</ele>
        <time>2010-03-28T08:54:09Z</time>
      </trkpt>
      <trkpt lat="43.64581" lon="6.76041">
        <ele>410.30722045898</ele>
        <time>2010-03-28T08:54:16Z</time>
      </trkpt>
      <trkpt lat="43.64593" lon="6.76038">
        <ele>411.25305175781</ele>
        <time>2010-03-28T08:54:22Z</time>
      </trkpt>
      <trkpt lat="43.64602" lon="6.76039">
        <ele>412.03839111328</ele>
        <time>2010-03-28T08:54:27Z</time>
      </trkpt>
      <trkpt lat="43.64614" lon="6.76043">
        <ele>413.05770874023</ele>
        <time>2010-03-28T08:54:33Z</time>
      </trkpt>
      <trkpt lat="43.64629" lon="6.76052">
        <ele>414.35311889648</ele>
        <time>2010-03-28T08:54:40Z</time>
      </trkpt>
      <trkpt lat="43.64638" lon="6.76059">
        <ele>415.03759765625</ele>
        <time>2010-03-28T08:54:44Z</time>
      </trkpt>
      <trkpt lat="43.64649" lon="6.7607">
        <ele>415.8030090332</ele>
        <time>2010-03-28T08:54:49Z</time>
      </trkpt>
      <trkpt lat="43.64661" lon="6.76091">
        <ele>416.73187255859</ele>
        <time>2010-03-28T08:54:56Z</time>
      </trkpt>
      <trkpt lat="43.64668" lon="6.76107">
        <ele>417.77932739258</ele>
        <time>2010-03-28T08:55:01Z</time>
      </trkpt>
      <trkpt lat="43.64669" lon="6.7611">
        <ele>417.91317749023</ele>
        <time>2010-03-28T08:55:02Z</time>
      </trkpt>
      <trkpt lat="43.64669" lon="6.76126">
        <ele>418.29763793945</ele>
        <time>2010-03-28T08:55:07Z</time>
      </trkpt>
      <trkpt lat="43.64667" lon="6.76145">
        <ele>418.50018310547</ele>
        <time>2010-03-28T08:55:13Z</time>
      </trkpt>
      <trkpt lat="43.64668" lon="6.7616">
        <ele>419.06994628906</ele>
        <time>2010-03-28T08:55:17Z</time>
      </trkpt>
      <trkpt lat="43.64674" lon="6.76178">
        <ele>420.61669921875</ele>
        <time>2010-03-28T08:55:22Z</time>
      </trkpt>
      <trkpt lat="43.64679" lon="6.76193">
        <ele>422.09069824219</ele>
        <time>2010-03-28T08:55:27Z</time>
      </trkpt>
      <trkpt lat="43.64692" lon="6.76212">
        <ele>424.86932373047</ele>
        <time>2010-03-28T08:55:34Z</time>
      </trkpt>
      <trkpt lat="43.64698" lon="6.76217">
        <ele>426.00915527344</ele>
        <time>2010-03-28T08:55:38Z</time>
      </trkpt>
      <trkpt lat="43.6471" lon="6.76225">
        <ele>428.02560424805</ele>
        <time>2010-03-28T08:55:45Z</time>
      </trkpt>
      <trkpt lat="43.64718" lon="6.76234">
        <ele>429.6735534668</ele>
        <time>2010-03-28T08:55:51Z</time>
      </trkpt>
      <trkpt lat="43.64724" lon="6.76253">
        <ele>431.45425415039</ele>
        <time>2010-03-28T08:55:57Z</time>
      </trkpt>
      <trkpt lat="43.64722" lon="6.76267">
        <ele>431.85250854492</ele>
        <time>2010-03-28T08:56:02Z</time>
      </trkpt>
      <trkpt lat="43.64722" lon="6.76285">
        <ele>432.71310424805</ele>
        <time>2010-03-28T08:56:07Z</time>
      </trkpt>
      <trkpt lat="43.64722" lon="6.76308">
        <ele>433.76596069336</ele>
        <time>2010-03-28T08:56:14Z</time>
      </trkpt>
      <trkpt lat="43.64721" lon="6.76321">
        <ele>434.18252563477</ele>
        <time>2010-03-28T08:56:19Z</time>
      </trkpt>
      <trkpt lat="43.64717" lon="6.76336">
        <ele>434.40112304688</ele>
        <time>2010-03-28T08:56:24Z</time>
      </trkpt>
      <trkpt lat="43.64709" lon="6.7636">
        <ele>434.80081176758</ele>
        <time>2010-03-28T08:56:31Z</time>
      </trkpt>
      <trkpt lat="43.64701" lon="6.76384">
        <ele>434.9264831543</ele>
        <time>2010-03-28T08:56:37Z</time>
      </trkpt>
      <trkpt lat="43.64698" lon="6.76409">
        <ele>435.82919311523</ele>
        <time>2010-03-28T08:56:43Z</time>
      </trkpt>
      <trkpt lat="43.64698" lon="6.76427">
        <ele>436.7353515625</ele>
        <time>2010-03-28T08:56:48Z</time>
      </trkpt>
      <trkpt lat="43.64698" lon="6.76444">
        <ele>437.56658935547</ele>
        <time>2010-03-28T08:56:53Z</time>
      </trkpt>
      <trkpt lat="43.64695" lon="6.76463">
        <ele>438.07095336914</ele>
        <time>2010-03-28T08:56:58Z</time>
      </trkpt>
      <trkpt lat="43.64688" lon="6.76488">
        <ele>437.91235351562</ele>
        <time>2010-03-28T08:57:05Z</time>
      </trkpt>
      <trkpt lat="43.64683" lon="6.76507">
        <ele>437.58526611328</ele>
        <time>2010-03-28T08:57:11Z</time>
      </trkpt>
      <trkpt lat="43.64679" lon="6.76522">
        <ele>437.32568359375</ele>
        <time>2010-03-28T08:57:17Z</time>
      </trkpt>
      <trkpt lat="43.64674" lon="6.7654">
        <ele>436.82879638672</ele>
        <time>2010-03-28T08:57:24Z</time>
      </trkpt>
      <trkpt lat="43.6467" lon="6.76562">
        <ele>436.93026733398</ele>
        <time>2010-03-28T08:57:31Z</time>
      </trkpt>
      <trkpt lat="43.64668" lon="6.76585">
        <ele>437.3811340332</ele>
        <time>2010-03-28T08:57:37Z</time>
      </trkpt>
      <trkpt lat="43.64667" lon="6.76611">
        <ele>438.07571411133</ele>
        <time>2010-03-28T08:57:43Z</time>
      </trkpt>
      <trkpt lat="43.64665" lon="6.76634">
        <ele>438.48937988281</ele>
        <time>2010-03-28T08:57:49Z</time>
      </trkpt>
      <trkpt lat="43.64671" lon="6.76657">
        <ele>440.38723754883</ele>
        <time>2010-03-28T08:57:54Z</time>
      </trkpt>
      <trkpt lat="43.64692" lon="6.76676">
        <ele>444.0417175293</ele>
        <time>2010-03-28T08:58:01Z</time>
      </trkpt>
      <trkpt lat="43.64704" lon="6.76687">
        <ele>446.04962158203</ele>
        <time>2010-03-28T08:58:05Z</time>
      </trkpt>
      <trkpt lat="43.64724" lon="6.76699">
        <ele>449.23547363281</ele>
        <time>2010-03-28T08:58:12Z</time>
      </trkpt>
      <trkpt lat="43.64741" lon="6.76711">
        <ele>451.72979736328</ele>
        <time>2010-03-28T08:58:17Z</time>
      </trkpt>
      <trkpt lat="43.64755" lon="6.76715">
        <ele>453.83346557617</ele>
        <time>2010-03-28T08:58:21Z</time>
      </trkpt>
      <trkpt lat="43.64763" lon="6.76723">
        <ele>455.16107177734</ele>
        <time>2010-03-28T08:58:24Z</time>
      </trkpt>
      <trkpt lat="43.64765" lon="6.76738">
        <ele>455.38247680664</ele>
        <time>2010-03-28T08:58:29Z</time>
      </trkpt>
      <trkpt lat="43.64767" lon="6.76761">
        <ele>455.71157836914</ele>
        <time>2010-03-28T08:58:35Z</time>
      </trkpt>
      <trkpt lat="43.64771" lon="6.76776">
        <ele>456.42993164062</ele>
        <time>2010-03-28T08:58:39Z</time>
      </trkpt>
      <trkpt lat="43.64773" lon="6.76781">
        <ele>456.83056640625</ele>
        <time>2010-03-28T08:58:41Z</time>
      </trkpt>
      <trkpt lat="43.64779" lon="6.76795">
        <ele>457.80792236328</ele>
        <time>2010-03-28T08:58:46Z</time>
      </trkpt>
      <trkpt lat="43.64783" lon="6.76823">
        <ele>458.74932861328</ele>
        <time>2010-03-28T08:58:55Z</time>
      </trkpt>
      <trkpt lat="43.64791" lon="6.76845">
        <ele>460.1374206543</ele>
        <time>2010-03-28T08:59:02Z</time>
      </trkpt>
      <trkpt lat="43.64801" lon="6.76864">
        <ele>462.23623657227</ele>
        <time>2010-03-28T08:59:09Z</time>
      </trkpt>
      <trkpt lat="43.64811" lon="6.76878">
        <ele>464.16485595703</ele>
        <time>2010-03-28T08:59:15Z</time>
      </trkpt>
      <trkpt lat="43.64816" lon="6.76884">
        <ele>464.98538208008</ele>
        <time>2010-03-28T08:59:18Z</time>
      </trkpt>
      <trkpt lat="43.64824" lon="6.76885">
        <ele>466.29913330078</ele>
        <time>2010-03-28T08:59:23Z</time>
      </trkpt>
      <trkpt lat="43.64836" lon="6.76883">
        <ele>468.16772460938</ele>
        <time>2010-03-28T08:59:30Z</time>
      </trkpt>
      <trkpt lat="43.64845" lon="6.76877">
        <ele>469.39431762695</ele>
        <time>2010-03-28T08:59:35Z</time>
      </trkpt>
      <trkpt lat="43.64854" lon="6.76868">
        <ele>470.64309692383</ele>
        <time>2010-03-28T08:59:41Z</time>
      </trkpt>
      <trkpt lat="43.64857" lon="6.76866">
        <ele>471.04403686523</ele>
        <time>2010-03-28T08:59:43Z</time>
      </trkpt>
      <trkpt lat="43.64864" lon="6.76862">
        <ele>471.9850769043</ele>
        <time>2010-03-28T08:59:47Z</time>
      </trkpt>
      <trkpt lat="43.64869" lon="6.76862">
        <ele>472.66073608398</ele>
        <time>2010-03-28T08:59:49Z</time>
      </trkpt>
      <trkpt lat="43.6487" lon="6.76869">
        <ele>473.20428466797</ele>
        <time>2010-03-28T08:59:54Z</time>
      </trkpt>
      <trkpt lat="43.64862" lon="6.76885">
        <ele>472.48458862305</ele>
        <time>2010-03-28T08:59:59Z</time>
      </trkpt>
      <trkpt lat="43.64858" lon="6.76902">
        <ele>472.53228759766</ele>
        <time>2010-03-28T09:00:02Z</time>
      </trkpt>
      <trkpt lat="43.64848" lon="6.7693">
        <ele>471.79278564453</ele>
        <time>2010-03-28T09:00:07Z</time>
      </trkpt>
      <trkpt lat="43.64831" lon="6.76956">
        <ele>469.56875610352</ele>
        <time>2010-03-28T09:00:12Z</time>
      </trkpt>
      <trkpt lat="43.64816" lon="6.76976">
        <ele>467.41229248047</ele>
        <time>2010-03-28T09:00:16Z</time>
      </trkpt>
      <trkpt lat="43.64809" lon="6.76985">
        <ele>466.38735961914</ele>
        <time>2010-03-28T09:00:18Z</time>
      </trkpt>
      <trkpt lat="43.64803" lon="6.76996">
        <ele>465.44271850586</ele>
        <time>2010-03-28T09:00:20Z</time>
      </trkpt>
      <trkpt lat="43.64792" lon="6.77028">
        <ele>463.88095092773</ele>
        <time>2010-03-28T09:00:25Z</time>
      </trkpt>
      <trkpt lat="43.64791" lon="6.77037">
        <ele>463.75021362305</ele>
        <time>2010-03-28T09:00:26Z</time>
      </trkpt>
      <trkpt lat="43.64788" lon="6.77075">
        <ele>463.59259033203</ele>
        <time>2010-03-28T09:00:31Z</time>
      </trkpt>
      <trkpt lat="43.64789" lon="6.77114">
        <ele>463.89389038086</ele>
        <time>2010-03-28T09:00:36Z</time>
      </trkpt>
      <trkpt lat="43.6479" lon="6.77149">
        <ele>463.94519042969</ele>
        <time>2010-03-28T09:00:40Z</time>
      </trkpt>
      <trkpt lat="43.64793" lon="6.77197">
        <ele>464.96746826172</ele>
        <time>2010-03-28T09:00:45Z</time>
      </trkpt>
      <trkpt lat="43.64796" lon="6.77212">
        <ele>466.12728881836</ele>
        <time>2010-03-28T09:00:47Z</time>
      </trkpt>
      <trkpt lat="43.64799" lon="6.77231">
        <ele>467.16876220703</ele>
        <time>2010-03-28T09:00:50Z</time>
      </trkpt>
      <trkpt lat="43.64807" lon="6.77256">
        <ele>470.19973754883</ele>
        <time>2010-03-28T09:00:54Z</time>
      </trkpt>
      <trkpt lat="43.64812" lon="6.77274">
        <ele>471.92980957031</ele>
        <time>2010-03-28T09:00:58Z</time>
      </trkpt>
      <trkpt lat="43.64815" lon="6.77293">
        <ele>473.06665039062</ele>
        <time>2010-03-28T09:01:01Z</time>
      </trkpt>
      <trkpt lat="43.64806" lon="6.77329">
        <ele>469.68423461914</ele>
        <time>2010-03-28T09:01:06Z</time>
      </trkpt>
      <trkpt lat="43.64802" lon="6.7735">
        <ele>467.75308227539</ele>
        <time>2010-03-28T09:01:09Z</time>
      </trkpt>
      <trkpt lat="43.64799" lon="6.77381">
        <ele>465.65176391602</ele>
        <time>2010-03-28T09:01:13Z</time>
      </trkpt>
      <trkpt lat="43.64795" lon="6.77405">
        <ele>463.39880371094</ele>
        <time>2010-03-28T09:01:17Z</time>
      </trkpt>
      <trkpt lat="43.6479" lon="6.77417">
        <ele>461.3779296875</ele>
        <time>2010-03-28T09:01:19Z</time>
      </trkpt>
      <trkpt lat="43.6478" lon="6.7746">
        <ele>456.02206420898</ele>
        <time>2010-03-28T09:01:24Z</time>
      </trkpt>
      <trkpt lat="43.64776" lon="6.77488">
        <ele>453.21911621094</ele>
        <time>2010-03-28T09:01:27Z</time>
      </trkpt>
      <trkpt lat="43.64771" lon="6.77529">
        <ele>449.91723632812</ele>
        <time>2010-03-28T09:01:32Z</time>
      </trkpt>
      <trkpt lat="43.64774" lon="6.77587">
        <ele>448.21273803711</ele>
        <time>2010-03-28T09:01:38Z</time>
      </trkpt>
      <trkpt lat="43.64776" lon="6.77606">
        <ele>448.10021972656</ele>
        <time>2010-03-28T09:01:40Z</time>
      </trkpt>
      <trkpt lat="43.64777" lon="6.77623">
        <ele>447.55883789062</ele>
        <time>2010-03-28T09:01:42Z</time>
      </trkpt>
      <trkpt lat="43.64777" lon="6.77643">
        <ele>446.71771240234</ele>
        <time>2010-03-28T09:01:44Z</time>
      </trkpt>
      <trkpt lat="43.64773" lon="6.77692">
        <ele>443.09533691406</ele>
        <time>2010-03-28T09:01:49Z</time>
      </trkpt>
      <trkpt lat="43.64769" lon="6.77732">
        <ele>439.76876831055</ele>
        <time>2010-03-28T09:01:53Z</time>
      </trkpt>
      <trkpt lat="43.64764" lon="6.7776">
        <ele>435.8076171875</ele>
        <time>2010-03-28T09:01:56Z</time>
      </trkpt>
      <trkpt lat="43.64755" lon="6.77802">
        <ele>427.11990356445</ele>
        <time>2010-03-28T09:02:01Z</time>
      </trkpt>
      <trkpt lat="43.64742" lon="6.77858">
        <ele>415.83590698242</ele>
        <time>2010-03-28T09:02:07Z</time>
      </trkpt>
      <trkpt lat="43.64741" lon="6.779">
        <ele>405.68737792969</ele>
        <time>2010-03-28T09:02:11Z</time>
      </trkpt>
      <trkpt lat="43.64735" lon="6.77934">
        <ele>397.0426940918</ele>
        <time>2010-03-28T09:02:16Z</time>
      </trkpt>
      <trkpt lat="43.64724" lon="6.77926">
        <ele>401.74276733398</ele>
        <time>2010-03-28T09:02:19Z</time>
      </trkpt>
      <trkpt lat="43.64714" lon="6.77918">
        <ele>406.68930053711</ele>
        <time>2010-03-28T09:02:22Z</time>
      </trkpt>
      <trkpt lat="43.64711" lon="6.77918">
        <ele>407.07666015625</ele>
        <time>2010-03-28T09:02:25Z</time>
      </trkpt>
      <trkpt lat="43.64711" lon="6.77917">
        <ele>407.22439575195</ele>
        <time>2010-03-28T09:02:37Z</time>
      </trkpt>
      <trkpt lat="43.64711" lon="6.77914">
        <ele>407.94458007812</ele>
        <time>2010-03-28T09:02:44Z</time>
      </trkpt>
      <trkpt lat="43.6471" lon="6.77914">
        <ele>408.14212036133</ele>
        <time>2010-03-28T09:02:55Z</time>
      </trkpt>
      <trkpt lat="43.64709" lon="6.77914">
        <ele>408.19717407227</ele>
        <time>2010-03-28T09:03:00Z</time>
      </trkpt>
      <trkpt lat="43.64709" lon="6.77914">
        <ele>408.212890625</ele>
        <time>2010-03-28T09:03:03Z</time>
      </trkpt>
      <trkpt lat="43.64709" lon="6.77916">
        <ele>408.06704711914</ele>
        <time>2010-03-28T09:03:13Z</time>
      </trkpt>
      <trkpt lat="43.64704" lon="6.77915">
        <ele>409.15982055664</ele>
        <time>2010-03-28T09:03:21Z</time>
      </trkpt>
      <trkpt lat="43.64701" lon="6.77915">
        <ele>409.56408691406</ele>
        <time>2010-03-28T09:03:30Z</time>
      </trkpt>
      <trkpt lat="43.64701" lon="6.77915">
        <ele>409.58471679688</ele>
        <time>2010-03-28T09:03:39Z</time>
      </trkpt>
      <trkpt lat="43.64702" lon="6.77918">
        <ele>408.8127746582</ele>
        <time>2010-03-28T09:03:53Z</time>
      </trkpt>
      <trkpt lat="43.64705" lon="6.77918">
        <ele>408.1530456543</ele>
        <time>2010-03-28T09:03:59Z</time>
      </trkpt>
      <trkpt lat="43.64708" lon="6.7793">
        <ele>403.5625</ele>
        <time>2010-03-28T09:04:18Z</time>
      </trkpt>
      <trkpt lat="43.6471" lon="6.77931">
        <ele>402.77508544922</ele>
        <time>2010-03-28T09:04:26Z</time>
      </trkpt>
      <trkpt lat="43.64708" lon="6.77929">
        <ele>403.97164916992</ele>
        <time>2010-03-28T09:04:34Z</time>
      </trkpt>
      <trkpt lat="43.64708" lon="6.77925">
        <ele>405.42687988281</ele>
        <time>2010-03-28T09:04:39Z</time>
      </trkpt>
      <trkpt lat="43.64708" lon="6.77922">
        <ele>406.23303222656</ele>
        <time>2010-03-28T09:04:51Z</time>
      </trkpt>
      <trkpt lat="43.647" lon="6.77915">
        <ele>409.74908447266</ele>
        <time>2010-03-28T09:06:02Z</time>
      </trkpt>
      <trkpt lat="43.647" lon="6.77914">
        <ele>409.92883300781</ele>
        <time>2010-03-28T09:06:50Z</time>
      </trkpt>
      <trkpt lat="43.64699" lon="6.77915">
        <ele>409.95135498047</ele>
        <time>2010-03-28T09:07:08Z</time>
      </trkpt>
      <trkpt lat="43.64701" lon="6.7792">
        <ele>408.35147094727</ele>
        <time>2010-03-28T09:08:02Z</time>
      </trkpt>
      <trkpt lat="43.64703" lon="6.7792">
        <ele>408.13027954102</ele>
        <time>2010-03-28T09:08:37Z</time>
      </trkpt>
      <trkpt lat="43.64703" lon="6.7792">
        <ele>408.13027954102</ele>
        <time>2010-03-28T09:08:38Z</time>
      </trkpt>
      <trkpt lat="43.64705" lon="6.77918">
        <ele>408.25674438477</ele>
        <time>2010-03-28T09:08:54Z</time>
      </trkpt>
      <trkpt lat="43.64705" lon="6.77917">
        <ele>408.64343261719</ele>
        <time>2010-03-28T09:09:22Z</time>
      </trkpt>
      <trkpt lat="43.64705" lon="6.77917">
        <ele>408.73236083984</ele>
        <time>2010-03-28T09:09:24Z</time>
      </trkpt>
      <trkpt lat="43.64705" lon="6.77917">
        <ele>408.74020385742</ele>
        <time>2010-03-28T09:09:25Z</time>
      </trkpt>
      <trkpt lat="43.64705" lon="6.77916">
        <ele>408.85665893555</ele>
        <time>2010-03-28T09:09:38Z</time>
      </trkpt>
      <trkpt lat="43.64705" lon="6.77916">
        <ele>408.89303588867</ele>
        <time>2010-03-28T09:09:41Z</time>
      </trkpt>
      <trkpt lat="43.64704" lon="6.77915">
        <ele>409.00149536133</ele>
        <time>2010-03-28T09:09:44Z</time>
      </trkpt>
      <trkpt lat="43.64704" lon="6.77915">
        <ele>409.00149536133</ele>
        <time>2010-03-28T09:09:45Z</time>
      </trkpt>
      <trkpt lat="43.64708" lon="6.77912">
        <ele>408.75741577148</ele>
        <time>2010-03-28T09:10:10Z</time>
      </trkpt>
      <trkpt lat="43.64708" lon="6.77913">
        <ele>408.67245483398</ele>
        <time>2010-03-28T09:10:23Z</time>
      </trkpt>
      <trkpt lat="43.64708" lon="6.77912">
        <ele>408.85702514648</ele>
        <time>2010-03-28T09:10:50Z</time>
      </trkpt>
      <trkpt lat="43.64704" lon="6.77911">
        <ele>409.69186401367</ele>
        <time>2010-03-28T09:11:45Z</time>
      </trkpt>
      <trkpt lat="43.64703" lon="6.77913">
        <ele>409.62945556641</ele>
        <time>2010-03-28T09:12:09Z</time>
      </trkpt>
      <trkpt lat="43.64703" lon="6.77914">
        <ele>409.36706542969</ele>
        <time>2010-03-28T09:14:53Z</time>
      </trkpt>
      <trkpt lat="43.64703" lon="6.77914">
        <ele>409.37420654297</ele>
        <time>2010-03-28T09:14:54Z</time>
      </trkpt>
      <trkpt lat="43.64701" lon="6.77918">
        <ele>408.89279174805</ele>
        <time>2010-03-28T09:15:37Z</time>
      </trkpt>
      <trkpt lat="43.64701" lon="6.77918">
        <ele>409.05975341797</ele>
        <time>2010-03-28T09:15:38Z</time>
      </trkpt>
      <trkpt lat="43.64705" lon="6.77914">
        <ele>409.12835693359</ele>
        <time>2010-03-28T09:15:51Z</time>
      </trkpt>
      <trkpt lat="43.64705" lon="6.77913">
        <ele>409.080078125</ele>
        <time>2010-03-28T09:15:57Z</time>
      </trkpt>
      <trkpt lat="43.64705" lon="6.77913">
        <ele>409.09481811523</ele>
        <time>2010-03-28T09:15:58Z</time>
      </trkpt>
      <trkpt lat="43.64705" lon="6.77913">
        <ele>409.25286865234</ele>
        <time>2010-03-28T09:18:26Z</time>
      </trkpt>
      <trkpt lat="43.64709" lon="6.77914">
        <ele>408.27575683594</ele>
        <time>2010-03-28T09:20:02Z</time>
      </trkpt>
      <trkpt lat="43.64705" lon="6.7791">
        <ele>409.75817871094</ele>
        <time>2010-03-28T09:20:27Z</time>
      </trkpt>
      <trkpt lat="43.64705" lon="6.77909">
        <ele>409.78747558594</ele>
        <time>2010-03-28T09:20:28Z</time>
      </trkpt>
      <trkpt lat="43.64709" lon="6.77918">
        <ele>407.32843017578</ele>
        <time>2010-03-28T09:21:51Z</time>
      </trkpt>
      <trkpt lat="43.6471" lon="6.7792">
        <ele>406.63479614258</ele>
        <time>2010-03-28T09:21:58Z</time>
      </trkpt>
      <trkpt lat="43.64708" lon="6.7792">
        <ele>406.78829956055</ele>
        <time>2010-03-28T09:22:06Z</time>
      </trkpt>
      <trkpt lat="43.64709" lon="6.77929">
        <ele>403.8176574707</ele>
        <time>2010-03-28T09:22:12Z</time>
      </trkpt>
      <trkpt lat="43.64702" lon="6.77928">
        <ele>405.47229003906</ele>
        <time>2010-03-28T09:22:16Z</time>
      </trkpt>
      <trkpt lat="43.64696" lon="6.77922">
        <ele>408.54754638672</ele>
        <time>2010-03-28T09:22:20Z</time>
      </trkpt>
      <trkpt lat="43.64689" lon="6.77915">
        <ele>411.97589111328</ele>
        <time>2010-03-28T09:22:24Z</time>
      </trkpt>
      <trkpt lat="43.64689" lon="6.77907">
        <ele>412.72378540039</ele>
        <time>2010-03-28T09:22:26Z</time>
      </trkpt>
      <trkpt lat="43.64694" lon="6.77875">
        <ele>416.08596801758</ele>
        <time>2010-03-28T09:22:33Z</time>
      </trkpt>
      <trkpt lat="43.64694" lon="6.77871">
        <ele>416.53192138672</ele>
        <time>2010-03-28T09:22:34Z</time>
      </trkpt>
      <trkpt lat="43.64693" lon="6.77864">
        <ele>417.44976806641</ele>
        <time>2010-03-28T09:22:38Z</time>
      </trkpt>
      <trkpt lat="43.64689" lon="6.77857">
        <ele>418.57427978516</ele>
        <time>2010-03-28T09:22:47Z</time>
      </trkpt>
      <trkpt lat="43.64677" lon="6.7784">
        <ele>420.52517700195</ele>
        <time>2010-03-28T09:22:51Z</time>
      </trkpt>
      <trkpt lat="43.64667" lon="6.77825">
        <ele>421.09716796875</ele>
        <time>2010-03-28T09:22:54Z</time>
      </trkpt>
      <trkpt lat="43.64656" lon="6.77809">
        <ele>421.14907836914</ele>
        <time>2010-03-28T09:22:57Z</time>
      </trkpt>
      <trkpt lat="43.64647" lon="6.77798">
        <ele>421.01422119141</ele>
        <time>2010-03-28T09:23:00Z</time>
      </trkpt>
      <trkpt lat="43.64637" lon="6.77791">
        <ele>420.78237915039</ele>
        <time>2010-03-28T09:23:03Z</time>
      </trkpt>
      <trkpt lat="43.64624" lon="6.77787">
        <ele>420.40188598633</ele>
        <time>2010-03-28T09:23:08Z</time>
      </trkpt>
      <trkpt lat="43.64609" lon="6.77786">
        <ele>420.00616455078</ele>
        <time>2010-03-28T09:23:13Z</time>
      </trkpt>
      <trkpt lat="43.64605" lon="6.77787">
        <ele>419.89233398438</ele>
        <time>2010-03-28T09:23:15Z</time>
      </trkpt>
      <trkpt lat="43.64601" lon="6.7779">
        <ele>419.8840637207</ele>
        <time>2010-03-28T09:23:18Z</time>
      </trkpt>
      <trkpt lat="43.64591" lon="6.77796">
        <ele>419.8212890625</ele>
        <time>2010-03-28T09:23:24Z</time>
      </trkpt>
      <trkpt lat="43.64584" lon="6.77801">
        <ele>419.84378051758</ele>
        <time>2010-03-28T09:23:29Z</time>
      </trkpt>
      <trkpt lat="43.64573" lon="6.77806">
        <ele>418.34106445312</ele>
        <time>2010-03-28T09:23:33Z</time>
      </trkpt>
      <trkpt lat="43.64563" lon="6.7781">
        <ele>416.96383666992</ele>
        <time>2010-03-28T09:23:38Z</time>
      </trkpt>
      <trkpt lat="43.6456" lon="6.77811">
        <ele>416.42150878906</ele>
        <time>2010-03-28T09:23:42Z</time>
      </trkpt>
      <trkpt lat="43.64553" lon="6.77815">
        <ele>415.53744506836</ele>
        <time>2010-03-28T09:23:45Z</time>
      </trkpt>
      <trkpt lat="43.64541" lon="6.77827">
        <ele>414.16076660156</ele>
        <time>2010-03-28T09:23:50Z</time>
      </trkpt>
      <trkpt lat="43.64539" lon="6.7783">
        <ele>413.87933349609</ele>
        <time>2010-03-28T09:23:51Z</time>
      </trkpt>
      <trkpt lat="43.64513" lon="6.77853">
        <ele>410.96780395508</ele>
        <time>2010-03-28T09:23:58Z</time>
      </trkpt>
      <trkpt lat="43.64506" lon="6.7786">
        <ele>410.42385864258</ele>
        <time>2010-03-28T09:24:00Z</time>
      </trkpt>
      <trkpt lat="43.64492" lon="6.77875">
        <ele>409.55194091797</ele>
        <time>2010-03-28T09:24:05Z</time>
      </trkpt>
      <trkpt lat="43.64484" lon="6.77893">
        <ele>409.3655090332</ele>
        <time>2010-03-28T09:24:10Z</time>
      </trkpt>
      <trkpt lat="43.64478" lon="6.77898">
        <ele>408.71453857422</ele>
        <time>2010-03-28T09:24:13Z</time>
      </trkpt>
      <trkpt lat="43.64471" lon="6.77893">
        <ele>407.5696105957</ele>
        <time>2010-03-28T09:24:18Z</time>
      </trkpt>
      <trkpt lat="43.64462" lon="6.77901">
        <ele>406.53143310547</ele>
        <time>2010-03-28T09:24:22Z</time>
      </trkpt>
      <trkpt lat="43.6445" lon="6.77909">
        <ele>405.09121704102</ele>
        <time>2010-03-28T09:24:26Z</time>
      </trkpt>
      <trkpt lat="43.64439" lon="6.77906">
        <ele>403.36343383789</ele>
        <time>2010-03-28T09:24:31Z</time>
      </trkpt>
      <trkpt lat="43.64425" lon="6.7791">
        <ele>401.24285888672</ele>
        <time>2010-03-28T09:24:35Z</time>
      </trkpt>
      <trkpt lat="43.64407" lon="6.77922">
        <ele>399.81240844727</ele>
        <time>2010-03-28T09:24:40Z</time>
      </trkpt>
      <trkpt lat="43.64395" lon="6.77926">
        <ele>399.56072998047</ele>
        <time>2010-03-28T09:24:43Z</time>
      </trkpt>
      <trkpt lat="43.64378" lon="6.77923">
        <ele>399.10177612305</ele>
        <time>2010-03-28T09:24:49Z</time>
      </trkpt>
      <trkpt lat="43.64371" lon="6.7792">
        <ele>398.9245300293</ele>
        <time>2010-03-28T09:24:51Z</time>
      </trkpt>
      <trkpt lat="43.64364" lon="6.77907">
        <ele>398.73266601562</ele>
        <time>2010-03-28T09:24:55Z</time>
      </trkpt>
      <trkpt lat="43.64363" lon="6.77909">
        <ele>398.70520019531</ele>
        <time>2010-03-28T09:24:56Z</time>
      </trkpt>
      <trkpt lat="43.64362" lon="6.77926">
        <ele>398.71673583984</ele>
        <time>2010-03-28T09:25:02Z</time>
      </trkpt>
      <trkpt lat="43.64356" lon="6.77944">
        <ele>398.63888549805</ele>
        <time>2010-03-28T09:25:06Z</time>
      </trkpt>
      <trkpt lat="43.64348" lon="6.77964">
        <ele>398.44714355469</ele>
        <time>2010-03-28T09:25:10Z</time>
      </trkpt>
      <trkpt lat="43.64346" lon="6.77969">
        <ele>398.3967590332</ele>
        <time>2010-03-28T09:25:11Z</time>
      </trkpt>
      <trkpt lat="43.64344" lon="6.77985">
        <ele>398.37454223633</ele>
        <time>2010-03-28T09:25:15Z</time>
      </trkpt>
      <trkpt lat="43.64341" lon="6.78005">
        <ele>398.27502441406</ele>
        <time>2010-03-28T09:25:20Z</time>
      </trkpt>
      <trkpt lat="43.64343" lon="6.78025">
        <ele>398.34368896484</ele>
        <time>2010-03-28T09:25:24Z</time>
      </trkpt>
      <trkpt lat="43.64344" lon="6.78042">
        <ele>398.37115478516</ele>
        <time>2010-03-28T09:25:28Z</time>
      </trkpt>
      <trkpt lat="43.64344" lon="6.78062">
        <ele>398.37115478516</ele>
        <time>2010-03-28T09:25:33Z</time>
      </trkpt>
      <trkpt lat="43.64344" lon="6.78084">
        <ele>398.39242553711</ele>
        <time>2010-03-28T09:25:39Z</time>
      </trkpt>
      <trkpt lat="43.64341" lon="6.78104">
        <ele>398.02392578125</ele>
        <time>2010-03-28T09:25:44Z</time>
      </trkpt>
      <trkpt lat="43.64339" lon="6.78124">
        <ele>397.70523071289</ele>
        <time>2010-03-28T09:25:49Z</time>
      </trkpt>
      <trkpt lat="43.64339" lon="6.78128">
        <ele>397.65829467773</ele>
        <time>2010-03-28T09:25:50Z</time>
      </trkpt>
      <trkpt lat="43.64332" lon="6.78143">
        <ele>397.23992919922</ele>
        <time>2010-03-28T09:25:55Z</time>
      </trkpt>
      <trkpt lat="43.64329" lon="6.78153">
        <ele>397.04278564453</ele>
        <time>2010-03-28T09:25:58Z</time>
      </trkpt>
      <trkpt lat="43.64327" lon="6.78156">
        <ele>396.96115112305</ele>
        <time>2010-03-28T09:25:59Z</time>
      </trkpt>
      <trkpt lat="43.64318" lon="6.78173">
        <ele>396.01507568359</ele>
        <time>2010-03-28T09:26:03Z</time>
      </trkpt>
      <trkpt lat="43.6431" lon="6.78196">
        <ele>393.73547363281</ele>
        <time>2010-03-28T09:26:08Z</time>
      </trkpt>
      <trkpt lat="43.6431" lon="6.78205">
        <ele>392.94390869141</ele>
        <time>2010-03-28T09:26:11Z</time>
      </trkpt>
      <trkpt lat="43.6431" lon="6.78223">
        <ele>391.35177612305</ele>
        <time>2010-03-28T09:26:17Z</time>
      </trkpt>
      <trkpt lat="43.64309" lon="6.78225">
        <ele>391.11575317383</ele>
        <time>2010-03-28T09:26:18Z</time>
      </trkpt>
      <trkpt lat="43.6431" lon="6.78236">
        <ele>390.1272277832</ele>
        <time>2010-03-28T09:26:22Z</time>
      </trkpt>
      <trkpt lat="43.64311" lon="6.78246">
        <ele>389.17074584961</ele>
        <time>2010-03-28T09:26:26Z</time>
      </trkpt>
      <trkpt lat="43.64306" lon="6.7826">
        <ele>387.19982910156</ele>
        <time>2010-03-28T09:26:31Z</time>
      </trkpt>
      <trkpt lat="43.643" lon="6.78275">
        <ele>385.06204223633</ele>
        <time>2010-03-28T09:26:35Z</time>
      </trkpt>
      <trkpt lat="43.64293" lon="6.78294">
        <ele>382.56677246094</ele>
        <time>2010-03-28T09:26:40Z</time>
      </trkpt>
      <trkpt lat="43.64293" lon="6.78306">
        <ele>380.611328125</ele>
        <time>2010-03-28T09:26:44Z</time>
      </trkpt>
      <trkpt lat="43.64292" lon="6.78311">
        <ele>379.9772644043</ele>
        <time>2010-03-28T09:26:46Z</time>
      </trkpt>
      <trkpt lat="43.64281" lon="6.78325">
        <ele>379.31845092773</ele>
        <time>2010-03-28T09:26:53Z</time>
      </trkpt>
      <trkpt lat="43.64268" lon="6.78329">
        <ele>380.75119018555</ele>
        <time>2010-03-28T09:26:58Z</time>
      </trkpt>
      <trkpt lat="43.64251" lon="6.78339">
        <ele>381.82119750977</ele>
        <time>2010-03-28T09:27:05Z</time>
      </trkpt>
      <trkpt lat="43.64237" lon="6.78347">
        <ele>381.47045898438</ele>
        <time>2010-03-28T09:27:12Z</time>
      </trkpt>
      <trkpt lat="43.64223" lon="6.78353">
        <ele>381.49075317383</ele>
        <time>2010-03-28T09:27:19Z</time>
      </trkpt>
      <trkpt lat="43.64208" lon="6.78358">
        <ele>381.90383911133</ele>
        <time>2010-03-28T09:27:25Z</time>
      </trkpt>
      <trkpt lat="43.64191" lon="6.78366">
        <ele>382.37963867188</ele>
        <time>2010-03-28T09:27:31Z</time>
      </trkpt>
      <trkpt lat="43.6417" lon="6.78375">
        <ele>383.72415161133</ele>
        <time>2010-03-28T09:27:39Z</time>
      </trkpt>
      <trkpt lat="43.6415" lon="6.78386">
        <ele>383.52642822266</ele>
        <time>2010-03-28T09:27:44Z</time>
      </trkpt>
      <trkpt lat="43.64133" lon="6.78396">
        <ele>383.18161010742</ele>
        <time>2010-03-28T09:27:49Z</time>
      </trkpt>
      <trkpt lat="43.64129" lon="6.78398">
        <ele>383.13256835938</ele>
        <time>2010-03-28T09:27:50Z</time>
      </trkpt>
      <trkpt lat="43.64108" lon="6.78408">
        <ele>382.96490478516</ele>
        <time>2010-03-28T09:27:55Z</time>
      </trkpt>
      <trkpt lat="43.64086" lon="6.78421">
        <ele>382.7568359375</ele>
        <time>2010-03-28T09:28:00Z</time>
      </trkpt>
      <trkpt lat="43.64076" lon="6.78426">
        <ele>382.46929931641</ele>
        <time>2010-03-28T09:28:02Z</time>
      </trkpt>
      <trkpt lat="43.64059" lon="6.78434">
        <ele>382.01321411133</ele>
        <time>2010-03-28T09:28:05Z</time>
      </trkpt>
      <trkpt lat="43.64046" lon="6.78437">
        <ele>381.77890014648</ele>
        <time>2010-03-28T09:28:07Z</time>
      </trkpt>
      <trkpt lat="43.64006" lon="6.78456">
        <ele>381.06936645508</ele>
        <time>2010-03-28T09:28:13Z</time>
      </trkpt>
      <trkpt lat="43.6399" lon="6.78461">
        <ele>380.18594360352</ele>
        <time>2010-03-28T09:28:17Z</time>
      </trkpt>
      <trkpt lat="43.6398" lon="6.78468">
        <ele>379.31964111328</ele>
        <time>2010-03-28T09:28:19Z</time>
      </trkpt>
      <trkpt lat="43.63968" lon="6.78472">
        <ele>378.32400512695</ele>
        <time>2010-03-28T09:28:21Z</time>
      </trkpt>
      <trkpt lat="43.63955" lon="6.78479">
        <ele>377.28717041016</ele>
        <time>2010-03-28T09:28:23Z</time>
      </trkpt>
      <trkpt lat="43.63936" lon="6.78472">
        <ele>376.07638549805</ele>
        <time>2010-03-28T09:28:27Z</time>
      </trkpt>
      <trkpt lat="43.63927" lon="6.78449">
        <ele>375.98941040039</ele>
        <time>2010-03-28T09:28:32Z</time>
      </trkpt>
      <trkpt lat="43.63931" lon="6.7844">
        <ele>376.45288085938</ele>
        <time>2010-03-28T09:28:34Z</time>
      </trkpt>
      <trkpt lat="43.63932" lon="6.7842">
        <ele>377.02508544922</ele>
        <time>2010-03-28T09:28:38Z</time>
      </trkpt>
      <trkpt lat="43.63929" lon="6.78409">
        <ele>377.0485534668</ele>
        <time>2010-03-28T09:28:40Z</time>
      </trkpt>
      <trkpt lat="43.6391" lon="6.78393">
        <ele>376.35342407227</ele>
        <time>2010-03-28T09:28:45Z</time>
      </trkpt>
      <trkpt lat="43.63902" lon="6.78376">
        <ele>376.60513305664</ele>
        <time>2010-03-28T09:28:48Z</time>
      </trkpt>
      <trkpt lat="43.63899" lon="6.78358">
        <ele>377.16033935547</ele>
        <time>2010-03-28T09:28:52Z</time>
      </trkpt>
      <trkpt lat="43.63897" lon="6.78351">
        <ele>377.39520263672</ele>
        <time>2010-03-28T09:28:54Z</time>
      </trkpt>
      <trkpt lat="43.63885" lon="6.78337">
        <ele>377.8352355957</ele>
        <time>2010-03-28T09:29:00Z</time>
      </trkpt>
      <trkpt lat="43.63869" lon="6.78338">
        <ele>377.7737121582</ele>
        <time>2010-03-28T09:29:06Z</time>
      </trkpt>
      <trkpt lat="43.63853" lon="6.78346">
        <ele>377.20803833008</ele>
        <time>2010-03-28T09:29:10Z</time>
      </trkpt>
      <trkpt lat="43.63841" lon="6.7835">
        <ele>376.89074707031</ele>
        <time>2010-03-28T09:29:13Z</time>
      </trkpt>
      <trkpt lat="43.63828" lon="6.78349">
        <ele>376.8264465332</ele>
        <time>2010-03-28T09:29:16Z</time>
      </trkpt>
      <trkpt lat="43.63808" lon="6.78357">
        <ele>376.06069946289</ele>
        <time>2010-03-28T09:29:21Z</time>
      </trkpt>
      <trkpt lat="43.63786" lon="6.78358">
        <ele>375.83843994141</ele>
        <time>2010-03-28T09:29:27Z</time>
      </trkpt>
      <trkpt lat="43.63771" lon="6.78355">
        <ele>376.01480102539</ele>
        <time>2010-03-28T09:29:31Z</time>
      </trkpt>
      <trkpt lat="43.63762" lon="6.78356">
        <ele>375.87719726562</ele>
        <time>2010-03-28T09:29:34Z</time>
      </trkpt>
      <trkpt lat="43.63747" lon="6.78345">
        <ele>377.21917724609</ele>
        <time>2010-03-28T09:29:39Z</time>
      </trkpt>
      <trkpt lat="43.63736" lon="6.78336">
        <ele>378.21450805664</ele>
        <time>2010-03-28T09:29:44Z</time>
      </trkpt>
      <trkpt lat="43.63721" lon="6.78326">
        <ele>378.67846679688</ele>
        <time>2010-03-28T09:29:49Z</time>
      </trkpt>
      <trkpt lat="43.63705" lon="6.7832">
        <ele>378.68530273438</ele>
        <time>2010-03-28T09:29:53Z</time>
      </trkpt>
      <trkpt lat="43.63697" lon="6.78316">
        <ele>378.74639892578</ele>
        <time>2010-03-28T09:29:55Z</time>
      </trkpt>
      <trkpt lat="43.63682" lon="6.78303">
        <ele>379.36831665039</ele>
        <time>2010-03-28T09:30:00Z</time>
      </trkpt>
      <trkpt lat="43.63676" lon="6.78298">
        <ele>379.642578125</ele>
        <time>2010-03-28T09:30:02Z</time>
      </trkpt>
      <trkpt lat="43.63673" lon="6.78295">
        <ele>379.79458618164</ele>
        <time>2010-03-28T09:30:03Z</time>
      </trkpt>
      <trkpt lat="43.63658" lon="6.78282">
        <ele>380.30795288086</ele>
        <time>2010-03-28T09:30:08Z</time>
      </trkpt>
      <trkpt lat="43.63639" lon="6.78268">
        <ele>380.43438720703</ele>
        <time>2010-03-28T09:30:14Z</time>
      </trkpt>
      <trkpt lat="43.63623" lon="6.78262">
        <ele>380.10968017578</ele>
        <time>2010-03-28T09:30:18Z</time>
      </trkpt>
      <trkpt lat="43.63606" lon="6.78255">
        <ele>379.76989746094</ele>
        <time>2010-03-28T09:30:21Z</time>
      </trkpt>
      <trkpt lat="43.63588" lon="6.78244">
        <ele>379.57348632812</ele>
        <time>2010-03-28T09:30:25Z</time>
      </trkpt>
      <trkpt lat="43.63573" lon="6.78239">
        <ele>379.91067504883</ele>
        <time>2010-03-28T09:30:29Z</time>
      </trkpt>
      <trkpt lat="43.63567" lon="6.78234">
        <ele>380.31750488281</ele>
        <time>2010-03-28T09:30:31Z</time>
      </trkpt>
      <trkpt lat="43.63545" lon="6.78227">
        <ele>381.31256103516</ele>
        <time>2010-03-28T09:30:37Z</time>
      </trkpt>
      <trkpt lat="43.63523" lon="6.78222">
        <ele>382.12338256836</ele>
        <time>2010-03-28T09:30:43Z</time>
      </trkpt>
      <trkpt lat="43.63517" lon="6.78218">
        <ele>382.52679443359</ele>
        <time>2010-03-28T09:30:45Z</time>
      </trkpt>
      <trkpt lat="43.63506" lon="6.78212">
        <ele>383.1413269043</ele>
        <time>2010-03-28T09:30:49Z</time>
      </trkpt>
      <trkpt lat="43.6349" lon="6.78216">
        <ele>384.14547729492</ele>
        <time>2010-03-28T09:30:55Z</time>
      </trkpt>
      <trkpt lat="43.6348" lon="6.78215">
        <ele>385.21914672852</ele>
        <time>2010-03-28T09:30:58Z</time>
      </trkpt>
      <trkpt lat="43.63457" lon="6.78216">
        <ele>387.41125488281</ele>
        <time>2010-03-28T09:31:05Z</time>
      </trkpt>
      <trkpt lat="43.63438" lon="6.78214">
        <ele>389.51251220703</ele>
        <time>2010-03-28T09:31:11Z</time>
      </trkpt>
      <trkpt lat="43.63423" lon="6.78213">
        <ele>391.15463256836</ele>
        <time>2010-03-28T09:31:16Z</time>
      </trkpt>
      <trkpt lat="43.63404" lon="6.78211">
        <ele>391.52508544922</ele>
        <time>2010-03-28T09:31:22Z</time>
      </trkpt>
      <trkpt lat="43.63383" lon="6.78209">
        <ele>390.94906616211</ele>
        <time>2010-03-28T09:31:28Z</time>
      </trkpt>
      <trkpt lat="43.63359" lon="6.78207">
        <ele>390.32061767578</ele>
        <time>2010-03-28T09:31:34Z</time>
      </trkpt>
      <trkpt lat="43.63346" lon="6.78209">
        <ele>389.85287475586</ele>
        <time>2010-03-28T09:31:37Z</time>
      </trkpt>
      <trkpt lat="43.63318" lon="6.78207">
        <ele>388.33361816406</ele>
        <time>2010-03-28T09:31:42Z</time>
      </trkpt>
      <trkpt lat="43.63301" lon="6.78203">
        <ele>387.15762329102</ele>
        <time>2010-03-28T09:31:45Z</time>
      </trkpt>
      <trkpt lat="43.63278" lon="6.78192">
        <ele>385.62191772461</ele>
        <time>2010-03-28T09:31:50Z</time>
      </trkpt>
      <trkpt lat="43.63274" lon="6.78192">
        <ele>385.27963256836</ele>
        <time>2010-03-28T09:31:51Z</time>
      </trkpt>
      <trkpt lat="43.63264" lon="6.78194">
        <ele>384.43740844727</ele>
        <time>2010-03-28T09:31:53Z</time>
      </trkpt>
      <trkpt lat="43.63248" lon="6.78184">
        <ele>383.54296875</ele>
        <time>2010-03-28T09:31:57Z</time>
      </trkpt>
      <trkpt lat="43.63239" lon="6.78177">
        <ele>383.50497436523</ele>
        <time>2010-03-28T09:31:59Z</time>
      </trkpt>
      <trkpt lat="43.63203" lon="6.78163">
        <ele>382.87075805664</ele>
        <time>2010-03-28T09:32:06Z</time>
      </trkpt>
      <trkpt lat="43.63189" lon="6.78142">
        <ele>382.24612426758</ele>
        <time>2010-03-28T09:32:10Z</time>
      </trkpt>
      <trkpt lat="43.63173" lon="6.78119">
        <ele>381.17529296875</ele>
        <time>2010-03-28T09:32:14Z</time>
      </trkpt>
      <trkpt lat="43.63167" lon="6.78114">
        <ele>380.75137329102</ele>
        <time>2010-03-28T09:32:15Z</time>
      </trkpt>
      <trkpt lat="43.63142" lon="6.78085">
        <ele>378.31790161133</ele>
        <time>2010-03-28T09:32:20Z</time>
      </trkpt>
      <trkpt lat="43.63131" lon="6.7806">
        <ele>377.00576782227</ele>
        <time>2010-03-28T09:32:23Z</time>
      </trkpt>
      <trkpt lat="43.63128" lon="6.78051">
        <ele>376.59182739258</ele>
        <time>2010-03-28T09:32:24Z</time>
      </trkpt>
      <trkpt lat="43.63111" lon="6.78028">
        <ele>375.11123657227</ele>
        <time>2010-03-28T09:32:27Z</time>
      </trkpt>
      <trkpt lat="43.63067" lon="6.78004">
        <ele>372.05313110352</ele>
        <time>2010-03-28T09:32:33Z</time>
      </trkpt>
      <trkpt lat="43.6306" lon="6.78006">
        <ele>371.63571166992</ele>
        <time>2010-03-28T09:32:34Z</time>
      </trkpt>
      <trkpt lat="43.63041" lon="6.7801">
        <ele>370.39291381836</ele>
        <time>2010-03-28T09:32:37Z</time>
      </trkpt>
      <trkpt lat="43.63016" lon="6.78025">
        <ele>368.51641845703</ele>
        <time>2010-03-28T09:32:41Z</time>
      </trkpt>
      <trkpt lat="43.63003" lon="6.78033">
        <ele>367.4475402832</ele>
        <time>2010-03-28T09:32:43Z</time>
      </trkpt>
      <trkpt lat="43.62994" lon="6.78033">
        <ele>366.89111328125</ele>
        <time>2010-03-28T09:32:45Z</time>
      </trkpt>
      <trkpt lat="43.62963" lon="6.78043">
        <ele>365.20770263672</ele>
        <time>2010-03-28T09:32:50Z</time>
      </trkpt>
      <trkpt lat="43.62955" lon="6.78059">
        <ele>364.42834472656</ele>
        <time>2010-03-28T09:32:52Z</time>
      </trkpt>
      <trkpt lat="43.62931" lon="6.78094">
        <ele>362.21295166016</ele>
        <time>2010-03-28T09:32:58Z</time>
      </trkpt>
      <trkpt lat="43.62915" lon="6.7811">
        <ele>360.71731567383</ele>
        <time>2010-03-28T09:33:02Z</time>
      </trkpt>
      <trkpt lat="43.62907" lon="6.78133">
        <ele>359.67279052734</ele>
        <time>2010-03-28T09:33:05Z</time>
      </trkpt>
      <trkpt lat="43.62891" lon="6.78158">
        <ele>358.69848632812</ele>
        <time>2010-03-28T09:33:09Z</time>
      </trkpt>
      <trkpt lat="43.62877" lon="6.78187">
        <ele>355.70153808594</ele>
        <time>2010-03-28T09:33:13Z</time>
      </trkpt>
      <trkpt lat="43.62857" lon="6.78212">
        <ele>352.28329467773</ele>
        <time>2010-03-28T09:33:18Z</time>
      </trkpt>
      <trkpt lat="43.62833" lon="6.78235">
        <ele>349.09027099609</ele>
        <time>2010-03-28T09:33:22Z</time>
      </trkpt>
      <trkpt lat="43.62812" lon="6.78252">
        <ele>348.47903442383</ele>
        <time>2010-03-28T09:33:26Z</time>
      </trkpt>
      <trkpt lat="43.62791" lon="6.78269">
        <ele>347.75988769531</ele>
        <time>2010-03-28T09:33:30Z</time>
      </trkpt>
      <trkpt lat="43.62773" lon="6.78281">
        <ele>347.7981262207</ele>
        <time>2010-03-28T09:33:35Z</time>
      </trkpt>
      <trkpt lat="43.62756" lon="6.78292">
        <ele>348.25411987305</ele>
        <time>2010-03-28T09:33:39Z</time>
      </trkpt>
      <trkpt lat="43.62751" lon="6.78295">
        <ele>348.40466308594</ele>
        <time>2010-03-28T09:33:43Z</time>
      </trkpt>
      <trkpt lat="43.62752" lon="6.78299">
        <ele>347.96118164062</ele>
        <time>2010-03-28T09:33:47Z</time>
      </trkpt>
      <trkpt lat="43.62745" lon="6.78312">
        <ele>346.7380065918</ele>
        <time>2010-03-28T09:33:52Z</time>
      </trkpt>
      <trkpt lat="43.62728" lon="6.78322">
        <ele>345.98233032227</ele>
        <time>2010-03-28T09:33:56Z</time>
      </trkpt>
      <trkpt lat="43.62724" lon="6.78328">
        <ele>345.27096557617</ele>
        <time>2010-03-28T09:33:57Z</time>
      </trkpt>
      <trkpt lat="43.6271" lon="6.78356">
        <ele>341.44638061523</ele>
        <time>2010-03-28T09:34:01Z</time>
      </trkpt>
      <trkpt lat="43.62699" lon="6.78387">
        <ele>337.20196533203</ele>
        <time>2010-03-28T09:34:06Z</time>
      </trkpt>
      <trkpt lat="43.62685" lon="6.78402">
        <ele>336.14822387695</ele>
        <time>2010-03-28T09:34:10Z</time>
      </trkpt>
      <trkpt lat="43.62669" lon="6.78412">
        <ele>336.40930175781</ele>
        <time>2010-03-28T09:34:14Z</time>
      </trkpt>
      <trkpt lat="43.62656" lon="6.78415">
        <ele>337.22534179688</ele>
        <time>2010-03-28T09:34:18Z</time>
      </trkpt>
      <trkpt lat="43.62651" lon="6.78418">
        <ele>337.53930664062</ele>
        <time>2010-03-28T09:34:20Z</time>
      </trkpt>
      <trkpt lat="43.62635" lon="6.78419">
        <ele>339.18411254883</ele>
        <time>2010-03-28T09:34:25Z</time>
      </trkpt>
      <trkpt lat="43.62619" lon="6.78409">
        <ele>341.30200195312</ele>
        <time>2010-03-28T09:34:33Z</time>
      </trkpt>
      <trkpt lat="43.62612" lon="6.78406">
        <ele>342.13607788086</ele>
        <time>2010-03-28T09:34:37Z</time>
      </trkpt>
      <trkpt lat="43.62608" lon="6.78405">
        <ele>342.50979614258</ele>
        <time>2010-03-28T09:34:40Z</time>
      </trkpt>
      <trkpt lat="43.62604" lon="6.78408">
        <ele>342.67352294922</ele>
        <time>2010-03-28T09:34:43Z</time>
      </trkpt>
      <trkpt lat="43.62603" lon="6.78408">
        <ele>342.74185180664</ele>
        <time>2010-03-28T09:34:44Z</time>
      </trkpt>
      <trkpt lat="43.62598" lon="6.78404">
        <ele>343.44952392578</ele>
        <time>2010-03-28T09:35:01Z</time>
      </trkpt>
      <trkpt lat="43.62595" lon="6.7841">
        <ele>343.30755615234</ele>
        <time>2010-03-28T09:35:08Z</time>
      </trkpt>
      <trkpt lat="43.62594" lon="6.78412">
        <ele>343.25445556641</ele>
        <time>2010-03-28T09:35:10Z</time>
      </trkpt>
      <trkpt lat="43.62598" lon="6.78412">
        <ele>342.89700317383</ele>
        <time>2010-03-28T09:35:38Z</time>
      </trkpt>
      <trkpt lat="43.62598" lon="6.78418">
        <ele>342.75106811523</ele>
        <time>2010-03-28T09:35:43Z</time>
      </trkpt>
      <trkpt lat="43.62598" lon="6.78418">
        <ele>342.8046875</ele>
        <time>2010-03-28T09:35:44Z</time>
      </trkpt>
      <trkpt lat="43.626" lon="6.78421">
        <ele>343.00073242188</ele>
        <time>2010-03-28T09:35:52Z</time>
      </trkpt>
      <trkpt lat="43.626" lon="6.78422">
        <ele>343.10784912109</ele>
        <time>2010-03-28T09:35:55Z</time>
      </trkpt>
      <trkpt lat="43.62601" lon="6.78426">
        <ele>343.43948364258</ele>
        <time>2010-03-28T09:36:06Z</time>
      </trkpt>
      <trkpt lat="43.62603" lon="6.78427">
        <ele>343.33102416992</ele>
        <time>2010-03-28T09:36:19Z</time>
      </trkpt>
      <trkpt lat="43.62608" lon="6.78429">
        <ele>342.95816040039</ele>
        <time>2010-03-28T09:37:22Z</time>
      </trkpt>
      <trkpt lat="43.6261" lon="6.78425">
        <ele>342.31716918945</ele>
        <time>2010-03-28T09:38:00Z</time>
      </trkpt>
      <trkpt lat="43.62608" lon="6.78416">
        <ele>341.68649291992</ele>
        <time>2010-03-28T09:38:39Z</time>
      </trkpt>
      <trkpt lat="43.62608" lon="6.78416">
        <ele>341.70495605469</ele>
        <time>2010-03-28T09:38:40Z</time>
      </trkpt>
      <trkpt lat="43.62606" lon="6.78414">
        <ele>341.95700073242</ele>
        <time>2010-03-28T09:38:54Z</time>
      </trkpt>
      <trkpt lat="43.62606" lon="6.78414">
        <ele>341.97158813477</ele>
        <time>2010-03-28T09:38:56Z</time>
      </trkpt>
      <trkpt lat="43.62608" lon="6.78417">
        <ele>341.68106079102</ele>
        <time>2010-03-28T09:39:18Z</time>
      </trkpt>
      <trkpt lat="43.6261" lon="6.7842">
        <ele>341.80493164062</ele>
        <time>2010-03-28T09:39:29Z</time>
      </trkpt>
      <trkpt lat="43.62609" lon="6.7842">
        <ele>341.91955566406</ele>
        <time>2010-03-28T09:39:42Z</time>
      </trkpt>
      <trkpt lat="43.62612" lon="6.78428">
        <ele>342.48245239258</ele>
        <time>2010-03-28T09:39:48Z</time>
      </trkpt>
      <trkpt lat="43.62616" lon="6.78443">
        <ele>343.53118896484</ele>
        <time>2010-03-28T09:39:55Z</time>
      </trkpt>
      <trkpt lat="43.62622" lon="6.78456">
        <ele>344.00610351562</ele>
        <time>2010-03-28T09:40:00Z</time>
      </trkpt>
      <trkpt lat="43.62623" lon="6.78469">
        <ele>344.97076416016</ele>
        <time>2010-03-28T09:40:05Z</time>
      </trkpt>
      <trkpt lat="43.62624" lon="6.78471">
        <ele>345.08563232422</ele>
        <time>2010-03-28T09:40:06Z</time>
      </trkpt>
      <trkpt lat="43.62624" lon="6.7849">
        <ele>346.68948364258</ele>
        <time>2010-03-28T09:40:12Z</time>
      </trkpt>
      <trkpt lat="43.62627" lon="6.78506">
        <ele>347.86727905273</ele>
        <time>2010-03-28T09:40:16Z</time>
      </trkpt>
      <trkpt lat="43.62629" lon="6.7853">
        <ele>350.0016784668</ele>
        <time>2010-03-28T09:40:21Z</time>
      </trkpt>
      <trkpt lat="43.62635" lon="6.78551">
        <ele>351.11212158203</ele>
        <time>2010-03-28T09:40:27Z</time>
      </trkpt>
      <trkpt lat="43.62637" lon="6.78554">
        <ele>351.15951538086</ele>
        <time>2010-03-28T09:40:28Z</time>
      </trkpt>
      <trkpt lat="43.62637" lon="6.78557">
        <ele>351.33511352539</ele>
        <time>2010-03-28T09:40:29Z</time>
      </trkpt>
      <trkpt lat="43.62641" lon="6.78574">
        <ele>352.43222045898</ele>
        <time>2010-03-28T09:40:35Z</time>
      </trkpt>
      <trkpt lat="43.62643" lon="6.78592">
        <ele>353.66220092773</ele>
        <time>2010-03-28T09:40:41Z</time>
      </trkpt>
      <trkpt lat="43.62644" lon="6.78598">
        <ele>353.71795654297</ele>
        <time>2010-03-28T09:40:44Z</time>
      </trkpt>
      <trkpt lat="43.62653" lon="6.78614">
        <ele>352.54495239258</ele>
        <time>2010-03-28T09:40:50Z</time>
      </trkpt>
      <trkpt lat="43.62665" lon="6.78634">
        <ele>350.86679077148</ele>
        <time>2010-03-28T09:40:56Z</time>
      </trkpt>
      <trkpt lat="43.62677" lon="6.78649">
        <ele>351.45959472656</ele>
        <time>2010-03-28T09:41:01Z</time>
      </trkpt>
      <trkpt lat="43.62682" lon="6.78654">
        <ele>351.89700317383</ele>
        <time>2010-03-28T09:41:03Z</time>
      </trkpt>
      <trkpt lat="43.62686" lon="6.78667">
        <ele>352.9153137207</ele>
        <time>2010-03-28T09:41:07Z</time>
      </trkpt>
      <trkpt lat="43.62688" lon="6.78675">
        <ele>353.36892700195</ele>
        <time>2010-03-28T09:41:09Z</time>
      </trkpt>
      <trkpt lat="43.62691" lon="6.78686">
        <ele>353.96453857422</ele>
        <time>2010-03-28T09:41:13Z</time>
      </trkpt>
      <trkpt lat="43.62692" lon="6.78689">
        <ele>354.12252807617</ele>
        <time>2010-03-28T09:41:14Z</time>
      </trkpt>
      <trkpt lat="43.62698" lon="6.7871">
        <ele>355.24053955078</ele>
        <time>2010-03-28T09:41:21Z</time>
      </trkpt>
      <trkpt lat="43.62701" lon="6.78715">
        <ele>355.61090087891</ele>
        <time>2010-03-28T09:41:23Z</time>
      </trkpt>
      <trkpt lat="43.62703" lon="6.78736">
        <ele>356.56234741211</ele>
        <time>2010-03-28T09:41:31Z</time>
      </trkpt>
      <trkpt lat="43.62703" lon="6.78754">
        <ele>357.23355102539</ele>
        <time>2010-03-28T09:41:37Z</time>
      </trkpt>
      <trkpt lat="43.62699" lon="6.7877">
        <ele>357.37814331055</ele>
        <time>2010-03-28T09:41:42Z</time>
      </trkpt>
      <trkpt lat="43.62701" lon="6.78781">
        <ele>357.71145629883</ele>
        <time>2010-03-28T09:41:45Z</time>
      </trkpt>
      <trkpt lat="43.62699" lon="6.78796">
        <ele>357.96496582031</ele>
        <time>2010-03-28T09:41:51Z</time>
      </trkpt>
      <trkpt lat="43.62697" lon="6.78807">
        <ele>358.12530517578</ele>
        <time>2010-03-28T09:41:55Z</time>
      </trkpt>
      <trkpt lat="43.62693" lon="6.78815">
        <ele>358.2024230957</ele>
        <time>2010-03-28T09:41:57Z</time>
      </trkpt>
      <trkpt lat="43.62692" lon="6.78822">
        <ele>358.32067871094</ele>
        <time>2010-03-28T09:41:59Z</time>
      </trkpt>
      <trkpt lat="43.62688" lon="6.78823">
        <ele>358.236328125</ele>
        <time>2010-03-28T09:42:05Z</time>
      </trkpt>
      <trkpt lat="43.62677" lon="6.78825">
        <ele>357.98065185547</ele>
        <time>2010-03-28T09:42:12Z</time>
      </trkpt>
      <trkpt lat="43.62674" lon="6.78834">
        <ele>358.18682861328</ele>
        <time>2010-03-28T09:42:18Z</time>
      </trkpt>
      <trkpt lat="43.62672" lon="6.7885">
        <ele>358.50497436523</ele>
        <time>2010-03-28T09:42:22Z</time>
      </trkpt>
      <trkpt lat="43.62671" lon="6.78854">
        <ele>358.57427978516</ele>
        <time>2010-03-28T09:42:23Z</time>
      </trkpt>
      <trkpt lat="43.62661" lon="6.7888">
        <ele>360.12731933594</ele>
        <time>2010-03-28T09:42:30Z</time>
      </trkpt>
      <trkpt lat="43.62652" lon="6.789">
        <ele>361.81890869141</ele>
        <time>2010-03-28T09:42:36Z</time>
      </trkpt>
      <trkpt lat="43.62645" lon="6.78917">
        <ele>363.17959594727</ele>
        <time>2010-03-28T09:42:41Z</time>
      </trkpt>
      <trkpt lat="43.62636" lon="6.78937">
        <ele>364.50628662109</ele>
        <time>2010-03-28T09:42:47Z</time>
      </trkpt>
      <trkpt lat="43.6263" lon="6.78957">
        <ele>365.32800292969</ele>
        <time>2010-03-28T09:42:53Z</time>
      </trkpt>
      <trkpt lat="43.62628" lon="6.7898">
        <ele>365.64865112305</ele>
        <time>2010-03-28T09:42:58Z</time>
      </trkpt>
      <trkpt lat="43.62623" lon="6.79003">
        <ele>366.22033691406</ele>
        <time>2010-03-28T09:43:04Z</time>
      </trkpt>
      <trkpt lat="43.62615" lon="6.79017">
        <ele>366.92541503906</ele>
        <time>2010-03-28T09:43:09Z</time>
      </trkpt>
      <trkpt lat="43.62605" lon="6.7903">
        <ele>367.91882324219</ele>
        <time>2010-03-28T09:43:15Z</time>
      </trkpt>
      <trkpt lat="43.62595" lon="6.79047">
        <ele>368.66781616211</ele>
        <time>2010-03-28T09:43:21Z</time>
      </trkpt>
      <trkpt lat="43.62584" lon="6.79064">
        <ele>369.41345214844</ele>
        <time>2010-03-28T09:43:27Z</time>
      </trkpt>
      <trkpt lat="43.62574" lon="6.79067">
        <ele>370.17419433594</ele>
        <time>2010-03-28T09:43:32Z</time>
      </trkpt>
      <trkpt lat="43.62563" lon="6.79075">
        <ele>370.92388916016</ele>
        <time>2010-03-28T09:43:38Z</time>
      </trkpt>
      <trkpt lat="43.62552" lon="6.79083">
        <ele>371.64645385742</ele>
        <time>2010-03-28T09:43:44Z</time>
      </trkpt>
      <trkpt lat="43.62542" lon="6.79093">
        <ele>372.04605102539</ele>
        <time>2010-03-28T09:43:50Z</time>
      </trkpt>
      <trkpt lat="43.62534" lon="6.791">
        <ele>372.28713989258</ele>
        <time>2010-03-28T09:43:55Z</time>
      </trkpt>
      <trkpt lat="43.62515" lon="6.79111">
        <ele>372.96490478516</ele>
        <time>2010-03-28T09:44:04Z</time>
      </trkpt>
      <trkpt lat="43.62513" lon="6.79113">
        <ele>373.00802612305</ele>
        <time>2010-03-28T09:44:05Z</time>
      </trkpt>
      <trkpt lat="43.62503" lon="6.79119">
        <ele>373.21722412109</ele>
        <time>2010-03-28T09:44:11Z</time>
      </trkpt>
      <trkpt lat="43.62493" lon="6.7912">
        <ele>373.84130859375</ele>
        <time>2010-03-28T09:44:17Z</time>
      </trkpt>
      <trkpt lat="43.62481" lon="6.79118">
        <ele>374.70104980469</ele>
        <time>2010-03-28T09:44:24Z</time>
      </trkpt>
      <trkpt lat="43.62471" lon="6.79118">
        <ele>375.33749389648</ele>
        <time>2010-03-28T09:44:30Z</time>
      </trkpt>
      <trkpt lat="43.62463" lon="6.79117">
        <ele>375.91879272461</ele>
        <time>2010-03-28T09:44:36Z</time>
      </trkpt>
      <trkpt lat="43.62455" lon="6.79116">
        <ele>376.43078613281</ele>
        <time>2010-03-28T09:44:41Z</time>
      </trkpt>
      <trkpt lat="43.62445" lon="6.79113">
        <ele>377.21383666992</ele>
        <time>2010-03-28T09:44:47Z</time>
      </trkpt>
      <trkpt lat="43.62438" lon="6.7911">
        <ele>377.76025390625</ele>
        <time>2010-03-28T09:44:51Z</time>
      </trkpt>
      <trkpt lat="43.62429" lon="6.79105">
        <ele>378.51202392578</ele>
        <time>2010-03-28T09:44:57Z</time>
      </trkpt>
      <trkpt lat="43.62418" lon="6.79104">
        <ele>379.18557739258</ele>
        <time>2010-03-28T09:45:03Z</time>
      </trkpt>
      <trkpt lat="43.62408" lon="6.79101">
        <ele>379.4270324707</ele>
        <time>2010-03-28T09:45:09Z</time>
      </trkpt>
      <trkpt lat="43.62399" lon="6.79093">
        <ele>379.71624755859</ele>
        <time>2010-03-28T09:45:15Z</time>
      </trkpt>
      <trkpt lat="43.62391" lon="6.79093">
        <ele>379.77044677734</ele>
        <time>2010-03-28T09:45:19Z</time>
      </trkpt>
      <trkpt lat="43.62384" lon="6.79092">
        <ele>379.80484008789</ele>
        <time>2010-03-28T09:45:23Z</time>
      </trkpt>
      <trkpt lat="43.62365" lon="6.79089">
        <ele>379.92514038086</ele>
        <time>2010-03-28T09:45:30Z</time>
      </trkpt>
      <trkpt lat="43.62351" lon="6.79087">
        <ele>379.96966552734</ele>
        <time>2010-03-28T09:45:34Z</time>
      </trkpt>
      <trkpt lat="43.6234" lon="6.79088">
        <ele>379.98617553711</ele>
        <time>2010-03-28T09:45:38Z</time>
      </trkpt>
      <trkpt lat="43.62333" lon="6.79093">
        <ele>379.98306274414</ele>
        <time>2010-03-28T09:45:41Z</time>
      </trkpt>
      <trkpt lat="43.62324" lon="6.79114">
        <ele>379.85562133789</ele>
        <time>2010-03-28T09:45:47Z</time>
      </trkpt>
      <trkpt lat="43.62315" lon="6.79133">
        <ele>379.82052612305</ele>
        <time>2010-03-28T09:45:52Z</time>
      </trkpt>
      <trkpt lat="43.62307" lon="6.79147">
        <ele>379.84823608398</ele>
        <time>2010-03-28T09:45:56Z</time>
      </trkpt>
      <trkpt lat="43.62302" lon="6.79164">
        <ele>379.97320556641</ele>
        <time>2010-03-28T09:46:01Z</time>
      </trkpt>
      <trkpt lat="43.62294" lon="6.79186">
        <ele>379.87997436523</ele>
        <time>2010-03-28T09:46:05Z</time>
      </trkpt>
      <trkpt lat="43.62283" lon="6.79203">
        <ele>379.8254699707</ele>
        <time>2010-03-28T09:46:09Z</time>
      </trkpt>
      <trkpt lat="43.62272" lon="6.79211">
        <ele>379.85940551758</ele>
        <time>2010-03-28T09:46:12Z</time>
      </trkpt>
      <trkpt lat="43.62265" lon="6.79222">
        <ele>379.88296508789</ele>
        <time>2010-03-28T09:46:15Z</time>
      </trkpt>
      <trkpt lat="43.62255" lon="6.79231">
        <ele>379.95300292969</ele>
        <time>2010-03-28T09:46:19Z</time>
      </trkpt>
      <trkpt lat="43.62244" lon="6.7924">
        <ele>379.28405761719</ele>
        <time>2010-03-28T09:46:23Z</time>
      </trkpt>
      <trkpt lat="43.62233" lon="6.79263">
        <ele>377.46905517578</ele>
        <time>2010-03-28T09:46:29Z</time>
      </trkpt>
      <trkpt lat="43.62222" lon="6.79278">
        <ele>375.63363647461</ele>
        <time>2010-03-28T09:46:33Z</time>
      </trkpt>
      <trkpt lat="43.62207" lon="6.79296">
        <ele>373.49053955078</ele>
        <time>2010-03-28T09:46:37Z</time>
      </trkpt>
      <trkpt lat="43.62192" lon="6.79323">
        <ele>371.37417602539</ele>
        <time>2010-03-28T09:46:42Z</time>
      </trkpt>
      <trkpt lat="43.62184" lon="6.79339">
        <ele>370.09951782227</ele>
        <time>2010-03-28T09:46:45Z</time>
      </trkpt>
      <trkpt lat="43.6217" lon="6.79347">
        <ele>368.63427734375</ele>
        <time>2010-03-28T09:46:49Z</time>
      </trkpt>
      <trkpt lat="43.62162" lon="6.7934">
        <ele>368.66940307617</ele>
        <time>2010-03-28T09:46:54Z</time>
      </trkpt>
      <trkpt lat="43.62154" lon="6.79333">
        <ele>368.84832763672</ele>
        <time>2010-03-28T09:46:57Z</time>
      </trkpt>
      <trkpt lat="43.62136" lon="6.79321">
        <ele>368.67196655273</ele>
        <time>2010-03-28T09:47:03Z</time>
      </trkpt>
      <trkpt lat="43.6212" lon="6.79329">
        <ele>368.43988037109</ele>
        <time>2010-03-28T09:47:07Z</time>
      </trkpt>
      <trkpt lat="43.62112" lon="6.79339">
        <ele>368.29946899414</ele>
        <time>2010-03-28T09:47:09Z</time>
      </trkpt>
      <trkpt lat="43.62089" lon="6.79368">
        <ele>368.33694458008</ele>
        <time>2010-03-28T09:47:14Z</time>
      </trkpt>
      <trkpt lat="43.62072" lon="6.79386">
        <ele>369.61770629883</ele>
        <time>2010-03-28T09:47:18Z</time>
      </trkpt>
      <trkpt lat="43.62068" lon="6.79392">
        <ele>370.04989624023</ele>
        <time>2010-03-28T09:47:22Z</time>
      </trkpt>
      <trkpt lat="43.62069" lon="6.79393">
        <ele>369.96044921875</ele>
        <time>2010-03-28T09:47:35Z</time>
      </trkpt>
      <trkpt lat="43.62069" lon="6.79393">
        <ele>369.96273803711</ele>
        <time>2010-03-28T09:47:36Z</time>
      </trkpt>
      <trkpt lat="43.62069" lon="6.79393">
        <ele>369.99905395508</ele>
        <time>2010-03-28T09:47:37Z</time>
      </trkpt>
      <trkpt lat="43.62069" lon="6.79393">
        <ele>370.03771972656</ele>
        <time>2010-03-28T09:47:39Z</time>
      </trkpt>
      <trkpt lat="43.62068" lon="6.79393">
        <ele>370.07565307617</ele>
        <time>2010-03-28T09:47:42Z</time>
      </trkpt>
      <trkpt lat="43.62068" lon="6.79393">
        <ele>370.10974121094</ele>
        <time>2010-03-28T09:47:45Z</time>
      </trkpt>
      <trkpt lat="43.62068" lon="6.79393">
        <ele>370.10974121094</ele>
        <time>2010-03-28T09:47:46Z</time>
      </trkpt>
      <trkpt lat="43.62067" lon="6.79393">
        <ele>370.14379882812</ele>
        <time>2010-03-28T09:47:47Z</time>
      </trkpt>
      <trkpt lat="43.62067" lon="6.79393">
        <ele>370.14379882812</ele>
        <time>2010-03-28T09:47:48Z</time>
      </trkpt>
      <trkpt lat="43.62067" lon="6.79393">
        <ele>370.14379882812</ele>
        <time>2010-03-28T09:47:49Z</time>
      </trkpt>
      <trkpt lat="43.62068" lon="6.79392">
        <ele>370.04989624023</ele>
        <time>2010-03-28T09:47:59Z</time>
      </trkpt>
      <trkpt lat="43.62071" lon="6.7939">
        <ele>369.75433349609</ele>
        <time>2010-03-28T09:48:04Z</time>
      </trkpt>
      <trkpt lat="43.62071" lon="6.7939">
        <ele>369.75433349609</ele>
        <time>2010-03-28T09:48:05Z</time>
      </trkpt>
      <trkpt lat="43.62073" lon="6.7939">
        <ele>369.61437988281</ele>
        <time>2010-03-28T09:48:13Z</time>
      </trkpt>
      <trkpt lat="43.62073" lon="6.7939">
        <ele>369.5778503418</ele>
        <time>2010-03-28T09:48:15Z</time>
      </trkpt>
      <trkpt lat="43.62073" lon="6.7939">
        <ele>369.57571411133</ele>
        <time>2010-03-28T09:48:16Z</time>
      </trkpt>
      <trkpt lat="43.62074" lon="6.7939">
        <ele>369.54064941406</ele>
        <time>2010-03-28T09:48:17Z</time>
      </trkpt>
      <trkpt lat="43.62076" lon="6.79387">
        <ele>369.3063659668</ele>
        <time>2010-03-28T09:48:30Z</time>
      </trkpt>
      <trkpt lat="43.62081" lon="6.79385">
        <ele>368.81295776367</ele>
        <time>2010-03-28T09:48:52Z</time>
      </trkpt>
      <trkpt lat="43.62083" lon="6.79384">
        <ele>368.62927246094</ele>
        <time>2010-03-28T09:49:01Z</time>
      </trkpt>
      <trkpt lat="43.62087" lon="6.79385">
        <ele>368.52679443359</ele>
        <time>2010-03-28T09:50:28Z</time>
      </trkpt>
      <trkpt lat="43.62086" lon="6.79384">
        <ele>368.55432128906</ele>
        <time>2010-03-28T09:50:56Z</time>
      </trkpt>
      <trkpt lat="43.62085" lon="6.79384">
        <ele>368.56024169922</ele>
        <time>2010-03-28T09:50:57Z</time>
      </trkpt>
      <trkpt lat="43.62085" lon="6.79384">
        <ele>368.56600952148</ele>
        <time>2010-03-28T09:50:58Z</time>
      </trkpt>
      <trkpt lat="43.62083" lon="6.79385">
        <ele>368.67330932617</ele>
        <time>2010-03-28T09:51:13Z</time>
      </trkpt>
      <trkpt lat="43.62082" lon="6.79384">
        <ele>368.70349121094</ele>
        <time>2010-03-28T09:51:18Z</time>
      </trkpt>
      <trkpt lat="43.62082" lon="6.79384">
        <ele>368.70230102539</ele>
        <time>2010-03-28T09:51:19Z</time>
      </trkpt>
      <trkpt lat="43.62082" lon="6.79384">
        <ele>368.69879150391</ele>
        <time>2010-03-28T09:51:21Z</time>
      </trkpt>
      <trkpt lat="43.62082" lon="6.79384">
        <ele>368.69763183594</ele>
        <time>2010-03-28T09:51:22Z</time>
      </trkpt>
      <trkpt lat="43.62085" lon="6.79382">
        <ele>368.55783081055</ele>
        <time>2010-03-28T09:51:51Z</time>
      </trkpt>
      <trkpt lat="43.62085" lon="6.79382">
        <ele>368.54846191406</ele>
        <time>2010-03-28T09:51:53Z</time>
      </trkpt>
      <trkpt lat="43.62085" lon="6.79382">
        <ele>368.54846191406</ele>
        <time>2010-03-28T09:51:54Z</time>
      </trkpt>
      <trkpt lat="43.62087" lon="6.79384">
        <ele>368.51162719727</ele>
        <time>2010-03-28T09:52:51Z</time>
      </trkpt>
      <trkpt lat="43.62087" lon="6.79384">
        <ele>368.51119995117</ele>
        <time>2010-03-28T09:52:56Z</time>
      </trkpt>
      <trkpt lat="43.62087" lon="6.79386">
        <ele>368.52694702148</ele>
        <time>2010-03-28T09:53:01Z</time>
      </trkpt>
      <trkpt lat="43.62081" lon="6.79387">
        <ele>368.83343505859</ele>
        <time>2010-03-28T09:53:19Z</time>
      </trkpt>
      <trkpt lat="43.62077" lon="6.79389">
        <ele>369.19046020508</ele>
        <time>2010-03-28T09:53:44Z</time>
      </trkpt>
      <trkpt lat="43.62078" lon="6.79389">
        <ele>369.15628051758</ele>
        <time>2010-03-28T09:53:47Z</time>
      </trkpt>
      <trkpt lat="43.62078" lon="6.79389">
        <ele>369.15628051758</ele>
        <time>2010-03-28T09:53:48Z</time>
      </trkpt>
      <trkpt lat="43.62079" lon="6.79389">
        <ele>369.06707763672</ele>
        <time>2010-03-28T09:54:17Z</time>
      </trkpt>
      <trkpt lat="43.62078" lon="6.7939">
        <ele>369.14785766602</ele>
        <time>2010-03-28T09:54:50Z</time>
      </trkpt>
      <trkpt lat="43.62078" lon="6.7939">
        <ele>369.14849853516</ele>
        <time>2010-03-28T09:54:52Z</time>
      </trkpt>
      <trkpt lat="43.62078" lon="6.7939">
        <ele>369.14849853516</ele>
        <time>2010-03-28T09:54:53Z</time>
      </trkpt>
      <trkpt lat="43.62078" lon="6.79387">
        <ele>369.09698486328</ele>
        <time>2010-03-28T09:57:30Z</time>
      </trkpt>
      <trkpt lat="43.62078" lon="6.79386">
        <ele>369.09439086914</ele>
        <time>2010-03-28T09:57:37Z</time>
      </trkpt>
      <trkpt lat="43.62078" lon="6.79386">
        <ele>369.09439086914</ele>
        <time>2010-03-28T09:57:38Z</time>
      </trkpt>
      <trkpt lat="43.62078" lon="6.79386">
        <ele>369.09439086914</ele>
        <time>2010-03-28T09:57:39Z</time>
      </trkpt>
      <trkpt lat="43.62078" lon="6.79387">
        <ele>369.06301879883</ele>
        <time>2010-03-28T09:58:30Z</time>
      </trkpt>
      <trkpt lat="43.62078" lon="6.79386">
        <ele>369.11926269531</ele>
        <time>2010-03-28T09:59:23Z</time>
      </trkpt>
      <trkpt lat="43.62077" lon="6.79387">
        <ele>369.23556518555</ele>
        <time>2010-03-28T09:59:50Z</time>
      </trkpt>
      <trkpt lat="43.62077" lon="6.79387">
        <ele>369.23889160156</ele>
        <time>2010-03-28T09:59:55Z</time>
      </trkpt>
      <trkpt lat="43.62078" lon="6.79388">
        <ele>369.11373901367</ele>
        <time>2010-03-28T10:00:18Z</time>
      </trkpt>
      <trkpt lat="43.62077" lon="6.79388">
        <ele>369.18325805664</ele>
        <time>2010-03-28T10:00:19Z</time>
      </trkpt>
      <trkpt lat="43.62079" lon="6.79391">
        <ele>369.05987548828</ele>
        <time>2010-03-28T10:00:24Z</time>
      </trkpt>
      <trkpt lat="43.6208" lon="6.79393">
        <ele>369.01937866211</ele>
        <time>2010-03-28T10:00:25Z</time>
      </trkpt>
      <trkpt lat="43.62083" lon="6.79407">
        <ele>368.91036987305</ele>
        <time>2010-03-28T10:00:29Z</time>
      </trkpt>
      <trkpt lat="43.62088" lon="6.79425">
        <ele>368.8830871582</ele>
        <time>2010-03-28T10:00:33Z</time>
      </trkpt>
      <trkpt lat="43.62092" lon="6.79452">
        <ele>368.88653564453</ele>
        <time>2010-03-28T10:00:36Z</time>
      </trkpt>
      <trkpt lat="43.6211" lon="6.79493">
        <ele>367.74551391602</ele>
        <time>2010-03-28T10:00:41Z</time>
      </trkpt>
      <trkpt lat="43.62122" lon="6.79503">
        <ele>366.84661865234</ele>
        <time>2010-03-28T10:00:43Z</time>
      </trkpt>
      <trkpt lat="43.62154" lon="6.79526">
        <ele>365.01675415039</ele>
        <time>2010-03-28T10:00:48Z</time>
      </trkpt>
      <trkpt lat="43.62162" lon="6.7954">
        <ele>364.81481933594</ele>
        <time>2010-03-28T10:00:50Z</time>
      </trkpt>
      <trkpt lat="43.62186" lon="6.79567">
        <ele>363.71231079102</ele>
        <time>2010-03-28T10:00:55Z</time>
      </trkpt>
      <trkpt lat="43.62199" lon="6.79573">
        <ele>362.75085449219</ele>
        <time>2010-03-28T10:00:58Z</time>
      </trkpt>
      <trkpt lat="43.62213" lon="6.79574">
        <ele>361.45034790039</ele>
        <time>2010-03-28T10:01:02Z</time>
      </trkpt>
      <trkpt lat="43.6222" lon="6.79579">
        <ele>360.89120483398</ele>
        <time>2010-03-28T10:01:05Z</time>
      </trkpt>
      <trkpt lat="43.62222" lon="6.79581">
        <ele>360.68850708008</ele>
        <time>2010-03-28T10:01:06Z</time>
      </trkpt>
      <trkpt lat="43.62226" lon="6.79587">
        <ele>360.61322021484</ele>
        <time>2010-03-28T10:01:08Z</time>
      </trkpt>
      <trkpt lat="43.62238" lon="6.79599">
        <ele>360.24600219727</ele>
        <time>2010-03-28T10:01:12Z</time>
      </trkpt>
      <trkpt lat="43.62259" lon="6.796">
        <ele>358.416015625</ele>
        <time>2010-03-28T10:01:17Z</time>
      </trkpt>
      <trkpt lat="43.62276" lon="6.79609">
        <ele>357.69046020508</ele>
        <time>2010-03-28T10:01:22Z</time>
      </trkpt>
      <trkpt lat="43.62282" lon="6.7963">
        <ele>358.66662597656</ele>
        <time>2010-03-28T10:01:26Z</time>
      </trkpt>
      <trkpt lat="43.62296" lon="6.7965">
        <ele>359.00079345703</ele>
        <time>2010-03-28T10:01:31Z</time>
      </trkpt>
      <trkpt lat="43.62299" lon="6.79653">
        <ele>358.87033081055</ele>
        <time>2010-03-28T10:01:32Z</time>
      </trkpt>
      <trkpt lat="43.62309" lon="6.79647">
        <ele>357.57601928711</ele>
        <time>2010-03-28T10:01:34Z</time>
      </trkpt>
      <trkpt lat="43.62314" lon="6.79644">
        <ele>356.99923706055</ele>
        <time>2010-03-28T10:01:35Z</time>
      </trkpt>
      <trkpt lat="43.62319" lon="6.79642">
        <ele>356.43502807617</ele>
        <time>2010-03-28T10:01:36Z</time>
      </trkpt>
      <trkpt lat="43.62327" lon="6.79639">
        <ele>355.51034545898</ele>
        <time>2010-03-28T10:01:38Z</time>
      </trkpt>
      <trkpt lat="43.62339" lon="6.79659">
        <ele>355.57012939453</ele>
        <time>2010-03-28T10:01:42Z</time>
      </trkpt>
      <trkpt lat="43.62352" lon="6.79684">
        <ele>353.73602294922</ele>
        <time>2010-03-28T10:01:45Z</time>
      </trkpt>
      <trkpt lat="43.62387" lon="6.79702">
        <ele>347.12411499023</ele>
        <time>2010-03-28T10:01:50Z</time>
      </trkpt>
      <trkpt lat="43.62399" lon="6.79696">
        <ele>345.41943359375</ele>
        <time>2010-03-28T10:01:54Z</time>
      </trkpt>
      <trkpt lat="43.624" lon="6.79695">
        <ele>345.29614257812</ele>
        <time>2010-03-28T10:01:55Z</time>
      </trkpt>
      <trkpt lat="43.62407" lon="6.7968">
        <ele>345.37216186523</ele>
        <time>2010-03-28T10:02:01Z</time>
      </trkpt>
      <trkpt lat="43.62407" lon="6.79676">
        <ele>345.59353637695</ele>
        <time>2010-03-28T10:02:05Z</time>
      </trkpt>
      <trkpt lat="43.62409" lon="6.79671">
        <ele>345.8151550293</ele>
        <time>2010-03-28T10:02:14Z</time>
      </trkpt>
      <trkpt lat="43.6241" lon="6.79662">
        <ele>345.79678344727</ele>
        <time>2010-03-28T10:02:19Z</time>
      </trkpt>
      <trkpt lat="43.62411" lon="6.7966">
        <ele>345.48327636719</ele>
        <time>2010-03-28T10:02:29Z</time>
      </trkpt>
      <trkpt lat="43.62412" lon="6.7966">
        <ele>345.42584228516</ele>
        <time>2010-03-28T10:02:30Z</time>
      </trkpt>
      <trkpt lat="43.62413" lon="6.79655">
        <ele>345.12930297852</ele>
        <time>2010-03-28T10:02:42Z</time>
      </trkpt>
      <trkpt lat="43.62417" lon="6.7965">
        <ele>344.29879760742</ele>
        <time>2010-03-28T10:02:45Z</time>
      </trkpt>
      <trkpt lat="43.62419" lon="6.79643">
        <ele>343.07888793945</ele>
        <time>2010-03-28T10:02:49Z</time>
      </trkpt>
      <trkpt lat="43.6242" lon="6.79639">
        <ele>342.35122680664</ele>
        <time>2010-03-28T10:02:59Z</time>
      </trkpt>
      <trkpt lat="43.62418" lon="6.79637">
        <ele>343.06625366211</ele>
        <time>2010-03-28T10:03:05Z</time>
      </trkpt>
      <trkpt lat="43.62418" lon="6.79631">
        <ele>343.08029174805</ele>
        <time>2010-03-28T10:03:09Z</time>
      </trkpt>
      <trkpt lat="43.62414" lon="6.7962">
        <ele>343.61614990234</ele>
        <time>2010-03-28T10:03:14Z</time>
      </trkpt>
      <trkpt lat="43.62413" lon="6.79617">
        <ele>343.6897277832</ele>
        <time>2010-03-28T10:03:16Z</time>
      </trkpt>
      <trkpt lat="43.62411" lon="6.79612">
        <ele>343.66567993164</ele>
        <time>2010-03-28T10:03:18Z</time>
      </trkpt>
      <trkpt lat="43.62413" lon="6.79607">
        <ele>343.24496459961</ele>
        <time>2010-03-28T10:03:23Z</time>
      </trkpt>
      <trkpt lat="43.62417" lon="6.79608">
        <ele>342.80282592773</ele>
        <time>2010-03-28T10:03:26Z</time>
      </trkpt>
      <trkpt lat="43.62424" lon="6.79609">
        <ele>339.60763549805</ele>
        <time>2010-03-28T10:03:31Z</time>
      </trkpt>
      <trkpt lat="43.6243" lon="6.79611">
        <ele>336.88238525391</ele>
        <time>2010-03-28T10:03:37Z</time>
      </trkpt>
      <trkpt lat="43.62431" lon="6.79613">
        <ele>336.55346679688</ele>
        <time>2010-03-28T10:03:38Z</time>
      </trkpt>
      <trkpt lat="43.62434" lon="6.79622">
        <ele>334.9934387207</ele>
        <time>2010-03-28T10:03:43Z</time>
      </trkpt>
      <trkpt lat="43.62435" lon="6.79626">
        <ele>334.81039428711</ele>
        <time>2010-03-28T10:03:47Z</time>
      </trkpt>
      <trkpt lat="43.62437" lon="6.79636">
        <ele>333.65377807617</ele>
        <time>2010-03-28T10:03:54Z</time>
      </trkpt>
      <trkpt lat="43.62447" lon="6.79645">
        <ele>328.45642089844</ele>
        <time>2010-03-28T10:03:59Z</time>
      </trkpt>
      <trkpt lat="43.6245" lon="6.79649">
        <ele>326.52841186523</ele>
        <time>2010-03-28T10:04:07Z</time>
      </trkpt>
      <trkpt lat="43.62455" lon="6.79653">
        <ele>323.9700012207</ele>
        <time>2010-03-28T10:04:12Z</time>
      </trkpt>
      <trkpt lat="43.62457" lon="6.79654">
        <ele>323.11056518555</ele>
        <time>2010-03-28T10:04:13Z</time>
      </trkpt>
      <trkpt lat="43.62459" lon="6.79659">
        <ele>321.59805297852</ele>
        <time>2010-03-28T10:04:17Z</time>
      </trkpt>
      <trkpt lat="43.62459" lon="6.79662">
        <ele>321.4836730957</ele>
        <time>2010-03-28T10:04:20Z</time>
      </trkpt>
      <trkpt lat="43.62461" lon="6.79668">
        <ele>319.88983154297</ele>
        <time>2010-03-28T10:04:26Z</time>
      </trkpt>
      <trkpt lat="43.62464" lon="6.79674">
        <ele>316.74353027344</ele>
        <time>2010-03-28T10:04:31Z</time>
      </trkpt>
      <trkpt lat="43.62464" lon="6.79679">
        <ele>315.42529296875</ele>
        <time>2010-03-28T10:04:35Z</time>
      </trkpt>
      <trkpt lat="43.62466" lon="6.79688">
        <ele>312.30584716797</ele>
        <time>2010-03-28T10:04:39Z</time>
      </trkpt>
      <trkpt lat="43.62463" lon="6.79701">
        <ele>311.67895507812</ele>
        <time>2010-03-28T10:04:46Z</time>
      </trkpt>
      <trkpt lat="43.62461" lon="6.79703">
        <ele>311.92929077148</ele>
        <time>2010-03-28T10:04:48Z</time>
      </trkpt>
      <trkpt lat="43.62455" lon="6.79705">
        <ele>315.89999389648</ele>
        <time>2010-03-28T10:04:54Z</time>
      </trkpt>
      <trkpt lat="43.62449" lon="6.79718">
        <ele>317.81097412109</ele>
        <time>2010-03-28T10:05:00Z</time>
      </trkpt>
      <trkpt lat="43.62448" lon="6.7972">
        <ele>317.87054443359</ele>
        <time>2010-03-28T10:05:01Z</time>
      </trkpt>
      <trkpt lat="43.62445" lon="6.79729">
        <ele>318.58602905273</ele>
        <time>2010-03-28T10:05:04Z</time>
      </trkpt>
      <trkpt lat="43.62446" lon="6.79745">
        <ele>315.4065246582</ele>
        <time>2010-03-28T10:05:09Z</time>
      </trkpt>
      <trkpt lat="43.62443" lon="6.79761">
        <ele>313.90179443359</ele>
        <time>2010-03-28T10:05:13Z</time>
      </trkpt>
      <trkpt lat="43.62438" lon="6.79775">
        <ele>314.86761474609</ele>
        <time>2010-03-28T10:05:17Z</time>
      </trkpt>
      <trkpt lat="43.62431" lon="6.79787">
        <ele>317.67172241211</ele>
        <time>2010-03-28T10:05:21Z</time>
      </trkpt>
      <trkpt lat="43.62426" lon="6.79796">
        <ele>320.60409545898</ele>
        <time>2010-03-28T10:05:25Z</time>
      </trkpt>
      <trkpt lat="43.62424" lon="6.798">
        <ele>321.10055541992</ele>
        <time>2010-03-28T10:05:28Z</time>
      </trkpt>
      <trkpt lat="43.62418" lon="6.79807">
        <ele>324.72705078125</ele>
        <time>2010-03-28T10:05:35Z</time>
      </trkpt>
      <trkpt lat="43.62418" lon="6.79811">
        <ele>324.34625244141</ele>
        <time>2010-03-28T10:05:47Z</time>
      </trkpt>
      <trkpt lat="43.62417" lon="6.79814">
        <ele>324.40148925781</ele>
        <time>2010-03-28T10:05:50Z</time>
      </trkpt>
      <trkpt lat="43.62416" lon="6.79824">
        <ele>323.04800415039</ele>
        <time>2010-03-28T10:05:56Z</time>
      </trkpt>
      <trkpt lat="43.62417" lon="6.79841">
        <ele>319.11813354492</ele>
        <time>2010-03-28T10:06:00Z</time>
      </trkpt>
      <trkpt lat="43.62414" lon="6.79852">
        <ele>317.50726318359</ele>
        <time>2010-03-28T10:06:03Z</time>
      </trkpt>
      <trkpt lat="43.62413" lon="6.79854">
        <ele>317.38854980469</ele>
        <time>2010-03-28T10:06:04Z</time>
      </trkpt>
      <trkpt lat="43.62409" lon="6.79865">
        <ele>316.15768432617</ele>
        <time>2010-03-28T10:06:09Z</time>
      </trkpt>
      <trkpt lat="43.62414" lon="6.79871">
        <ele>313.24392700195</ele>
        <time>2010-03-28T10:06:13Z</time>
      </trkpt>
      <trkpt lat="43.62424" lon="6.79869">
        <ele>305.68426513672</ele>
        <time>2010-03-28T10:06:18Z</time>
      </trkpt>
      <trkpt lat="43.62424" lon="6.79879">
        <ele>303.25424194336</ele>
        <time>2010-03-28T10:06:21Z</time>
      </trkpt>
      <trkpt lat="43.62419" lon="6.79891">
        <ele>305.23687744141</ele>
        <time>2010-03-28T10:06:25Z</time>
      </trkpt>
      <trkpt lat="43.62412" lon="6.79904">
        <ele>306.46755981445</ele>
        <time>2010-03-28T10:06:29Z</time>
      </trkpt>
      <trkpt lat="43.6241" lon="6.79907">
        <ele>306.44528198242</ele>
        <time>2010-03-28T10:06:30Z</time>
      </trkpt>
      <trkpt lat="43.62404" lon="6.7992">
        <ele>305.55996704102</ele>
        <time>2010-03-28T10:06:33Z</time>
      </trkpt>
      <trkpt lat="43.62396" lon="6.79933">
        <ele>304.36633300781</ele>
        <time>2010-03-28T10:06:38Z</time>
      </trkpt>
      <trkpt lat="43.62395" lon="6.79937">
        <ele>303.80181884766</ele>
        <time>2010-03-28T10:06:39Z</time>
      </trkpt>
      <trkpt lat="43.62396" lon="6.79943">
        <ele>301.57626342773</ele>
        <time>2010-03-28T10:06:44Z</time>
      </trkpt>
      <trkpt lat="43.62396" lon="6.79948">
        <ele>300.02319335938</ele>
        <time>2010-03-28T10:06:48Z</time>
      </trkpt>
      <trkpt lat="43.62402" lon="6.79953">
        <ele>296.38327026367</ele>
        <time>2010-03-28T10:06:52Z</time>
      </trkpt>
      <trkpt lat="43.6241" lon="6.79954">
        <ele>293.18759155273</ele>
        <time>2010-03-28T10:06:56Z</time>
      </trkpt>
      <trkpt lat="43.62412" lon="6.79955">
        <ele>292.05749511719</ele>
        <time>2010-03-28T10:06:57Z</time>
      </trkpt>
      <trkpt lat="43.62416" lon="6.7997">
        <ele>286.12991333008</ele>
        <time>2010-03-28T10:07:01Z</time>
      </trkpt>
      <trkpt lat="43.62416" lon="6.79986">
        <ele>281.38098144531</ele>
        <time>2010-03-28T10:07:05Z</time>
      </trkpt>
      <trkpt lat="43.62415" lon="6.79991">
        <ele>280.39663696289</ele>
        <time>2010-03-28T10:07:09Z</time>
      </trkpt>
      <trkpt lat="43.62415" lon="6.7999">
        <ele>280.69583129883</ele>
        <time>2010-03-28T10:07:10Z</time>
      </trkpt>
      <trkpt lat="43.62414" lon="6.79989">
        <ele>281.2861328125</ele>
        <time>2010-03-28T10:07:12Z</time>
      </trkpt>
      <trkpt lat="43.62407" lon="6.79991">
        <ele>283.53466796875</ele>
        <time>2010-03-28T10:07:17Z</time>
      </trkpt>
      <trkpt lat="43.62404" lon="6.79998">
        <ele>282.41369628906</ele>
        <time>2010-03-28T10:07:21Z</time>
      </trkpt>
      <trkpt lat="43.62394" lon="6.80011">
        <ele>282.28387451172</ele>
        <time>2010-03-28T10:07:26Z</time>
      </trkpt>
      <trkpt lat="43.62392" lon="6.80014">
        <ele>282.36114501953</ele>
        <time>2010-03-28T10:07:27Z</time>
      </trkpt>
      <trkpt lat="43.62371" lon="6.80015">
        <ele>290.39349365234</ele>
        <time>2010-03-28T10:07:33Z</time>
      </trkpt>
      <trkpt lat="43.62368" lon="6.80016">
        <ele>291.51217651367</ele>
        <time>2010-03-28T10:07:34Z</time>
      </trkpt>
      <trkpt lat="43.62352" lon="6.80035">
        <ele>292.74011230469</ele>
        <time>2010-03-28T10:07:39Z</time>
      </trkpt>
      <trkpt lat="43.62344" lon="6.80053">
        <ele>291.86083984375</ele>
        <time>2010-03-28T10:07:43Z</time>
      </trkpt>
      <trkpt lat="43.62336" lon="6.80071">
        <ele>290.72232055664</ele>
        <time>2010-03-28T10:07:47Z</time>
      </trkpt>
      <trkpt lat="43.62336" lon="6.80084">
        <ele>287.20425415039</ele>
        <time>2010-03-28T10:07:49Z</time>
      </trkpt>
      <trkpt lat="43.62338" lon="6.80102">
        <ele>282.37896728516</ele>
        <time>2010-03-28T10:07:53Z</time>
      </trkpt>
      <trkpt lat="43.62339" lon="6.80109">
        <ele>279.89901733398</ele>
        <time>2010-03-28T10:07:57Z</time>
      </trkpt>
      <trkpt lat="43.62341" lon="6.80114">
        <ele>277.91473388672</ele>
        <time>2010-03-28T10:08:00Z</time>
      </trkpt>
      <trkpt lat="43.62348" lon="6.80103">
        <ele>276.72470092773</ele>
        <time>2010-03-28T10:08:05Z</time>
      </trkpt>
      <trkpt lat="43.62349" lon="6.801">
        <ele>276.93194580078</ele>
        <time>2010-03-28T10:08:06Z</time>
      </trkpt>
      <trkpt lat="43.6235" lon="6.80098">
        <ele>277.09307861328</ele>
        <time>2010-03-28T10:08:07Z</time>
      </trkpt>
      <trkpt lat="43.62351" lon="6.80093">
        <ele>277.43618774414</ele>
        <time>2010-03-28T10:08:09Z</time>
      </trkpt>
      <trkpt lat="43.62353" lon="6.80096">
        <ele>275.60638427734</ele>
        <time>2010-03-28T10:08:13Z</time>
      </trkpt>
      <trkpt lat="43.62352" lon="6.80103">
        <ele>274.44665527344</ele>
        <time>2010-03-28T10:08:15Z</time>
      </trkpt>
      <trkpt lat="43.62352" lon="6.8012">
        <ele>270.18048095703</ele>
        <time>2010-03-28T10:08:20Z</time>
      </trkpt>
      <trkpt lat="43.62358" lon="6.80118">
        <ele>267.84875488281</ele>
        <time>2010-03-28T10:08:24Z</time>
      </trkpt>
      <trkpt lat="43.62363" lon="6.80101">
        <ele>269.39474487305</ele>
        <time>2010-03-28T10:08:30Z</time>
      </trkpt>
      <trkpt lat="43.62364" lon="6.80099">
        <ele>269.05773925781</ele>
        <time>2010-03-28T10:08:36Z</time>
      </trkpt>
      <trkpt lat="43.62365" lon="6.80097">
        <ele>269.09771728516</ele>
        <time>2010-03-28T10:08:38Z</time>
      </trkpt>
      <trkpt lat="43.62367" lon="6.80094">
        <ele>268.93008422852</ele>
        <time>2010-03-28T10:08:44Z</time>
      </trkpt>
      <trkpt lat="43.62366" lon="6.80095">
        <ele>268.87350463867</ele>
        <time>2010-03-28T10:08:45Z</time>
      </trkpt>
      <trkpt lat="43.62368" lon="6.80108">
        <ele>265.02813720703</ele>
        <time>2010-03-28T10:08:50Z</time>
      </trkpt>
      <trkpt lat="43.62368" lon="6.80109">
        <ele>264.32281494141</ele>
        <time>2010-03-28T10:08:51Z</time>
      </trkpt>
      <trkpt lat="43.62376" lon="6.80098">
        <ele>262.99725341797</ele>
        <time>2010-03-28T10:08:57Z</time>
      </trkpt>
      <trkpt lat="43.62388" lon="6.80098">
        <ele>256.8200378418</ele>
        <time>2010-03-28T10:09:00Z</time>
      </trkpt>
      <trkpt lat="43.62393" lon="6.80101">
        <ele>253.43870544434</ele>
        <time>2010-03-28T10:09:03Z</time>
      </trkpt>
      <trkpt lat="43.62395" lon="6.80105">
        <ele>251.13645935059</ele>
        <time>2010-03-28T10:09:08Z</time>
      </trkpt>
      <trkpt lat="43.62396" lon="6.80105">
        <ele>250.75563049316</ele>
        <time>2010-03-28T10:09:09Z</time>
      </trkpt>
      <trkpt lat="43.62399" lon="6.80106">
        <ele>248.40478515625</ele>
        <time>2010-03-28T10:09:15Z</time>
      </trkpt>
      <trkpt lat="43.62402" lon="6.80106">
        <ele>247.26033020019</ele>
        <time>2010-03-28T10:09:17Z</time>
      </trkpt>
      <trkpt lat="43.62419" lon="6.80105">
        <ele>237.67362976074</ele>
        <time>2010-03-28T10:09:22Z</time>
      </trkpt>
      <trkpt lat="43.62425" lon="6.80105">
        <ele>233.19609069824</ele>
        <time>2010-03-28T10:09:25Z</time>
      </trkpt>
      <trkpt lat="43.62436" lon="6.80109">
        <ele>224.18946838379</ele>
        <time>2010-03-28T10:09:29Z</time>
      </trkpt>
      <trkpt lat="43.62445" lon="6.80112">
        <ele>216.73754882812</ele>
        <time>2010-03-28T10:09:33Z</time>
      </trkpt>
      <trkpt lat="43.62447" lon="6.80112">
        <ele>214.86059570312</ele>
        <time>2010-03-28T10:09:34Z</time>
      </trkpt>
      <trkpt lat="43.62455" lon="6.80108">
        <ele>209.94989013672</ele>
        <time>2010-03-28T10:09:40Z</time>
      </trkpt>
      <trkpt lat="43.6246" lon="6.80104">
        <ele>206.72476196289</ele>
        <time>2010-03-28T10:09:48Z</time>
      </trkpt>
      <trkpt lat="43.62458" lon="6.80103">
        <ele>208.57278442383</ele>
        <time>2010-03-28T10:09:54Z</time>
      </trkpt>
      <trkpt lat="43.62457" lon="6.80106">
        <ele>209.08024597168</ele>
        <time>2010-03-28T10:09:59Z</time>
      </trkpt>
      <trkpt lat="43.62461" lon="6.80108">
        <ele>205.42958068848</ele>
        <time>2010-03-28T10:10:05Z</time>
      </trkpt>
      <trkpt lat="43.62465" lon="6.80106">
        <ele>202.82588195801</ele>
        <time>2010-03-28T10:10:07Z</time>
      </trkpt>
      <trkpt lat="43.62478" lon="6.80096">
        <ele>194.4377746582</ele>
        <time>2010-03-28T10:10:13Z</time>
      </trkpt>
      <trkpt lat="43.62489" lon="6.80086">
        <ele>186.79412841797</ele>
        <time>2010-03-28T10:10:20Z</time>
      </trkpt>
      <trkpt lat="43.625" lon="6.80077">
        <ele>178.80079650879</ele>
        <time>2010-03-28T10:10:25Z</time>
      </trkpt>
      <trkpt lat="43.62504" lon="6.80067">
        <ele>178.50758361816</ele>
        <time>2010-03-28T10:10:30Z</time>
      </trkpt>
      <trkpt lat="43.62511" lon="6.80053">
        <ele>177.51325988769</ele>
        <time>2010-03-28T10:10:35Z</time>
      </trkpt>
      <trkpt lat="43.62513" lon="6.80047">
        <ele>177.61846923828</ele>
        <time>2010-03-28T10:10:37Z</time>
      </trkpt>
      <trkpt lat="43.62516" lon="6.80031">
        <ele>178.47801208496</ele>
        <time>2010-03-28T10:10:42Z</time>
      </trkpt>
      <trkpt lat="43.62518" lon="6.80026">
        <ele>178.33154296875</ele>
        <time>2010-03-28T10:10:46Z</time>
      </trkpt>
      <trkpt lat="43.62522" lon="6.8002">
        <ele>177.49604797363</ele>
        <time>2010-03-28T10:10:54Z</time>
      </trkpt>
      <trkpt lat="43.62526" lon="6.8001">
        <ele>177.25416564941</ele>
        <time>2010-03-28T10:11:00Z</time>
      </trkpt>
      <trkpt lat="43.62532" lon="6.79997">
        <ele>176.86856079102</ele>
        <time>2010-03-28T10:11:04Z</time>
      </trkpt>
      <trkpt lat="43.62537" lon="6.79977">
        <ele>178.83866882324</ele>
        <time>2010-03-28T10:11:09Z</time>
      </trkpt>
      <trkpt lat="43.62545" lon="6.7996">
        <ele>179.05897521973</ele>
        <time>2010-03-28T10:11:14Z</time>
      </trkpt>
      <trkpt lat="43.62546" lon="6.79956">
        <ele>179.65553283691</ele>
        <time>2010-03-28T10:11:19Z</time>
      </trkpt>
      <trkpt lat="43.62548" lon="6.79948">
        <ele>180.02770996094</ele>
        <time>2010-03-28T10:11:29Z</time>
      </trkpt>
      <trkpt lat="43.62555" lon="6.79936">
        <ele>179.46890258789</ele>
        <time>2010-03-28T10:11:33Z</time>
      </trkpt>
      <trkpt lat="43.62559" lon="6.79915">
        <ele>181.4093170166</ele>
        <time>2010-03-28T10:11:37Z</time>
      </trkpt>
      <trkpt lat="43.62564" lon="6.79898">
        <ele>183.18138122559</ele>
        <time>2010-03-28T10:11:40Z</time>
      </trkpt>
      <trkpt lat="43.62565" lon="6.79894">
        <ele>183.93591308594</ele>
        <time>2010-03-28T10:11:41Z</time>
      </trkpt>
      <trkpt lat="43.62569" lon="6.79885">
        <ele>184.15605163574</ele>
        <time>2010-03-28T10:11:46Z</time>
      </trkpt>
      <trkpt lat="43.62571" lon="6.79883">
        <ele>183.33439636231</ele>
        <time>2010-03-28T10:11:50Z</time>
      </trkpt>
      <trkpt lat="43.62574" lon="6.79898">
        <ele>177.82368469238</ele>
        <time>2010-03-28T10:11:56Z</time>
      </trkpt>
      <trkpt lat="43.62574" lon="6.79909">
        <ele>175.04231262207</ele>
        <time>2010-03-28T10:11:59Z</time>
      </trkpt>
      <trkpt lat="43.62576" lon="6.79912">
        <ele>173.26422119141</ele>
        <time>2010-03-28T10:12:01Z</time>
      </trkpt>
      <trkpt lat="43.6258" lon="6.79912">
        <ele>170.86068725586</ele>
        <time>2010-03-28T10:12:08Z</time>
      </trkpt>
      <trkpt lat="43.62583" lon="6.79913">
        <ele>169.01696777344</ele>
        <time>2010-03-28T10:12:16Z</time>
      </trkpt>
      <trkpt lat="43.62587" lon="6.79913">
        <ele>168.02149963379</ele>
        <time>2010-03-28T10:12:20Z</time>
      </trkpt>
      <trkpt lat="43.62587" lon="6.79917">
        <ele>166.88938903809</ele>
        <time>2010-03-28T10:12:24Z</time>
      </trkpt>
      <trkpt lat="43.62585" lon="6.7992">
        <ele>166.96800231934</ele>
        <time>2010-03-28T10:12:28Z</time>
      </trkpt>
      <trkpt lat="43.6258" lon="6.79933">
        <ele>166.93603515625</ele>
        <time>2010-03-28T10:12:32Z</time>
      </trkpt>
      <trkpt lat="43.62581" lon="6.79954">
        <ele>163.29713439941</ele>
        <time>2010-03-28T10:12:38Z</time>
      </trkpt>
      <trkpt lat="43.62581" lon="6.79956">
        <ele>162.85861206055</ele>
        <time>2010-03-28T10:12:39Z</time>
      </trkpt>
      <trkpt lat="43.62584" lon="6.7997">
        <ele>159.50694274902</ele>
        <time>2010-03-28T10:12:45Z</time>
      </trkpt>
      <trkpt lat="43.62585" lon="6.79975">
        <ele>158.56202697754</ele>
        <time>2010-03-28T10:12:50Z</time>
      </trkpt>
      <trkpt lat="43.62587" lon="6.79977">
        <ele>157.36712646484</ele>
        <time>2010-03-28T10:13:02Z</time>
      </trkpt>
      <trkpt lat="43.62587" lon="6.79977">
        <ele>157.34455871582</ele>
        <time>2010-03-28T10:13:03Z</time>
      </trkpt>
      <trkpt lat="43.62587" lon="6.79978">
        <ele>157.26182556152</ele>
        <time>2010-03-28T10:13:05Z</time>
      </trkpt>
      <trkpt lat="43.62588" lon="6.79979">
        <ele>156.97329711914</ele>
        <time>2010-03-28T10:13:06Z</time>
      </trkpt>
      <trkpt lat="43.62587" lon="6.79985">
        <ele>156.38916015625</ele>
        <time>2010-03-28T10:13:12Z</time>
      </trkpt>
      <trkpt lat="43.62586" lon="6.79987">
        <ele>156.18772888184</ele>
        <time>2010-03-28T10:13:14Z</time>
      </trkpt>
      <trkpt lat="43.62585" lon="6.79989">
        <ele>156.16003417969</ele>
        <time>2010-03-28T10:13:16Z</time>
      </trkpt>
      <trkpt lat="43.62583" lon="6.79993">
        <ele>156.29985046387</ele>
        <time>2010-03-28T10:13:25Z</time>
      </trkpt>
      <trkpt lat="43.62583" lon="6.79995">
        <ele>156.01573181152</ele>
        <time>2010-03-28T10:13:34Z</time>
      </trkpt>
      <trkpt lat="43.62582" lon="6.79998">
        <ele>156.0451965332</ele>
        <time>2010-03-28T10:13:40Z</time>
      </trkpt>
      <trkpt lat="43.62584" lon="6.80001">
        <ele>154.63151550293</ele>
        <time>2010-03-28T10:13:45Z</time>
      </trkpt>
      <trkpt lat="43.62584" lon="6.80007">
        <ele>154.03433227539</ele>
        <time>2010-03-28T10:13:50Z</time>
      </trkpt>
      <trkpt lat="43.62584" lon="6.80013">
        <ele>153.35256958008</ele>
        <time>2010-03-28T10:13:54Z</time>
      </trkpt>
      <trkpt lat="43.62587" lon="6.80015">
        <ele>151.95726013184</ele>
        <time>2010-03-28T10:14:03Z</time>
      </trkpt>
      <trkpt lat="43.62596" lon="6.80011">
        <ele>149.71566772461</ele>
        <time>2010-03-28T10:14:08Z</time>
      </trkpt>
      <trkpt lat="43.62602" lon="6.80008">
        <ele>148.11964416504</ele>
        <time>2010-03-28T10:14:12Z</time>
      </trkpt>
      <trkpt lat="43.62608" lon="6.80009">
        <ele>146.10452270508</ele>
        <time>2010-03-28T10:14:19Z</time>
      </trkpt>
      <trkpt lat="43.62611" lon="6.80009">
        <ele>145.0348815918</ele>
        <time>2010-03-28T10:14:25Z</time>
      </trkpt>
      <trkpt lat="43.62611" lon="6.80012">
        <ele>144.6806640625</ele>
        <time>2010-03-28T10:14:30Z</time>
      </trkpt>
      <trkpt lat="43.62613" lon="6.80012">
        <ele>144.13404846191</ele>
        <time>2010-03-28T10:14:36Z</time>
      </trkpt>
      <trkpt lat="43.62616" lon="6.8001">
        <ele>143.60945129394</ele>
        <time>2010-03-28T10:14:43Z</time>
      </trkpt>
      <trkpt lat="43.62619" lon="6.80009">
        <ele>142.57585144043</ele>
        <time>2010-03-28T10:14:48Z</time>
      </trkpt>
      <trkpt lat="43.6262" lon="6.80014">
        <ele>141.63209533691</ele>
        <time>2010-03-28T10:14:54Z</time>
      </trkpt>
      <trkpt lat="43.62618" lon="6.80017">
        <ele>141.91259765625</ele>
        <time>2010-03-28T10:14:57Z</time>
      </trkpt>
      <trkpt lat="43.62621" lon="6.80019">
        <ele>140.7733001709</ele>
        <time>2010-03-28T10:15:00Z</time>
      </trkpt>
      <trkpt lat="43.62629" lon="6.80021">
        <ele>137.87367248535</ele>
        <time>2010-03-28T10:15:06Z</time>
      </trkpt>
      <trkpt lat="43.62631" lon="6.80025">
        <ele>136.68655395508</ele>
        <time>2010-03-28T10:15:10Z</time>
      </trkpt>
      <trkpt lat="43.6263" lon="6.80029">
        <ele>136.58734130859</ele>
        <time>2010-03-28T10:15:13Z</time>
      </trkpt>
      <trkpt lat="43.62624" lon="6.80045">
        <ele>136.41934204102</ele>
        <time>2010-03-28T10:15:20Z</time>
      </trkpt>
      <trkpt lat="43.62623" lon="6.80048">
        <ele>136.24087524414</ele>
        <time>2010-03-28T10:15:21Z</time>
      </trkpt>
      <trkpt lat="43.62619" lon="6.80058">
        <ele>136.36570739746</ele>
        <time>2010-03-28T10:15:26Z</time>
      </trkpt>
      <trkpt lat="43.6262" lon="6.8006">
        <ele>135.85368347168</ele>
        <time>2010-03-28T10:15:35Z</time>
      </trkpt>
      <trkpt lat="43.62619" lon="6.80063">
        <ele>135.74002075195</ele>
        <time>2010-03-28T10:15:42Z</time>
      </trkpt>
      <trkpt lat="43.62618" lon="6.80064">
        <ele>135.74816894531</ele>
        <time>2010-03-28T10:15:47Z</time>
      </trkpt>
      <trkpt lat="43.62617" lon="6.80068">
        <ele>135.66246032715</ele>
        <time>2010-03-28T10:15:52Z</time>
      </trkpt>
      <trkpt lat="43.62616" lon="6.80068">
        <ele>135.89686584473</ele>
        <time>2010-03-28T10:15:58Z</time>
      </trkpt>
      <trkpt lat="43.62617" lon="6.80068">
        <ele>135.72712707519</ele>
        <time>2010-03-28T10:15:59Z</time>
      </trkpt>
      <trkpt lat="43.62617" lon="6.80074">
        <ele>134.94836425781</ele>
        <time>2010-03-28T10:16:04Z</time>
      </trkpt>
      <trkpt lat="43.62616" lon="6.80089">
        <ele>133.46856689453</ele>
        <time>2010-03-28T10:16:09Z</time>
      </trkpt>
      <trkpt lat="43.62614" lon="6.80105">
        <ele>132.59881591797</ele>
        <time>2010-03-28T10:16:14Z</time>
      </trkpt>
      <trkpt lat="43.62613" lon="6.80126">
        <ele>131.10650634766</ele>
        <time>2010-03-28T10:16:20Z</time>
      </trkpt>
      <trkpt lat="43.62613" lon="6.80129">
        <ele>130.83184814453</ele>
        <time>2010-03-28T10:16:21Z</time>
      </trkpt>
      <trkpt lat="43.62609" lon="6.80147">
        <ele>130.39239501953</ele>
        <time>2010-03-28T10:16:27Z</time>
      </trkpt>
      <trkpt lat="43.62606" lon="6.80157">
        <ele>130.13146972656</ele>
        <time>2010-03-28T10:16:31Z</time>
      </trkpt>
      <trkpt lat="43.62605" lon="6.8016">
        <ele>130.28253173828</ele>
        <time>2010-03-28T10:16:32Z</time>
      </trkpt>
      <trkpt lat="43.626" lon="6.80177">
        <ele>131.06510925293</ele>
        <time>2010-03-28T10:16:38Z</time>
      </trkpt>
      <trkpt lat="43.62595" lon="6.80192">
        <ele>131.79135131836</ele>
        <time>2010-03-28T10:16:42Z</time>
      </trkpt>
      <trkpt lat="43.62593" lon="6.802">
        <ele>132.15437316894</ele>
        <time>2010-03-28T10:16:47Z</time>
      </trkpt>
      <trkpt lat="43.62592" lon="6.80207">
        <ele>132.21224975586</ele>
        <time>2010-03-28T10:16:51Z</time>
      </trkpt>
      <trkpt lat="43.62586" lon="6.80221">
        <ele>133.45246887207</ele>
        <time>2010-03-28T10:16:58Z</time>
      </trkpt>
      <trkpt lat="43.62582" lon="6.80242">
        <ele>134.04779052734</ele>
        <time>2010-03-28T10:17:05Z</time>
      </trkpt>
      <trkpt lat="43.62581" lon="6.80253">
        <ele>134.11793518066</ele>
        <time>2010-03-28T10:17:09Z</time>
      </trkpt>
      <trkpt lat="43.62579" lon="6.80271">
        <ele>135.55131530762</ele>
        <time>2010-03-28T10:17:15Z</time>
      </trkpt>
      <trkpt lat="43.62582" lon="6.80288">
        <ele>134.80505371094</ele>
        <time>2010-03-28T10:17:21Z</time>
      </trkpt>
      <trkpt lat="43.62582" lon="6.80294">
        <ele>134.53356933594</ele>
        <time>2010-03-28T10:17:23Z</time>
      </trkpt>
      <trkpt lat="43.62583" lon="6.80313">
        <ele>134.81843566894</ele>
        <time>2010-03-28T10:17:29Z</time>
      </trkpt>
      <trkpt lat="43.62586" lon="6.8034">
        <ele>134.40464782715</ele>
        <time>2010-03-28T10:17:36Z</time>
      </trkpt>
      <trkpt lat="43.62588" lon="6.8037">
        <ele>134.79339599609</ele>
        <time>2010-03-28T10:17:43Z</time>
      </trkpt>
      <trkpt lat="43.62589" lon="6.80395">
        <ele>135.11325073242</ele>
        <time>2010-03-28T10:17:49Z</time>
      </trkpt>
      <trkpt lat="43.62589" lon="6.80406">
        <ele>135.50569152832</ele>
        <time>2010-03-28T10:17:55Z</time>
      </trkpt>
      <trkpt lat="43.6259" lon="6.80406">
        <ele>135.36787414551</ele>
        <time>2010-03-28T10:17:56Z</time>
      </trkpt>
      <trkpt lat="43.62592" lon="6.80408">
        <ele>134.73834228516</ele>
        <time>2010-03-28T10:18:05Z</time>
      </trkpt>
      <trkpt lat="43.62594" lon="6.80414">
        <ele>133.98454284668</ele>
        <time>2010-03-28T10:18:12Z</time>
      </trkpt>
      <trkpt lat="43.62598" lon="6.80421">
        <ele>132.81799316406</ele>
        <time>2010-03-28T10:18:17Z</time>
      </trkpt>
      <trkpt lat="43.62609" lon="6.80436">
        <ele>129.66522216797</ele>
        <time>2010-03-28T10:18:22Z</time>
      </trkpt>
      <trkpt lat="43.62617" lon="6.80455">
        <ele>127.94130706787</ele>
        <time>2010-03-28T10:18:27Z</time>
      </trkpt>
      <trkpt lat="43.62617" lon="6.80479">
        <ele>129.42816162109</ele>
        <time>2010-03-28T10:18:32Z</time>
      </trkpt>
      <trkpt lat="43.6261" lon="6.80504">
        <ele>133.6164855957</ele>
        <time>2010-03-28T10:18:38Z</time>
      </trkpt>
      <trkpt lat="43.62605" lon="6.80532">
        <ele>138.72724914551</ele>
        <time>2010-03-28T10:18:44Z</time>
      </trkpt>
      <trkpt lat="43.62603" lon="6.80563">
        <ele>142.85261535644</ele>
        <time>2010-03-28T10:18:50Z</time>
      </trkpt>
      <trkpt lat="43.62603" lon="6.80595">
        <ele>146.81004333496</ele>
        <time>2010-03-28T10:18:56Z</time>
      </trkpt>
      <trkpt lat="43.62611" lon="6.80622">
        <ele>147.5647277832</ele>
        <time>2010-03-28T10:19:01Z</time>
      </trkpt>
      <trkpt lat="43.62617" lon="6.80633">
        <ele>146.48823547363</ele>
        <time>2010-03-28T10:19:04Z</time>
      </trkpt>
      <trkpt lat="43.62625" lon="6.80653">
        <ele>145.18505859375</ele>
        <time>2010-03-28T10:19:09Z</time>
      </trkpt>
      <trkpt lat="43.62627" lon="6.80658">
        <ele>145.10848999023</ele>
        <time>2010-03-28T10:19:12Z</time>
      </trkpt>
      <trkpt lat="43.62639" lon="6.80659">
        <ele>139.32206726074</ele>
        <time>2010-03-28T10:19:39Z</time>
      </trkpt>
      <trkpt lat="43.6264" lon="6.8066">
        <ele>139.24798583984</ele>
        <time>2010-03-28T10:19:45Z</time>
      </trkpt>
      <trkpt lat="43.62638" lon="6.80662">
        <ele>139.9612121582</ele>
        <time>2010-03-28T10:19:51Z</time>
      </trkpt>
      <trkpt lat="43.62637" lon="6.80665">
        <ele>140.92166137695</ele>
        <time>2010-03-28T10:20:06Z</time>
      </trkpt>
      <trkpt lat="43.62639" lon="6.80669">
        <ele>140.76179504394</ele>
        <time>2010-03-28T10:20:11Z</time>
      </trkpt>
      <trkpt lat="43.62639" lon="6.80673">
        <ele>141.29830932617</ele>
        <time>2010-03-28T10:20:18Z</time>
      </trkpt>
      <trkpt lat="43.62639" lon="6.80675">
        <ele>141.60186767578</ele>
        <time>2010-03-28T10:20:27Z</time>
      </trkpt>
      <trkpt lat="43.6264" lon="6.80689">
        <ele>143.20237731934</ele>
        <time>2010-03-28T10:20:34Z</time>
      </trkpt>
      <trkpt lat="43.62642" lon="6.80699">
        <ele>143.53169250488</ele>
        <time>2010-03-28T10:20:39Z</time>
      </trkpt>
      <trkpt lat="43.6265" lon="6.80724">
        <ele>142.6711730957</ele>
        <time>2010-03-28T10:20:47Z</time>
      </trkpt>
      <trkpt lat="43.62659" lon="6.80749">
        <ele>140.68693542481</ele>
        <time>2010-03-28T10:20:54Z</time>
      </trkpt>
      <trkpt lat="43.62663" lon="6.80763">
        <ele>141.06936645508</ele>
        <time>2010-03-28T10:20:59Z</time>
      </trkpt>
      <trkpt lat="43.6267" lon="6.80783">
        <ele>141.05017089844</ele>
        <time>2010-03-28T10:21:06Z</time>
      </trkpt>
      <trkpt lat="43.62675" lon="6.80797">
        <ele>141.34614562988</ele>
        <time>2010-03-28T10:21:12Z</time>
      </trkpt>
      <trkpt lat="43.62678" lon="6.80803">
        <ele>140.78802490234</ele>
        <time>2010-03-28T10:21:19Z</time>
      </trkpt>
      <trkpt lat="43.62679" lon="6.80806">
        <ele>140.57244873047</ele>
        <time>2010-03-28T10:21:20Z</time>
      </trkpt>
      <trkpt lat="43.62687" lon="6.80815">
        <ele>137.72535705566</ele>
        <time>2010-03-28T10:21:25Z</time>
      </trkpt>
      <trkpt lat="43.6269" lon="6.80816">
        <ele>136.45198059082</ele>
        <time>2010-03-28T10:21:26Z</time>
      </trkpt>
      <trkpt lat="43.62707" lon="6.80824">
        <ele>127.70916748047</ele>
        <time>2010-03-28T10:21:32Z</time>
      </trkpt>
      <trkpt lat="43.62722" lon="6.80829">
        <ele>119.49587249756</ele>
        <time>2010-03-28T10:21:37Z</time>
      </trkpt>
      <trkpt lat="43.62732" lon="6.80841">
        <ele>114.26860046387</ele>
        <time>2010-03-28T10:21:44Z</time>
      </trkpt>
      <trkpt lat="43.62734" lon="6.80843">
        <ele>113.4931716919</ele>
        <time>2010-03-28T10:21:46Z</time>
      </trkpt>
      <trkpt lat="43.62737" lon="6.80846">
        <ele>111.81340026856</ele>
        <time>2010-03-28T10:21:52Z</time>
      </trkpt>
      <trkpt lat="43.62739" lon="6.80849">
        <ele>110.82983398438</ele>
        <time>2010-03-28T10:21:54Z</time>
      </trkpt>
      <trkpt lat="43.62748" lon="6.80856">
        <ele>105.16239929199</ele>
        <time>2010-03-28T10:21:59Z</time>
      </trkpt>
      <trkpt lat="43.6275" lon="6.80857">
        <ele>103.95257568359</ele>
        <time>2010-03-28T10:22:00Z</time>
      </trkpt>
      <trkpt lat="43.62752" lon="6.80859">
        <ele>103.82265472412</ele>
        <time>2010-03-28T10:22:01Z</time>
      </trkpt>
      <trkpt lat="43.62754" lon="6.80864">
        <ele>103.79968261719</ele>
        <time>2010-03-28T10:22:03Z</time>
      </trkpt>
      <trkpt lat="43.62765" lon="6.80874">
        <ele>103.37393188477</ele>
        <time>2010-03-28T10:22:08Z</time>
      </trkpt>
      <trkpt lat="43.62767" lon="6.80876">
        <ele>103.32823944092</ele>
        <time>2010-03-28T10:22:12Z</time>
      </trkpt>
      <trkpt lat="43.62766" lon="6.8088">
        <ele>103.52619171143</ele>
        <time>2010-03-28T10:22:16Z</time>
      </trkpt>
      <trkpt lat="43.62763" lon="6.80886">
        <ele>103.846824646</ele>
        <time>2010-03-28T10:22:18Z</time>
      </trkpt>
      <trkpt lat="43.62763" lon="6.80889">
        <ele>103.94023132324</ele>
        <time>2010-03-28T10:22:19Z</time>
      </trkpt>
      <trkpt lat="43.62762" lon="6.80899">
        <ele>104.29402160644</ele>
        <time>2010-03-28T10:22:22Z</time>
      </trkpt>
      <trkpt lat="43.62762" lon="6.80913">
        <ele>104.76000976562</ele>
        <time>2010-03-28T10:22:28Z</time>
      </trkpt>
      <trkpt lat="43.62761" lon="6.80935">
        <ele>106.30855560303</ele>
        <time>2010-03-28T10:22:35Z</time>
      </trkpt>
      <trkpt lat="43.62761" lon="6.80954">
        <ele>107.69889831543</ele>
        <time>2010-03-28T10:22:41Z</time>
      </trkpt>
      <trkpt lat="43.62763" lon="6.8097">
        <ele>108.537940979</ele>
        <time>2010-03-28T10:22:47Z</time>
      </trkpt>
      <trkpt lat="43.62765" lon="6.80981">
        <ele>108.99252319336</ele>
        <time>2010-03-28T10:22:52Z</time>
      </trkpt>
      <trkpt lat="43.62768" lon="6.80994">
        <ele>109.30563354492</ele>
        <time>2010-03-28T10:22:57Z</time>
      </trkpt>
      <trkpt lat="43.62771" lon="6.81007">
        <ele>110.41687011719</ele>
        <time>2010-03-28T10:23:03Z</time>
      </trkpt>
      <trkpt lat="43.62775" lon="6.81018">
        <ele>111.41610717773</ele>
        <time>2010-03-28T10:23:08Z</time>
      </trkpt>
      <trkpt lat="43.62774" lon="6.81034">
        <ele>114.28876495361</ele>
        <time>2010-03-28T10:23:15Z</time>
      </trkpt>
      <trkpt lat="43.62777" lon="6.81048">
        <ele>115.70505523682</ele>
        <time>2010-03-28T10:23:22Z</time>
      </trkpt>
      <trkpt lat="43.62779" lon="6.81059">
        <ele>116.69360351562</ele>
        <time>2010-03-28T10:23:29Z</time>
      </trkpt>
      <trkpt lat="43.6278" lon="6.81068">
        <ele>117.60837554932</ele>
        <time>2010-03-28T10:23:33Z</time>
      </trkpt>
      <trkpt lat="43.62784" lon="6.81083">
        <ele>118.55132293701</ele>
        <time>2010-03-28T10:23:41Z</time>
      </trkpt>
      <trkpt lat="43.62786" lon="6.81086">
        <ele>117.89032745361</ele>
        <time>2010-03-28T10:23:43Z</time>
      </trkpt>
      <trkpt lat="43.62791" lon="6.81095">
        <ele>117.03512573242</ele>
        <time>2010-03-28T10:23:48Z</time>
      </trkpt>
      <trkpt lat="43.628" lon="6.81107">
        <ele>114.70494842529</ele>
        <time>2010-03-28T10:23:57Z</time>
      </trkpt>
      <trkpt lat="43.62805" lon="6.81119">
        <ele>114.05341339111</ele>
        <time>2010-03-28T10:24:03Z</time>
      </trkpt>
      <trkpt lat="43.62809" lon="6.81139">
        <ele>114.39795684815</ele>
        <time>2010-03-28T10:24:07Z</time>
      </trkpt>
      <trkpt lat="43.62814" lon="6.81161">
        <ele>114.15341186523</ele>
        <time>2010-03-28T10:24:11Z</time>
      </trkpt>
      <trkpt lat="43.62818" lon="6.81179">
        <ele>113.53998565674</ele>
        <time>2010-03-28T10:24:14Z</time>
      </trkpt>
      <trkpt lat="43.62823" lon="6.81201">
        <ele>113.16310119629</ele>
        <time>2010-03-28T10:24:18Z</time>
      </trkpt>
      <trkpt lat="43.6282" lon="6.81215">
        <ele>115.96862030029</ele>
        <time>2010-03-28T10:24:22Z</time>
      </trkpt>
      <trkpt lat="43.62818" lon="6.81213">
        <ele>116.53970336914</ele>
        <time>2010-03-28T10:24:23Z</time>
      </trkpt>
      <trkpt lat="43.62804" lon="6.81203">
        <ele>122.11791992188</ele>
        <time>2010-03-28T10:24:29Z</time>
      </trkpt>
      <trkpt lat="43.62799" lon="6.81202">
        <ele>124.35531616211</ele>
        <time>2010-03-28T10:24:31Z</time>
      </trkpt>
      <trkpt lat="43.6279" lon="6.81211">
        <ele>129.71948242188</ele>
        <time>2010-03-28T10:24:37Z</time>
      </trkpt>
      <trkpt lat="43.62788" lon="6.81216">
        <ele>130.60403442383</ele>
        <time>2010-03-28T10:24:50Z</time>
      </trkpt>
      <trkpt lat="43.6278" lon="6.81234">
        <ele>135.62843322754</ele>
        <time>2010-03-28T10:24:56Z</time>
      </trkpt>
      <trkpt lat="43.6277" lon="6.81255">
        <ele>141.27677917481</ele>
        <time>2010-03-28T10:25:01Z</time>
      </trkpt>
      <trkpt lat="43.62762" lon="6.81278">
        <ele>145.56852722168</ele>
        <time>2010-03-28T10:25:05Z</time>
      </trkpt>
      <trkpt lat="43.62747" lon="6.81313">
        <ele>153.19476318359</ele>
        <time>2010-03-28T10:25:10Z</time>
      </trkpt>
      <trkpt lat="43.62741" lon="6.8134">
        <ele>155.91693115234</ele>
        <time>2010-03-28T10:25:14Z</time>
      </trkpt>
      <trkpt lat="43.62733" lon="6.81363">
        <ele>157.80349731445</ele>
        <time>2010-03-28T10:25:18Z</time>
      </trkpt>
      <trkpt lat="43.62733" lon="6.81368">
        <ele>157.79948425293</ele>
        <time>2010-03-28T10:25:19Z</time>
      </trkpt>
      <trkpt lat="43.6273" lon="6.81382">
        <ele>157.95570373535</ele>
        <time>2010-03-28T10:25:23Z</time>
      </trkpt>
      <trkpt lat="43.6273" lon="6.81387">
        <ele>157.75942993164</ele>
        <time>2010-03-28T10:25:25Z</time>
      </trkpt>
      <trkpt lat="43.62725" lon="6.81401">
        <ele>158.68469238281</ele>
        <time>2010-03-28T10:25:31Z</time>
      </trkpt>
      <trkpt lat="43.62721" lon="6.8142">
        <ele>159.10911560059</ele>
        <time>2010-03-28T10:25:37Z</time>
      </trkpt>
      <trkpt lat="43.6272" lon="6.81425">
        <ele>158.45941162109</ele>
        <time>2010-03-28T10:25:39Z</time>
      </trkpt>
      <trkpt lat="43.6272" lon="6.81431">
        <ele>157.71336364746</ele>
        <time>2010-03-28T10:25:42Z</time>
      </trkpt>
      <trkpt lat="43.62719" lon="6.81436">
        <ele>157.34088134766</ele>
        <time>2010-03-28T10:25:45Z</time>
      </trkpt>
      <trkpt lat="43.6272" lon="6.81438">
        <ele>156.84858703613</ele>
        <time>2010-03-28T10:25:46Z</time>
      </trkpt>
      <trkpt lat="43.62718" lon="6.81453">
        <ele>155.14849853516</ele>
        <time>2010-03-28T10:25:52Z</time>
      </trkpt>
      <trkpt lat="43.62715" lon="6.81473">
        <ele>153.97653198242</ele>
        <time>2010-03-28T10:25:58Z</time>
      </trkpt>
      <trkpt lat="43.62714" lon="6.81481">
        <ele>152.98452758789</ele>
        <time>2010-03-28T10:26:02Z</time>
      </trkpt>
      <trkpt lat="43.62695" lon="6.81498">
        <ele>161.64010620117</ele>
        <time>2010-03-28T10:26:08Z</time>
      </trkpt>
      <trkpt lat="43.6268" lon="6.81523">
        <ele>162.78155517578</ele>
        <time>2010-03-28T10:26:11Z</time>
      </trkpt>
      <trkpt lat="43.62658" lon="6.81562">
        <ele>161.54298400879</ele>
        <time>2010-03-28T10:26:15Z</time>
      </trkpt>
      <trkpt lat="43.62644" lon="6.81584">
        <ele>160.36798095703</ele>
        <time>2010-03-28T10:26:18Z</time>
      </trkpt>
      <trkpt lat="43.62638" lon="6.81613">
        <ele>151.42373657227</ele>
        <time>2010-03-28T10:26:22Z</time>
      </trkpt>
      <trkpt lat="43.62637" lon="6.81622">
        <ele>148.09541320801</ele>
        <time>2010-03-28T10:26:27Z</time>
      </trkpt>
      <trkpt lat="43.6263" lon="6.81641">
        <ele>144.05108642578</ele>
        <time>2010-03-28T10:26:33Z</time>
      </trkpt>
      <trkpt lat="43.62624" lon="6.81652">
        <ele>141.96968078613</ele>
        <time>2010-03-28T10:26:37Z</time>
      </trkpt>
      <trkpt lat="43.62619" lon="6.81658">
        <ele>142.28643798828</ele>
        <time>2010-03-28T10:26:39Z</time>
      </trkpt>
      <trkpt lat="43.62617" lon="6.81661">
        <ele>142.02903747559</ele>
        <time>2010-03-28T10:26:42Z</time>
      </trkpt>
      <trkpt lat="43.62618" lon="6.81662">
        <ele>141.16079711914</ele>
        <time>2010-03-28T10:26:47Z</time>
      </trkpt>
      <trkpt lat="43.62618" lon="6.81663">
        <ele>140.78704833984</ele>
        <time>2010-03-28T10:26:48Z</time>
      </trkpt>
      <trkpt lat="43.62618" lon="6.81665">
        <ele>140.05825805664</ele>
        <time>2010-03-28T10:26:49Z</time>
      </trkpt>
      <trkpt lat="43.62616" lon="6.81686">
        <ele>135.7190246582</ele>
        <time>2010-03-28T10:26:54Z</time>
      </trkpt>
      <trkpt lat="43.62625" lon="6.81696">
        <ele>129.12997436523</ele>
        <time>2010-03-28T10:26:58Z</time>
      </trkpt>
      <trkpt lat="43.62634" lon="6.81699">
        <ele>124.38246917725</ele>
        <time>2010-03-28T10:27:02Z</time>
      </trkpt>
      <trkpt lat="43.62642" lon="6.81712">
        <ele>118.53053283691</ele>
        <time>2010-03-28T10:27:07Z</time>
      </trkpt>
      <trkpt lat="43.6265" lon="6.8171">
        <ele>115.18424987793</ele>
        <time>2010-03-28T10:27:10Z</time>
      </trkpt>
      <trkpt lat="43.62661" lon="6.81706">
        <ele>111.46069335938</ele>
        <time>2010-03-28T10:27:14Z</time>
      </trkpt>
      <trkpt lat="43.62669" lon="6.81711">
        <ele>107.6506729126</ele>
        <time>2010-03-28T10:27:18Z</time>
      </trkpt>
      <trkpt lat="43.62672" lon="6.81722">
        <ele>105.48066711426</ele>
        <time>2010-03-28T10:27:22Z</time>
      </trkpt>
      <trkpt lat="43.62675" lon="6.81735">
        <ele>102.84755706787</ele>
        <time>2010-03-28T10:27:26Z</time>
      </trkpt>
      <trkpt lat="43.62682" lon="6.81733">
        <ele>102.58518981934</ele>
        <time>2010-03-28T10:27:29Z</time>
      </trkpt>
      <trkpt lat="43.62698" lon="6.81728">
        <ele>101.83216094971</ele>
        <time>2010-03-28T10:27:35Z</time>
      </trkpt>
      <trkpt lat="43.627" lon="6.81729">
        <ele>101.52041625977</ele>
        <time>2010-03-28T10:27:44Z</time>
      </trkpt>
      <trkpt lat="43.62704" lon="6.81733">
        <ele>100.5485534668</ele>
        <time>2010-03-28T10:27:55Z</time>
      </trkpt>
      <trkpt lat="43.62704" lon="6.81736">
        <ele>100.28811645508</ele>
        <time>2010-03-28T10:27:56Z</time>
      </trkpt>
      <trkpt lat="43.62703" lon="6.81747">
        <ele>99.153594970703</ele>
        <time>2010-03-28T10:28:00Z</time>
      </trkpt>
      <trkpt lat="43.62699" lon="6.81765">
        <ele>98.372856140137</ele>
        <time>2010-03-28T10:28:04Z</time>
      </trkpt>
      <trkpt lat="43.62693" lon="6.81774">
        <ele>98.294219970703</ele>
        <time>2010-03-28T10:28:08Z</time>
      </trkpt>
      <trkpt lat="43.62692" lon="6.81786">
        <ele>97.725112915039</ele>
        <time>2010-03-28T10:28:14Z</time>
      </trkpt>
      <trkpt lat="43.62691" lon="6.81792">
        <ele>97.455604553223</ele>
        <time>2010-03-28T10:28:17Z</time>
      </trkpt>
      <trkpt lat="43.62695" lon="6.81803">
        <ele>96.792358398438</ele>
        <time>2010-03-28T10:28:22Z</time>
      </trkpt>
      <trkpt lat="43.62696" lon="6.81805">
        <ele>96.629829406738</ele>
        <time>2010-03-28T10:28:26Z</time>
      </trkpt>
      <trkpt lat="43.62697" lon="6.81807">
        <ele>96.494995117188</ele>
        <time>2010-03-28T10:28:33Z</time>
      </trkpt>
      <trkpt lat="43.62698" lon="6.81808">
        <ele>96.423690795898</ele>
        <time>2010-03-28T10:28:46Z</time>
      </trkpt>
      <trkpt lat="43.62698" lon="6.81809">
        <ele>96.357398986816</ele>
        <time>2010-03-28T10:28:50Z</time>
      </trkpt>
      <trkpt lat="43.62698" lon="6.81809">
        <ele>96.388259887695</ele>
        <time>2010-03-28T10:28:51Z</time>
      </trkpt>
      <trkpt lat="43.62698" lon="6.81808">
        <ele>96.423690795898</ele>
        <time>2010-03-28T10:28:53Z</time>
      </trkpt>
      <trkpt lat="43.62698" lon="6.81808">
        <ele>96.423690795898</ele>
        <time>2010-03-28T10:28:54Z</time>
      </trkpt>
      <trkpt lat="43.62698" lon="6.81808">
        <ele>96.419242858887</ele>
        <time>2010-03-28T10:28:55Z</time>
      </trkpt>
      <trkpt lat="43.62699" lon="6.8181">
        <ele>96.293853759766</ele>
        <time>2010-03-28T10:29:19Z</time>
      </trkpt>
      <trkpt lat="43.627" lon="6.8181">
        <ele>96.274299621582</ele>
        <time>2010-03-28T10:29:23Z</time>
      </trkpt>
      <trkpt lat="43.627" lon="6.8181">
        <ele>96.259147644043</ele>
        <time>2010-03-28T10:29:26Z</time>
      </trkpt>
      <trkpt lat="43.627" lon="6.8181">
        <ele>96.25479888916</ele>
        <time>2010-03-28T10:29:28Z</time>
      </trkpt>
      <trkpt lat="43.62701" lon="6.8181">
        <ele>96.239692687988</ele>
        <time>2010-03-28T10:29:30Z</time>
      </trkpt>
      <trkpt lat="43.62701" lon="6.8181">
        <ele>96.235374450684</ele>
        <time>2010-03-28T10:29:31Z</time>
      </trkpt>
      <trkpt lat="43.627" lon="6.8181">
        <ele>96.250518798828</ele>
        <time>2010-03-28T10:29:32Z</time>
      </trkpt>
      <trkpt lat="43.62701" lon="6.8181">
        <ele>96.235374450684</ele>
        <time>2010-03-28T10:29:33Z</time>
      </trkpt>
      <trkpt lat="43.62705" lon="6.81807">
        <ele>96.212944030762</ele>
        <time>2010-03-28T10:29:58Z</time>
      </trkpt>
      <trkpt lat="43.62706" lon="6.81804">
        <ele>96.328514099121</ele>
        <time>2010-03-28T10:30:17Z</time>
      </trkpt>
      <trkpt lat="43.62702" lon="6.81804">
        <ele>96.472160339355</ele>
        <time>2010-03-28T10:30:36Z</time>
      </trkpt>
      <trkpt lat="43.62698" lon="6.81806">
        <ele>96.537109375</ele>
        <time>2010-03-28T10:30:57Z</time>
      </trkpt>
      <trkpt lat="43.62695" lon="6.81811">
        <ele>96.392700195312</ele>
        <time>2010-03-28T10:31:14Z</time>
      </trkpt>
      <trkpt lat="43.62693" lon="6.81812">
        <ele>96.373359680176</ele>
        <time>2010-03-28T10:31:24Z</time>
      </trkpt>
      <trkpt lat="43.62694" lon="6.81814">
        <ele>96.275566101074</ele>
        <time>2010-03-28T10:31:31Z</time>
      </trkpt>
      <trkpt lat="43.62693" lon="6.81817">
        <ele>96.163429260254</ele>
        <time>2010-03-28T10:31:33Z</time>
      </trkpt>
      <trkpt lat="43.62687" lon="6.81823">
        <ele>96.053581237793</ele>
        <time>2010-03-28T10:31:40Z</time>
      </trkpt>
      <trkpt lat="43.62688" lon="6.81822">
        <ele>96.072006225586</ele>
        <time>2010-03-28T10:31:47Z</time>
      </trkpt>
      <trkpt lat="43.62686" lon="6.81826">
        <ele>95.924240112305</ele>
        <time>2010-03-28T10:31:53Z</time>
      </trkpt>
      <trkpt lat="43.6268" lon="6.81835">
        <ele>95.62467956543</ele>
        <time>2010-03-28T10:31:57Z</time>
      </trkpt>
      <trkpt lat="43.62669" lon="6.81848">
        <ele>95.439102172852</ele>
        <time>2010-03-28T10:32:02Z</time>
      </trkpt>
      <trkpt lat="43.62662" lon="6.81857">
        <ele>95.790596008301</ele>
        <time>2010-03-28T10:32:07Z</time>
      </trkpt>
      <trkpt lat="43.62649" lon="6.81871">
        <ele>96.818939208984</ele>
        <time>2010-03-28T10:32:14Z</time>
      </trkpt>
      <trkpt lat="43.62634" lon="6.81882">
        <ele>97.908493041992</ele>
        <time>2010-03-28T10:32:20Z</time>
      </trkpt>
      <trkpt lat="43.62621" lon="6.81895">
        <ele>98.258941650391</ele>
        <time>2010-03-28T10:32:26Z</time>
      </trkpt>
      <trkpt lat="43.62612" lon="6.81908">
        <ele>97.758995056152</ele>
        <time>2010-03-28T10:32:31Z</time>
      </trkpt>
      <trkpt lat="43.62602" lon="6.81925">
        <ele>97.256492614746</ele>
        <time>2010-03-28T10:32:35Z</time>
      </trkpt>
      <trkpt lat="43.62599" lon="6.8193">
        <ele>97.252624511719</ele>
        <time>2010-03-28T10:32:36Z</time>
      </trkpt>
      <trkpt lat="43.62587" lon="6.81959">
        <ele>96.316940307617</ele>
        <time>2010-03-28T10:32:41Z</time>
      </trkpt>
      <trkpt lat="43.62583" lon="6.81969">
        <ele>95.917869567871</ele>
        <time>2010-03-28T10:32:43Z</time>
      </trkpt>
      <trkpt lat="43.62581" lon="6.81976">
        <ele>95.882102966309</ele>
        <time>2010-03-28T10:32:45Z</time>
      </trkpt>
      <trkpt lat="43.62575" lon="6.82001">
        <ele>95.309761047363</ele>
        <time>2010-03-28T10:32:51Z</time>
      </trkpt>
      <trkpt lat="43.62561" lon="6.82029">
        <ele>96.07194519043</ele>
        <time>2010-03-28T10:32:57Z</time>
      </trkpt>
      <trkpt lat="43.62557" lon="6.82033">
        <ele>96.26749420166</ele>
        <time>2010-03-28T10:32:58Z</time>
      </trkpt>
      <trkpt lat="43.62529" lon="6.82054">
        <ele>97.773666381836</ele>
        <time>2010-03-28T10:33:05Z</time>
      </trkpt>
      <trkpt lat="43.62506" lon="6.8207">
        <ele>98.104026794434</ele>
        <time>2010-03-28T10:33:11Z</time>
      </trkpt>
      <trkpt lat="43.6249" lon="6.82086">
        <ele>100.85053253174</ele>
        <time>2010-03-28T10:33:16Z</time>
      </trkpt>
      <trkpt lat="43.62478" lon="6.82102">
        <ele>103.84310150147</ele>
        <time>2010-03-28T10:33:20Z</time>
      </trkpt>
      <trkpt lat="43.6246" lon="6.8215">
        <ele>102.88410949707</ele>
        <time>2010-03-28T10:33:29Z</time>
      </trkpt>
      <trkpt lat="43.62457" lon="6.82158">
        <ele>102.21415710449</ele>
        <time>2010-03-28T10:33:31Z</time>
      </trkpt>
      <trkpt lat="43.62451" lon="6.82169">
        <ele>101.54209136963</ele>
        <time>2010-03-28T10:33:34Z</time>
      </trkpt>
      <trkpt lat="43.62449" lon="6.82172">
        <ele>101.54960632324</ele>
        <time>2010-03-28T10:33:35Z</time>
      </trkpt>
      <trkpt lat="43.62438" lon="6.82196">
        <ele>100.56023406982</ele>
        <time>2010-03-28T10:33:42Z</time>
      </trkpt>
      <trkpt lat="43.62422" lon="6.82207">
        <ele>101.10325622559</ele>
        <time>2010-03-28T10:33:48Z</time>
      </trkpt>
      <trkpt lat="43.62406" lon="6.82206">
        <ele>105.95760345459</ele>
        <time>2010-03-28T10:33:54Z</time>
      </trkpt>
      <trkpt lat="43.62392" lon="6.82207">
        <ele>110.80964660644</ele>
        <time>2010-03-28T10:33:58Z</time>
      </trkpt>
      <trkpt lat="43.62383" lon="6.82209">
        <ele>113.56760406494</ele>
        <time>2010-03-28T10:34:01Z</time>
      </trkpt>
      <trkpt lat="43.6237" lon="6.82225">
        <ele>113.19296264648</ele>
        <time>2010-03-28T10:34:07Z</time>
      </trkpt>
      <trkpt lat="43.6236" lon="6.82236">
        <ele>112.44898986816</ele>
        <time>2010-03-28T10:34:11Z</time>
      </trkpt>
      <trkpt lat="43.62338" lon="6.82257">
        <ele>110.56021118164</ele>
        <time>2010-03-28T10:34:17Z</time>
      </trkpt>
      <trkpt lat="43.6233" lon="6.82264">
        <ele>111.41872406006</ele>
        <time>2010-03-28T10:34:19Z</time>
      </trkpt>
      <trkpt lat="43.62299" lon="6.82283">
        <ele>118.64427185059</ele>
        <time>2010-03-28T10:34:27Z</time>
      </trkpt>
      <trkpt lat="43.62296" lon="6.82286">
        <ele>119.10264587402</ele>
        <time>2010-03-28T10:34:28Z</time>
      </trkpt>
      <trkpt lat="43.6227" lon="6.82305">
        <ele>120.9139251709</ele>
        <time>2010-03-28T10:34:35Z</time>
      </trkpt>
      <trkpt lat="43.62266" lon="6.82308">
        <ele>120.78234100342</ele>
        <time>2010-03-28T10:34:36Z</time>
      </trkpt>
      <trkpt lat="43.62252" lon="6.8232">
        <ele>119.72951507568</ele>
        <time>2010-03-28T10:34:40Z</time>
      </trkpt>
      <trkpt lat="43.62244" lon="6.82325">
        <ele>119.9642868042</ele>
        <time>2010-03-28T10:34:42Z</time>
      </trkpt>
      <trkpt lat="43.62225" lon="6.8234">
        <ele>121.97430419922</ele>
        <time>2010-03-28T10:34:47Z</time>
      </trkpt>
      <trkpt lat="43.622" lon="6.82365">
        <ele>124.9241104126</ele>
        <time>2010-03-28T10:34:54Z</time>
      </trkpt>
      <trkpt lat="43.62172" lon="6.82382">
        <ele>129.61351013184</ele>
        <time>2010-03-28T10:35:01Z</time>
      </trkpt>
      <trkpt lat="43.62132" lon="6.82401">
        <ele>129.25567626953</ele>
        <time>2010-03-28T10:35:11Z</time>
      </trkpt>
      <trkpt lat="43.6212" lon="6.82404">
        <ele>129.5665435791</ele>
        <time>2010-03-28T10:35:14Z</time>
      </trkpt>
      <trkpt lat="43.6208" lon="6.82411">
        <ele>132.20153808594</ele>
        <time>2010-03-28T10:35:24Z</time>
      </trkpt>
      <trkpt lat="43.62051" lon="6.82412">
        <ele>133.38256835938</ele>
        <time>2010-03-28T10:35:32Z</time>
      </trkpt>
      <trkpt lat="43.62028" lon="6.82404">
        <ele>136.07421875</ele>
        <time>2010-03-28T10:35:38Z</time>
      </trkpt>
      <trkpt lat="43.61993" lon="6.82384">
        <ele>141.47467041016</ele>
        <time>2010-03-28T10:35:47Z</time>
      </trkpt>
      <trkpt lat="43.6197" lon="6.82376">
        <ele>143.73629760742</ele>
        <time>2010-03-28T10:35:53Z</time>
      </trkpt>
      <trkpt lat="43.61949" lon="6.82377">
        <ele>144.14758300781</ele>
        <time>2010-03-28T10:35:58Z</time>
      </trkpt>
      <trkpt lat="43.61929" lon="6.82375">
        <ele>145.21977233887</ele>
        <time>2010-03-28T10:36:03Z</time>
      </trkpt>
      <trkpt lat="43.61898" lon="6.82358">
        <ele>148.16482543945</ele>
        <time>2010-03-28T10:36:11Z</time>
      </trkpt>
      <trkpt lat="43.61867" lon="6.8234">
        <ele>150.56227111816</ele>
        <time>2010-03-28T10:36:19Z</time>
      </trkpt>
      <trkpt lat="43.61837" lon="6.82324">
        <ele>152.91311645508</ele>
        <time>2010-03-28T10:36:27Z</time>
      </trkpt>
      <trkpt lat="43.61824" lon="6.82322">
        <ele>153.28788757324</ele>
        <time>2010-03-28T10:36:32Z</time>
      </trkpt>
      <trkpt lat="43.61824" lon="6.82325">
        <ele>152.71884155273</ele>
        <time>2010-03-28T10:36:35Z</time>
      </trkpt>
      <trkpt lat="43.61824" lon="6.82327">
        <ele>152.33500671387</ele>
        <time>2010-03-28T10:36:54Z</time>
      </trkpt>
      <trkpt lat="43.61825" lon="6.82327">
        <ele>152.37101745606</ele>
        <time>2010-03-28T10:37:07Z</time>
      </trkpt>
      <trkpt lat="43.61826" lon="6.82327">
        <ele>152.20866394043</ele>
        <time>2010-03-28T10:37:12Z</time>
      </trkpt>
      <trkpt lat="43.61824" lon="6.82328">
        <ele>152.12326049805</ele>
        <time>2010-03-28T10:37:20Z</time>
      </trkpt>
      <trkpt lat="43.61822" lon="6.82327">
        <ele>152.27003479004</ele>
        <time>2010-03-28T10:37:39Z</time>
      </trkpt>
      <trkpt lat="43.61821" lon="6.82327">
        <ele>152.29040527344</ele>
        <time>2010-03-28T10:37:41Z</time>
      </trkpt>
      <trkpt lat="43.61821" lon="6.82327">
        <ele>152.26417541504</ele>
        <time>2010-03-28T10:37:44Z</time>
      </trkpt>
      <trkpt lat="43.61821" lon="6.82327">
        <ele>152.24668884277</ele>
        <time>2010-03-28T10:37:45Z</time>
      </trkpt>
      <trkpt lat="43.61821" lon="6.82327">
        <ele>152.26417541504</ele>
        <time>2010-03-28T10:37:46Z</time>
      </trkpt>
      <trkpt lat="43.61818" lon="6.82326">
        <ele>152.49989318848</ele>
        <time>2010-03-28T10:37:57Z</time>
      </trkpt>
      <trkpt lat="43.61819" lon="6.82326">
        <ele>152.42291259766</ele>
        <time>2010-03-28T10:38:03Z</time>
      </trkpt>
      <trkpt lat="43.61817" lon="6.82326">
        <ele>152.46807861328</ele>
        <time>2010-03-28T10:38:08Z</time>
      </trkpt>
      <trkpt lat="43.61814" lon="6.82325">
        <ele>152.69075012207</ele>
        <time>2010-03-28T10:38:28Z</time>
      </trkpt>
      <trkpt lat="43.61815" lon="6.82326">
        <ele>152.61782836914</ele>
        <time>2010-03-28T10:38:49Z</time>
      </trkpt>
      <trkpt lat="43.61816" lon="6.82326">
        <ele>152.60684204102</ele>
        <time>2010-03-28T10:38:54Z</time>
      </trkpt>
      <trkpt lat="43.61817" lon="6.82326">
        <ele>152.51107788086</ele>
        <time>2010-03-28T10:39:11Z</time>
      </trkpt>
      <trkpt lat="43.6182" lon="6.82327">
        <ele>152.25839233398</ele>
        <time>2010-03-28T10:39:35Z</time>
      </trkpt>
      <trkpt lat="43.61823" lon="6.82328">
        <ele>152.13514709473</ele>
        <time>2010-03-28T10:39:37Z</time>
      </trkpt>
      <trkpt lat="43.61826" lon="6.82336">
        <ele>150.78373718262</ele>
        <time>2010-03-28T10:39:41Z</time>
      </trkpt>
      <trkpt lat="43.61845" lon="6.82357">
        <ele>148.19021606445</ele>
        <time>2010-03-28T10:39:47Z</time>
      </trkpt>
      <trkpt lat="43.61865" lon="6.82379">
        <ele>145.31713867188</ele>
        <time>2010-03-28T10:39:51Z</time>
      </trkpt>
      <trkpt lat="43.61887" lon="6.82392">
        <ele>143.24568176269</ele>
        <time>2010-03-28T10:39:55Z</time>
      </trkpt>
      <trkpt lat="43.61908" lon="6.82413">
        <ele>139.78935241699</ele>
        <time>2010-03-28T10:40:00Z</time>
      </trkpt>
      <trkpt lat="43.61917" lon="6.82416">
        <ele>139.02561950684</ele>
        <time>2010-03-28T10:40:02Z</time>
      </trkpt>
      <trkpt lat="43.6194" lon="6.82421">
        <ele>137.28416442871</ele>
        <time>2010-03-28T10:40:08Z</time>
      </trkpt>
      <trkpt lat="43.61958" lon="6.82426">
        <ele>135.42352294922</ele>
        <time>2010-03-28T10:40:12Z</time>
      </trkpt>
      <trkpt lat="43.61977" lon="6.82433">
        <ele>133.29338073731</ele>
        <time>2010-03-28T10:40:16Z</time>
      </trkpt>
      <trkpt lat="43.61993" lon="6.8244">
        <ele>131.05097961426</ele>
        <time>2010-03-28T10:40:19Z</time>
      </trkpt>
      <trkpt lat="43.62009" lon="6.82453">
        <ele>127.59643554688</ele>
        <time>2010-03-28T10:40:22Z</time>
      </trkpt>
      <trkpt lat="43.62024" lon="6.82462">
        <ele>125.10620117188</ele>
        <time>2010-03-28T10:40:25Z</time>
      </trkpt>
      <trkpt lat="43.62034" lon="6.82467">
        <ele>123.71459960938</ele>
        <time>2010-03-28T10:40:27Z</time>
      </trkpt>
      <trkpt lat="43.62053" lon="6.82477">
        <ele>120.93139648438</ele>
        <time>2010-03-28T10:40:31Z</time>
      </trkpt>
      <trkpt lat="43.62079" lon="6.82497">
        <ele>115.73120117188</ele>
        <time>2010-03-28T10:40:37Z</time>
      </trkpt>
      <trkpt lat="43.62085" lon="6.82502">
        <ele>114.41287994385</ele>
        <time>2010-03-28T10:40:39Z</time>
      </trkpt>
      <trkpt lat="43.62091" lon="6.82505">
        <ele>113.18669891357</ele>
        <time>2010-03-28T10:40:42Z</time>
      </trkpt>
      <trkpt lat="43.62093" lon="6.82505">
        <ele>112.84857940674</ele>
        <time>2010-03-28T10:40:43Z</time>
      </trkpt>
      <trkpt lat="43.62108" lon="6.8251">
        <ele>110.05787658691</ele>
        <time>2010-03-28T10:40:48Z</time>
      </trkpt>
      <trkpt lat="43.62112" lon="6.82512">
        <ele>109.27127075195</ele>
        <time>2010-03-28T10:40:49Z</time>
      </trkpt>
      <trkpt lat="43.62128" lon="6.82513">
        <ele>107.07221984863</ele>
        <time>2010-03-28T10:40:53Z</time>
      </trkpt>
      <trkpt lat="43.62144" lon="6.82507">
        <ele>105.96614837647</ele>
        <time>2010-03-28T10:40:57Z</time>
      </trkpt>
      <trkpt lat="43.6217" lon="6.82501">
        <ele>103.26080322266</ele>
        <time>2010-03-28T10:41:03Z</time>
      </trkpt>
      <trkpt lat="43.62181" lon="6.82501">
        <ele>101.75174713135</ele>
        <time>2010-03-28T10:41:05Z</time>
      </trkpt>
      <trkpt lat="43.62193" lon="6.82504">
        <ele>99.470794677734</ele>
        <time>2010-03-28T10:41:08Z</time>
      </trkpt>
      <trkpt lat="43.62185" lon="6.82521">
        <ele>98.849494934082</ele>
        <time>2010-03-28T10:41:12Z</time>
      </trkpt>
      <trkpt lat="43.62183" lon="6.82526">
        <ele>98.610069274902</ele>
        <time>2010-03-28T10:41:13Z</time>
      </trkpt>
      <trkpt lat="43.62163" lon="6.82556">
        <ele>96.981864929199</ele>
        <time>2010-03-28T10:41:20Z</time>
      </trkpt>
      <trkpt lat="43.62157" lon="6.82562">
        <ele>96.673149108887</ele>
        <time>2010-03-28T10:41:23Z</time>
      </trkpt>
      <trkpt lat="43.62147" lon="6.82573">
        <ele>96.136268615723</ele>
        <time>2010-03-28T10:41:29Z</time>
      </trkpt>
      <trkpt lat="43.62137" lon="6.82578">
        <ele>96.352058410645</ele>
        <time>2010-03-28T10:41:33Z</time>
      </trkpt>
      <trkpt lat="43.62135" lon="6.82579">
        <ele>96.365219116211</ele>
        <time>2010-03-28T10:41:34Z</time>
      </trkpt>
      <trkpt lat="43.62123" lon="6.82594">
        <ele>95.997543334961</ele>
        <time>2010-03-28T10:41:39Z</time>
      </trkpt>
      <trkpt lat="43.62122" lon="6.8261">
        <ele>95.149536132812</ele>
        <time>2010-03-28T10:41:43Z</time>
      </trkpt>
      <trkpt lat="43.62128" lon="6.8263">
        <ele>93.43807220459</ele>
        <time>2010-03-28T10:41:47Z</time>
      </trkpt>
      <trkpt lat="43.62135" lon="6.82641">
        <ele>92.209548950195</ele>
        <time>2010-03-28T10:41:51Z</time>
      </trkpt>
      <trkpt lat="43.62138" lon="6.82644">
        <ele>91.773529052734</ele>
        <time>2010-03-28T10:41:52Z</time>
      </trkpt>
      <trkpt lat="43.62151" lon="6.82668">
        <ele>89.317459106445</ele>
        <time>2010-03-28T10:41:57Z</time>
      </trkpt>
      <trkpt lat="43.62151" lon="6.8269">
        <ele>89.236106872559</ele>
        <time>2010-03-28T10:42:00Z</time>
      </trkpt>
      <trkpt lat="43.62149" lon="6.82705">
        <ele>89.413475036621</ele>
        <time>2010-03-28T10:42:02Z</time>
      </trkpt>
      <trkpt lat="43.6214" lon="6.82735">
        <ele>90.013053894043</ele>
        <time>2010-03-28T10:42:06Z</time>
      </trkpt>
      <trkpt lat="43.6213" lon="6.82772">
        <ele>90.757148742676</ele>
        <time>2010-03-28T10:42:11Z</time>
      </trkpt>
      <trkpt lat="43.62123" lon="6.82802">
        <ele>91.454765319824</ele>
        <time>2010-03-28T10:42:17Z</time>
      </trkpt>
      <trkpt lat="43.62123" lon="6.82819">
        <ele>91.643028259277</ele>
        <time>2010-03-28T10:42:21Z</time>
      </trkpt>
      <trkpt lat="43.62121" lon="6.82846">
        <ele>92.166114807129</ele>
        <time>2010-03-28T10:42:26Z</time>
      </trkpt>
      <trkpt lat="43.62122" lon="6.82866">
        <ele>92.501678466797</ele>
        <time>2010-03-28T10:42:29Z</time>
      </trkpt>
      <trkpt lat="43.62125" lon="6.82883">
        <ele>92.3916015625</ele>
        <time>2010-03-28T10:42:32Z</time>
      </trkpt>
      <trkpt lat="43.62137" lon="6.82902">
        <ele>91.109664916992</ele>
        <time>2010-03-28T10:42:37Z</time>
      </trkpt>
      <trkpt lat="43.62144" lon="6.82918">
        <ele>90.255172729492</ele>
        <time>2010-03-28T10:42:41Z</time>
      </trkpt>
      <trkpt lat="43.6215" lon="6.82928">
        <ele>89.370803833008</ele>
        <time>2010-03-28T10:42:43Z</time>
      </trkpt>
      <trkpt lat="43.62154" lon="6.82933">
        <ele>88.775337219238</ele>
        <time>2010-03-28T10:42:44Z</time>
      </trkpt>
      <trkpt lat="43.6216" lon="6.82945">
        <ele>87.73600769043</ele>
        <time>2010-03-28T10:42:46Z</time>
      </trkpt>
      <trkpt lat="43.62172" lon="6.82976">
        <ele>87.019691467285</ele>
        <time>2010-03-28T10:42:51Z</time>
      </trkpt>
      <trkpt lat="43.62176" lon="6.83002">
        <ele>87.492942810059</ele>
        <time>2010-03-28T10:42:55Z</time>
      </trkpt>
      <trkpt lat="43.62178" lon="6.83016">
        <ele>87.866737365723</ele>
        <time>2010-03-28T10:42:57Z</time>
      </trkpt>
      <trkpt lat="43.62182" lon="6.8304">
        <ele>88.889129638672</ele>
        <time>2010-03-28T10:43:00Z</time>
      </trkpt>
      <trkpt lat="43.62183" lon="6.83055">
        <ele>89.319450378418</ele>
        <time>2010-03-28T10:43:02Z</time>
      </trkpt>
      <trkpt lat="43.6218" lon="6.83083">
        <ele>88.941131591797</ele>
        <time>2010-03-28T10:43:06Z</time>
      </trkpt>
      <trkpt lat="43.6217" lon="6.83103">
        <ele>87.054801940918</ele>
        <time>2010-03-28T10:43:10Z</time>
      </trkpt>
      <trkpt lat="43.62154" lon="6.83138">
        <ele>87.4775390625</ele>
        <time>2010-03-28T10:43:16Z</time>
      </trkpt>
      <trkpt lat="43.62151" lon="6.83151">
        <ele>87.644248962402</ele>
        <time>2010-03-28T10:43:18Z</time>
      </trkpt>
      <trkpt lat="43.62146" lon="6.83168">
        <ele>87.73966217041</ele>
        <time>2010-03-28T10:43:21Z</time>
      </trkpt>
      <trkpt lat="43.6213" lon="6.83194">
        <ele>87.930694580078</ele>
        <time>2010-03-28T10:43:27Z</time>
      </trkpt>
      <trkpt lat="43.62123" lon="6.83203">
        <ele>87.855735778809</ele>
        <time>2010-03-28T10:43:29Z</time>
      </trkpt>
      <trkpt lat="43.62106" lon="6.83239">
        <ele>86.878463745117</ele>
        <time>2010-03-28T10:43:34Z</time>
      </trkpt>
      <trkpt lat="43.62102" lon="6.83247">
        <ele>86.546333312988</ele>
        <time>2010-03-28T10:43:35Z</time>
      </trkpt>
      <trkpt lat="43.62095" lon="6.83262">
        <ele>86.366828918457</ele>
        <time>2010-03-28T10:43:37Z</time>
      </trkpt>
      <trkpt lat="43.62076" lon="6.83292">
        <ele>86.452842712402</ele>
        <time>2010-03-28T10:43:42Z</time>
      </trkpt>
      <trkpt lat="43.62059" lon="6.83308">
        <ele>87.005310058594</ele>
        <time>2010-03-28T10:43:46Z</time>
      </trkpt>
      <trkpt lat="43.62041" lon="6.83328">
        <ele>86.73609161377</ele>
        <time>2010-03-28T10:43:50Z</time>
      </trkpt>
      <trkpt lat="43.62035" lon="6.83338">
        <ele>86.598266601562</ele>
        <time>2010-03-28T10:43:52Z</time>
      </trkpt>
      <trkpt lat="43.62029" lon="6.83347">
        <ele>86.615814208984</ele>
        <time>2010-03-28T10:43:54Z</time>
      </trkpt>
      <trkpt lat="43.62019" lon="6.83362">
        <ele>86.373405456543</ele>
        <time>2010-03-28T10:43:57Z</time>
      </trkpt>
      <trkpt lat="43.62009" lon="6.83387">
        <ele>85.490074157715</ele>
        <time>2010-03-28T10:44:01Z</time>
      </trkpt>
      <trkpt lat="43.62004" lon="6.8342">
        <ele>84.567489624023</ele>
        <time>2010-03-28T10:44:05Z</time>
      </trkpt>
      <trkpt lat="43.61998" lon="6.83472">
        <ele>87.960586547852</ele>
        <time>2010-03-28T10:44:11Z</time>
      </trkpt>
      <trkpt lat="43.61971" lon="6.83513">
        <ele>89.901390075684</ele>
        <time>2010-03-28T10:44:17Z</time>
      </trkpt>
      <trkpt lat="43.61965" lon="6.83517">
        <ele>89.944091796875</ele>
        <time>2010-03-28T10:44:18Z</time>
      </trkpt>
      <trkpt lat="43.61954" lon="6.83525">
        <ele>89.492637634277</ele>
        <time>2010-03-28T10:44:20Z</time>
      </trkpt>
      <trkpt lat="43.61934" lon="6.83531">
        <ele>87.204803466797</ele>
        <time>2010-03-28T10:44:24Z</time>
      </trkpt>
      <trkpt lat="43.61913" lon="6.83536">
        <ele>85.03784942627</ele>
        <time>2010-03-28T10:44:28Z</time>
      </trkpt>
      <trkpt lat="43.61905" lon="6.83534">
        <ele>85.478675842285</ele>
        <time>2010-03-28T10:44:30Z</time>
      </trkpt>
      <trkpt lat="43.61889" lon="6.83535">
        <ele>86.386520385742</ele>
        <time>2010-03-28T10:44:34Z</time>
      </trkpt>
      <trkpt lat="43.61864" lon="6.83534">
        <ele>87.764297485352</ele>
        <time>2010-03-28T10:44:41Z</time>
      </trkpt>
      <trkpt lat="43.61843" lon="6.83532">
        <ele>89.25513458252</ele>
        <time>2010-03-28T10:44:48Z</time>
      </trkpt>
      <trkpt lat="43.61829" lon="6.83531">
        <ele>90.793899536133</ele>
        <time>2010-03-28T10:44:53Z</time>
      </trkpt>
      <trkpt lat="43.61813" lon="6.83539">
        <ele>92.533874511719</ele>
        <time>2010-03-28T10:44:57Z</time>
      </trkpt>
      <trkpt lat="43.61796" lon="6.83551">
        <ele>93.802215576172</ele>
        <time>2010-03-28T10:45:00Z</time>
      </trkpt>
      <trkpt lat="43.61762" lon="6.83588">
        <ele>92.865798950195</ele>
        <time>2010-03-28T10:45:05Z</time>
      </trkpt>
      <trkpt lat="43.61742" lon="6.83608">
        <ele>95.606864929199</ele>
        <time>2010-03-28T10:45:08Z</time>
      </trkpt>
      <trkpt lat="43.61739" lon="6.83621">
        <ele>95.421974182129</ele>
        <time>2010-03-28T10:45:11Z</time>
      </trkpt>
      <trkpt lat="43.61739" lon="6.83627">
        <ele>95.042945861816</ele>
        <time>2010-03-28T10:45:13Z</time>
      </trkpt>
      <trkpt lat="43.61733" lon="6.83646">
        <ele>94.997077941895</ele>
        <time>2010-03-28T10:45:18Z</time>
      </trkpt>
      <trkpt lat="43.61736" lon="6.83662">
        <ele>91.896842956543</ele>
        <time>2010-03-28T10:45:21Z</time>
      </trkpt>
      <trkpt lat="43.61737" lon="6.83687">
        <ele>89.318733215332</ele>
        <time>2010-03-28T10:45:26Z</time>
      </trkpt>
      <trkpt lat="43.61741" lon="6.8369">
        <ele>87.703628540039</ele>
        <time>2010-03-28T10:45:27Z</time>
      </trkpt>
      <trkpt lat="43.61759" lon="6.83702">
        <ele>84.558662414551</ele>
        <time>2010-03-28T10:45:31Z</time>
      </trkpt>
      <trkpt lat="43.61761" lon="6.8372">
        <ele>84.494926452637</ele>
        <time>2010-03-28T10:45:34Z</time>
      </trkpt>
      <trkpt lat="43.61759" lon="6.83733">
        <ele>84.231887817383</ele>
        <time>2010-03-28T10:45:36Z</time>
      </trkpt>
      <trkpt lat="43.6175" lon="6.83764">
        <ele>83.843376159668</ele>
        <time>2010-03-28T10:45:41Z</time>
      </trkpt>
      <trkpt lat="43.61734" lon="6.83789">
        <ele>87.048278808594</ele>
        <time>2010-03-28T10:45:46Z</time>
      </trkpt>
      <trkpt lat="43.61725" lon="6.83795">
        <ele>87.854629516602</ele>
        <time>2010-03-28T10:45:48Z</time>
      </trkpt>
      <trkpt lat="43.61713" lon="6.83804">
        <ele>88.356353759766</ele>
        <time>2010-03-28T10:45:51Z</time>
      </trkpt>
      <trkpt lat="43.61694" lon="6.83824">
        <ele>87.128242492676</ele>
        <time>2010-03-28T10:45:56Z</time>
      </trkpt>
      <trkpt lat="43.61689" lon="6.83828">
        <ele>86.467407226562</ele>
        <time>2010-03-28T10:45:57Z</time>
      </trkpt>
      <trkpt lat="43.6167" lon="6.83843">
        <ele>84.829048156738</ele>
        <time>2010-03-28T10:46:02Z</time>
      </trkpt>
      <trkpt lat="43.61658" lon="6.83851">
        <ele>85.837821960449</ele>
        <time>2010-03-28T10:46:06Z</time>
      </trkpt>
      <trkpt lat="43.61651" lon="6.8386">
        <ele>86.525230407715</ele>
        <time>2010-03-28T10:46:10Z</time>
      </trkpt>
      <trkpt lat="43.61636" lon="6.83873">
        <ele>87.218063354492</ele>
        <time>2010-03-28T10:46:16Z</time>
      </trkpt>
      <trkpt lat="43.61625" lon="6.83879">
        <ele>87.556983947754</ele>
        <time>2010-03-28T10:46:21Z</time>
      </trkpt>
      <trkpt lat="43.61613" lon="6.83887">
        <ele>87.526176452637</ele>
        <time>2010-03-28T10:46:27Z</time>
      </trkpt>
      <trkpt lat="43.61599" lon="6.83898">
        <ele>86.167297363281</ele>
        <time>2010-03-28T10:46:33Z</time>
      </trkpt>
      <trkpt lat="43.61585" lon="6.8391">
        <ele>83.765327453613</ele>
        <time>2010-03-28T10:46:38Z</time>
      </trkpt>
      <trkpt lat="43.61573" lon="6.83922">
        <ele>82.593139648438</ele>
        <time>2010-03-28T10:46:42Z</time>
      </trkpt>
      <trkpt lat="43.61556" lon="6.83939">
        <ele>83.533020019531</ele>
        <time>2010-03-28T10:46:47Z</time>
      </trkpt>
      <trkpt lat="43.61552" lon="6.83943">
        <ele>83.641998291016</ele>
        <time>2010-03-28T10:46:48Z</time>
      </trkpt>
      <trkpt lat="43.61536" lon="6.83959">
        <ele>83.647331237793</ele>
        <time>2010-03-28T10:46:54Z</time>
      </trkpt>
      <trkpt lat="43.61524" lon="6.83967">
        <ele>83.29508972168</ele>
        <time>2010-03-28T10:46:59Z</time>
      </trkpt>
      <trkpt lat="43.61519" lon="6.83969">
        <ele>83.109756469727</ele>
        <time>2010-03-28T10:47:01Z</time>
      </trkpt>
      <trkpt lat="43.61501" lon="6.83952">
        <ele>83.304290771484</ele>
        <time>2010-03-28T10:47:07Z</time>
      </trkpt>
      <trkpt lat="43.61494" lon="6.83939">
        <ele>83.597305297852</ele>
        <time>2010-03-28T10:47:11Z</time>
      </trkpt>
      <trkpt lat="43.61488" lon="6.83918">
        <ele>84.048080444336</ele>
        <time>2010-03-28T10:47:16Z</time>
      </trkpt>
      <trkpt lat="43.61481" lon="6.83901">
        <ele>87.149276733398</ele>
        <time>2010-03-28T10:47:20Z</time>
      </trkpt>
      <trkpt lat="43.6148" lon="6.83887">
        <ele>90.020248413086</ele>
        <time>2010-03-28T10:47:24Z</time>
      </trkpt>
      <trkpt lat="43.61477" lon="6.83867">
        <ele>94.010864257812</ele>
        <time>2010-03-28T10:47:28Z</time>
      </trkpt>
      <trkpt lat="43.61471" lon="6.83847">
        <ele>97.204803466797</ele>
        <time>2010-03-28T10:47:32Z</time>
      </trkpt>
      <trkpt lat="43.61462" lon="6.83825">
        <ele>99.902984619141</ele>
        <time>2010-03-28T10:47:37Z</time>
      </trkpt>
      <trkpt lat="43.61458" lon="6.83809">
        <ele>101.71857452393</ele>
        <time>2010-03-28T10:47:41Z</time>
      </trkpt>
      <trkpt lat="43.61456" lon="6.83795">
        <ele>103.64636230469</ele>
        <time>2010-03-28T10:47:46Z</time>
      </trkpt>
      <trkpt lat="43.61455" lon="6.83793">
        <ele>103.8812789917</ele>
        <time>2010-03-28T10:47:47Z</time>
      </trkpt>
      <trkpt lat="43.61446" lon="6.83782">
        <ele>104.30589294434</ele>
        <time>2010-03-28T10:47:52Z</time>
      </trkpt>
      <trkpt lat="43.61445" lon="6.83782">
        <ele>104.25645446777</ele>
        <time>2010-03-28T10:47:53Z</time>
      </trkpt>
      <trkpt lat="43.61434" lon="6.83783">
        <ele>102.4843673706</ele>
        <time>2010-03-28T10:47:59Z</time>
      </trkpt>
      <trkpt lat="43.61419" lon="6.83784">
        <ele>100.16680145264</ele>
        <time>2010-03-28T10:48:05Z</time>
      </trkpt>
      <trkpt lat="43.61405" lon="6.83782">
        <ele>102.81545257568</ele>
        <time>2010-03-28T10:48:10Z</time>
      </trkpt>
      <trkpt lat="43.61401" lon="6.83782">
        <ele>103.82641601562</ele>
        <time>2010-03-28T10:48:12Z</time>
      </trkpt>
      <trkpt lat="43.61391" lon="6.8379">
        <ele>103.99743652344</ele>
        <time>2010-03-28T10:48:17Z</time>
      </trkpt>
      <trkpt lat="43.61383" lon="6.83806">
        <ele>102.12216949463</ele>
        <time>2010-03-28T10:48:23Z</time>
      </trkpt>
      <trkpt lat="43.61381" lon="6.83809">
        <ele>101.83954620361</ele>
        <time>2010-03-28T10:48:24Z</time>
      </trkpt>
      <trkpt lat="43.61369" lon="6.83827">
        <ele>99.348022460938</ele>
        <time>2010-03-28T10:48:31Z</time>
      </trkpt>
      <trkpt lat="43.61367" lon="6.8383">
        <ele>99.120338439941</ele>
        <time>2010-03-28T10:48:32Z</time>
      </trkpt>
      <trkpt lat="43.61357" lon="6.83842">
        <ele>97.567481994629</ele>
        <time>2010-03-28T10:48:39Z</time>
      </trkpt>
      <trkpt lat="43.61357" lon="6.83842">
        <ele>97.615745544434</ele>
        <time>2010-03-28T10:48:40Z</time>
      </trkpt>
      <trkpt lat="43.61354" lon="6.83846">
        <ele>97.276908874512</ele>
        <time>2010-03-28T10:48:44Z</time>
      </trkpt>
      <trkpt lat="43.61347" lon="6.8386">
        <ele>94.867721557617</ele>
        <time>2010-03-28T10:48:50Z</time>
      </trkpt>
      <trkpt lat="43.61341" lon="6.83878">
        <ele>91.156509399414</ele>
        <time>2010-03-28T10:48:55Z</time>
      </trkpt>
      <trkpt lat="43.6134" lon="6.83884">
        <ele>89.73169708252</ele>
        <time>2010-03-28T10:48:56Z</time>
      </trkpt>
      <trkpt lat="43.61334" lon="6.83909">
        <ele>83.791809082031</ele>
        <time>2010-03-28T10:49:00Z</time>
      </trkpt>
      <trkpt lat="43.61318" lon="6.83928">
        <ele>84.794013977051</ele>
        <time>2010-03-28T10:49:05Z</time>
      </trkpt>
      <trkpt lat="43.61304" lon="6.83953">
        <ele>85.567443847656</ele>
        <time>2010-03-28T10:49:09Z</time>
      </trkpt>
      <trkpt lat="43.61297" lon="6.83967">
        <ele>85.29866027832</ele>
        <time>2010-03-28T10:49:11Z</time>
      </trkpt>
      <trkpt lat="43.61288" lon="6.83987">
        <ele>84.568641662598</ele>
        <time>2010-03-28T10:49:14Z</time>
      </trkpt>
      <trkpt lat="43.6128" lon="6.84014">
        <ele>83.188468933105</ele>
        <time>2010-03-28T10:49:19Z</time>
      </trkpt>
      <trkpt lat="43.61274" lon="6.84035">
        <ele>82.442649841309</ele>
        <time>2010-03-28T10:49:24Z</time>
      </trkpt>
      <trkpt lat="43.61273" lon="6.84043">
        <ele>81.985702514648</ele>
        <time>2010-03-28T10:49:26Z</time>
      </trkpt>
      <trkpt lat="43.61267" lon="6.84068">
        <ele>80.519020080566</ele>
        <time>2010-03-28T10:49:32Z</time>
      </trkpt>
      <trkpt lat="43.61262" lon="6.84087">
        <ele>79.441856384277</ele>
        <time>2010-03-28T10:49:37Z</time>
      </trkpt>
      <trkpt lat="43.61256" lon="6.84104">
        <ele>78.86792755127</ele>
        <time>2010-03-28T10:49:42Z</time>
      </trkpt>
      <trkpt lat="43.61248" lon="6.84125">
        <ele>78.442481994629</ele>
        <time>2010-03-28T10:49:48Z</time>
      </trkpt>
      <trkpt lat="43.61237" lon="6.84135">
        <ele>81.098205566406</ele>
        <time>2010-03-28T10:49:52Z</time>
      </trkpt>
      <trkpt lat="43.61223" lon="6.84144">
        <ele>84.113182067871</ele>
        <time>2010-03-28T10:49:57Z</time>
      </trkpt>
      <trkpt lat="43.61215" lon="6.84153">
        <ele>85.380386352539</ele>
        <time>2010-03-28T10:50:02Z</time>
      </trkpt>
      <trkpt lat="43.6121" lon="6.84164">
        <ele>85.879440307617</ele>
        <time>2010-03-28T10:50:07Z</time>
      </trkpt>
      <trkpt lat="43.61204" lon="6.84173">
        <ele>86.570648193359</ele>
        <time>2010-03-28T10:50:12Z</time>
      </trkpt>
      <trkpt lat="43.61198" lon="6.84184">
        <ele>87.207328796387</ele>
        <time>2010-03-28T10:50:17Z</time>
      </trkpt>
      <trkpt lat="43.61194" lon="6.84197">
        <ele>87.209373474121</ele>
        <time>2010-03-28T10:50:22Z</time>
      </trkpt>
      <trkpt lat="43.6119" lon="6.84204">
        <ele>87.579399108887</ele>
        <time>2010-03-28T10:50:25Z</time>
      </trkpt>
      <trkpt lat="43.6118" lon="6.84223">
        <ele>87.959365844727</ele>
        <time>2010-03-28T10:50:32Z</time>
      </trkpt>
      <trkpt lat="43.61178" lon="6.84232">
        <ele>87.581260681152</ele>
        <time>2010-03-28T10:50:36Z</time>
      </trkpt>
      <trkpt lat="43.61176" lon="6.84246">
        <ele>86.77954864502</ele>
        <time>2010-03-28T10:50:42Z</time>
      </trkpt>
      <trkpt lat="43.61177" lon="6.84262">
        <ele>84.968452453613</ele>
        <time>2010-03-28T10:50:47Z</time>
      </trkpt>
      <trkpt lat="43.61179" lon="6.84269">
        <ele>84.043731689453</ele>
        <time>2010-03-28T10:50:49Z</time>
      </trkpt>
      <trkpt lat="43.61185" lon="6.84285">
        <ele>81.647178649902</ele>
        <time>2010-03-28T10:50:55Z</time>
      </trkpt>
      <trkpt lat="43.61197" lon="6.84297">
        <ele>79.114212036133</ele>
        <time>2010-03-28T10:51:01Z</time>
      </trkpt>
      <trkpt lat="43.6121" lon="6.84308">
        <ele>76.642608642578</ele>
        <time>2010-03-28T10:51:07Z</time>
      </trkpt>
      <trkpt lat="43.61219" lon="6.84313">
        <ele>75.229606628418</ele>
        <time>2010-03-28T10:51:10Z</time>
      </trkpt>
      <trkpt lat="43.61225" lon="6.84316">
        <ele>74.425628662109</ele>
        <time>2010-03-28T10:51:12Z</time>
      </trkpt>
      <trkpt lat="43.61235" lon="6.84329">
        <ele>72.617156982422</ele>
        <time>2010-03-28T10:51:19Z</time>
      </trkpt>
      <trkpt lat="43.61242" lon="6.84348">
        <ele>71.348594665527</ele>
        <time>2010-03-28T10:51:24Z</time>
      </trkpt>
      <trkpt lat="43.61242" lon="6.84374">
        <ele>70.533935546875</ele>
        <time>2010-03-28T10:51:28Z</time>
      </trkpt>
      <trkpt lat="43.61236" lon="6.84388">
        <ele>70.502578735352</ele>
        <time>2010-03-28T10:51:30Z</time>
      </trkpt>
      <trkpt lat="43.61206" lon="6.84409">
        <ele>70.987464904785</ele>
        <time>2010-03-28T10:51:35Z</time>
      </trkpt>
      <trkpt lat="43.61154" lon="6.84435">
        <ele>71.370010375977</ele>
        <time>2010-03-28T10:51:42Z</time>
      </trkpt>
      <trkpt lat="43.61105" lon="6.84458">
        <ele>71.625343322754</ele>
        <time>2010-03-28T10:51:48Z</time>
      </trkpt>
      <trkpt lat="43.61086" lon="6.84476">
        <ele>70.543342590332</ele>
        <time>2010-03-28T10:51:51Z</time>
      </trkpt>
      <trkpt lat="43.61069" lon="6.84489">
        <ele>69.166130065918</ele>
        <time>2010-03-28T10:51:55Z</time>
      </trkpt>
      <trkpt lat="43.61057" lon="6.8449">
        <ele>69.042533874512</ele>
        <time>2010-03-28T10:52:02Z</time>
      </trkpt>
      <trkpt lat="43.61055" lon="6.84494">
        <ele>68.68204498291</ele>
        <time>2010-03-28T10:52:04Z</time>
      </trkpt>
      <trkpt lat="43.61052" lon="6.845">
        <ele>67.991569519043</ele>
        <time>2010-03-28T10:52:12Z</time>
      </trkpt>
      <trkpt lat="43.61053" lon="6.845">
        <ele>67.988334655762</ele>
        <time>2010-03-28T10:52:20Z</time>
      </trkpt>
      <trkpt lat="43.61057" lon="6.84485">
        <ele>69.619316101074</ele>
        <time>2010-03-28T10:54:35Z</time>
      </trkpt>
      <trkpt lat="43.61049" lon="6.84502">
        <ele>67.828369140625</ele>
        <time>2010-03-28T10:55:50Z</time>
      </trkpt>
      <trkpt lat="43.61044" lon="6.84505">
        <ele>67.627838134766</ele>
        <time>2010-03-28T10:56:36Z</time>
      </trkpt>
      <trkpt lat="43.61054" lon="6.84496">
        <ele>68.398803710938</ele>
        <time>2010-03-28T10:57:26Z</time>
      </trkpt>
      <trkpt lat="43.61054" lon="6.84496">
        <ele>68.414253234863</ele>
        <time>2010-03-28T10:57:27Z</time>
      </trkpt>
      <trkpt lat="43.61054" lon="6.84499">
        <ele>68.105262756348</ele>
        <time>2010-03-28T10:59:45Z</time>
      </trkpt>
      <trkpt lat="43.61053" lon="6.845">
        <ele>68.048614501953</ele>
        <time>2010-03-28T10:59:46Z</time>
      </trkpt>
      <trkpt lat="43.61051" lon="6.84504">
        <ele>67.690521240234</ele>
        <time>2010-03-28T11:00:56Z</time>
      </trkpt>
      <trkpt lat="43.61049" lon="6.84504">
        <ele>67.721405029297</ele>
        <time>2010-03-28T11:01:08Z</time>
      </trkpt>
      <trkpt lat="43.61049" lon="6.84501">
        <ele>67.928230285645</ele>
        <time>2010-03-28T11:01:45Z</time>
      </trkpt>
      <trkpt lat="43.61052" lon="6.845">
        <ele>68.02286529541</ele>
        <time>2010-03-28T11:08:25Z</time>
      </trkpt>
      <trkpt lat="43.61057" lon="6.84501">
        <ele>67.94652557373</ele>
        <time>2010-03-28T11:15:06Z</time>
      </trkpt>
      <trkpt lat="43.61059" lon="6.84501">
        <ele>67.947128295898</ele>
        <time>2010-03-28T11:15:13Z</time>
      </trkpt>
      <trkpt lat="43.6106" lon="6.84497">
        <ele>68.290657043457</ele>
        <time>2010-03-28T11:15:19Z</time>
      </trkpt>
      <trkpt lat="43.6106" lon="6.84496">
        <ele>68.450302124023</ele>
        <time>2010-03-28T11:15:27Z</time>
      </trkpt>
      <trkpt lat="43.6106" lon="6.84494">
        <ele>68.697494506836</ele>
        <time>2010-03-28T11:15:38Z</time>
      </trkpt>
      <trkpt lat="43.61057" lon="6.84491">
        <ele>68.949836730957</ele>
        <time>2010-03-28T11:15:40Z</time>
      </trkpt>
      <trkpt lat="43.61039" lon="6.84484">
        <ele>69.763511657715</ele>
        <time>2010-03-28T11:15:47Z</time>
      </trkpt>
      <trkpt lat="43.61032" lon="6.84481">
        <ele>70.057052612305</ele>
        <time>2010-03-28T11:15:50Z</time>
      </trkpt>
      <trkpt lat="43.61023" lon="6.8448">
        <ele>70.160049438477</ele>
        <time>2010-03-28T11:15:54Z</time>
      </trkpt>
      <trkpt lat="43.61005" lon="6.84476">
        <ele>70.55143737793</ele>
        <time>2010-03-28T11:16:00Z</time>
      </trkpt>
      <trkpt lat="43.60989" lon="6.84479">
        <ele>70.09497833252</ele>
        <time>2010-03-28T11:16:06Z</time>
      </trkpt>
      <trkpt lat="43.60967" lon="6.84485">
        <ele>69.210922241211</ele>
        <time>2010-03-28T11:16:13Z</time>
      </trkpt>
      <trkpt lat="43.60949" lon="6.84493">
        <ele>68.136894226074</ele>
        <time>2010-03-28T11:16:19Z</time>
      </trkpt>
      <trkpt lat="43.60929" lon="6.845">
        <ele>67.193328857422</ele>
        <time>2010-03-28T11:16:26Z</time>
      </trkpt>
      <trkpt lat="43.60907" lon="6.84505">
        <ele>66.467407226562</ele>
        <time>2010-03-28T11:16:34Z</time>
      </trkpt>
      <trkpt lat="43.60887" lon="6.84512">
        <ele>65.715301513672</ele>
        <time>2010-03-28T11:16:43Z</time>
      </trkpt>
      <trkpt lat="43.60884" lon="6.84513">
        <ele>65.66104888916</ele>
        <time>2010-03-28T11:16:47Z</time>
      </trkpt>
      <trkpt lat="43.60875" lon="6.84514">
        <ele>65.484786987305</ele>
        <time>2010-03-28T11:17:04Z</time>
      </trkpt>
      <trkpt lat="43.60856" lon="6.84522">
        <ele>64.793312072754</ele>
        <time>2010-03-28T11:17:12Z</time>
      </trkpt>
      <trkpt lat="43.60836" lon="6.8453">
        <ele>64.186325073242</ele>
        <time>2010-03-28T11:17:20Z</time>
      </trkpt>
      <trkpt lat="43.60818" lon="6.84537">
        <ele>63.980537414551</ele>
        <time>2010-03-28T11:17:27Z</time>
      </trkpt>
      <trkpt lat="43.6081" lon="6.84539">
        <ele>64.022125244141</ele>
        <time>2010-03-28T11:17:30Z</time>
      </trkpt>
      <trkpt lat="43.60807" lon="6.8454">
        <ele>64.026695251465</ele>
        <time>2010-03-28T11:17:31Z</time>
      </trkpt>
      <trkpt lat="43.60778" lon="6.84549">
        <ele>64.348022460938</ele>
        <time>2010-03-28T11:17:40Z</time>
      </trkpt>
      <trkpt lat="43.60748" lon="6.84553">
        <ele>65.158836364746</ele>
        <time>2010-03-28T11:17:48Z</time>
      </trkpt>
      <trkpt lat="43.60727" lon="6.8455">
        <ele>66.420021057129</ele>
        <time>2010-03-28T11:17:54Z</time>
      </trkpt>
      <trkpt lat="43.60705" lon="6.84539">
        <ele>66.973136901855</ele>
        <time>2010-03-28T11:18:01Z</time>
      </trkpt>
      <trkpt lat="43.6069" lon="6.84522">
        <ele>66.208297729492</ele>
        <time>2010-03-28T11:18:07Z</time>
      </trkpt>
      <trkpt lat="43.60678" lon="6.84504">
        <ele>64.507926940918</ele>
        <time>2010-03-28T11:18:13Z</time>
      </trkpt>
      <trkpt lat="43.60659" lon="6.84483">
        <ele>66.109375</ele>
        <time>2010-03-28T11:18:20Z</time>
      </trkpt>
      <trkpt lat="43.60644" lon="6.8447">
        <ele>67.652877807617</ele>
        <time>2010-03-28T11:18:25Z</time>
      </trkpt>
      <trkpt lat="43.60617" lon="6.84452">
        <ele>68.147445678711</ele>
        <time>2010-03-28T11:18:34Z</time>
      </trkpt>
      <trkpt lat="43.606" lon="6.84436">
        <ele>66.91918182373</ele>
        <time>2010-03-28T11:18:42Z</time>
      </trkpt>
      <trkpt lat="43.60581" lon="6.84426">
        <ele>65.440605163574</ele>
        <time>2010-03-28T11:18:49Z</time>
      </trkpt>
      <trkpt lat="43.60568" lon="6.84431">
        <ele>68.157196044922</ele>
        <time>2010-03-28T11:18:53Z</time>
      </trkpt>
      <trkpt lat="43.60546" lon="6.84442">
        <ele>73.643005371094</ele>
        <time>2010-03-28T11:19:01Z</time>
      </trkpt>
      <trkpt lat="43.60527" lon="6.84449">
        <ele>78.445037841797</ele>
        <time>2010-03-28T11:19:08Z</time>
      </trkpt>
      <trkpt lat="43.60518" lon="6.84441">
        <ele>78.565048217773</ele>
        <time>2010-03-28T11:19:13Z</time>
      </trkpt>
      <trkpt lat="43.60511" lon="6.84424">
        <ele>75.884590148926</ele>
        <time>2010-03-28T11:19:20Z</time>
      </trkpt>
      <trkpt lat="43.60505" lon="6.84397">
        <ele>73.156669616699</ele>
        <time>2010-03-28T11:19:29Z</time>
      </trkpt>
      <trkpt lat="43.60495" lon="6.84375">
        <ele>71.545860290527</ele>
        <time>2010-03-28T11:19:37Z</time>
      </trkpt>
      <trkpt lat="43.60485" lon="6.84358">
        <ele>70.256019592285</ele>
        <time>2010-03-28T11:19:44Z</time>
      </trkpt>
      <trkpt lat="43.60476" lon="6.8434">
        <ele>68.655784606934</ele>
        <time>2010-03-28T11:19:52Z</time>
      </trkpt>
      <trkpt lat="43.60471" lon="6.84318">
        <ele>68.367492675781</ele>
        <time>2010-03-28T11:19:59Z</time>
      </trkpt>
      <trkpt lat="43.60469" lon="6.84292">
        <ele>68.86351776123</ele>
        <time>2010-03-28T11:20:07Z</time>
      </trkpt>
      <trkpt lat="43.60467" lon="6.84271">
        <ele>69.154708862305</ele>
        <time>2010-03-28T11:20:13Z</time>
      </trkpt>
      <trkpt lat="43.6046" lon="6.84255">
        <ele>69.048789978027</ele>
        <time>2010-03-28T11:20:19Z</time>
      </trkpt>
      <trkpt lat="43.60448" lon="6.84246">
        <ele>68.901069641113</ele>
        <time>2010-03-28T11:20:25Z</time>
      </trkpt>
      <trkpt lat="43.60435" lon="6.84241">
        <ele>68.810401916504</ele>
        <time>2010-03-28T11:20:31Z</time>
      </trkpt>
      <trkpt lat="43.60424" lon="6.84237">
        <ele>68.630294799805</ele>
        <time>2010-03-28T11:20:36Z</time>
      </trkpt>
      <trkpt lat="43.60402" lon="6.84235">
        <ele>68.54923248291</ele>
        <time>2010-03-28T11:20:46Z</time>
      </trkpt>
      <trkpt lat="43.60387" lon="6.84232">
        <ele>68.870880126953</ele>
        <time>2010-03-28T11:20:54Z</time>
      </trkpt>
      <trkpt lat="43.60369" lon="6.84229">
        <ele>69.185653686523</ele>
        <time>2010-03-28T11:21:02Z</time>
      </trkpt>
      <trkpt lat="43.60355" lon="6.84228">
        <ele>69.26985168457</ele>
        <time>2010-03-28T11:21:08Z</time>
      </trkpt>
      <trkpt lat="43.60341" lon="6.84228">
        <ele>69.313789367676</ele>
        <time>2010-03-28T11:21:14Z</time>
      </trkpt>
      <trkpt lat="43.60332" lon="6.8423">
        <ele>69.217041015625</ele>
        <time>2010-03-28T11:21:18Z</time>
      </trkpt>
      <trkpt lat="43.60318" lon="6.8423">
        <ele>69.46257019043</ele>
        <time>2010-03-28T11:21:25Z</time>
      </trkpt>
      <trkpt lat="43.60314" lon="6.84231">
        <ele>69.489967346191</ele>
        <time>2010-03-28T11:21:28Z</time>
      </trkpt>
      <trkpt lat="43.6031" lon="6.84236">
        <ele>69.293502807617</ele>
        <time>2010-03-28T11:21:33Z</time>
      </trkpt>
      <trkpt lat="43.60308" lon="6.84237">
        <ele>69.301513671875</ele>
        <time>2010-03-28T11:21:36Z</time>
      </trkpt>
      <trkpt lat="43.60305" lon="6.84238">
        <ele>69.305908203125</ele>
        <time>2010-03-28T11:21:44Z</time>
      </trkpt>
      <trkpt lat="43.60303" lon="6.84237">
        <ele>69.384994506836</ele>
        <time>2010-03-28T11:21:50Z</time>
      </trkpt>
      <trkpt lat="43.60298" lon="6.84238">
        <ele>69.451942443848</ele>
        <time>2010-03-28T11:22:01Z</time>
      </trkpt>
      <trkpt lat="43.60292" lon="6.84239">
        <ele>69.513870239258</ele>
        <time>2010-03-28T11:22:08Z</time>
      </trkpt>
      <trkpt lat="43.60281" lon="6.84241">
        <ele>69.657646179199</ele>
        <time>2010-03-28T11:22:19Z</time>
      </trkpt>
      <trkpt lat="43.60275" lon="6.84245">
        <ele>69.62996673584</ele>
        <time>2010-03-28T11:22:27Z</time>
      </trkpt>
      <trkpt lat="43.60268" lon="6.84249">
        <ele>69.615745544434</ele>
        <time>2010-03-28T11:22:37Z</time>
      </trkpt>
      <trkpt lat="43.60261" lon="6.84252">
        <ele>70.110832214355</ele>
        <time>2010-03-28T11:22:44Z</time>
      </trkpt>
      <trkpt lat="43.60258" lon="6.84259">
        <ele>71.724395751953</ele>
        <time>2010-03-28T11:22:52Z</time>
      </trkpt>
      <trkpt lat="43.60256" lon="6.84265">
        <ele>72.996788024902</ele>
        <time>2010-03-28T11:23:01Z</time>
      </trkpt>
      <trkpt lat="43.60252" lon="6.84269">
        <ele>73.953147888184</ele>
        <time>2010-03-28T11:23:10Z</time>
      </trkpt>
      <trkpt lat="43.60249" lon="6.84273">
        <ele>74.703170776367</ele>
        <time>2010-03-28T11:23:18Z</time>
      </trkpt>
      <trkpt lat="43.60244" lon="6.84278">
        <ele>75.423309326172</ele>
        <time>2010-03-28T11:23:22Z</time>
      </trkpt>
      <trkpt lat="43.60237" lon="6.84282">
        <ele>75.84098815918</ele>
        <time>2010-03-28T11:23:29Z</time>
      </trkpt>
      <trkpt lat="43.60236" lon="6.84284">
        <ele>76.101745605469</ele>
        <time>2010-03-28T11:23:34Z</time>
      </trkpt>
      <trkpt lat="43.60234" lon="6.84287">
        <ele>76.442169189453</ele>
        <time>2010-03-28T11:23:41Z</time>
      </trkpt>
      <trkpt lat="43.60228" lon="6.8429">
        <ele>76.604454040527</ele>
        <time>2010-03-28T11:23:50Z</time>
      </trkpt>
      <trkpt lat="43.60224" lon="6.84297">
        <ele>77.449028015137</ele>
        <time>2010-03-28T11:24:00Z</time>
      </trkpt>
      <trkpt lat="43.60222" lon="6.84303">
        <ele>78.271751403809</ele>
        <time>2010-03-28T11:24:07Z</time>
      </trkpt>
      <trkpt lat="43.60218" lon="6.84315">
        <ele>79.737464904785</ele>
        <time>2010-03-28T11:24:16Z</time>
      </trkpt>
      <trkpt lat="43.60218" lon="6.8432">
        <ele>80.439460754395</ele>
        <time>2010-03-28T11:24:20Z</time>
      </trkpt>
      <trkpt lat="43.60216" lon="6.84324">
        <ele>80.742073059082</ele>
        <time>2010-03-28T11:24:27Z</time>
      </trkpt>
      <trkpt lat="43.60212" lon="6.84325">
        <ele>80.431137084961</ele>
        <time>2010-03-28T11:24:49Z</time>
      </trkpt>
      <trkpt lat="43.60211" lon="6.84325">
        <ele>80.318603515625</ele>
        <time>2010-03-28T11:24:59Z</time>
      </trkpt>
      <trkpt lat="43.60211" lon="6.84326">
        <ele>80.307914733887</ele>
        <time>2010-03-28T11:25:13Z</time>
      </trkpt>
      <trkpt lat="43.60213" lon="6.84327">
        <ele>80.68367767334</ele>
        <time>2010-03-28T11:26:19Z</time>
      </trkpt>
      <trkpt lat="43.60213" lon="6.84333">
        <ele>81.690567016602</ele>
        <time>2010-03-28T11:26:25Z</time>
      </trkpt>
      <trkpt lat="43.60214" lon="6.84337">
        <ele>82.329498291016</ele>
        <time>2010-03-28T11:26:31Z</time>
      </trkpt>
      <trkpt lat="43.60217" lon="6.84338">
        <ele>82.84595489502</ele>
        <time>2010-03-28T11:26:37Z</time>
      </trkpt>
      <trkpt lat="43.60217" lon="6.84339">
        <ele>83.061241149902</ele>
        <time>2010-03-28T11:26:42Z</time>
      </trkpt>
      <trkpt lat="43.60217" lon="6.84345">
        <ele>84.095733642578</ele>
        <time>2010-03-28T11:26:46Z</time>
      </trkpt>
      <trkpt lat="43.60218" lon="6.84361">
        <ele>86.809616088867</ele>
        <time>2010-03-28T11:26:52Z</time>
      </trkpt>
      <trkpt lat="43.6022" lon="6.84387">
        <ele>91.390586853027</ele>
        <time>2010-03-28T11:27:00Z</time>
      </trkpt>
      <trkpt lat="43.6022" lon="6.84404">
        <ele>94.366096496582</ele>
        <time>2010-03-28T11:27:06Z</time>
      </trkpt>
      <trkpt lat="43.60221" lon="6.84428">
        <ele>98.101905822754</ele>
        <time>2010-03-28T11:27:14Z</time>
      </trkpt>
      <trkpt lat="43.60222" lon="6.84452">
        <ele>101.34046936035</ele>
        <time>2010-03-28T11:27:22Z</time>
      </trkpt>
      <trkpt lat="43.60221" lon="6.84473">
        <ele>103.78484344482</ele>
        <time>2010-03-28T11:27:28Z</time>
      </trkpt>
      <trkpt lat="43.60221" lon="6.84508">
        <ele>108.03380584717</ele>
        <time>2010-03-28T11:27:37Z</time>
      </trkpt>
      <trkpt lat="43.60217" lon="6.84536">
        <ele>109.84846496582</ele>
        <time>2010-03-28T11:27:45Z</time>
      </trkpt>
      <trkpt lat="43.60213" lon="6.84565">
        <ele>111.27437591553</ele>
        <time>2010-03-28T11:27:53Z</time>
      </trkpt>
      <trkpt lat="43.6021" lon="6.84596">
        <ele>113.86120605469</ele>
        <time>2010-03-28T11:28:01Z</time>
      </trkpt>
      <trkpt lat="43.60203" lon="6.84619">
        <ele>115.06314849853</ele>
        <time>2010-03-28T11:28:08Z</time>
      </trkpt>
      <trkpt lat="43.60192" lon="6.84633">
        <ele>113.3003616333</ele>
        <time>2010-03-28T11:28:14Z</time>
      </trkpt>
      <trkpt lat="43.60181" lon="6.84643">
        <ele>111.1962814331</ele>
        <time>2010-03-28T11:28:20Z</time>
      </trkpt>
      <trkpt lat="43.6017" lon="6.84655">
        <ele>110.19872283935</ele>
        <time>2010-03-28T11:28:27Z</time>
      </trkpt>
      <trkpt lat="43.6016" lon="6.84665">
        <ele>110.35424804688</ele>
        <time>2010-03-28T11:28:34Z</time>
      </trkpt>
      <trkpt lat="43.60153" lon="6.84676">
        <ele>113.51779174805</ele>
        <time>2010-03-28T11:28:40Z</time>
      </trkpt>
      <trkpt lat="43.60148" lon="6.84685">
        <ele>116.68844604492</ele>
        <time>2010-03-28T11:28:46Z</time>
      </trkpt>
      <trkpt lat="43.60143" lon="6.84693">
        <ele>119.35439300537</ele>
        <time>2010-03-28T11:28:52Z</time>
      </trkpt>
      <trkpt lat="43.60137" lon="6.84703">
        <ele>122.9016494751</ele>
        <time>2010-03-28T11:29:00Z</time>
      </trkpt>
      <trkpt lat="43.60137" lon="6.84705">
        <ele>123.60439300537</ele>
        <time>2010-03-28T11:29:08Z</time>
      </trkpt>
      <trkpt lat="43.60136" lon="6.84705">
        <ele>123.68464660644</ele>
        <time>2010-03-28T11:29:14Z</time>
      </trkpt>
      <trkpt lat="43.60131" lon="6.84711">
        <ele>125.49536132812</ele>
        <time>2010-03-28T11:29:20Z</time>
      </trkpt>
      <trkpt lat="43.6013" lon="6.84713">
        <ele>126.38887786865</ele>
        <time>2010-03-28T11:29:23Z</time>
      </trkpt>
      <trkpt lat="43.6013" lon="6.84713">
        <ele>126.65947723389</ele>
        <time>2010-03-28T11:29:26Z</time>
      </trkpt>
      <trkpt lat="43.60131" lon="6.84713">
        <ele>126.37799835205</ele>
        <time>2010-03-28T11:29:32Z</time>
      </trkpt>
      <trkpt lat="43.60132" lon="6.84713">
        <ele>126.8826751709</ele>
        <time>2010-03-28T11:29:37Z</time>
      </trkpt>
      <trkpt lat="43.60131" lon="6.84715">
        <ele>127.37977600098</ele>
        <time>2010-03-28T11:29:45Z</time>
      </trkpt>
      <trkpt lat="43.60129" lon="6.84712">
        <ele>125.82975006103</ele>
        <time>2010-03-28T11:29:51Z</time>
      </trkpt>
      <trkpt lat="43.60128" lon="6.84711">
        <ele>125.06185150147</ele>
        <time>2010-03-28T11:29:52Z</time>
      </trkpt>
      <trkpt lat="43.60129" lon="6.8471">
        <ele>124.67742919922</ele>
        <time>2010-03-28T11:29:57Z</time>
      </trkpt>
      <trkpt lat="43.60128" lon="6.84712">
        <ele>125.69100952148</ele>
        <time>2010-03-28T11:30:04Z</time>
      </trkpt>
      <trkpt lat="43.60128" lon="6.84716">
        <ele>127.35536956787</ele>
        <time>2010-03-28T11:30:06Z</time>
      </trkpt>
      <trkpt lat="43.60126" lon="6.8473">
        <ele>133.94357299805</ele>
        <time>2010-03-28T11:30:13Z</time>
      </trkpt>
      <trkpt lat="43.60124" lon="6.84734">
        <ele>135.23204040527</ele>
        <time>2010-03-28T11:30:20Z</time>
      </trkpt>
      <trkpt lat="43.60123" lon="6.84733">
        <ele>134.64636230469</ele>
        <time>2010-03-28T11:30:28Z</time>
      </trkpt>
      <trkpt lat="43.60122" lon="6.84735">
        <ele>135.80598449707</ele>
        <time>2010-03-28T11:30:51Z</time>
      </trkpt>
      <trkpt lat="43.60119" lon="6.84735">
        <ele>135.28297424316</ele>
        <time>2010-03-28T11:31:29Z</time>
      </trkpt>
      <trkpt lat="43.60113" lon="6.84737">
        <ele>135.20753479004</ele>
        <time>2010-03-28T11:32:04Z</time>
      </trkpt>
      <trkpt lat="43.60117" lon="6.84736">
        <ele>135.56837463379</ele>
        <time>2010-03-28T11:32:28Z</time>
      </trkpt>
      <trkpt lat="43.60117" lon="6.84738">
        <ele>136.32067871094</ele>
        <time>2010-03-28T11:32:30Z</time>
      </trkpt>
      <trkpt lat="43.60117" lon="6.84751">
        <ele>142.48446655273</ele>
        <time>2010-03-28T11:32:36Z</time>
      </trkpt>
      <trkpt lat="43.60118" lon="6.84756">
        <ele>143.98101806641</ele>
        <time>2010-03-28T11:32:38Z</time>
      </trkpt>
      <trkpt lat="43.60122" lon="6.84771">
        <ele>149.28692626953</ele>
        <time>2010-03-28T11:32:45Z</time>
      </trkpt>
      <trkpt lat="43.60123" lon="6.84781">
        <ele>152.47706604004</ele>
        <time>2010-03-28T11:32:49Z</time>
      </trkpt>
      <trkpt lat="43.60125" lon="6.84784">
        <ele>153.70497131348</ele>
        <time>2010-03-28T11:32:51Z</time>
      </trkpt>
      <trkpt lat="43.60128" lon="6.84786">
        <ele>154.38330078125</ele>
        <time>2010-03-28T11:32:56Z</time>
      </trkpt>
      <trkpt lat="43.60133" lon="6.8479">
        <ele>155.71710205078</ele>
        <time>2010-03-28T11:33:09Z</time>
      </trkpt>
      <trkpt lat="43.60133" lon="6.84799">
        <ele>158.38517761231</ele>
        <time>2010-03-28T11:33:14Z</time>
      </trkpt>
      <trkpt lat="43.60137" lon="6.84817">
        <ele>163.46640014648</ele>
        <time>2010-03-28T11:33:21Z</time>
      </trkpt>
      <trkpt lat="43.60138" lon="6.84836">
        <ele>168.4326171875</ele>
        <time>2010-03-28T11:33:27Z</time>
      </trkpt>
      <trkpt lat="43.60138" lon="6.8484">
        <ele>168.76377868652</ele>
        <time>2010-03-28T11:33:28Z</time>
      </trkpt>
      <trkpt lat="43.6015" lon="6.84852">
        <ele>169.09883117676</ele>
        <time>2010-03-28T11:33:34Z</time>
      </trkpt>
      <trkpt lat="43.60161" lon="6.84854">
        <ele>168.46894836426</ele>
        <time>2010-03-28T11:33:39Z</time>
      </trkpt>
      <trkpt lat="43.60163" lon="6.84854">
        <ele>168.30517578125</ele>
        <time>2010-03-28T11:33:40Z</time>
      </trkpt>
      <trkpt lat="43.60181" lon="6.84851">
        <ele>166.65507507324</ele>
        <time>2010-03-28T11:33:50Z</time>
      </trkpt>
      <trkpt lat="43.60193" lon="6.8485">
        <ele>165.57598876953</ele>
        <time>2010-03-28T11:33:57Z</time>
      </trkpt>
      <trkpt lat="43.60199" lon="6.84853">
        <ele>165.50590515137</ele>
        <time>2010-03-28T11:34:01Z</time>
      </trkpt>
      <trkpt lat="43.602" lon="6.8486">
        <ele>166.04389953613</ele>
        <time>2010-03-28T11:34:05Z</time>
      </trkpt>
      <trkpt lat="43.602" lon="6.84862">
        <ele>166.20770263672</ele>
        <time>2010-03-28T11:34:06Z</time>
      </trkpt>
      <trkpt lat="43.60196" lon="6.84866">
        <ele>166.86697387695</ele>
        <time>2010-03-28T11:34:10Z</time>
      </trkpt>
      <trkpt lat="43.60192" lon="6.84872">
        <ele>167.76565551758</ele>
        <time>2010-03-28T11:34:18Z</time>
      </trkpt>
      <trkpt lat="43.60191" lon="6.84877">
        <ele>168.28330993652</ele>
        <time>2010-03-28T11:34:22Z</time>
      </trkpt>
      <trkpt lat="43.60191" lon="6.84879">
        <ele>168.44993591309</ele>
        <time>2010-03-28T11:34:23Z</time>
      </trkpt>
      <trkpt lat="43.60189" lon="6.84889">
        <ele>169.52033996582</ele>
        <time>2010-03-28T11:34:30Z</time>
      </trkpt>
      <trkpt lat="43.60189" lon="6.84896">
        <ele>170.27192687988</ele>
        <time>2010-03-28T11:34:37Z</time>
      </trkpt>
      <trkpt lat="43.60189" lon="6.84896">
        <ele>170.21447753906</ele>
        <time>2010-03-28T11:35:00Z</time>
      </trkpt>
      <trkpt lat="43.6019" lon="6.84902">
        <ele>170.72705078125</ele>
        <time>2010-03-28T11:35:06Z</time>
      </trkpt>
      <trkpt lat="43.60186" lon="6.84913">
        <ele>172.05303955078</ele>
        <time>2010-03-28T11:35:13Z</time>
      </trkpt>
      <trkpt lat="43.60183" lon="6.84925">
        <ele>173.83349609375</ele>
        <time>2010-03-28T11:35:20Z</time>
      </trkpt>
      <trkpt lat="43.60183" lon="6.84927">
        <ele>174.14981079102</ele>
        <time>2010-03-28T11:35:21Z</time>
      </trkpt>
      <trkpt lat="43.6018" lon="6.84935">
        <ele>175.75291442871</ele>
        <time>2010-03-28T11:35:27Z</time>
      </trkpt>
      <trkpt lat="43.60179" lon="6.84946">
        <ele>177.71604919434</ele>
        <time>2010-03-28T11:35:34Z</time>
      </trkpt>
      <trkpt lat="43.6018" lon="6.84958">
        <ele>179.54626464844</ele>
        <time>2010-03-28T11:35:41Z</time>
      </trkpt>
      <trkpt lat="43.60177" lon="6.84968">
        <ele>181.56282043457</ele>
        <time>2010-03-28T11:35:48Z</time>
      </trkpt>
      <trkpt lat="43.60177" lon="6.84976">
        <ele>182.84510803223</ele>
        <time>2010-03-28T11:35:53Z</time>
      </trkpt>
      <trkpt lat="43.60177" lon="6.84989">
        <ele>184.89485168457</ele>
        <time>2010-03-28T11:36:01Z</time>
      </trkpt>
      <trkpt lat="43.60178" lon="6.84999">
        <ele>186.34315490723</ele>
        <time>2010-03-28T11:36:07Z</time>
      </trkpt>
      <trkpt lat="43.6018" lon="6.8501">
        <ele>187.01092529297</ele>
        <time>2010-03-28T11:36:14Z</time>
      </trkpt>
      <trkpt lat="43.60181" lon="6.85027">
        <ele>188.23924255371</ele>
        <time>2010-03-28T11:36:23Z</time>
      </trkpt>
      <trkpt lat="43.6018" lon="6.8504">
        <ele>189.57713317871</ele>
        <time>2010-03-28T11:36:30Z</time>
      </trkpt>
      <trkpt lat="43.60178" lon="6.85052">
        <ele>191.28080749512</ele>
        <time>2010-03-28T11:36:38Z</time>
      </trkpt>
      <trkpt lat="43.60177" lon="6.85055">
        <ele>191.95945739746</ele>
        <time>2010-03-28T11:36:40Z</time>
      </trkpt>
      <trkpt lat="43.60176" lon="6.85057">
        <ele>192.58195495606</ele>
        <time>2010-03-28T11:36:43Z</time>
      </trkpt>
      <trkpt lat="43.60172" lon="6.85062">
        <ele>194.49035644531</ele>
        <time>2010-03-28T11:36:48Z</time>
      </trkpt>
      <trkpt lat="43.60171" lon="6.85063">
        <ele>194.99501037598</ele>
        <time>2010-03-28T11:36:49Z</time>
      </trkpt>
      <trkpt lat="43.60168" lon="6.85063">
        <ele>195.85668945312</ele>
        <time>2010-03-28T11:36:55Z</time>
      </trkpt>
      <trkpt lat="43.6016" lon="6.85067">
        <ele>198.16452026367</ele>
        <time>2010-03-28T11:37:04Z</time>
      </trkpt>
      <trkpt lat="43.60149" lon="6.85072">
        <ele>200.69096374512</ele>
        <time>2010-03-28T11:37:13Z</time>
      </trkpt>
      <trkpt lat="43.60138" lon="6.85079">
        <ele>203.51440429688</ele>
        <time>2010-03-28T11:37:23Z</time>
      </trkpt>
      <trkpt lat="43.60136" lon="6.8508">
        <ele>204.01654052734</ele>
        <time>2010-03-28T11:37:25Z</time>
      </trkpt>
      <trkpt lat="43.6013" lon="6.85085">
        <ele>205.63409423828</ele>
        <time>2010-03-28T11:37:30Z</time>
      </trkpt>
      <trkpt lat="43.60123" lon="6.85094">
        <ele>207.06591796875</ele>
        <time>2010-03-28T11:37:38Z</time>
      </trkpt>
      <trkpt lat="43.60119" lon="6.85105">
        <ele>208.05540466309</ele>
        <time>2010-03-28T11:37:46Z</time>
      </trkpt>
      <trkpt lat="43.60117" lon="6.85109">
        <ele>208.62608337402</ele>
        <time>2010-03-28T11:37:49Z</time>
      </trkpt>
      <trkpt lat="43.60114" lon="6.85116">
        <ele>209.35659790039</ele>
        <time>2010-03-28T11:37:53Z</time>
      </trkpt>
      <trkpt lat="43.60113" lon="6.8512">
        <ele>209.81681823731</ele>
        <time>2010-03-28T11:37:56Z</time>
      </trkpt>
      <trkpt lat="43.60118" lon="6.85127">
        <ele>208.92665100098</ele>
        <time>2010-03-28T11:38:03Z</time>
      </trkpt>
      <trkpt lat="43.6012" lon="6.85127">
        <ele>208.31982421875</ele>
        <time>2010-03-28T11:38:05Z</time>
      </trkpt>
      <trkpt lat="43.60123" lon="6.85127">
        <ele>207.72241210938</ele>
        <time>2010-03-28T11:38:07Z</time>
      </trkpt>
      <trkpt lat="43.60135" lon="6.85127">
        <ele>205.15742492676</ele>
        <time>2010-03-28T11:38:16Z</time>
      </trkpt>
      <trkpt lat="43.60135" lon="6.85128">
        <ele>204.99043273926</ele>
        <time>2010-03-28T11:38:17Z</time>
      </trkpt>
      <trkpt lat="43.60141" lon="6.85134">
        <ele>203.62921142578</ele>
        <time>2010-03-28T11:38:26Z</time>
      </trkpt>
      <trkpt lat="43.60143" lon="6.85141">
        <ele>203.27583312988</ele>
        <time>2010-03-28T11:38:31Z</time>
      </trkpt>
      <trkpt lat="43.60143" lon="6.85148">
        <ele>203.36895751953</ele>
        <time>2010-03-28T11:38:35Z</time>
      </trkpt>
      <trkpt lat="43.60142" lon="6.85152">
        <ele>203.46549987793</ele>
        <time>2010-03-28T11:38:38Z</time>
      </trkpt>
      <trkpt lat="43.6014" lon="6.8516">
        <ele>203.96337890625</ele>
        <time>2010-03-28T11:38:45Z</time>
      </trkpt>
      <trkpt lat="43.60139" lon="6.85163">
        <ele>204.26872253418</ele>
        <time>2010-03-28T11:38:47Z</time>
      </trkpt>
      <trkpt lat="43.60138" lon="6.85165">
        <ele>204.47772216797</ele>
        <time>2010-03-28T11:38:49Z</time>
      </trkpt>
      <trkpt lat="43.60131" lon="6.85178">
        <ele>205.91822814941</ele>
        <time>2010-03-28T11:38:57Z</time>
      </trkpt>
      <trkpt lat="43.60129" lon="6.85183">
        <ele>206.04760742188</ele>
        <time>2010-03-28T11:39:02Z</time>
      </trkpt>
      <trkpt lat="43.60124" lon="6.85194">
        <ele>207.02072143555</ele>
        <time>2010-03-28T11:39:09Z</time>
      </trkpt>
      <trkpt lat="43.60119" lon="6.85204">
        <ele>208.00772094727</ele>
        <time>2010-03-28T11:39:16Z</time>
      </trkpt>
      <trkpt lat="43.60113" lon="6.85214">
        <ele>209.34666442871</ele>
        <time>2010-03-28T11:39:22Z</time>
      </trkpt>
      <trkpt lat="43.60107" lon="6.85223">
        <ele>210.78100585938</ele>
        <time>2010-03-28T11:39:28Z</time>
      </trkpt>
      <trkpt lat="43.601" lon="6.85234">
        <ele>212.8874206543</ele>
        <time>2010-03-28T11:39:35Z</time>
      </trkpt>
      <trkpt lat="43.60095" lon="6.85241">
        <ele>214.19793701172</ele>
        <time>2010-03-28T11:39:40Z</time>
      </trkpt>
      <trkpt lat="43.60091" lon="6.8525">
        <ele>215.29414367676</ele>
        <time>2010-03-28T11:39:46Z</time>
      </trkpt>
      <trkpt lat="43.60088" lon="6.85254">
        <ele>216.19654846191</ele>
        <time>2010-03-28T11:39:49Z</time>
      </trkpt>
      <trkpt lat="43.60082" lon="6.85263">
        <ele>217.90020751953</ele>
        <time>2010-03-28T11:39:56Z</time>
      </trkpt>
      <trkpt lat="43.60079" lon="6.85269">
        <ele>218.39509582519</ele>
        <time>2010-03-28T11:40:00Z</time>
      </trkpt>
      <trkpt lat="43.60069" lon="6.85283">
        <ele>220.40341186523</ele>
        <time>2010-03-28T11:40:08Z</time>
      </trkpt>
      <trkpt lat="43.60061" lon="6.85297">
        <ele>221.94329833984</ele>
        <time>2010-03-28T11:40:16Z</time>
      </trkpt>
      <trkpt lat="43.60053" lon="6.85309">
        <ele>223.72608947754</ele>
        <time>2010-03-28T11:40:24Z</time>
      </trkpt>
      <trkpt lat="43.60051" lon="6.85311">
        <ele>224.26229858398</ele>
        <time>2010-03-28T11:40:26Z</time>
      </trkpt>
      <trkpt lat="43.60043" lon="6.85324">
        <ele>226.03274536133</ele>
        <time>2010-03-28T11:40:33Z</time>
      </trkpt>
      <trkpt lat="43.60036" lon="6.85332">
        <ele>227.80078125</ele>
        <time>2010-03-28T11:40:38Z</time>
      </trkpt>
      <trkpt lat="43.60023" lon="6.85347">
        <ele>230.20573425293</ele>
        <time>2010-03-28T11:40:46Z</time>
      </trkpt>
      <trkpt lat="43.60006" lon="6.85363">
        <ele>233.53967285156</ele>
        <time>2010-03-28T11:40:54Z</time>
      </trkpt>
      <trkpt lat="43.59989" lon="6.85376">
        <ele>235.54278564453</ele>
        <time>2010-03-28T11:41:02Z</time>
      </trkpt>
      <trkpt lat="43.59977" lon="6.85385">
        <ele>236.66360473633</ele>
        <time>2010-03-28T11:41:09Z</time>
      </trkpt>
      <trkpt lat="43.59964" lon="6.85396">
        <ele>238.05917358398</ele>
        <time>2010-03-28T11:41:16Z</time>
      </trkpt>
      <trkpt lat="43.59949" lon="6.85412">
        <ele>240.50471496582</ele>
        <time>2010-03-28T11:41:24Z</time>
      </trkpt>
      <trkpt lat="43.59937" lon="6.85419">
        <ele>242.72857666016</ele>
        <time>2010-03-28T11:41:30Z</time>
      </trkpt>
      <trkpt lat="43.59929" lon="6.8542">
        <ele>244.07864379883</ele>
        <time>2010-03-28T11:41:36Z</time>
      </trkpt>
      <trkpt lat="43.59926" lon="6.8542">
        <ele>244.54301452637</ele>
        <time>2010-03-28T11:41:39Z</time>
      </trkpt>
      <trkpt lat="43.59917" lon="6.85421">
        <ele>246.21434020996</ele>
        <time>2010-03-28T11:41:45Z</time>
      </trkpt>
      <trkpt lat="43.59907" lon="6.85421">
        <ele>245.99011230469</ele>
        <time>2010-03-28T11:41:51Z</time>
      </trkpt>
      <trkpt lat="43.59901" lon="6.85425">
        <ele>246.12747192383</ele>
        <time>2010-03-28T11:41:55Z</time>
      </trkpt>
      <trkpt lat="43.5989" lon="6.85437">
        <ele>247.06288146973</ele>
        <time>2010-03-28T11:42:02Z</time>
      </trkpt>
      <trkpt lat="43.59879" lon="6.85449">
        <ele>248.3865814209</ele>
        <time>2010-03-28T11:42:09Z</time>
      </trkpt>
      <trkpt lat="43.59869" lon="6.85456">
        <ele>249.30406188965</ele>
        <time>2010-03-28T11:42:15Z</time>
      </trkpt>
      <trkpt lat="43.59856" lon="6.85465">
        <ele>250.89399719238</ele>
        <time>2010-03-28T11:42:23Z</time>
      </trkpt>
      <trkpt lat="43.5985" lon="6.85468">
        <ele>251.6711730957</ele>
        <time>2010-03-28T11:42:26Z</time>
      </trkpt>
      <trkpt lat="43.59842" lon="6.8548">
        <ele>253.9508972168</ele>
        <time>2010-03-28T11:42:31Z</time>
      </trkpt>
      <trkpt lat="43.59839" lon="6.855">
        <ele>257.42166137695</ele>
        <time>2010-03-28T11:42:38Z</time>
      </trkpt>
      <trkpt lat="43.59843" lon="6.85515">
        <ele>258.67965698242</ele>
        <time>2010-03-28T11:42:45Z</time>
      </trkpt>
      <trkpt lat="43.5985" lon="6.85535">
        <ele>259.87622070312</ele>
        <time>2010-03-28T11:42:53Z</time>
      </trkpt>
      <trkpt lat="43.59854" lon="6.85553">
        <ele>260.99758911133</ele>
        <time>2010-03-28T11:43:00Z</time>
      </trkpt>
      <trkpt lat="43.59858" lon="6.85566">
        <ele>261.63262939453</ele>
        <time>2010-03-28T11:43:05Z</time>
      </trkpt>
      <trkpt lat="43.59862" lon="6.8559">
        <ele>263.19610595703</ele>
        <time>2010-03-28T11:43:14Z</time>
      </trkpt>
      <trkpt lat="43.59863" lon="6.85606">
        <ele>264.546875</ele>
        <time>2010-03-28T11:43:20Z</time>
      </trkpt>
      <trkpt lat="43.59863" lon="6.85628">
        <ele>266.56915283203</ele>
        <time>2010-03-28T11:43:28Z</time>
      </trkpt>
      <trkpt lat="43.59865" lon="6.85644">
        <ele>267.66351318359</ele>
        <time>2010-03-28T11:43:34Z</time>
      </trkpt>
      <trkpt lat="43.59858" lon="6.85658">
        <ele>270.52221679688</ele>
        <time>2010-03-28T11:43:41Z</time>
      </trkpt>
      <trkpt lat="43.59854" lon="6.85659">
        <ele>271.51541137695</ele>
        <time>2010-03-28T11:43:44Z</time>
      </trkpt>
      <trkpt lat="43.59855" lon="6.85661">
        <ele>271.56021118164</ele>
        <time>2010-03-28T11:43:51Z</time>
      </trkpt>
      <trkpt lat="43.59857" lon="6.85663">
        <ele>271.26901245117</ele>
        <time>2010-03-28T11:44:13Z</time>
      </trkpt>
      <trkpt lat="43.59853" lon="6.85668">
        <ele>272.65509033203</ele>
        <time>2010-03-28T11:44:39Z</time>
      </trkpt>
      <trkpt lat="43.59853" lon="6.85667">
        <ele>272.44000244141</ele>
        <time>2010-03-28T11:45:02Z</time>
      </trkpt>
      <trkpt lat="43.59855" lon="6.85667">
        <ele>272.10675048828</ele>
        <time>2010-03-28T11:45:21Z</time>
      </trkpt>
      <trkpt lat="43.59851" lon="6.8567">
        <ele>273.10162353516</ele>
        <time>2010-03-28T11:45:41Z</time>
      </trkpt>
      <trkpt lat="43.59854" lon="6.85665">
        <ele>272.19390869141</ele>
        <time>2010-03-28T11:46:19Z</time>
      </trkpt>
      <trkpt lat="43.59854" lon="6.85665">
        <ele>272.14508056641</ele>
        <time>2010-03-28T11:46:34Z</time>
      </trkpt>
      <trkpt lat="43.59852" lon="6.85664">
        <ele>272.39151000977</ele>
        <time>2010-03-28T11:46:54Z</time>
      </trkpt>
      <trkpt lat="43.59852" lon="6.85664">
        <ele>272.46762084961</ele>
        <time>2010-03-28T11:47:34Z</time>
      </trkpt>
      <trkpt lat="43.59848" lon="6.85663">
        <ele>273.18533325195</ele>
        <time>2010-03-28T11:48:39Z</time>
      </trkpt>
      <trkpt lat="43.59847" lon="6.85666">
        <ele>273.79800415039</ele>
        <time>2010-03-28T11:49:15Z</time>
      </trkpt>
      <trkpt lat="43.59847" lon="6.85667">
        <ele>273.93988037109</ele>
        <time>2010-03-28T11:49:26Z</time>
      </trkpt>
      <trkpt lat="43.59843" lon="6.85667">
        <ele>274.80932617188</ele>
        <time>2010-03-28T11:49:54Z</time>
      </trkpt>
      <trkpt lat="43.59845" lon="6.85671">
        <ele>274.57592773438</ele>
        <time>2010-03-28T11:50:21Z</time>
      </trkpt>
      <trkpt lat="43.59846" lon="6.8567">
        <ele>274.17196655273</ele>
        <time>2010-03-28T11:50:34Z</time>
      </trkpt>
      <trkpt lat="43.59849" lon="6.85668">
        <ele>273.55065917969</ele>
        <time>2010-03-28T11:50:44Z</time>
      </trkpt>
      <trkpt lat="43.59851" lon="6.85667">
        <ele>273.04876708984</ele>
        <time>2010-03-28T11:50:56Z</time>
      </trkpt>
      <trkpt lat="43.5985" lon="6.85669">
        <ele>273.39846801758</ele>
        <time>2010-03-28T11:51:09Z</time>
      </trkpt>
      <trkpt lat="43.59851" lon="6.85668">
        <ele>273.11135864258</ele>
        <time>2010-03-28T11:51:20Z</time>
      </trkpt>
      <trkpt lat="43.59848" lon="6.85672">
        <ele>273.9323425293</ele>
        <time>2010-03-28T11:51:41Z</time>
      </trkpt>
      <trkpt lat="43.59846" lon="6.85674">
        <ele>274.45599365234</ele>
        <time>2010-03-28T11:51:43Z</time>
      </trkpt>
      <trkpt lat="43.59839" lon="6.85682">
        <ele>276.38690185547</ele>
        <time>2010-03-28T11:51:48Z</time>
      </trkpt>
      <trkpt lat="43.59831" lon="6.85696">
        <ele>278.45138549805</ele>
        <time>2010-03-28T11:51:56Z</time>
      </trkpt>
      <trkpt lat="43.59818" lon="6.85705">
        <ele>279.40374755859</ele>
        <time>2010-03-28T11:52:03Z</time>
      </trkpt>
      <trkpt lat="43.59803" lon="6.85711">
        <ele>280.51547241211</ele>
        <time>2010-03-28T11:52:10Z</time>
      </trkpt>
      <trkpt lat="43.59786" lon="6.85711">
        <ele>281.38610839844</ele>
        <time>2010-03-28T11:52:18Z</time>
      </trkpt>
      <trkpt lat="43.59768" lon="6.85709">
        <ele>281.91754150391</ele>
        <time>2010-03-28T11:52:26Z</time>
      </trkpt>
      <trkpt lat="43.59746" lon="6.8571">
        <ele>282.7763671875</ele>
        <time>2010-03-28T11:52:36Z</time>
      </trkpt>
      <trkpt lat="43.59734" lon="6.8572">
        <ele>284.46841430664</ele>
        <time>2010-03-28T11:52:42Z</time>
      </trkpt>
      <trkpt lat="43.59723" lon="6.85733">
        <ele>287.30041503906</ele>
        <time>2010-03-28T11:52:48Z</time>
      </trkpt>
      <trkpt lat="43.59707" lon="6.85747">
        <ele>290.86273193359</ele>
        <time>2010-03-28T11:52:55Z</time>
      </trkpt>
      <trkpt lat="43.59684" lon="6.85761">
        <ele>292.33609008789</ele>
        <time>2010-03-28T11:53:05Z</time>
      </trkpt>
      <trkpt lat="43.59667" lon="6.8578">
        <ele>293.78140258789</ele>
        <time>2010-03-28T11:53:13Z</time>
      </trkpt>
      <trkpt lat="43.59653" lon="6.85794">
        <ele>293.23736572266</ele>
        <time>2010-03-28T11:53:19Z</time>
      </trkpt>
      <trkpt lat="43.5964" lon="6.85801">
        <ele>292.25534057617</ele>
        <time>2010-03-28T11:53:25Z</time>
      </trkpt>
      <trkpt lat="43.59626" lon="6.85811">
        <ele>291.42834472656</ele>
        <time>2010-03-28T11:53:31Z</time>
      </trkpt>
      <trkpt lat="43.5961" lon="6.85823">
        <ele>290.72937011719</ele>
        <time>2010-03-28T11:53:38Z</time>
      </trkpt>
      <trkpt lat="43.59591" lon="6.85836">
        <ele>289.23062133789</ele>
        <time>2010-03-28T11:53:46Z</time>
      </trkpt>
      <trkpt lat="43.59577" lon="6.85858">
        <ele>285.12408447266</ele>
        <time>2010-03-28T11:53:53Z</time>
      </trkpt>
      <trkpt lat="43.59566" lon="6.85885">
        <ele>281.66217041016</ele>
        <time>2010-03-28T11:54:01Z</time>
      </trkpt>
      <trkpt lat="43.59552" lon="6.85903">
        <ele>280.38705444336</ele>
        <time>2010-03-28T11:54:08Z</time>
      </trkpt>
      <trkpt lat="43.59543" lon="6.85914">
        <ele>280.08657836914</ele>
        <time>2010-03-28T11:54:13Z</time>
      </trkpt>
      <trkpt lat="43.59531" lon="6.85925">
        <ele>278.93768310547</ele>
        <time>2010-03-28T11:54:19Z</time>
      </trkpt>
      <trkpt lat="43.59518" lon="6.85935">
        <ele>278.19863891602</ele>
        <time>2010-03-28T11:54:25Z</time>
      </trkpt>
      <trkpt lat="43.59501" lon="6.85947">
        <ele>278.37261962891</ele>
        <time>2010-03-28T11:54:31Z</time>
      </trkpt>
      <trkpt lat="43.59478" lon="6.85965">
        <ele>285.26168823242</ele>
        <time>2010-03-28T11:54:40Z</time>
      </trkpt>
      <trkpt lat="43.5946" lon="6.85981">
        <ele>292.98794555664</ele>
        <time>2010-03-28T11:54:47Z</time>
      </trkpt>
      <trkpt lat="43.59443" lon="6.85999">
        <ele>303.07269287109</ele>
        <time>2010-03-28T11:54:54Z</time>
      </trkpt>
      <trkpt lat="43.59431" lon="6.86013">
        <ele>306.37210083008</ele>
        <time>2010-03-28T11:54:59Z</time>
      </trkpt>
      <trkpt lat="43.59415" lon="6.86031">
        <ele>311.26480102539</ele>
        <time>2010-03-28T11:55:05Z</time>
      </trkpt>
      <trkpt lat="43.59405" lon="6.86048">
        <ele>310.95147705078</ele>
        <time>2010-03-28T11:55:11Z</time>
      </trkpt>
      <trkpt lat="43.59388" lon="6.8606">
        <ele>314.23770141602</ele>
        <time>2010-03-28T11:55:17Z</time>
      </trkpt>
      <trkpt lat="43.5937" lon="6.86076">
        <ele>318.51959228516</ele>
        <time>2010-03-28T11:55:23Z</time>
      </trkpt>
      <trkpt lat="43.59351" lon="6.86097">
        <ele>321.54583740234</ele>
        <time>2010-03-28T11:55:30Z</time>
      </trkpt>
      <trkpt lat="43.59336" lon="6.86119">
        <ele>322.9176940918</ele>
        <time>2010-03-28T11:55:37Z</time>
      </trkpt>
      <trkpt lat="43.59326" lon="6.8614">
        <ele>321.17529296875</ele>
        <time>2010-03-28T11:55:43Z</time>
      </trkpt>
      <trkpt lat="43.59312" lon="6.86161">
        <ele>320.19140625</ele>
        <time>2010-03-28T11:55:50Z</time>
      </trkpt>
      <trkpt lat="43.59302" lon="6.86168">
        <ele>320.9450378418</ele>
        <time>2010-03-28T11:55:54Z</time>
      </trkpt>
      <trkpt lat="43.59289" lon="6.86179">
        <ele>321.32379150391</ele>
        <time>2010-03-28T11:55:59Z</time>
      </trkpt>
      <trkpt lat="43.59269" lon="6.862">
        <ele>322.62265014648</ele>
        <time>2010-03-28T11:56:06Z</time>
      </trkpt>
      <trkpt lat="43.59256" lon="6.86215">
        <ele>324.15618896484</ele>
        <time>2010-03-28T11:56:11Z</time>
      </trkpt>
      <trkpt lat="43.59245" lon="6.86238">
        <ele>322.0505065918</ele>
        <time>2010-03-28T11:56:18Z</time>
      </trkpt>
      <trkpt lat="43.59232" lon="6.86262">
        <ele>316.60864257812</ele>
        <time>2010-03-28T11:56:26Z</time>
      </trkpt>
      <trkpt lat="43.59219" lon="6.86282">
        <ele>313.31341552734</ele>
        <time>2010-03-28T11:56:33Z</time>
      </trkpt>
      <trkpt lat="43.59216" lon="6.86302">
        <ele>311.96731567383</ele>
        <time>2010-03-28T11:56:38Z</time>
      </trkpt>
      <trkpt lat="43.59214" lon="6.86309">
        <ele>311.50518798828</ele>
        <time>2010-03-28T11:56:40Z</time>
      </trkpt>
      <trkpt lat="43.59212" lon="6.86324">
        <ele>310.79266357422</ele>
        <time>2010-03-28T11:56:44Z</time>
      </trkpt>
      <trkpt lat="43.5921" lon="6.86355">
        <ele>311.72515869141</ele>
        <time>2010-03-28T11:56:52Z</time>
      </trkpt>
      <trkpt lat="43.59212" lon="6.86382">
        <ele>313.14166259766</ele>
        <time>2010-03-28T11:56:59Z</time>
      </trkpt>
      <trkpt lat="43.59215" lon="6.86405">
        <ele>314.11517333984</ele>
        <time>2010-03-28T11:57:05Z</time>
      </trkpt>
      <trkpt lat="43.5922" lon="6.86436">
        <ele>315.91168212891</ele>
        <time>2010-03-28T11:57:13Z</time>
      </trkpt>
      <trkpt lat="43.59222" lon="6.86459">
        <ele>317.92709350586</ele>
        <time>2010-03-28T11:57:19Z</time>
      </trkpt>
      <trkpt lat="43.59225" lon="6.86486">
        <ele>320.35589599609</ele>
        <time>2010-03-28T11:57:26Z</time>
      </trkpt>
      <trkpt lat="43.59227" lon="6.86504">
        <ele>321.96630859375</ele>
        <time>2010-03-28T11:57:31Z</time>
      </trkpt>
      <trkpt lat="43.59232" lon="6.86528">
        <ele>323.60809326172</ele>
        <time>2010-03-28T11:57:37Z</time>
      </trkpt>
      <trkpt lat="43.59243" lon="6.86545">
        <ele>325.32000732422</ele>
        <time>2010-03-28T11:57:43Z</time>
      </trkpt>
      <trkpt lat="43.59254" lon="6.8656">
        <ele>326.50335693359</ele>
        <time>2010-03-28T11:57:49Z</time>
      </trkpt>
      <trkpt lat="43.59263" lon="6.86587">
        <ele>328.24987792969</ele>
        <time>2010-03-28T11:57:56Z</time>
      </trkpt>
      <trkpt lat="43.59273" lon="6.866">
        <ele>328.67102050781</ele>
        <time>2010-03-28T11:58:01Z</time>
      </trkpt>
      <trkpt lat="43.59295" lon="6.8661">
        <ele>327.7646484375</ele>
        <time>2010-03-28T11:58:08Z</time>
      </trkpt>
      <trkpt lat="43.59312" lon="6.86619">
        <ele>327.13293457031</ele>
        <time>2010-03-28T11:58:14Z</time>
      </trkpt>
      <trkpt lat="43.59329" lon="6.86634">
        <ele>327.22448730469</ele>
        <time>2010-03-28T11:58:21Z</time>
      </trkpt>
      <trkpt lat="43.5935" lon="6.8665">
        <ele>324.61389160156</ele>
        <time>2010-03-28T11:58:29Z</time>
      </trkpt>
      <trkpt lat="43.59371" lon="6.86666">
        <ele>321.34201049805</ele>
        <time>2010-03-28T11:58:37Z</time>
      </trkpt>
      <trkpt lat="43.59386" lon="6.86685">
        <ele>317.15899658203</ele>
        <time>2010-03-28T11:58:44Z</time>
      </trkpt>
      <trkpt lat="43.59388" lon="6.86705">
        <ele>315.92138671875</ele>
        <time>2010-03-28T11:58:49Z</time>
      </trkpt>
      <trkpt lat="43.5938" lon="6.86722">
        <ele>317.97872924805</ele>
        <time>2010-03-28T11:58:55Z</time>
      </trkpt>
      <trkpt lat="43.59365" lon="6.8674">
        <ele>322.80294799805</ele>
        <time>2010-03-28T11:59:03Z</time>
      </trkpt>
      <trkpt lat="43.59352" lon="6.86757">
        <ele>328.65298461914</ele>
        <time>2010-03-28T11:59:09Z</time>
      </trkpt>
      <trkpt lat="43.59341" lon="6.86781">
        <ele>336.43612670898</ele>
        <time>2010-03-28T11:59:16Z</time>
      </trkpt>
      <trkpt lat="43.59339" lon="6.8681">
        <ele>341.59237670898</ele>
        <time>2010-03-28T11:59:23Z</time>
      </trkpt>
      <trkpt lat="43.5934" lon="6.86836">
        <ele>344.63717651367</ele>
        <time>2010-03-28T11:59:29Z</time>
      </trkpt>
      <trkpt lat="43.59334" lon="6.86868">
        <ele>350.90994262695</ele>
        <time>2010-03-28T11:59:37Z</time>
      </trkpt>
      <trkpt lat="43.59334" lon="6.86891">
        <ele>353.31137084961</ele>
        <time>2010-03-28T11:59:43Z</time>
      </trkpt>
      <trkpt lat="43.59344" lon="6.86911">
        <ele>350.22857666016</ele>
        <time>2010-03-28T11:59:49Z</time>
      </trkpt>
      <trkpt lat="43.59357" lon="6.86931">
        <ele>343.70092773438</ele>
        <time>2010-03-28T11:59:55Z</time>
      </trkpt>
      <trkpt lat="43.59366" lon="6.86958">
        <ele>337.89373779297</ele>
        <time>2010-03-28T12:00:02Z</time>
      </trkpt>
      <trkpt lat="43.59369" lon="6.86976">
        <ele>335.34704589844</ele>
        <time>2010-03-28T12:00:07Z</time>
      </trkpt>
      <trkpt lat="43.59366" lon="6.86998">
        <ele>334.90505981445</ele>
        <time>2010-03-28T12:00:13Z</time>
      </trkpt>
      <trkpt lat="43.5936" lon="6.87009">
        <ele>335.5334777832</ele>
        <time>2010-03-28T12:00:18Z</time>
      </trkpt>
      <trkpt lat="43.59346" lon="6.87022">
        <ele>338.4694519043</ele>
        <time>2010-03-28T12:00:25Z</time>
      </trkpt>
      <trkpt lat="43.59334" lon="6.87032">
        <ele>341.47872924805</ele>
        <time>2010-03-28T12:00:31Z</time>
      </trkpt>
      <trkpt lat="43.5932" lon="6.87037">
        <ele>346.77062988281</ele>
        <time>2010-03-28T12:00:36Z</time>
      </trkpt>
      <trkpt lat="43.59299" lon="6.87051">
        <ele>354.09600830078</ele>
        <time>2010-03-28T12:00:42Z</time>
      </trkpt>
      <trkpt lat="43.59296" lon="6.87053">
        <ele>355.06396484375</ele>
        <time>2010-03-28T12:00:43Z</time>
      </trkpt>
      <trkpt lat="43.59292" lon="6.87078">
        <ele>352.64175415039</ele>
        <time>2010-03-28T12:00:49Z</time>
      </trkpt>
      <trkpt lat="43.59293" lon="6.87083">
        <ele>351.6882019043</ele>
        <time>2010-03-28T12:00:50Z</time>
      </trkpt>
      <trkpt lat="43.59289" lon="6.8712">
        <ele>345.71270751953</ele>
        <time>2010-03-28T12:00:59Z</time>
      </trkpt>
      <trkpt lat="43.59285" lon="6.87144">
        <ele>342.49151611328</ele>
        <time>2010-03-28T12:01:05Z</time>
      </trkpt>
      <trkpt lat="43.59285" lon="6.87174">
        <ele>336.17684936523</ele>
        <time>2010-03-28T12:01:12Z</time>
      </trkpt>
      <trkpt lat="43.5928" lon="6.87198">
        <ele>333.07232666016</ele>
        <time>2010-03-28T12:01:18Z</time>
      </trkpt>
      <trkpt lat="43.59268" lon="6.87216">
        <ele>334.05749511719</ele>
        <time>2010-03-28T12:01:25Z</time>
      </trkpt>
      <trkpt lat="43.59248" lon="6.87233">
        <ele>337.85925292969</ele>
        <time>2010-03-28T12:01:34Z</time>
      </trkpt>
      <trkpt lat="43.59228" lon="6.87241">
        <ele>342.69784545898</ele>
        <time>2010-03-28T12:01:41Z</time>
      </trkpt>
      <trkpt lat="43.59207" lon="6.87248">
        <ele>348.26089477539</ele>
        <time>2010-03-28T12:01:49Z</time>
      </trkpt>
      <trkpt lat="43.59195" lon="6.87252">
        <ele>351.72283935547</ele>
        <time>2010-03-28T12:01:54Z</time>
      </trkpt>
      <trkpt lat="43.59182" lon="6.87262">
        <ele>355.22778320312</ele>
        <time>2010-03-28T12:02:00Z</time>
      </trkpt>
      <trkpt lat="43.59166" lon="6.87285">
        <ele>358.24572753906</ele>
        <time>2010-03-28T12:02:08Z</time>
      </trkpt>
      <trkpt lat="43.5915" lon="6.87311">
        <ele>358.51260375977</ele>
        <time>2010-03-28T12:02:15Z</time>
      </trkpt>
      <trkpt lat="43.59143" lon="6.87337">
        <ele>357.53201293945</ele>
        <time>2010-03-28T12:02:21Z</time>
      </trkpt>
      <trkpt lat="43.59128" lon="6.87365">
        <ele>358.73135375977</ele>
        <time>2010-03-28T12:02:28Z</time>
      </trkpt>
      <trkpt lat="43.59121" lon="6.87397">
        <ele>358.12149047852</ele>
        <time>2010-03-28T12:02:36Z</time>
      </trkpt>
      <trkpt lat="43.59119" lon="6.8744">
        <ele>355.46917724609</ele>
        <time>2010-03-28T12:02:45Z</time>
      </trkpt>
      <trkpt lat="43.59111" lon="6.87481">
        <ele>354.58547973633</ele>
        <time>2010-03-28T12:02:54Z</time>
      </trkpt>
      <trkpt lat="43.59104" lon="6.87499">
        <ele>355.58813476562</ele>
        <time>2010-03-28T12:02:59Z</time>
      </trkpt>
      <trkpt lat="43.5909" lon="6.87519">
        <ele>358.74035644531</ele>
        <time>2010-03-28T12:03:06Z</time>
      </trkpt>
      <trkpt lat="43.59076" lon="6.87531">
        <ele>360.56271362305</ele>
        <time>2010-03-28T12:03:13Z</time>
      </trkpt>
      <trkpt lat="43.59073" lon="6.87533">
        <ele>360.65539550781</ele>
        <time>2010-03-28T12:03:14Z</time>
      </trkpt>
      <trkpt lat="43.5906" lon="6.87546">
        <ele>361.10733032227</ele>
        <time>2010-03-28T12:03:21Z</time>
      </trkpt>
      <trkpt lat="43.59056" lon="6.87548">
        <ele>361.30160522461</ele>
        <time>2010-03-28T12:03:25Z</time>
      </trkpt>
      <trkpt lat="43.59056" lon="6.87548">
        <ele>361.35083007812</ele>
        <time>2010-03-28T12:03:32Z</time>
      </trkpt>
      <trkpt lat="43.59053" lon="6.87546">
        <ele>361.63754272461</ele>
        <time>2010-03-28T12:03:44Z</time>
      </trkpt>
      <trkpt lat="43.59051" lon="6.87544">
        <ele>361.78131103516</ele>
        <time>2010-03-28T12:04:12Z</time>
      </trkpt>
      <trkpt lat="43.5905" lon="6.87545">
        <ele>361.86135864258</ele>
        <time>2010-03-28T12:07:20Z</time>
      </trkpt>
      <trkpt lat="43.5905" lon="6.87549">
        <ele>361.84701538086</ele>
        <time>2010-03-28T12:07:25Z</time>
      </trkpt>
      <trkpt lat="43.59044" lon="6.87554">
        <ele>362.33486938477</ele>
        <time>2010-03-28T12:07:34Z</time>
      </trkpt>
      <trkpt lat="43.59043" lon="6.87554">
        <ele>362.37036132812</ele>
        <time>2010-03-28T12:07:42Z</time>
      </trkpt>
      <trkpt lat="43.59045" lon="6.87553">
        <ele>362.17105102539</ele>
        <time>2010-03-28T12:08:19Z</time>
      </trkpt>
      <trkpt lat="43.5905" lon="6.87549">
        <ele>361.84048461914</ele>
        <time>2010-03-28T12:12:15Z</time>
      </trkpt>
      <trkpt lat="43.59047" lon="6.87549">
        <ele>362.03176879883</ele>
        <time>2010-03-28T12:13:33Z</time>
      </trkpt>
      <trkpt lat="43.5905" lon="6.87552">
        <ele>361.8132019043</ele>
        <time>2010-03-28T12:14:52Z</time>
      </trkpt>
      <trkpt lat="43.59054" lon="6.87553">
        <ele>361.43023681641</ele>
        <time>2010-03-28T12:20:48Z</time>
      </trkpt>
      <trkpt lat="43.59049" lon="6.87553">
        <ele>361.83633422852</ele>
        <time>2010-03-28T12:21:40Z</time>
      </trkpt>
      <trkpt lat="43.59049" lon="6.87553">
        <ele>361.83633422852</ele>
        <time>2010-03-28T12:21:41Z</time>
      </trkpt>
      <trkpt lat="43.59052" lon="6.87554">
        <ele>361.61712646484</ele>
        <time>2010-03-28T12:23:08Z</time>
      </trkpt>
      <trkpt lat="43.59051" lon="6.87554">
        <ele>361.65521240234</ele>
        <time>2010-03-28T12:23:22Z</time>
      </trkpt>
      <trkpt lat="43.59049" lon="6.87558">
        <ele>361.81069946289</ele>
        <time>2010-03-28T12:23:38Z</time>
      </trkpt>
      <trkpt lat="43.59052" lon="6.87562">
        <ele>361.46984863281</ele>
        <time>2010-03-28T12:23:42Z</time>
      </trkpt>
      <trkpt lat="43.59056" lon="6.87561">
        <ele>361.10491943359</ele>
        <time>2010-03-28T12:23:46Z</time>
      </trkpt>
      <trkpt lat="43.59056" lon="6.87558">
        <ele>361.15603637695</ele>
        <time>2010-03-28T12:23:52Z</time>
      </trkpt>
      <trkpt lat="43.59048" lon="6.87563">
        <ele>361.84301757812</ele>
        <time>2010-03-28T12:23:56Z</time>
      </trkpt>
      <trkpt lat="43.59032" lon="6.87581">
        <ele>363.77975463867</ele>
        <time>2010-03-28T12:24:02Z</time>
      </trkpt>
      <trkpt lat="43.59029" lon="6.87583">
        <ele>364.21173095703</ele>
        <time>2010-03-28T12:24:03Z</time>
      </trkpt>
      <trkpt lat="43.59022" lon="6.87585">
        <ele>364.90768432617</ele>
        <time>2010-03-28T12:24:05Z</time>
      </trkpt>
      <trkpt lat="43.59016" lon="6.87583">
        <ele>365.80392456055</ele>
        <time>2010-03-28T12:24:08Z</time>
      </trkpt>
      <trkpt lat="43.59012" lon="6.87586">
        <ele>366.03652954102</ele>
        <time>2010-03-28T12:24:10Z</time>
      </trkpt>
      <trkpt lat="43.59008" lon="6.87591">
        <ele>365.91589355469</ele>
        <time>2010-03-28T12:24:12Z</time>
      </trkpt>
      <trkpt lat="43.58997" lon="6.87607">
        <ele>365.07513427734</ele>
        <time>2010-03-28T12:24:18Z</time>
      </trkpt>
      <trkpt lat="43.58988" lon="6.87615">
        <ele>364.93811035156</ele>
        <time>2010-03-28T12:24:21Z</time>
      </trkpt>
      <trkpt lat="43.58982" lon="6.87622">
        <ele>364.78176879883</ele>
        <time>2010-03-28T12:24:23Z</time>
      </trkpt>
      <trkpt lat="43.58976" lon="6.87628">
        <ele>364.78820800781</ele>
        <time>2010-03-28T12:24:25Z</time>
      </trkpt>
      <trkpt lat="43.58974" lon="6.87631">
        <ele>364.73168945312</ele>
        <time>2010-03-28T12:24:26Z</time>
      </trkpt>
      <trkpt lat="43.58965" lon="6.87641">
        <ele>364.6025390625</ele>
        <time>2010-03-28T12:24:31Z</time>
      </trkpt>
      <trkpt lat="43.58964" lon="6.87643">
        <ele>364.61761474609</ele>
        <time>2010-03-28T12:24:32Z</time>
      </trkpt>
      <trkpt lat="43.58963" lon="6.87644">
        <ele>364.59921264648</ele>
        <time>2010-03-28T12:24:33Z</time>
      </trkpt>
      <trkpt lat="43.58956" lon="6.87653">
        <ele>364.50149536133</ele>
        <time>2010-03-28T12:24:38Z</time>
      </trkpt>
      <trkpt lat="43.58951" lon="6.87656">
        <ele>364.86502075195</ele>
        <time>2010-03-28T12:24:43Z</time>
      </trkpt>
      <trkpt lat="43.58955" lon="6.87657">
        <ele>364.17092895508</ele>
        <time>2010-03-28T12:24:46Z</time>
      </trkpt>
      <trkpt lat="43.58949" lon="6.87667">
        <ele>363.84432983398</ele>
        <time>2010-03-28T12:24:50Z</time>
      </trkpt>
      <trkpt lat="43.58944" lon="6.8768">
        <ele>361.23434448242</ele>
        <time>2010-03-28T12:24:56Z</time>
      </trkpt>
      <trkpt lat="43.58942" lon="6.87682">
        <ele>361.04772949219</ele>
        <time>2010-03-28T12:25:02Z</time>
      </trkpt>
      <trkpt lat="43.58937" lon="6.87686">
        <ele>360.79135131836</ele>
        <time>2010-03-28T12:25:07Z</time>
      </trkpt>
      <trkpt lat="43.58931" lon="6.87701">
        <ele>358.37445068359</ele>
        <time>2010-03-28T12:25:14Z</time>
      </trkpt>
      <trkpt lat="43.58922" lon="6.87718">
        <ele>356.03161621094</ele>
        <time>2010-03-28T12:25:21Z</time>
      </trkpt>
      <trkpt lat="43.58912" lon="6.87732">
        <ele>355.32458496094</ele>
        <time>2010-03-28T12:25:27Z</time>
      </trkpt>
      <trkpt lat="43.58903" lon="6.87745">
        <ele>355.08236694336</ele>
        <time>2010-03-28T12:25:33Z</time>
      </trkpt>
      <trkpt lat="43.58888" lon="6.87765">
        <ele>356.77740478516</ele>
        <time>2010-03-28T12:25:40Z</time>
      </trkpt>
      <trkpt lat="43.58862" lon="6.87794">
        <ele>362.33215332031</ele>
        <time>2010-03-28T12:25:50Z</time>
      </trkpt>
      <trkpt lat="43.58843" lon="6.87811">
        <ele>367.24060058594</ele>
        <time>2010-03-28T12:25:57Z</time>
      </trkpt>
      <trkpt lat="43.58829" lon="6.87823">
        <ele>370.36605834961</ele>
        <time>2010-03-28T12:26:02Z</time>
      </trkpt>
      <trkpt lat="43.5882" lon="6.87826">
        <ele>371.74090576172</ele>
        <time>2010-03-28T12:26:05Z</time>
      </trkpt>
      <trkpt lat="43.58807" lon="6.87836">
        <ele>373.6042175293</ele>
        <time>2010-03-28T12:26:10Z</time>
      </trkpt>
      <trkpt lat="43.58787" lon="6.87842">
        <ele>377.51336669922</ele>
        <time>2010-03-28T12:26:17Z</time>
      </trkpt>
      <trkpt lat="43.58769" lon="6.87843">
        <ele>380.98226928711</ele>
        <time>2010-03-28T12:26:23Z</time>
      </trkpt>
      <trkpt lat="43.5874" lon="6.87843">
        <ele>384.61978149414</ele>
        <time>2010-03-28T12:26:33Z</time>
      </trkpt>
      <trkpt lat="43.58714" lon="6.87849">
        <ele>384.78405761719</ele>
        <time>2010-03-28T12:26:42Z</time>
      </trkpt>
      <trkpt lat="43.58701" lon="6.87859">
        <ele>386.16027832031</ele>
        <time>2010-03-28T12:26:47Z</time>
      </trkpt>
      <trkpt lat="43.58691" lon="6.87868">
        <ele>387.74212646484</ele>
        <time>2010-03-28T12:26:51Z</time>
      </trkpt>
      <trkpt lat="43.58673" lon="6.87884">
        <ele>391.09326171875</ele>
        <time>2010-03-28T12:26:58Z</time>
      </trkpt>
      <trkpt lat="43.5866" lon="6.87899">
        <ele>393.64080810547</ele>
        <time>2010-03-28T12:27:04Z</time>
      </trkpt>
      <trkpt lat="43.5865" lon="6.87915">
        <ele>395.71520996094</ele>
        <time>2010-03-28T12:27:09Z</time>
      </trkpt>
      <trkpt lat="43.58629" lon="6.87937">
        <ele>394.7033996582</ele>
        <time>2010-03-28T12:27:17Z</time>
      </trkpt>
      <trkpt lat="43.58616" lon="6.87946">
        <ele>394.37359619141</ele>
        <time>2010-03-28T12:27:22Z</time>
      </trkpt>
      <trkpt lat="43.586" lon="6.8794">
        <ele>392.66143798828</ele>
        <time>2010-03-28T12:27:28Z</time>
      </trkpt>
      <trkpt lat="43.58588" lon="6.8794">
        <ele>391.65374755859</ele>
        <time>2010-03-28T12:27:32Z</time>
      </trkpt>
      <trkpt lat="43.58584" lon="6.87941">
        <ele>391.56652832031</ele>
        <time>2010-03-28T12:27:33Z</time>
      </trkpt>
      <trkpt lat="43.58563" lon="6.87949">
        <ele>391.38043212891</ele>
        <time>2010-03-28T12:27:39Z</time>
      </trkpt>
      <trkpt lat="43.58537" lon="6.87959">
        <ele>391.70852661133</ele>
        <time>2010-03-28T12:27:46Z</time>
      </trkpt>
      <trkpt lat="43.58513" lon="6.87977">
        <ele>393.76779174805</ele>
        <time>2010-03-28T12:27:53Z</time>
      </trkpt>
      <trkpt lat="43.58493" lon="6.87981">
        <ele>393.42672729492</ele>
        <time>2010-03-28T12:27:58Z</time>
      </trkpt>
      <trkpt lat="43.58478" lon="6.87972">
        <ele>390.2600402832</ele>
        <time>2010-03-28T12:28:02Z</time>
      </trkpt>
      <trkpt lat="43.58466" lon="6.87967">
        <ele>388.15451049805</ele>
        <time>2010-03-28T12:28:05Z</time>
      </trkpt>
      <trkpt lat="43.58461" lon="6.87966">
        <ele>387.50646972656</ele>
        <time>2010-03-28T12:28:06Z</time>
      </trkpt>
      <trkpt lat="43.58453" lon="6.87964">
        <ele>386.58102416992</ele>
        <time>2010-03-28T12:28:08Z</time>
      </trkpt>
      <trkpt lat="43.58448" lon="6.87965">
        <ele>386.20532226562</ele>
        <time>2010-03-28T12:28:10Z</time>
      </trkpt>
      <trkpt lat="43.58446" lon="6.87965">
        <ele>386.0715637207</ele>
        <time>2010-03-28T12:28:11Z</time>
      </trkpt>
      <trkpt lat="43.58445" lon="6.87965">
        <ele>385.96243286133</ele>
        <time>2010-03-28T12:28:12Z</time>
      </trkpt>
      <trkpt lat="43.58436" lon="6.87975">
        <ele>386.94876098633</ele>
        <time>2010-03-28T12:28:17Z</time>
      </trkpt>
      <trkpt lat="43.58431" lon="6.88002">
        <ele>390.40042114258</ele>
        <time>2010-03-28T12:28:22Z</time>
      </trkpt>
      <trkpt lat="43.58423" lon="6.88012">
        <ele>388.59259033203</ele>
        <time>2010-03-28T12:28:25Z</time>
      </trkpt>
      <trkpt lat="43.58418" lon="6.88013">
        <ele>387.93161010742</ele>
        <time>2010-03-28T12:28:26Z</time>
      </trkpt>
      <trkpt lat="43.5839" lon="6.88013">
        <ele>383.84255981445</ele>
        <time>2010-03-28T12:28:30Z</time>
      </trkpt>
      <trkpt lat="43.58382" lon="6.88014">
        <ele>382.52606201172</ele>
        <time>2010-03-28T12:28:31Z</time>
      </trkpt>
      <trkpt lat="43.58369" lon="6.88017">
        <ele>380.30780029297</ele>
        <time>2010-03-28T12:28:33Z</time>
      </trkpt>
      <trkpt lat="43.58356" lon="6.88024">
        <ele>377.48150634766</ele>
        <time>2010-03-28T12:28:36Z</time>
      </trkpt>
      <trkpt lat="43.58351" lon="6.88026">
        <ele>376.48620605469</ele>
        <time>2010-03-28T12:28:37Z</time>
      </trkpt>
      <trkpt lat="43.58324" lon="6.88033">
        <ele>371.60464477539</ele>
        <time>2010-03-28T12:28:43Z</time>
      </trkpt>
      <trkpt lat="43.58304" lon="6.88023">
        <ele>369.63598632812</ele>
        <time>2010-03-28T12:28:47Z</time>
      </trkpt>
      <trkpt lat="43.58301" lon="6.88017">
        <ele>369.79202270508</ele>
        <time>2010-03-28T12:28:48Z</time>
      </trkpt>
      <trkpt lat="43.58294" lon="6.87998">
        <ele>370.14245605469</ele>
        <time>2010-03-28T12:28:51Z</time>
      </trkpt>
      <trkpt lat="43.58289" lon="6.87992">
        <ele>368.74273681641</ele>
        <time>2010-03-28T12:28:55Z</time>
      </trkpt>
      <trkpt lat="43.58284" lon="6.88004">
        <ele>368.43301391602</ele>
        <time>2010-03-28T12:28:58Z</time>
      </trkpt>
      <trkpt lat="43.58281" lon="6.88019">
        <ele>366.56579589844</ele>
        <time>2010-03-28T12:29:00Z</time>
      </trkpt>
      <trkpt lat="43.58271" lon="6.88055">
        <ele>361.90713500977</ele>
        <time>2010-03-28T12:29:04Z</time>
      </trkpt>
      <trkpt lat="43.58249" lon="6.88085">
        <ele>356.73672485352</ele>
        <time>2010-03-28T12:29:08Z</time>
      </trkpt>
      <trkpt lat="43.5823" lon="6.88097">
        <ele>353.76092529297</ele>
        <time>2010-03-28T12:29:11Z</time>
      </trkpt>
      <trkpt lat="43.58212" lon="6.88094">
        <ele>353.36947631836</ele>
        <time>2010-03-28T12:29:14Z</time>
      </trkpt>
      <trkpt lat="43.58189" lon="6.88086">
        <ele>353.02261352539</ele>
        <time>2010-03-28T12:29:19Z</time>
      </trkpt>
      <trkpt lat="43.5817" lon="6.88085">
        <ele>351.99258422852</ele>
        <time>2010-03-28T12:29:23Z</time>
      </trkpt>
      <trkpt lat="43.58164" lon="6.88085">
        <ele>352.06732177734</ele>
        <time>2010-03-28T12:29:24Z</time>
      </trkpt>
      <trkpt lat="43.58153" lon="6.88086">
        <ele>352.94473266602</ele>
        <time>2010-03-28T12:29:26Z</time>
      </trkpt>
      <trkpt lat="43.58141" lon="6.88086">
        <ele>353.79626464844</ele>
        <time>2010-03-28T12:29:28Z</time>
      </trkpt>
      <trkpt lat="43.58107" lon="6.88089">
        <ele>356.19470214844</ele>
        <time>2010-03-28T12:29:33Z</time>
      </trkpt>
      <trkpt lat="43.58087" lon="6.88083">
        <ele>358.69607543945</ele>
        <time>2010-03-28T12:29:37Z</time>
      </trkpt>
      <trkpt lat="43.58081" lon="6.8807">
        <ele>356.97076416016</ele>
        <time>2010-03-28T12:29:39Z</time>
      </trkpt>
      <trkpt lat="43.58055" lon="6.88019">
        <ele>348.30661010742</ele>
        <time>2010-03-28T12:29:46Z</time>
      </trkpt>
      <trkpt lat="43.58046" lon="6.88004">
        <ele>346.44674682617</ele>
        <time>2010-03-28T12:29:48Z</time>
      </trkpt>
      <trkpt lat="43.58028" lon="6.8798">
        <ele>342.04299926758</ele>
        <time>2010-03-28T12:29:51Z</time>
      </trkpt>
      <trkpt lat="43.58014" lon="6.87966">
        <ele>339.64389038086</ele>
        <time>2010-03-28T12:29:53Z</time>
      </trkpt>
      <trkpt lat="43.57986" lon="6.87961">
        <ele>337.90368652344</ele>
        <time>2010-03-28T12:29:57Z</time>
      </trkpt>
      <trkpt lat="43.5797" lon="6.87974">
        <ele>338.54922485352</ele>
        <time>2010-03-28T12:30:00Z</time>
      </trkpt>
      <trkpt lat="43.57957" lon="6.87977">
        <ele>338.08142089844</ele>
        <time>2010-03-28T12:30:02Z</time>
      </trkpt>
      <trkpt lat="43.57925" lon="6.87973">
        <ele>335.29794311523</ele>
        <time>2010-03-28T12:30:07Z</time>
      </trkpt>
      <trkpt lat="43.57902" lon="6.87981">
        <ele>331.81622314453</ele>
        <time>2010-03-28T12:30:11Z</time>
      </trkpt>
      <trkpt lat="43.57888" lon="6.88005">
        <ele>329.40615844727</ele>
        <time>2010-03-28T12:30:15Z</time>
      </trkpt>
      <trkpt lat="43.57888" lon="6.88023">
        <ele>326.8557434082</ele>
        <time>2010-03-28T12:30:18Z</time>
      </trkpt>
      <trkpt lat="43.57893" lon="6.88043">
        <ele>325.02133178711</ele>
        <time>2010-03-28T12:30:22Z</time>
      </trkpt>
      <trkpt lat="43.57895" lon="6.88048">
        <ele>324.63427734375</ele>
        <time>2010-03-28T12:30:23Z</time>
      </trkpt>
      <trkpt lat="43.57898" lon="6.88058">
        <ele>323.93225097656</ele>
        <time>2010-03-28T12:30:25Z</time>
      </trkpt>
      <trkpt lat="43.57913" lon="6.88077">
        <ele>324.25039672852</ele>
        <time>2010-03-28T12:30:30Z</time>
      </trkpt>
      <trkpt lat="43.5792" lon="6.88082">
        <ele>325.06671142578</ele>
        <time>2010-03-28T12:30:32Z</time>
      </trkpt>
      <trkpt lat="43.57934" lon="6.881">
        <ele>324.75256347656</ele>
        <time>2010-03-28T12:30:37Z</time>
      </trkpt>
      <trkpt lat="43.57942" lon="6.88108">
        <ele>325.0615234375</ele>
        <time>2010-03-28T12:30:40Z</time>
      </trkpt>
      <trkpt lat="43.57951" lon="6.88113">
        <ele>325.91070556641</ele>
        <time>2010-03-28T12:30:43Z</time>
      </trkpt>
      <trkpt lat="43.57962" lon="6.88128">
        <ele>325.45712280273</ele>
        <time>2010-03-28T12:30:47Z</time>
      </trkpt>
      <trkpt lat="43.57963" lon="6.88133">
        <ele>324.78881835938</ele>
        <time>2010-03-28T12:30:48Z</time>
      </trkpt>
      <trkpt lat="43.57975" lon="6.88156">
        <ele>322.68817138672</ele>
        <time>2010-03-28T12:30:53Z</time>
      </trkpt>
      <trkpt lat="43.57978" lon="6.88161">
        <ele>322.30654907227</ele>
        <time>2010-03-28T12:30:54Z</time>
      </trkpt>
      <trkpt lat="43.57987" lon="6.88174">
        <ele>321.57147216797</ele>
        <time>2010-03-28T12:30:57Z</time>
      </trkpt>
      <trkpt lat="43.58" lon="6.88185">
        <ele>322.2057800293</ele>
        <time>2010-03-28T12:31:01Z</time>
      </trkpt>
      <trkpt lat="43.58012" lon="6.88199">
        <ele>321.82366943359</ele>
        <time>2010-03-28T12:31:04Z</time>
      </trkpt>
      <trkpt lat="43.58033" lon="6.88215">
        <ele>322.14074707031</ele>
        <time>2010-03-28T12:31:08Z</time>
      </trkpt>
      <trkpt lat="43.58054" lon="6.88235">
        <ele>320.66171264648</ele>
        <time>2010-03-28T12:31:13Z</time>
      </trkpt>
      <trkpt lat="43.58065" lon="6.8824">
        <ele>321.01336669922</ele>
        <time>2010-03-28T12:31:16Z</time>
      </trkpt>
      <trkpt lat="43.58079" lon="6.8825">
        <ele>320.2419128418</ele>
        <time>2010-03-28T12:31:20Z</time>
      </trkpt>
      <trkpt lat="43.58081" lon="6.88254">
        <ele>319.44836425781</ele>
        <time>2010-03-28T12:31:21Z</time>
      </trkpt>
      <trkpt lat="43.58086" lon="6.88277">
        <ele>313.38003540039</ele>
        <time>2010-03-28T12:31:27Z</time>
      </trkpt>
      <trkpt lat="43.58094" lon="6.88297">
        <ele>307.62640380859</ele>
        <time>2010-03-28T12:31:31Z</time>
      </trkpt>
      <trkpt lat="43.58108" lon="6.88306">
        <ele>305.19232177734</ele>
        <time>2010-03-28T12:31:34Z</time>
      </trkpt>
      <trkpt lat="43.58132" lon="6.88315">
        <ele>303.21047973633</ele>
        <time>2010-03-28T12:31:38Z</time>
      </trkpt>
      <trkpt lat="43.58157" lon="6.88315">
        <ele>303.76461791992</ele>
        <time>2010-03-28T12:31:42Z</time>
      </trkpt>
      <trkpt lat="43.58176" lon="6.88307">
        <ele>307.34780883789</ele>
        <time>2010-03-28T12:31:45Z</time>
      </trkpt>
      <trkpt lat="43.582" lon="6.88291">
        <ele>314.74154663086</ele>
        <time>2010-03-28T12:31:50Z</time>
      </trkpt>
      <trkpt lat="43.58208" lon="6.88281">
        <ele>317.96954345703</ele>
        <time>2010-03-28T12:31:53Z</time>
      </trkpt>
      <trkpt lat="43.58214" lon="6.88285">
        <ele>317.83630371094</ele>
        <time>2010-03-28T12:31:56Z</time>
      </trkpt>
      <trkpt lat="43.58216" lon="6.883">
        <ele>315.16619873047</ele>
        <time>2010-03-28T12:31:59Z</time>
      </trkpt>
      <trkpt lat="43.58219" lon="6.88339">
        <ele>308.19409179688</ele>
        <time>2010-03-28T12:32:05Z</time>
      </trkpt>
      <trkpt lat="43.58217" lon="6.88346">
        <ele>306.69607543945</ele>
        <time>2010-03-28T12:32:06Z</time>
      </trkpt>
      <trkpt lat="43.58215" lon="6.88361">
        <ele>303.89111328125</ele>
        <time>2010-03-28T12:32:08Z</time>
      </trkpt>
      <trkpt lat="43.58213" lon="6.88389">
        <ele>299.24768066406</ele>
        <time>2010-03-28T12:32:13Z</time>
      </trkpt>
      <trkpt lat="43.58208" lon="6.88398">
        <ele>296.87475585938</ele>
        <time>2010-03-28T12:32:15Z</time>
      </trkpt>
      <trkpt lat="43.58192" lon="6.88421">
        <ele>290.39038085938</ele>
        <time>2010-03-28T12:32:19Z</time>
      </trkpt>
      <trkpt lat="43.58172" lon="6.88433">
        <ele>285.57522583008</ele>
        <time>2010-03-28T12:32:23Z</time>
      </trkpt>
      <trkpt lat="43.5816" lon="6.88443">
        <ele>283.23577880859</ele>
        <time>2010-03-28T12:32:26Z</time>
      </trkpt>
      <trkpt lat="43.58137" lon="6.88474">
        <ele>279.18081665039</ele>
        <time>2010-03-28T12:32:32Z</time>
      </trkpt>
      <trkpt lat="43.58131" lon="6.88495">
        <ele>277.24551391602</ele>
        <time>2010-03-28T12:32:36Z</time>
      </trkpt>
      <trkpt lat="43.58134" lon="6.88518">
        <ele>277.10934448242</ele>
        <time>2010-03-28T12:32:40Z</time>
      </trkpt>
      <trkpt lat="43.58138" lon="6.88526">
        <ele>277.40286254883</ele>
        <time>2010-03-28T12:32:42Z</time>
      </trkpt>
      <trkpt lat="43.58151" lon="6.88531">
        <ele>278.14315795898</ele>
        <time>2010-03-28T12:32:46Z</time>
      </trkpt>
      <trkpt lat="43.58175" lon="6.8852">
        <ele>279.54568481445</ele>
        <time>2010-03-28T12:32:53Z</time>
      </trkpt>
      <trkpt lat="43.58198" lon="6.88503">
        <ele>281.57135009766</ele>
        <time>2010-03-28T12:33:01Z</time>
      </trkpt>
      <trkpt lat="43.5821" lon="6.88496">
        <ele>283.19119262695</ele>
        <time>2010-03-28T12:33:05Z</time>
      </trkpt>
      <trkpt lat="43.58223" lon="6.885">
        <ele>283.720703125</ele>
        <time>2010-03-28T12:33:10Z</time>
      </trkpt>
      <trkpt lat="43.58233" lon="6.88516">
        <ele>283.68447875977</ele>
        <time>2010-03-28T12:33:16Z</time>
      </trkpt>
      <trkpt lat="43.58241" lon="6.88529">
        <ele>283.32119750977</ele>
        <time>2010-03-28T12:33:21Z</time>
      </trkpt>
      <trkpt lat="43.58256" lon="6.88539">
        <ele>283.85293579102</ele>
        <time>2010-03-28T12:33:27Z</time>
      </trkpt>
      <trkpt lat="43.58266" lon="6.88536">
        <ele>285.3200378418</ele>
        <time>2010-03-28T12:33:31Z</time>
      </trkpt>
      <trkpt lat="43.58274" lon="6.88535">
        <ele>286.29165649414</ele>
        <time>2010-03-28T12:33:34Z</time>
      </trkpt>
      <trkpt lat="43.58287" lon="6.88542">
        <ele>286.93460083008</ele>
        <time>2010-03-28T12:33:39Z</time>
      </trkpt>
      <trkpt lat="43.58297" lon="6.88557">
        <ele>286.09768676758</ele>
        <time>2010-03-28T12:33:45Z</time>
      </trkpt>
      <trkpt lat="43.58311" lon="6.88575">
        <ele>284.82727050781</ele>
        <time>2010-03-28T12:33:52Z</time>
      </trkpt>
      <trkpt lat="43.58331" lon="6.88588">
        <ele>284.57763671875</ele>
        <time>2010-03-28T12:34:00Z</time>
      </trkpt>
      <trkpt lat="43.5835" lon="6.88591">
        <ele>286.63629150391</ele>
        <time>2010-03-28T12:34:07Z</time>
      </trkpt>
      <trkpt lat="43.58364" lon="6.88598">
        <ele>287.84078979492</ele>
        <time>2010-03-28T12:34:12Z</time>
      </trkpt>
      <trkpt lat="43.58382" lon="6.88616">
        <ele>288.31951904297</ele>
        <time>2010-03-28T12:34:20Z</time>
      </trkpt>
      <trkpt lat="43.58404" lon="6.88616">
        <ele>290.72521972656</ele>
        <time>2010-03-28T12:34:28Z</time>
      </trkpt>
      <trkpt lat="43.58425" lon="6.88609">
        <ele>293.09460449219</ele>
        <time>2010-03-28T12:34:34Z</time>
      </trkpt>
      <trkpt lat="43.5844" lon="6.88607">
        <ele>293.75863647461</ele>
        <time>2010-03-28T12:34:39Z</time>
      </trkpt>
      <trkpt lat="43.58448" lon="6.88616">
        <ele>292.71243286133</ele>
        <time>2010-03-28T12:34:44Z</time>
      </trkpt>
      <trkpt lat="43.5845" lon="6.88638">
        <ele>289.87335205078</ele>
        <time>2010-03-28T12:34:50Z</time>
      </trkpt>
      <trkpt lat="43.58449" lon="6.88651">
        <ele>288.14614868164</ele>
        <time>2010-03-28T12:34:54Z</time>
      </trkpt>
      <trkpt lat="43.58448" lon="6.88671">
        <ele>285.6901550293</ele>
        <time>2010-03-28T12:35:00Z</time>
      </trkpt>
      <trkpt lat="43.58448" lon="6.88686">
        <ele>284.45785522461</ele>
        <time>2010-03-28T12:35:06Z</time>
      </trkpt>
      <trkpt lat="43.5845" lon="6.88692">
        <ele>283.93853759766</ele>
        <time>2010-03-28T12:35:08Z</time>
      </trkpt>
      <trkpt lat="43.58449" lon="6.8871">
        <ele>282.5341796875</ele>
        <time>2010-03-28T12:35:13Z</time>
      </trkpt>
      <trkpt lat="43.58448" lon="6.88713">
        <ele>282.26467895508</ele>
        <time>2010-03-28T12:35:14Z</time>
      </trkpt>
      <trkpt lat="43.58446" lon="6.88743">
        <ele>280.09408569336</ele>
        <time>2010-03-28T12:35:22Z</time>
      </trkpt>
      <trkpt lat="43.58446" lon="6.88749">
        <ele>279.59027099609</ele>
        <time>2010-03-28T12:35:24Z</time>
      </trkpt>
      <trkpt lat="43.58442" lon="6.88761">
        <ele>280.45791625977</ele>
        <time>2010-03-28T12:35:29Z</time>
      </trkpt>
      <trkpt lat="43.58431" lon="6.88772">
        <ele>282.44317626953</ele>
        <time>2010-03-28T12:35:38Z</time>
      </trkpt>
      <trkpt lat="43.58423" lon="6.88779">
        <ele>283.99856567383</ele>
        <time>2010-03-28T12:35:44Z</time>
      </trkpt>
      <trkpt lat="43.58419" lon="6.8878">
        <ele>284.55068969727</ele>
        <time>2010-03-28T12:35:46Z</time>
      </trkpt>
      <trkpt lat="43.58414" lon="6.88788">
        <ele>285.95175170898</ele>
        <time>2010-03-28T12:35:51Z</time>
      </trkpt>
      <trkpt lat="43.58409" lon="6.8879">
        <ele>286.7243347168</ele>
        <time>2010-03-28T12:35:54Z</time>
      </trkpt>
      <trkpt lat="43.584" lon="6.88802">
        <ele>289.37576293945</ele>
        <time>2010-03-28T12:36:02Z</time>
      </trkpt>
      <trkpt lat="43.58399" lon="6.88804">
        <ele>289.75778198242</ele>
        <time>2010-03-28T12:36:03Z</time>
      </trkpt>
      <trkpt lat="43.58393" lon="6.88815">
        <ele>292.17333984375</ele>
        <time>2010-03-28T12:36:09Z</time>
      </trkpt>
      <trkpt lat="43.58386" lon="6.88815">
        <ele>293.40249633789</ele>
        <time>2010-03-28T12:36:13Z</time>
      </trkpt>
      <trkpt lat="43.58372" lon="6.88819">
        <ele>296.43377685547</ele>
        <time>2010-03-28T12:36:21Z</time>
      </trkpt>
      <trkpt lat="43.58367" lon="6.8882">
        <ele>297.45733642578</ele>
        <time>2010-03-28T12:36:24Z</time>
      </trkpt>
      <trkpt lat="43.58353" lon="6.8883">
        <ele>302.337890625</ele>
        <time>2010-03-28T12:36:33Z</time>
      </trkpt>
      <trkpt lat="43.58343" lon="6.88846">
        <ele>307.79678344727</ele>
        <time>2010-03-28T12:36:41Z</time>
      </trkpt>
      <trkpt lat="43.58337" lon="6.8886">
        <ele>312.94293212891</ele>
        <time>2010-03-28T12:36:48Z</time>
      </trkpt>
      <trkpt lat="43.58335" lon="6.88875">
        <ele>317.03979492188</ele>
        <time>2010-03-28T12:36:54Z</time>
      </trkpt>
      <trkpt lat="43.5833" lon="6.88895">
        <ele>323.11108398438</ele>
        <time>2010-03-28T12:37:02Z</time>
      </trkpt>
      <trkpt lat="43.58327" lon="6.88915">
        <ele>328.8171081543</ele>
        <time>2010-03-28T12:37:10Z</time>
      </trkpt>
      <trkpt lat="43.58323" lon="6.88928">
        <ele>332.51364135742</ele>
        <time>2010-03-28T12:37:16Z</time>
      </trkpt>
      <trkpt lat="43.58322" lon="6.8893">
        <ele>333.11395263672</ele>
        <time>2010-03-28T12:37:17Z</time>
      </trkpt>
      <trkpt lat="43.58316" lon="6.88945">
        <ele>337.39797973633</ele>
        <time>2010-03-28T12:37:24Z</time>
      </trkpt>
      <trkpt lat="43.58312" lon="6.88961">
        <ele>341.37594604492</ele>
        <time>2010-03-28T12:37:31Z</time>
      </trkpt>
      <trkpt lat="43.58312" lon="6.88961">
        <ele>341.52938842773</ele>
        <time>2010-03-28T12:37:34Z</time>
      </trkpt>
      <trkpt lat="43.58313" lon="6.88962">
        <ele>341.40362548828</ele>
        <time>2010-03-28T12:37:37Z</time>
      </trkpt>
      <trkpt lat="43.58313" lon="6.88962">
        <ele>341.4323425293</ele>
        <time>2010-03-28T12:37:38Z</time>
      </trkpt>
      <trkpt lat="43.58315" lon="6.88963">
        <ele>341.29626464844</ele>
        <time>2010-03-28T12:37:41Z</time>
      </trkpt>
      <trkpt lat="43.58322" lon="6.88968">
        <ele>340.43487548828</ele>
        <time>2010-03-28T12:37:58Z</time>
      </trkpt>
      <trkpt lat="43.58327" lon="6.88971">
        <ele>339.9602355957</ele>
        <time>2010-03-28T12:38:13Z</time>
      </trkpt>
      <trkpt lat="43.58327" lon="6.88971">
        <ele>340.0051574707</ele>
        <time>2010-03-28T12:38:27Z</time>
      </trkpt>
      <trkpt lat="43.58326" lon="6.8897">
        <ele>340.05560302734</ele>
        <time>2010-03-28T12:38:30Z</time>
      </trkpt>
      <trkpt lat="43.58323" lon="6.88967">
        <ele>340.11569213867</ele>
        <time>2010-03-28T12:38:51Z</time>
      </trkpt>
      <trkpt lat="43.58323" lon="6.88967">
        <ele>340.18466186523</ele>
        <time>2010-03-28T12:38:56Z</time>
      </trkpt>
      <trkpt lat="43.58322" lon="6.88967">
        <ele>340.24716186523</ele>
        <time>2010-03-28T12:38:57Z</time>
      </trkpt>
      <trkpt lat="43.58321" lon="6.88966">
        <ele>340.37789916992</ele>
        <time>2010-03-28T12:39:03Z</time>
      </trkpt>
      <trkpt lat="43.5832" lon="6.88966">
        <ele>340.50234985352</ele>
        <time>2010-03-28T12:39:07Z</time>
      </trkpt>
      <trkpt lat="43.5832" lon="6.88966">
        <ele>340.58340454102</ele>
        <time>2010-03-28T12:39:08Z</time>
      </trkpt>
      <trkpt lat="43.5832" lon="6.88966">
        <ele>340.50234985352</ele>
        <time>2010-03-28T12:39:12Z</time>
      </trkpt>
      <trkpt lat="43.58321" lon="6.88966">
        <ele>340.42132568359</ele>
        <time>2010-03-28T12:39:13Z</time>
      </trkpt>
      <trkpt lat="43.58322" lon="6.88966">
        <ele>340.18746948242</ele>
        <time>2010-03-28T12:39:23Z</time>
      </trkpt>
      <trkpt lat="43.58322" lon="6.88966">
        <ele>340.19686889648</ele>
        <time>2010-03-28T12:39:24Z</time>
      </trkpt>
      <trkpt lat="43.58324" lon="6.88967">
        <ele>339.98754882812</ele>
        <time>2010-03-28T12:39:34Z</time>
      </trkpt>
      <trkpt lat="43.58322" lon="6.88966">
        <ele>340.09698486328</ele>
        <time>2010-03-28T12:39:41Z</time>
      </trkpt>
      <trkpt lat="43.58321" lon="6.88966">
        <ele>340.36260986328</ele>
        <time>2010-03-28T12:39:54Z</time>
      </trkpt>
      <trkpt lat="43.58324" lon="6.88968">
        <ele>340.02090454102</ele>
        <time>2010-03-28T12:39:58Z</time>
      </trkpt>
      <trkpt lat="43.58324" lon="6.88968">
        <ele>340.06759643555</ele>
        <time>2010-03-28T12:39:59Z</time>
      </trkpt>
      <trkpt lat="43.58325" lon="6.88969">
        <ele>340.06063842773</ele>
        <time>2010-03-28T12:40:00Z</time>
      </trkpt>
      <trkpt lat="43.58326" lon="6.88971">
        <ele>340.26229858398</ele>
        <time>2010-03-28T12:40:02Z</time>
      </trkpt>
      <trkpt lat="43.58327" lon="6.88973">
        <ele>340.13784790039</ele>
        <time>2010-03-28T12:40:07Z</time>
      </trkpt>
      <trkpt lat="43.58335" lon="6.88972">
        <ele>337.66751098633</ele>
        <time>2010-03-28T12:40:12Z</time>
      </trkpt>
      <trkpt lat="43.58339" lon="6.88968">
        <ele>335.46871948242</ele>
        <time>2010-03-28T12:40:15Z</time>
      </trkpt>
      <trkpt lat="43.58339" lon="6.88967">
        <ele>334.93508911133</ele>
        <time>2010-03-28T12:40:16Z</time>
      </trkpt>
      <trkpt lat="43.5834" lon="6.88965">
        <ele>334.22399902344</ele>
        <time>2010-03-28T12:40:17Z</time>
      </trkpt>
      <trkpt lat="43.5834" lon="6.88963">
        <ele>333.51666259766</ele>
        <time>2010-03-28T12:40:18Z</time>
      </trkpt>
      <trkpt lat="43.58351" lon="6.88946">
        <ele>325.80712890625</ele>
        <time>2010-03-28T12:40:27Z</time>
      </trkpt>
      <trkpt lat="43.58352" lon="6.88939">
        <ele>324.12802124023</ele>
        <time>2010-03-28T12:40:30Z</time>
      </trkpt>
      <trkpt lat="43.58352" lon="6.88936">
        <ele>323.51434326172</ele>
        <time>2010-03-28T12:40:31Z</time>
      </trkpt>
      <trkpt lat="43.58353" lon="6.88931">
        <ele>322.14025878906</ele>
        <time>2010-03-28T12:40:33Z</time>
      </trkpt>
      <trkpt lat="43.58354" lon="6.88928">
        <ele>321.42959594727</ele>
        <time>2010-03-28T12:40:34Z</time>
      </trkpt>
      <trkpt lat="43.5836" lon="6.88917">
        <ele>316.99566650391</ele>
        <time>2010-03-28T12:40:40Z</time>
      </trkpt>
      <trkpt lat="43.58363" lon="6.88914">
        <ele>315.42715454102</ele>
        <time>2010-03-28T12:40:42Z</time>
      </trkpt>
      <trkpt lat="43.58366" lon="6.88912">
        <ele>313.9479675293</ele>
        <time>2010-03-28T12:40:44Z</time>
      </trkpt>
      <trkpt lat="43.5837" lon="6.88912">
        <ele>312.29098510742</ele>
        <time>2010-03-28T12:40:47Z</time>
      </trkpt>
      <trkpt lat="43.58374" lon="6.88913">
        <ele>310.92056274414</ele>
        <time>2010-03-28T12:40:51Z</time>
      </trkpt>
      <trkpt lat="43.58376" lon="6.88914">
        <ele>310.07507324219</ele>
        <time>2010-03-28T12:40:54Z</time>
      </trkpt>
      <trkpt lat="43.58377" lon="6.88916">
        <ele>310.00369262695</ele>
        <time>2010-03-28T12:40:56Z</time>
      </trkpt>
      <trkpt lat="43.58384" lon="6.88922">
        <ele>307.91275024414</ele>
        <time>2010-03-28T12:41:03Z</time>
      </trkpt>
      <trkpt lat="43.5839" lon="6.88933">
        <ele>306.60418701172</ele>
        <time>2010-03-28T12:41:11Z</time>
      </trkpt>
      <trkpt lat="43.58391" lon="6.88944">
        <ele>307.62731933594</ele>
        <time>2010-03-28T12:41:18Z</time>
      </trkpt>
      <trkpt lat="43.58386" lon="6.8895">
        <ele>310.57574462891</ele>
        <time>2010-03-28T12:41:24Z</time>
      </trkpt>
      <trkpt lat="43.58382" lon="6.88955">
        <ele>313.09167480469</ele>
        <time>2010-03-28T12:41:29Z</time>
      </trkpt>
      <trkpt lat="43.58375" lon="6.88968">
        <ele>318.1907043457</ele>
        <time>2010-03-28T12:41:37Z</time>
      </trkpt>
      <trkpt lat="43.58371" lon="6.88984">
        <ele>322.28887939453</ele>
        <time>2010-03-28T12:41:45Z</time>
      </trkpt>
      <trkpt lat="43.58371" lon="6.88986">
        <ele>322.62353515625</ele>
        <time>2010-03-28T12:41:46Z</time>
      </trkpt>
      <trkpt lat="43.58373" lon="6.89005">
        <ele>324.18154907227</ele>
        <time>2010-03-28T12:41:54Z</time>
      </trkpt>
      <trkpt lat="43.58374" lon="6.89012">
        <ele>324.5768737793</ele>
        <time>2010-03-28T12:41:57Z</time>
      </trkpt>
      <trkpt lat="43.58374" lon="6.89025">
        <ele>325.82168579102</ele>
        <time>2010-03-28T12:42:03Z</time>
      </trkpt>
      <trkpt lat="43.58374" lon="6.89029">
        <ele>326.50448608398</ele>
        <time>2010-03-28T12:42:05Z</time>
      </trkpt>
      <trkpt lat="43.58371" lon="6.89034">
        <ele>328.32855224609</ele>
        <time>2010-03-28T12:42:08Z</time>
      </trkpt>
      <trkpt lat="43.58371" lon="6.89036">
        <ele>328.92825317383</ele>
        <time>2010-03-28T12:42:09Z</time>
      </trkpt>
      <trkpt lat="43.58368" lon="6.89043">
        <ele>330.85580444336</ele>
        <time>2010-03-28T12:42:13Z</time>
      </trkpt>
      <trkpt lat="43.58366" lon="6.89046">
        <ele>332.2473449707</ele>
        <time>2010-03-28T12:42:16Z</time>
      </trkpt>
      <trkpt lat="43.58361" lon="6.89049">
        <ele>335.43676757812</ele>
        <time>2010-03-28T12:42:21Z</time>
      </trkpt>
      <trkpt lat="43.58356" lon="6.89055">
        <ele>338.6877746582</ele>
        <time>2010-03-28T12:42:27Z</time>
      </trkpt>
      <trkpt lat="43.58353" lon="6.89057">
        <ele>340.55487060547</ele>
        <time>2010-03-28T12:42:30Z</time>
      </trkpt>
      <trkpt lat="43.5835" lon="6.89059">
        <ele>342.14535522461</ele>
        <time>2010-03-28T12:42:37Z</time>
      </trkpt>
      <trkpt lat="43.58347" lon="6.8906">
        <ele>343.81350708008</ele>
        <time>2010-03-28T12:42:41Z</time>
      </trkpt>
      <trkpt lat="43.58345" lon="6.8906">
        <ele>345.32153320312</ele>
        <time>2010-03-28T12:42:45Z</time>
      </trkpt>
      <trkpt lat="43.58339" lon="6.89061">
        <ele>348.36944580078</ele>
        <time>2010-03-28T12:42:50Z</time>
      </trkpt>
      <trkpt lat="43.58334" lon="6.89061">
        <ele>351.0061340332</ele>
        <time>2010-03-28T12:42:54Z</time>
      </trkpt>
      <trkpt lat="43.58325" lon="6.89063">
        <ele>353.99502563477</ele>
        <time>2010-03-28T12:43:02Z</time>
      </trkpt>
      <trkpt lat="43.58316" lon="6.89067">
        <ele>357.17294311523</ele>
        <time>2010-03-28T12:43:10Z</time>
      </trkpt>
      <trkpt lat="43.58314" lon="6.89067">
        <ele>357.77691650391</ele>
        <time>2010-03-28T12:43:12Z</time>
      </trkpt>
      <trkpt lat="43.58306" lon="6.89069">
        <ele>360.50039672852</ele>
        <time>2010-03-28T12:43:20Z</time>
      </trkpt>
      <trkpt lat="43.58303" lon="6.8907">
        <ele>361.43432617188</ele>
        <time>2010-03-28T12:43:23Z</time>
      </trkpt>
      <trkpt lat="43.583" lon="6.8907">
        <ele>362.58096313477</ele>
        <time>2010-03-28T12:43:26Z</time>
      </trkpt>
      <trkpt lat="43.58293" lon="6.89069">
        <ele>364.5432434082</ele>
        <time>2010-03-28T12:43:32Z</time>
      </trkpt>
      <trkpt lat="43.58285" lon="6.89068">
        <ele>366.66882324219</ele>
        <time>2010-03-28T12:43:40Z</time>
      </trkpt>
      <trkpt lat="43.58282" lon="6.89067">
        <ele>367.46014404297</ele>
        <time>2010-03-28T12:43:46Z</time>
      </trkpt>
      <trkpt lat="43.58281" lon="6.89069">
        <ele>368.03469848633</ele>
        <time>2010-03-28T12:43:54Z</time>
      </trkpt>
      <trkpt lat="43.58277" lon="6.89066">
        <ele>368.94183349609</ele>
        <time>2010-03-28T12:43:59Z</time>
      </trkpt>
      <trkpt lat="43.58269" lon="6.89062">
        <ele>370.56365966797</ele>
        <time>2010-03-28T12:44:05Z</time>
      </trkpt>
      <trkpt lat="43.58267" lon="6.89061">
        <ele>370.99517822266</ele>
        <time>2010-03-28T12:44:07Z</time>
      </trkpt>
      <trkpt lat="43.58265" lon="6.8906">
        <ele>371.51885986328</ele>
        <time>2010-03-28T12:44:09Z</time>
      </trkpt>
      <trkpt lat="43.58263" lon="6.89058">
        <ele>371.6520690918</ele>
        <time>2010-03-28T12:44:11Z</time>
      </trkpt>
      <trkpt lat="43.58258" lon="6.89053">
        <ele>372.12942504883</ele>
        <time>2010-03-28T12:44:18Z</time>
      </trkpt>
      <trkpt lat="43.58253" lon="6.89049">
        <ele>372.77920532227</ele>
        <time>2010-03-28T12:44:23Z</time>
      </trkpt>
      <trkpt lat="43.58247" lon="6.89044">
        <ele>373.0817565918</ele>
        <time>2010-03-28T12:44:29Z</time>
      </trkpt>
      <trkpt lat="43.5824" lon="6.89041">
        <ele>372.74124145508</ele>
        <time>2010-03-28T12:44:35Z</time>
      </trkpt>
      <trkpt lat="43.58238" lon="6.8904">
        <ele>372.58697509766</ele>
        <time>2010-03-28T12:44:37Z</time>
      </trkpt>
      <trkpt lat="43.58229" lon="6.89038">
        <ele>372.64962768555</ele>
        <time>2010-03-28T12:44:44Z</time>
      </trkpt>
      <trkpt lat="43.5822" lon="6.89037">
        <ele>372.61563110352</ele>
        <time>2010-03-28T12:44:51Z</time>
      </trkpt>
      <trkpt lat="43.5821" lon="6.89036">
        <ele>372.76657104492</ele>
        <time>2010-03-28T12:44:58Z</time>
      </trkpt>
      <trkpt lat="43.58199" lon="6.89036">
        <ele>373.28854370117</ele>
        <time>2010-03-28T12:45:06Z</time>
      </trkpt>
      <trkpt lat="43.5819" lon="6.89034">
        <ele>373.2087097168</ele>
        <time>2010-03-28T12:45:12Z</time>
      </trkpt>
      <trkpt lat="43.58177" lon="6.89035">
        <ele>373.79797363281</ele>
        <time>2010-03-28T12:45:17Z</time>
      </trkpt>
      <trkpt lat="43.58162" lon="6.89036">
        <ele>373.91610717773</ele>
        <time>2010-03-28T12:45:22Z</time>
      </trkpt>
      <trkpt lat="43.58148" lon="6.89036">
        <ele>372.87042236328</ele>
        <time>2010-03-28T12:45:27Z</time>
      </trkpt>
      <trkpt lat="43.58134" lon="6.89036">
        <ele>371.77841186523</ele>
        <time>2010-03-28T12:45:33Z</time>
      </trkpt>
      <trkpt lat="43.5812" lon="6.89035">
        <ele>370.71932983398</ele>
        <time>2010-03-28T12:45:38Z</time>
      </trkpt>
      <trkpt lat="43.58102" lon="6.89033">
        <ele>368.955078125</ele>
        <time>2010-03-28T12:45:45Z</time>
      </trkpt>
      <trkpt lat="43.58092" lon="6.89042">
        <ele>369.80725097656</ele>
        <time>2010-03-28T12:45:49Z</time>
      </trkpt>
      <trkpt lat="43.58083" lon="6.89057">
        <ele>371.62768554688</ele>
        <time>2010-03-28T12:45:53Z</time>
      </trkpt>
      <trkpt lat="43.58079" lon="6.89069">
        <ele>372.61660766602</ele>
        <time>2010-03-28T12:45:56Z</time>
      </trkpt>
      <trkpt lat="43.58076" lon="6.89075">
        <ele>373.20962524414</ele>
        <time>2010-03-28T12:45:58Z</time>
      </trkpt>
      <trkpt lat="43.58068" lon="6.89097">
        <ele>375.56076049805</ele>
        <time>2010-03-28T12:46:04Z</time>
      </trkpt>
      <trkpt lat="43.5806" lon="6.89109">
        <ele>376.58987426758</ele>
        <time>2010-03-28T12:46:08Z</time>
      </trkpt>
      <trkpt lat="43.58056" lon="6.89117">
        <ele>377.27258300781</ele>
        <time>2010-03-28T12:46:10Z</time>
      </trkpt>
      <trkpt lat="43.58048" lon="6.89135">
        <ele>379.62048339844</ele>
        <time>2010-03-28T12:46:14Z</time>
      </trkpt>
      <trkpt lat="43.58046" lon="6.8914">
        <ele>380.1965637207</ele>
        <time>2010-03-28T12:46:15Z</time>
      </trkpt>
      <trkpt lat="43.58035" lon="6.89154">
        <ele>381.31402587891</ele>
        <time>2010-03-28T12:46:20Z</time>
      </trkpt>
      <trkpt lat="43.58025" lon="6.89157">
        <ele>380.11264038086</ele>
        <time>2010-03-28T12:46:24Z</time>
      </trkpt>
      <trkpt lat="43.58018" lon="6.89156">
        <ele>378.85629272461</ele>
        <time>2010-03-28T12:46:28Z</time>
      </trkpt>
      <trkpt lat="43.58012" lon="6.89155">
        <ele>377.50665283203</ele>
        <time>2010-03-28T12:46:32Z</time>
      </trkpt>
      <trkpt lat="43.58" lon="6.89157">
        <ele>375.70513916016</ele>
        <time>2010-03-28T12:46:40Z</time>
      </trkpt>
      <trkpt lat="43.57994" lon="6.89158">
        <ele>375.12100219727</ele>
        <time>2010-03-28T12:46:45Z</time>
      </trkpt>
      <trkpt lat="43.57991" lon="6.89158">
        <ele>374.86422729492</ele>
        <time>2010-03-28T12:46:50Z</time>
      </trkpt>
      <trkpt lat="43.57983" lon="6.8916">
        <ele>374.03479003906</ele>
        <time>2010-03-28T12:46:56Z</time>
      </trkpt>
      <trkpt lat="43.57981" lon="6.8916">
        <ele>373.85754394531</ele>
        <time>2010-03-28T12:46:58Z</time>
      </trkpt>
      <trkpt lat="43.5797" lon="6.89162">
        <ele>372.81259155273</ele>
        <time>2010-03-28T12:47:06Z</time>
      </trkpt>
      <trkpt lat="43.57964" lon="6.8917">
        <ele>373.60140991211</ele>
        <time>2010-03-28T12:47:12Z</time>
      </trkpt>
      <trkpt lat="43.57961" lon="6.89172">
        <ele>373.62371826172</ele>
        <time>2010-03-28T12:47:15Z</time>
      </trkpt>
      <trkpt lat="43.57956" lon="6.89177">
        <ele>374.22451782227</ele>
        <time>2010-03-28T12:47:21Z</time>
      </trkpt>
      <trkpt lat="43.57956" lon="6.89178">
        <ele>374.34469604492</ele>
        <time>2010-03-28T12:47:22Z</time>
      </trkpt>
      <trkpt lat="43.57953" lon="6.89179">
        <ele>374.40478515625</ele>
        <time>2010-03-28T12:47:29Z</time>
      </trkpt>
      <trkpt lat="43.57951" lon="6.89181">
        <ele>374.66571044922</ele>
        <time>2010-03-28T12:47:34Z</time>
      </trkpt>
      <trkpt lat="43.57947" lon="6.89186">
        <ele>375.10000610352</ele>
        <time>2010-03-28T12:47:40Z</time>
      </trkpt>
      <trkpt lat="43.57942" lon="6.89187">
        <ele>374.86654663086</ele>
        <time>2010-03-28T12:47:44Z</time>
      </trkpt>
      <trkpt lat="43.57936" lon="6.89195">
        <ele>375.98406982422</ele>
        <time>2010-03-28T12:47:51Z</time>
      </trkpt>
      <trkpt lat="43.57935" lon="6.89198">
        <ele>376.41320800781</ele>
        <time>2010-03-28T12:47:53Z</time>
      </trkpt>
      <trkpt lat="43.57929" lon="6.89207">
        <ele>377.90151977539</ele>
        <time>2010-03-28T12:48:01Z</time>
      </trkpt>
      <trkpt lat="43.57926" lon="6.89208">
        <ele>377.86547851562</ele>
        <time>2010-03-28T12:48:03Z</time>
      </trkpt>
      <trkpt lat="43.57923" lon="6.8921">
        <ele>377.67147827148</ele>
        <time>2010-03-28T12:48:06Z</time>
      </trkpt>
      <trkpt lat="43.57921" lon="6.8921">
        <ele>377.64401245117</ele>
        <time>2010-03-28T12:48:07Z</time>
      </trkpt>
      <trkpt lat="43.57911" lon="6.89214">
        <ele>377.4794921875</ele>
        <time>2010-03-28T12:48:13Z</time>
      </trkpt>
      <trkpt lat="43.57902" lon="6.89216">
        <ele>377.58660888672</ele>
        <time>2010-03-28T12:48:18Z</time>
      </trkpt>
      <trkpt lat="43.57894" lon="6.89221">
        <ele>378.13024902344</ele>
        <time>2010-03-28T12:48:21Z</time>
      </trkpt>
      <trkpt lat="43.57879" lon="6.89228">
        <ele>378.81768798828</ele>
        <time>2010-03-28T12:48:27Z</time>
      </trkpt>
      <trkpt lat="43.57869" lon="6.89229">
        <ele>378.29681396484</ele>
        <time>2010-03-28T12:48:31Z</time>
      </trkpt>
      <trkpt lat="43.57861" lon="6.89223">
        <ele>376.41427612305</ele>
        <time>2010-03-28T12:48:36Z</time>
      </trkpt>
      <trkpt lat="43.57857" lon="6.89216">
        <ele>374.49188232422</ele>
        <time>2010-03-28T12:48:39Z</time>
      </trkpt>
      <trkpt lat="43.57852" lon="6.89205">
        <ele>371.97964477539</ele>
        <time>2010-03-28T12:48:43Z</time>
      </trkpt>
      <trkpt lat="43.57843" lon="6.89198">
        <ele>369.82849121094</ele>
        <time>2010-03-28T12:48:48Z</time>
      </trkpt>
      <trkpt lat="43.57831" lon="6.89194">
        <ele>368.70123291016</ele>
        <time>2010-03-28T12:48:54Z</time>
      </trkpt>
      <trkpt lat="43.57826" lon="6.89192">
        <ele>368.67303466797</ele>
        <time>2010-03-28T12:48:57Z</time>
      </trkpt>
      <trkpt lat="43.57817" lon="6.8919">
        <ele>368.63668823242</ele>
        <time>2010-03-28T12:49:02Z</time>
      </trkpt>
      <trkpt lat="43.57805" lon="6.89186">
        <ele>368.68475341797</ele>
        <time>2010-03-28T12:49:09Z</time>
      </trkpt>
      <trkpt lat="43.57803" lon="6.89186">
        <ele>368.73822021484</ele>
        <time>2010-03-28T12:49:10Z</time>
      </trkpt>
      <trkpt lat="43.57793" lon="6.89182">
        <ele>368.73684692383</ele>
        <time>2010-03-28T12:49:16Z</time>
      </trkpt>
      <trkpt lat="43.57784" lon="6.8918">
        <ele>369.16687011719</ele>
        <time>2010-03-28T12:49:22Z</time>
      </trkpt>
      <trkpt lat="43.57782" lon="6.8918">
        <ele>369.17459106445</ele>
        <time>2010-03-28T12:49:23Z</time>
      </trkpt>
      <trkpt lat="43.57773" lon="6.89179">
        <ele>369.7184753418</ele>
        <time>2010-03-28T12:49:29Z</time>
      </trkpt>
      <trkpt lat="43.57771" lon="6.89179">
        <ele>369.8821105957</ele>
        <time>2010-03-28T12:49:30Z</time>
      </trkpt>
      <trkpt lat="43.57769" lon="6.89181">
        <ele>370.28985595703</ele>
        <time>2010-03-28T12:49:32Z</time>
      </trkpt>
      <trkpt lat="43.57767" lon="6.89182">
        <ele>370.52682495117</ele>
        <time>2010-03-28T12:49:33Z</time>
      </trkpt>
      <trkpt lat="43.57766" lon="6.89183">
        <ele>370.74731445312</ele>
        <time>2010-03-28T12:49:34Z</time>
      </trkpt>
      <trkpt lat="43.57761" lon="6.89192">
        <ele>372.13043212891</ele>
        <time>2010-03-28T12:49:41Z</time>
      </trkpt>
      <trkpt lat="43.57761" lon="6.89199">
        <ele>372.96838378906</ele>
        <time>2010-03-28T12:49:44Z</time>
      </trkpt>
      <trkpt lat="43.57761" lon="6.89201">
        <ele>373.22131347656</ele>
        <time>2010-03-28T12:49:45Z</time>
      </trkpt>
      <trkpt lat="43.5776" lon="6.89208">
        <ele>374.10333251953</ele>
        <time>2010-03-28T12:49:49Z</time>
      </trkpt>
      <trkpt lat="43.5776" lon="6.89211">
        <ele>374.49032592773</ele>
        <time>2010-03-28T12:49:51Z</time>
      </trkpt>
      <trkpt lat="43.57761" lon="6.89217">
        <ele>375.13619995117</ele>
        <time>2010-03-28T12:49:55Z</time>
      </trkpt>
      <trkpt lat="43.5776" lon="6.89218">
        <ele>375.30419921875</ele>
        <time>2010-03-28T12:49:57Z</time>
      </trkpt>
      <trkpt lat="43.57761" lon="6.89223">
        <ele>375.92166137695</ele>
        <time>2010-03-28T12:50:05Z</time>
      </trkpt>
      <trkpt lat="43.57761" lon="6.8923">
        <ele>376.66696166992</ele>
        <time>2010-03-28T12:50:10Z</time>
      </trkpt>
      <trkpt lat="43.5776" lon="6.89235">
        <ele>377.3625793457</ele>
        <time>2010-03-28T12:50:14Z</time>
      </trkpt>
      <trkpt lat="43.57761" lon="6.89243">
        <ele>378.26654052734</ele>
        <time>2010-03-28T12:50:18Z</time>
      </trkpt>
      <trkpt lat="43.57763" lon="6.89256">
        <ele>379.15817260742</ele>
        <time>2010-03-28T12:50:25Z</time>
      </trkpt>
      <trkpt lat="43.57763" lon="6.8926">
        <ele>379.16265869141</ele>
        <time>2010-03-28T12:50:27Z</time>
      </trkpt>
      <trkpt lat="43.57763" lon="6.89263">
        <ele>379.181640625</ele>
        <time>2010-03-28T12:50:29Z</time>
      </trkpt>
      <trkpt lat="43.57767" lon="6.89274">
        <ele>379.43731689453</ele>
        <time>2010-03-28T12:50:36Z</time>
      </trkpt>
      <trkpt lat="43.57773" lon="6.89287">
        <ele>380.08117675781</ele>
        <time>2010-03-28T12:50:44Z</time>
      </trkpt>
      <trkpt lat="43.57774" lon="6.89288">
        <ele>380.18380737305</ele>
        <time>2010-03-28T12:50:45Z</time>
      </trkpt>
      <trkpt lat="43.57775" lon="6.89293">
        <ele>380.49353027344</ele>
        <time>2010-03-28T12:50:48Z</time>
      </trkpt>
      <trkpt lat="43.5778" lon="6.89299">
        <ele>381.11911010742</ele>
        <time>2010-03-28T12:50:53Z</time>
      </trkpt>
      <trkpt lat="43.57785" lon="6.89306">
        <ele>381.98492431641</ele>
        <time>2010-03-28T12:50:57Z</time>
      </trkpt>
      <trkpt lat="43.57789" lon="6.89313">
        <ele>382.94036865234</ele>
        <time>2010-03-28T12:51:02Z</time>
      </trkpt>
      <trkpt lat="43.57798" lon="6.89322">
        <ele>384.73846435547</ele>
        <time>2010-03-28T12:51:09Z</time>
      </trkpt>
      <trkpt lat="43.57802" lon="6.8933">
        <ele>386.08700561523</ele>
        <time>2010-03-28T12:51:14Z</time>
      </trkpt>
      <trkpt lat="43.57808" lon="6.8934">
        <ele>387.15481567383</ele>
        <time>2010-03-28T12:51:20Z</time>
      </trkpt>
      <trkpt lat="43.57808" lon="6.89342">
        <ele>387.24789428711</ele>
        <time>2010-03-28T12:51:21Z</time>
      </trkpt>
      <trkpt lat="43.57809" lon="6.89344">
        <ele>387.34432983398</ele>
        <time>2010-03-28T12:51:22Z</time>
      </trkpt>
      <trkpt lat="43.57811" lon="6.89348">
        <ele>387.70547485352</ele>
        <time>2010-03-28T12:51:24Z</time>
      </trkpt>
      <trkpt lat="43.57814" lon="6.89353">
        <ele>388.23220825195</ele>
        <time>2010-03-28T12:51:27Z</time>
      </trkpt>
      <trkpt lat="43.57816" lon="6.89355">
        <ele>388.60556030273</ele>
        <time>2010-03-28T12:51:28Z</time>
      </trkpt>
      <trkpt lat="43.57819" lon="6.89364">
        <ele>389.0846862793</ele>
        <time>2010-03-28T12:51:32Z</time>
      </trkpt>
      <trkpt lat="43.5782" lon="6.89367">
        <ele>389.23770141602</ele>
        <time>2010-03-28T12:51:33Z</time>
      </trkpt>
      <trkpt lat="43.57821" lon="6.89382">
        <ele>389.48547363281</ele>
        <time>2010-03-28T12:51:39Z</time>
      </trkpt>
      <trkpt lat="43.57825" lon="6.89396">
        <ele>390.44955444336</ele>
        <time>2010-03-28T12:51:45Z</time>
      </trkpt>
      <trkpt lat="43.57827" lon="6.89399">
        <ele>390.9889831543</ele>
        <time>2010-03-28T12:51:47Z</time>
      </trkpt>
      <trkpt lat="43.57834" lon="6.89402">
        <ele>392.98654174805</ele>
        <time>2010-03-28T12:51:52Z</time>
      </trkpt>
      <trkpt lat="43.57848" lon="6.89408">
        <ele>397.38848876953</ele>
        <time>2010-03-28T12:51:59Z</time>
      </trkpt>
      <trkpt lat="43.57858" lon="6.89424">
        <ele>400.79116821289</ele>
        <time>2010-03-28T12:52:05Z</time>
      </trkpt>
      <trkpt lat="43.57863" lon="6.89437">
        <ele>401.98974609375</ele>
        <time>2010-03-28T12:52:10Z</time>
      </trkpt>
      <trkpt lat="43.5787" lon="6.8945">
        <ele>403.84014892578</ele>
        <time>2010-03-28T12:52:16Z</time>
      </trkpt>
      <trkpt lat="43.57877" lon="6.8947">
        <ele>405.72915649414</ele>
        <time>2010-03-28T12:52:22Z</time>
      </trkpt>
      <trkpt lat="43.57883" lon="6.89486">
        <ele>407.40509033203</ele>
        <time>2010-03-28T12:52:28Z</time>
      </trkpt>
      <trkpt lat="43.57894" lon="6.89498">
        <ele>410.80023193359</ele>
        <time>2010-03-28T12:52:33Z</time>
      </trkpt>
      <trkpt lat="43.57902" lon="6.89517">
        <ele>413.54058837891</ele>
        <time>2010-03-28T12:52:39Z</time>
      </trkpt>
      <trkpt lat="43.57903" lon="6.89534">
        <ele>413.84140014648</ele>
        <time>2010-03-28T12:52:44Z</time>
      </trkpt>
      <trkpt lat="43.57898" lon="6.89557">
        <ele>412.16470336914</ele>
        <time>2010-03-28T12:52:51Z</time>
      </trkpt>
      <trkpt lat="43.57898" lon="6.8958">
        <ele>411.9494934082</ele>
        <time>2010-03-28T12:52:58Z</time>
      </trkpt>
      <trkpt lat="43.57898" lon="6.89598">
        <ele>412.46017456055</ele>
        <time>2010-03-28T12:53:04Z</time>
      </trkpt>
      <trkpt lat="43.57899" lon="6.8962">
        <ele>413.57437133789</ele>
        <time>2010-03-28T12:53:11Z</time>
      </trkpt>
      <trkpt lat="43.57904" lon="6.89637">
        <ele>415.49252319336</ele>
        <time>2010-03-28T12:53:17Z</time>
      </trkpt>
      <trkpt lat="43.57906" lon="6.89653">
        <ele>416.75430297852</ele>
        <time>2010-03-28T12:53:23Z</time>
      </trkpt>
      <trkpt lat="43.57902" lon="6.89673">
        <ele>416.23846435547</ele>
        <time>2010-03-28T12:53:31Z</time>
      </trkpt>
      <trkpt lat="43.57898" lon="6.89685">
        <ele>415.6305847168</ele>
        <time>2010-03-28T12:53:37Z</time>
      </trkpt>
      <trkpt lat="43.57893" lon="6.89704">
        <ele>415.33587646484</ele>
        <time>2010-03-28T12:53:46Z</time>
      </trkpt>
      <trkpt lat="43.57893" lon="6.89706">
        <ele>415.32934570312</ele>
        <time>2010-03-28T12:53:47Z</time>
      </trkpt>
      <trkpt lat="43.57896" lon="6.8972">
        <ele>416.61206054688</ele>
        <time>2010-03-28T12:53:55Z</time>
      </trkpt>
      <trkpt lat="43.57899" lon="6.89728">
        <ele>417.63751220703</ele>
        <time>2010-03-28T12:53:59Z</time>
      </trkpt>
      <trkpt lat="43.57904" lon="6.8974">
        <ele>419.1335144043</ele>
        <time>2010-03-28T12:54:06Z</time>
      </trkpt>
      <trkpt lat="43.57909" lon="6.89753">
        <ele>420.56558227539</ele>
        <time>2010-03-28T12:54:13Z</time>
      </trkpt>
      <trkpt lat="43.57912" lon="6.89762">
        <ele>421.27236938477</ele>
        <time>2010-03-28T12:54:18Z</time>
      </trkpt>
      <trkpt lat="43.57918" lon="6.8977">
        <ele>422.0888671875</ele>
        <time>2010-03-28T12:54:24Z</time>
      </trkpt>
      <trkpt lat="43.57923" lon="6.89776">
        <ele>422.42935180664</ele>
        <time>2010-03-28T12:54:29Z</time>
      </trkpt>
      <trkpt lat="43.57925" lon="6.89779">
        <ele>422.52847290039</ele>
        <time>2010-03-28T12:54:34Z</time>
      </trkpt>
      <trkpt lat="43.57927" lon="6.89781">
        <ele>422.67736816406</ele>
        <time>2010-03-28T12:54:40Z</time>
      </trkpt>
      <trkpt lat="43.57927" lon="6.89781">
        <ele>422.67297363281</ele>
        <time>2010-03-28T12:54:47Z</time>
      </trkpt>
      <trkpt lat="43.57927" lon="6.8978">
        <ele>422.65875244141</ele>
        <time>2010-03-28T12:54:59Z</time>
      </trkpt>
      <trkpt lat="43.57927" lon="6.8978">
        <ele>422.66159057617</ele>
        <time>2010-03-28T12:55:00Z</time>
      </trkpt>
      <trkpt lat="43.57926" lon="6.89779">
        <ele>422.63467407227</ele>
        <time>2010-03-28T12:55:11Z</time>
      </trkpt>
      <trkpt lat="43.57925" lon="6.89776">
        <ele>422.62100219727</ele>
        <time>2010-03-28T12:55:47Z</time>
      </trkpt>
      <trkpt lat="43.57925" lon="6.89776">
        <ele>422.62100219727</ele>
        <time>2010-03-28T12:55:48Z</time>
      </trkpt>
      <trkpt lat="43.57927" lon="6.89776">
        <ele>422.72296142578</ele>
        <time>2010-03-28T12:56:32Z</time>
      </trkpt>
      <trkpt lat="43.57927" lon="6.89776">
        <ele>422.72296142578</ele>
        <time>2010-03-28T12:56:33Z</time>
      </trkpt>
      <trkpt lat="43.57927" lon="6.89776">
        <ele>422.74981689453</ele>
        <time>2010-03-28T12:56:47Z</time>
      </trkpt>
      <trkpt lat="43.57928" lon="6.89776">
        <ele>422.80270385742</ele>
        <time>2010-03-28T12:57:17Z</time>
      </trkpt>
      <trkpt lat="43.57928" lon="6.89776">
        <ele>422.80270385742</ele>
        <time>2010-03-28T12:57:18Z</time>
      </trkpt>
      <trkpt lat="43.57928" lon="6.89776">
        <ele>422.79956054688</ele>
        <time>2010-03-28T12:57:37Z</time>
      </trkpt>
      <trkpt lat="43.57928" lon="6.89776">
        <ele>422.79879760742</ele>
        <time>2010-03-28T12:57:38Z</time>
      </trkpt>
      <trkpt lat="43.57928" lon="6.89776">
        <ele>422.82629394531</ele>
        <time>2010-03-28T12:57:58Z</time>
      </trkpt>
      <trkpt lat="43.57927" lon="6.89777">
        <ele>422.73590087891</ele>
        <time>2010-03-28T12:58:46Z</time>
      </trkpt>
      <trkpt lat="43.57925" lon="6.8978">
        <ele>422.54107666016</ele>
        <time>2010-03-28T12:59:21Z</time>
      </trkpt>
      <trkpt lat="43.57926" lon="6.89783">
        <ele>422.57196044922</ele>
        <time>2010-03-28T12:59:27Z</time>
      </trkpt>
      <trkpt lat="43.57926" lon="6.89783">
        <ele>422.56936645508</ele>
        <time>2010-03-28T12:59:31Z</time>
      </trkpt>
      <trkpt lat="43.57925" lon="6.89784">
        <ele>422.49682617188</ele>
        <time>2010-03-28T12:59:41Z</time>
      </trkpt>
      <trkpt lat="43.57924" lon="6.8979">
        <ele>422.36141967773</ele>
        <time>2010-03-28T13:00:01Z</time>
      </trkpt>
      <trkpt lat="43.57925" lon="6.89791">
        <ele>422.3864440918</ele>
        <time>2010-03-28T13:00:08Z</time>
      </trkpt>
      <trkpt lat="43.57924" lon="6.89792">
        <ele>422.32165527344</ele>
        <time>2010-03-28T13:00:24Z</time>
      </trkpt>
      <trkpt lat="43.57924" lon="6.89792">
        <ele>422.32730102539</ele>
        <time>2010-03-28T13:00:34Z</time>
      </trkpt>
      <trkpt lat="43.57927" lon="6.89792">
        <ele>422.48168945312</ele>
        <time>2010-03-28T13:01:40Z</time>
      </trkpt>
      <trkpt lat="43.57924" lon="6.89793">
        <ele>422.31463623047</ele>
        <time>2010-03-28T13:05:23Z</time>
      </trkpt>
      <trkpt lat="43.57924" lon="6.89793">
        <ele>422.31509399414</ele>
        <time>2010-03-28T13:05:24Z</time>
      </trkpt>
      <trkpt lat="43.57923" lon="6.89794">
        <ele>422.27243041992</ele>
        <time>2010-03-28T13:05:33Z</time>
      </trkpt>
      <trkpt lat="43.57925" lon="6.89798">
        <ele>422.32733154297</ele>
        <time>2010-03-28T13:05:39Z</time>
      </trkpt>
      <trkpt lat="43.57935" lon="6.89819">
        <ele>422.15463256836</ele>
        <time>2010-03-28T13:05:46Z</time>
      </trkpt>
      <trkpt lat="43.57943" lon="6.89837">
        <ele>421.1774597168</ele>
        <time>2010-03-28T13:05:51Z</time>
      </trkpt>
      <trkpt lat="43.57956" lon="6.89862">
        <ele>417.32897949219</ele>
        <time>2010-03-28T13:05:58Z</time>
      </trkpt>
      <trkpt lat="43.57964" lon="6.8988">
        <ele>414.05529785156</ele>
        <time>2010-03-28T13:06:03Z</time>
      </trkpt>
      <trkpt lat="43.57967" lon="6.89883">
        <ele>413.25003051758</ele>
        <time>2010-03-28T13:06:07Z</time>
      </trkpt>
      <trkpt lat="43.57966" lon="6.89887">
        <ele>412.74404907227</ele>
        <time>2010-03-28T13:06:14Z</time>
      </trkpt>
      <trkpt lat="43.57963" lon="6.8989">
        <ele>412.53631591797</ele>
        <time>2010-03-28T13:06:16Z</time>
      </trkpt>
      <trkpt lat="43.57954" lon="6.89897">
        <ele>412.42980957031</ele>
        <time>2010-03-28T13:06:21Z</time>
      </trkpt>
      <trkpt lat="43.57952" lon="6.89899">
        <ele>412.37326049805</ele>
        <time>2010-03-28T13:06:22Z</time>
      </trkpt>
      <trkpt lat="43.57942" lon="6.8991">
        <ele>412.1882019043</ele>
        <time>2010-03-28T13:06:28Z</time>
      </trkpt>
      <trkpt lat="43.57928" lon="6.89929">
        <ele>410.06216430664</ele>
        <time>2010-03-28T13:06:37Z</time>
      </trkpt>
      <trkpt lat="43.57915" lon="6.89943">
        <ele>408.4255065918</ele>
        <time>2010-03-28T13:06:44Z</time>
      </trkpt>
      <trkpt lat="43.57911" lon="6.89947">
        <ele>407.90093994141</ele>
        <time>2010-03-28T13:06:46Z</time>
      </trkpt>
      <trkpt lat="43.57909" lon="6.89948">
        <ele>407.84121704102</ele>
        <time>2010-03-28T13:06:47Z</time>
      </trkpt>
      <trkpt lat="43.57901" lon="6.89951">
        <ele>407.69110107422</ele>
        <time>2010-03-28T13:06:50Z</time>
      </trkpt>
      <trkpt lat="43.57899" lon="6.89952">
        <ele>407.73452758789</ele>
        <time>2010-03-28T13:06:51Z</time>
      </trkpt>
      <trkpt lat="43.57891" lon="6.89954">
        <ele>407.82684326172</ele>
        <time>2010-03-28T13:06:54Z</time>
      </trkpt>
      <trkpt lat="43.57888" lon="6.89955">
        <ele>407.83834838867</ele>
        <time>2010-03-28T13:06:55Z</time>
      </trkpt>
      <trkpt lat="43.57862" lon="6.89969">
        <ele>407.1904296875</ele>
        <time>2010-03-28T13:07:04Z</time>
      </trkpt>
      <trkpt lat="43.57838" lon="6.89978">
        <ele>407.67990112305</ele>
        <time>2010-03-28T13:07:12Z</time>
      </trkpt>
      <trkpt lat="43.57822" lon="6.89991">
        <ele>407.56884765625</ele>
        <time>2010-03-28T13:07:18Z</time>
      </trkpt>
      <trkpt lat="43.57811" lon="6.90004">
        <ele>406.92153930664</ele>
        <time>2010-03-28T13:07:23Z</time>
      </trkpt>
      <trkpt lat="43.57797" lon="6.90025">
        <ele>403.03457641602</ele>
        <time>2010-03-28T13:07:30Z</time>
      </trkpt>
      <trkpt lat="43.57788" lon="6.90044">
        <ele>398.56042480469</ele>
        <time>2010-03-28T13:07:35Z</time>
      </trkpt>
      <trkpt lat="43.57775" lon="6.90072">
        <ele>391.61904907227</ele>
        <time>2010-03-28T13:07:43Z</time>
      </trkpt>
      <trkpt lat="43.57762" lon="6.90094">
        <ele>386.70947265625</ele>
        <time>2010-03-28T13:07:50Z</time>
      </trkpt>
      <trkpt lat="43.57746" lon="6.90106">
        <ele>386.23886108398</ele>
        <time>2010-03-28T13:07:56Z</time>
      </trkpt>
      <trkpt lat="43.57725" lon="6.90118">
        <ele>389.45153808594</ele>
        <time>2010-03-28T13:08:03Z</time>
      </trkpt>
      <trkpt lat="43.5771" lon="6.90136">
        <ele>389.25503540039</ele>
        <time>2010-03-28T13:08:09Z</time>
      </trkpt>
      <trkpt lat="43.57685" lon="6.90164">
        <ele>389.88427734375</ele>
        <time>2010-03-28T13:08:18Z</time>
      </trkpt>
      <trkpt lat="43.57665" lon="6.90189">
        <ele>392.93292236328</ele>
        <time>2010-03-28T13:08:24Z</time>
      </trkpt>
      <trkpt lat="43.57637" lon="6.90211">
        <ele>400.61459350586</ele>
        <time>2010-03-28T13:08:29Z</time>
      </trkpt>
      <trkpt lat="43.57623" lon="6.90221">
        <ele>404.61148071289</ele>
        <time>2010-03-28T13:08:31Z</time>
      </trkpt>
      <trkpt lat="43.57608" lon="6.90232">
        <ele>408.46441650391</ele>
        <time>2010-03-28T13:08:33Z</time>
      </trkpt>
      <trkpt lat="43.57577" lon="6.90265">
        <ele>413.61682128906</ele>
        <time>2010-03-28T13:08:38Z</time>
      </trkpt>
      <trkpt lat="43.57548" lon="6.90281">
        <ele>414.45007324219</ele>
        <time>2010-03-28T13:08:43Z</time>
      </trkpt>
      <trkpt lat="43.57527" lon="6.90288">
        <ele>415.91110229492</ele>
        <time>2010-03-28T13:08:48Z</time>
      </trkpt>
      <trkpt lat="43.57498" lon="6.90302">
        <ele>417.8967590332</ele>
        <time>2010-03-28T13:08:57Z</time>
      </trkpt>
      <trkpt lat="43.57479" lon="6.9032">
        <ele>417.50869750977</ele>
        <time>2010-03-28T13:09:04Z</time>
      </trkpt>
      <trkpt lat="43.57465" lon="6.90342">
        <ele>416.61947631836</ele>
        <time>2010-03-28T13:09:11Z</time>
      </trkpt>
      <trkpt lat="43.5745" lon="6.90362">
        <ele>415.38784790039</ele>
        <time>2010-03-28T13:09:18Z</time>
      </trkpt>
      <trkpt lat="43.57447" lon="6.90369">
        <ele>415.04098510742</ele>
        <time>2010-03-28T13:09:20Z</time>
      </trkpt>
      <trkpt lat="43.57445" lon="6.90372">
        <ele>414.92849731445</ele>
        <time>2010-03-28T13:09:21Z</time>
      </trkpt>
      <trkpt lat="43.57443" lon="6.90374">
        <ele>414.88299560547</ele>
        <time>2010-03-28T13:09:22Z</time>
      </trkpt>
      <trkpt lat="43.57432" lon="6.90389">
        <ele>414.833984375</ele>
        <time>2010-03-28T13:09:28Z</time>
      </trkpt>
      <trkpt lat="43.5742" lon="6.90407">
        <ele>415.15567016602</ele>
        <time>2010-03-28T13:09:34Z</time>
      </trkpt>
      <trkpt lat="43.57412" lon="6.90415">
        <ele>415.35446166992</ele>
        <time>2010-03-28T13:09:37Z</time>
      </trkpt>
      <trkpt lat="43.5741" lon="6.90418">
        <ele>415.29275512695</ele>
        <time>2010-03-28T13:09:38Z</time>
      </trkpt>
      <trkpt lat="43.574" lon="6.90431">
        <ele>414.28213500977</ele>
        <time>2010-03-28T13:09:43Z</time>
      </trkpt>
      <trkpt lat="43.57396" lon="6.90438">
        <ele>413.90469360352</ele>
        <time>2010-03-28T13:09:45Z</time>
      </trkpt>
      <trkpt lat="43.57394" lon="6.90441">
        <ele>413.73333740234</ele>
        <time>2010-03-28T13:09:46Z</time>
      </trkpt>
      <trkpt lat="43.57392" lon="6.90444">
        <ele>413.62036132812</ele>
        <time>2010-03-28T13:09:47Z</time>
      </trkpt>
      <trkpt lat="43.57386" lon="6.90453">
        <ele>413.33480834961</ele>
        <time>2010-03-28T13:09:50Z</time>
      </trkpt>
      <trkpt lat="43.57366" lon="6.90477">
        <ele>414.23208618164</ele>
        <time>2010-03-28T13:09:59Z</time>
      </trkpt>
      <trkpt lat="43.57339" lon="6.90497">
        <ele>417.95657348633</ele>
        <time>2010-03-28T13:10:07Z</time>
      </trkpt>
      <trkpt lat="43.57322" lon="6.90502">
        <ele>420.43380737305</ele>
        <time>2010-03-28T13:10:13Z</time>
      </trkpt>
      <trkpt lat="43.57301" lon="6.90503">
        <ele>423.21774291992</ele>
        <time>2010-03-28T13:10:21Z</time>
      </trkpt>
      <trkpt lat="43.5728" lon="6.90501">
        <ele>426.02682495117</ele>
        <time>2010-03-28T13:10:28Z</time>
      </trkpt>
      <trkpt lat="43.57252" lon="6.90507">
        <ele>430.2887878418</ele>
        <time>2010-03-28T13:10:37Z</time>
      </trkpt>
      <trkpt lat="43.57238" lon="6.90503">
        <ele>431.50845336914</ele>
        <time>2010-03-28T13:10:42Z</time>
      </trkpt>
      <trkpt lat="43.57216" lon="6.90489">
        <ele>432.43203735352</ele>
        <time>2010-03-28T13:10:50Z</time>
      </trkpt>
      <trkpt lat="43.57201" lon="6.90483">
        <ele>433.20944213867</ele>
        <time>2010-03-28T13:10:55Z</time>
      </trkpt>
      <trkpt lat="43.57182" lon="6.90483">
        <ele>434.92486572266</ele>
        <time>2010-03-28T13:11:01Z</time>
      </trkpt>
      <trkpt lat="43.5716" lon="6.90485">
        <ele>437.32815551758</ele>
        <time>2010-03-28T13:11:08Z</time>
      </trkpt>
      <trkpt lat="43.57134" lon="6.90475">
        <ele>437.84103393555</ele>
        <time>2010-03-28T13:11:16Z</time>
      </trkpt>
      <trkpt lat="43.57116" lon="6.90469">
        <ele>438.03280639648</ele>
        <time>2010-03-28T13:11:22Z</time>
      </trkpt>
      <trkpt lat="43.57095" lon="6.9046">
        <ele>437.96664428711</ele>
        <time>2010-03-28T13:11:29Z</time>
      </trkpt>
      <trkpt lat="43.57073" lon="6.90452">
        <ele>438.96911621094</ele>
        <time>2010-03-28T13:11:36Z</time>
      </trkpt>
      <trkpt lat="43.5705" lon="6.90444">
        <ele>441.81680297852</ele>
        <time>2010-03-28T13:11:44Z</time>
      </trkpt>
      <trkpt lat="43.5703" lon="6.90434">
        <ele>443.74249267578</ele>
        <time>2010-03-28T13:11:51Z</time>
      </trkpt>
      <trkpt lat="43.57011" lon="6.90414">
        <ele>444.40081787109</ele>
        <time>2010-03-28T13:11:59Z</time>
      </trkpt>
      <trkpt lat="43.56998" lon="6.90396">
        <ele>443.83074951172</ele>
        <time>2010-03-28T13:12:06Z</time>
      </trkpt>
      <trkpt lat="43.56981" lon="6.9039">
        <ele>442.58514404297</ele>
        <time>2010-03-28T13:12:12Z</time>
      </trkpt>
      <trkpt lat="43.56964" lon="6.90398">
        <ele>443.53631591797</ele>
        <time>2010-03-28T13:12:18Z</time>
      </trkpt>
      <trkpt lat="43.5694" lon="6.90414">
        <ele>445.88583374023</ele>
        <time>2010-03-28T13:12:26Z</time>
      </trkpt>
      <trkpt lat="43.56917" lon="6.90437">
        <ele>448.89065551758</ele>
        <time>2010-03-28T13:12:35Z</time>
      </trkpt>
      <trkpt lat="43.56891" lon="6.9046">
        <ele>449.93963623047</ele>
        <time>2010-03-28T13:12:45Z</time>
      </trkpt>
      <trkpt lat="43.56869" lon="6.90477">
        <ele>450.57418823242</ele>
        <time>2010-03-28T13:12:54Z</time>
      </trkpt>
      <trkpt lat="43.56853" lon="6.90496">
        <ele>452.02432250977</ele>
        <time>2010-03-28T13:13:01Z</time>
      </trkpt>
      <trkpt lat="43.56841" lon="6.90513">
        <ele>454.59280395508</ele>
        <time>2010-03-28T13:13:07Z</time>
      </trkpt>
      <trkpt lat="43.56825" lon="6.9052">
        <ele>455.74664306641</ele>
        <time>2010-03-28T13:13:14Z</time>
      </trkpt>
      <trkpt lat="43.56799" lon="6.90521">
        <ele>456.49951171875</ele>
        <time>2010-03-28T13:13:23Z</time>
      </trkpt>
      <trkpt lat="43.56774" lon="6.90518">
        <ele>456.17422485352</ele>
        <time>2010-03-28T13:13:32Z</time>
      </trkpt>
      <trkpt lat="43.56756" lon="6.90506">
        <ele>454.16882324219</ele>
        <time>2010-03-28T13:13:39Z</time>
      </trkpt>
      <trkpt lat="43.56739" lon="6.90497">
        <ele>453.71035766602</ele>
        <time>2010-03-28T13:13:46Z</time>
      </trkpt>
      <trkpt lat="43.56717" lon="6.9049">
        <ele>455.10034179688</ele>
        <time>2010-03-28T13:13:54Z</time>
      </trkpt>
      <trkpt lat="43.56696" lon="6.90488">
        <ele>457.14739990234</ele>
        <time>2010-03-28T13:14:02Z</time>
      </trkpt>
      <trkpt lat="43.56683" lon="6.90488">
        <ele>458.74661254883</ele>
        <time>2010-03-28T13:14:07Z</time>
      </trkpt>
      <trkpt lat="43.56669" lon="6.90486">
        <ele>460.05349731445</ele>
        <time>2010-03-28T13:14:12Z</time>
      </trkpt>
      <trkpt lat="43.56653" lon="6.90479">
        <ele>460.43719482422</ele>
        <time>2010-03-28T13:14:18Z</time>
      </trkpt>
      <trkpt lat="43.56639" lon="6.90468">
        <ele>459.76748657227</ele>
        <time>2010-03-28T13:14:24Z</time>
      </trkpt>
      <trkpt lat="43.56623" lon="6.90451">
        <ele>457.50509643555</ele>
        <time>2010-03-28T13:14:30Z</time>
      </trkpt>
      <trkpt lat="43.56602" lon="6.90422">
        <ele>451.68634033203</ele>
        <time>2010-03-28T13:14:37Z</time>
      </trkpt>
      <trkpt lat="43.56596" lon="6.90416">
        <ele>450.27789306641</ele>
        <time>2010-03-28T13:14:41Z</time>
      </trkpt>
      <trkpt lat="43.56596" lon="6.90418">
        <ele>450.58374023438</ele>
        <time>2010-03-28T13:14:48Z</time>
      </trkpt>
      <trkpt lat="43.56596" lon="6.90419">
        <ele>450.84652709961</ele>
        <time>2010-03-28T13:14:53Z</time>
      </trkpt>
      <trkpt lat="43.56597" lon="6.9042">
        <ele>451.06002807617</ele>
        <time>2010-03-28T13:15:01Z</time>
      </trkpt>
      <trkpt lat="43.56598" lon="6.9042">
        <ele>451.0744934082</ele>
        <time>2010-03-28T13:15:08Z</time>
      </trkpt>
      <trkpt lat="43.56598" lon="6.90419">
        <ele>450.88208007812</ele>
        <time>2010-03-28T13:15:15Z</time>
      </trkpt>
      <trkpt lat="43.56598" lon="6.90419">
        <ele>450.9909362793</ele>
        <time>2010-03-28T13:15:25Z</time>
      </trkpt>
      <trkpt lat="43.56598" lon="6.90416">
        <ele>450.31964111328</ele>
        <time>2010-03-28T13:15:39Z</time>
      </trkpt>
      <trkpt lat="43.56598" lon="6.90413">
        <ele>450.01083374023</ele>
        <time>2010-03-28T13:15:47Z</time>
      </trkpt>
      <trkpt lat="43.56594" lon="6.90411">
        <ele>449.64926147461</ele>
        <time>2010-03-28T13:15:51Z</time>
      </trkpt>
      <trkpt lat="43.5658" lon="6.9041">
        <ele>448.27029418945</ele>
        <time>2010-03-28T13:15:56Z</time>
      </trkpt>
      <trkpt lat="43.56557" lon="6.90409">
        <ele>440.15097045898</ele>
        <time>2010-03-28T13:16:02Z</time>
      </trkpt>
      <trkpt lat="43.5653" lon="6.90409">
        <ele>430.39108276367</ele>
        <time>2010-03-28T13:16:09Z</time>
      </trkpt>
      <trkpt lat="43.56512" lon="6.90416">
        <ele>425.12731933594</ele>
        <time>2010-03-28T13:16:13Z</time>
      </trkpt>
      <trkpt lat="43.56494" lon="6.90426">
        <ele>423.25384521484</ele>
        <time>2010-03-28T13:16:17Z</time>
      </trkpt>
      <trkpt lat="43.56466" lon="6.90453">
        <ele>425.40536499023</ele>
        <time>2010-03-28T13:16:24Z</time>
      </trkpt>
      <trkpt lat="43.56441" lon="6.90495">
        <ele>430.93612670898</ele>
        <time>2010-03-28T13:16:31Z</time>
      </trkpt>
      <trkpt lat="43.56411" lon="6.90543">
        <ele>434.6086730957</ele>
        <time>2010-03-28T13:16:38Z</time>
      </trkpt>
      <trkpt lat="43.56387" lon="6.90579">
        <ele>438.62609863281</ele>
        <time>2010-03-28T13:16:43Z</time>
      </trkpt>
      <trkpt lat="43.56378" lon="6.90592">
        <ele>438.47058105469</ele>
        <time>2010-03-28T13:16:45Z</time>
      </trkpt>
      <trkpt lat="43.56352" lon="6.90608">
        <ele>433.50445556641</ele>
        <time>2010-03-28T13:16:49Z</time>
      </trkpt>
      <trkpt lat="43.56338" lon="6.90609">
        <ele>429.7048034668</ele>
        <time>2010-03-28T13:16:51Z</time>
      </trkpt>
      <trkpt lat="43.56314" lon="6.90622">
        <ele>426.55502319336</ele>
        <time>2010-03-28T13:16:55Z</time>
      </trkpt>
      <trkpt lat="43.56301" lon="6.90643">
        <ele>427.54388427734</ele>
        <time>2010-03-28T13:16:58Z</time>
      </trkpt>
      <trkpt lat="43.56285" lon="6.9066">
        <ele>427.90411376953</ele>
        <time>2010-03-28T13:17:01Z</time>
      </trkpt>
      <trkpt lat="43.56271" lon="6.90663">
        <ele>426.33465576172</ele>
        <time>2010-03-28T13:17:03Z</time>
      </trkpt>
      <trkpt lat="43.56258" lon="6.90661">
        <ele>424.05554199219</ele>
        <time>2010-03-28T13:17:05Z</time>
      </trkpt>
      <trkpt lat="43.56234" lon="6.90674">
        <ele>421.4382019043</ele>
        <time>2010-03-28T13:17:09Z</time>
      </trkpt>
      <trkpt lat="43.56227" lon="6.907">
        <ele>420.91983032227</ele>
        <time>2010-03-28T13:17:12Z</time>
      </trkpt>
      <trkpt lat="43.56234" lon="6.90724">
        <ele>422.84683227539</ele>
        <time>2010-03-28T13:17:15Z</time>
      </trkpt>
      <trkpt lat="43.56241" lon="6.90736">
        <ele>424.58813476562</ele>
        <time>2010-03-28T13:17:17Z</time>
      </trkpt>
      <trkpt lat="43.56273" lon="6.9078">
        <ele>428.2145690918</ele>
        <time>2010-03-28T13:17:24Z</time>
      </trkpt>
      <trkpt lat="43.56278" lon="6.90787">
        <ele>428.47973632812</ele>
        <time>2010-03-28T13:17:25Z</time>
      </trkpt>
      <trkpt lat="43.56303" lon="6.90801">
        <ele>430.02291870117</ele>
        <time>2010-03-28T13:17:29Z</time>
      </trkpt>
      <trkpt lat="43.56325" lon="6.90792">
        <ele>432.61837768555</ele>
        <time>2010-03-28T13:17:32Z</time>
      </trkpt>
      <trkpt lat="43.56361" lon="6.90783">
        <ele>439.34561157227</ele>
        <time>2010-03-28T13:17:37Z</time>
      </trkpt>
      <trkpt lat="43.56373" lon="6.90796">
        <ele>439.87811279297</ele>
        <time>2010-03-28T13:17:39Z</time>
      </trkpt>
      <trkpt lat="43.5638" lon="6.90827">
        <ele>436.54840087891</ele>
        <time>2010-03-28T13:17:42Z</time>
      </trkpt>
      <trkpt lat="43.56379" lon="6.9085">
        <ele>432.19387817383</ele>
        <time>2010-03-28T13:17:44Z</time>
      </trkpt>
      <trkpt lat="43.56371" lon="6.90906">
        <ele>421.01202392578</ele>
        <time>2010-03-28T13:17:49Z</time>
      </trkpt>
      <trkpt lat="43.56352" lon="6.90945">
        <ele>412.79281616211</ele>
        <time>2010-03-28T13:17:53Z</time>
      </trkpt>
      <trkpt lat="43.56346" lon="6.90951">
        <ele>411.74130249023</ele>
        <time>2010-03-28T13:17:54Z</time>
      </trkpt>
      <trkpt lat="43.56315" lon="6.90982">
        <ele>409.81698608398</ele>
        <time>2010-03-28T13:17:59Z</time>
      </trkpt>
      <trkpt lat="43.56296" lon="6.91017">
        <ele>409.89337158203</ele>
        <time>2010-03-28T13:18:03Z</time>
      </trkpt>
      <trkpt lat="43.56291" lon="6.9104">
        <ele>409.36755371094</ele>
        <time>2010-03-28T13:18:05Z</time>
      </trkpt>
      <trkpt lat="43.56277" lon="6.91124">
        <ele>412.75366210938</ele>
        <time>2010-03-28T13:18:11Z</time>
      </trkpt>
      <trkpt lat="43.56277" lon="6.91167">
        <ele>414.67144775391</ele>
        <time>2010-03-28T13:18:14Z</time>
      </trkpt>
      <trkpt lat="43.56278" lon="6.9118">
        <ele>415.31689453125</ele>
        <time>2010-03-28T13:18:15Z</time>
      </trkpt>
      <trkpt lat="43.56279" lon="6.91194">
        <ele>415.95004272461</ele>
        <time>2010-03-28T13:18:16Z</time>
      </trkpt>
      <trkpt lat="43.56267" lon="6.91238">
        <ele>425.43252563477</ele>
        <time>2010-03-28T13:18:20Z</time>
      </trkpt>
      <trkpt lat="43.56255" lon="6.91257">
        <ele>431.43264770508</ele>
        <time>2010-03-28T13:18:22Z</time>
      </trkpt>
      <trkpt lat="43.56244" lon="6.913">
        <ele>433.73022460938</ele>
        <time>2010-03-28T13:18:26Z</time>
      </trkpt>
      <trkpt lat="43.5625" lon="6.91332">
        <ele>430.91442871094</ele>
        <time>2010-03-28T13:18:29Z</time>
      </trkpt>
      <trkpt lat="43.56255" lon="6.91342">
        <ele>428.7438659668</ele>
        <time>2010-03-28T13:18:30Z</time>
      </trkpt>
      <trkpt lat="43.56283" lon="6.91391">
        <ele>416.64193725586</ele>
        <time>2010-03-28T13:18:36Z</time>
      </trkpt>
      <trkpt lat="43.56289" lon="6.91399">
        <ele>414.40069580078</ele>
        <time>2010-03-28T13:18:37Z</time>
      </trkpt>
      <trkpt lat="43.56305" lon="6.91442">
        <ele>408.57366943359</ele>
        <time>2010-03-28T13:18:41Z</time>
      </trkpt>
      <trkpt lat="43.56301" lon="6.91477">
        <ele>408.1145324707</ele>
        <time>2010-03-28T13:18:44Z</time>
      </trkpt>
      <trkpt lat="43.56288" lon="6.91508">
        <ele>409.6276550293</ele>
        <time>2010-03-28T13:18:47Z</time>
      </trkpt>
      <trkpt lat="43.56277" lon="6.91522">
        <ele>411.3010559082</ele>
        <time>2010-03-28T13:18:50Z</time>
      </trkpt>
      <trkpt lat="43.56273" lon="6.91526">
        <ele>411.82632446289</ele>
        <time>2010-03-28T13:18:51Z</time>
      </trkpt>
      <trkpt lat="43.56252" lon="6.91541">
        <ele>413.82318115234</ele>
        <time>2010-03-28T13:18:56Z</time>
      </trkpt>
      <trkpt lat="43.56247" lon="6.91544">
        <ele>413.21099853516</ele>
        <time>2010-03-28T13:18:58Z</time>
      </trkpt>
      <trkpt lat="43.56245" lon="6.91547">
        <ele>412.63369750977</ele>
        <time>2010-03-28T13:19:04Z</time>
      </trkpt>
      <trkpt lat="43.56243" lon="6.91549">
        <ele>412.189453125</ele>
        <time>2010-03-28T13:19:10Z</time>
      </trkpt>
      <trkpt lat="43.56245" lon="6.91548">
        <ele>412.60659790039</ele>
        <time>2010-03-28T13:19:18Z</time>
      </trkpt>
      <trkpt lat="43.56245" lon="6.91548">
        <ele>412.58334350586</ele>
        <time>2010-03-28T13:19:23Z</time>
      </trkpt>
      <trkpt lat="43.56242" lon="6.91548">
        <ele>412.11343383789</ele>
        <time>2010-03-28T13:19:34Z</time>
      </trkpt>
      <trkpt lat="43.5624" lon="6.9155">
        <ele>411.48989868164</ele>
        <time>2010-03-28T13:19:40Z</time>
      </trkpt>
      <trkpt lat="43.56241" lon="6.91555">
        <ele>411.39093017578</ele>
        <time>2010-03-28T13:20:09Z</time>
      </trkpt>
      <trkpt lat="43.56241" lon="6.91555">
        <ele>411.3742980957</ele>
        <time>2010-03-28T13:20:11Z</time>
      </trkpt>
      <trkpt lat="43.56241" lon="6.91555">
        <ele>411.37014770508</ele>
        <time>2010-03-28T13:20:12Z</time>
      </trkpt>
      <trkpt lat="43.56244" lon="6.91554">
        <ele>411.92324829102</ele>
        <time>2010-03-28T13:21:31Z</time>
      </trkpt>
      <trkpt lat="43.56244" lon="6.91555">
        <ele>411.84844970703</ele>
        <time>2010-03-28T13:22:10Z</time>
      </trkpt>
      <trkpt lat="43.56244" lon="6.91555">
        <ele>411.84057617188</ele>
        <time>2010-03-28T13:22:11Z</time>
      </trkpt>
      <trkpt lat="43.56243" lon="6.91553">
        <ele>411.79849243164</ele>
        <time>2010-03-28T13:23:06Z</time>
      </trkpt>
      <trkpt lat="43.56243" lon="6.91552">
        <ele>411.87506103516</ele>
        <time>2010-03-28T13:23:13Z</time>
      </trkpt>
      <trkpt lat="43.56242" lon="6.9155">
        <ele>412.0029296875</ele>
        <time>2010-03-28T13:23:22Z</time>
      </trkpt>
      <trkpt lat="43.56234" lon="6.91552">
        <ele>410.29061889648</ele>
        <time>2010-03-28T13:23:25Z</time>
      </trkpt>
      <trkpt lat="43.56216" lon="6.91557">
        <ele>406.43173217773</ele>
        <time>2010-03-28T13:23:29Z</time>
      </trkpt>
      <trkpt lat="43.56194" lon="6.9156">
        <ele>401.32870483398</ele>
        <time>2010-03-28T13:23:34Z</time>
      </trkpt>
      <trkpt lat="43.56182" lon="6.91559">
        <ele>399.47082519531</ele>
        <time>2010-03-28T13:23:37Z</time>
      </trkpt>
      <trkpt lat="43.56176" lon="6.91551">
        <ele>399.64083862305</ele>
        <time>2010-03-28T13:23:39Z</time>
      </trkpt>
      <trkpt lat="43.56169" lon="6.91541">
        <ele>400.47308349609</ele>
        <time>2010-03-28T13:23:41Z</time>
      </trkpt>
      <trkpt lat="43.56162" lon="6.91533">
        <ele>401.18826293945</ele>
        <time>2010-03-28T13:23:43Z</time>
      </trkpt>
      <trkpt lat="43.56147" lon="6.91523">
        <ele>401.0563659668</ele>
        <time>2010-03-28T13:23:48Z</time>
      </trkpt>
      <trkpt lat="43.56127" lon="6.91523">
        <ele>398.13275146484</ele>
        <time>2010-03-28T13:23:52Z</time>
      </trkpt>
      <trkpt lat="43.56107" lon="6.91526">
        <ele>394.11242675781</ele>
        <time>2010-03-28T13:23:56Z</time>
      </trkpt>
      <trkpt lat="43.56102" lon="6.91527">
        <ele>393.23571777344</ele>
        <time>2010-03-28T13:23:57Z</time>
      </trkpt>
      <trkpt lat="43.56091" lon="6.91532">
        <ele>389.71090698242</ele>
        <time>2010-03-28T13:24:00Z</time>
      </trkpt>
      <trkpt lat="43.56086" lon="6.91535">
        <ele>388.25158691406</ele>
        <time>2010-03-28T13:24:01Z</time>
      </trkpt>
      <trkpt lat="43.56081" lon="6.91539">
        <ele>386.07464599609</ele>
        <time>2010-03-28T13:24:02Z</time>
      </trkpt>
      <trkpt lat="43.56067" lon="6.9155">
        <ele>380.94812011719</ele>
        <time>2010-03-28T13:24:05Z</time>
      </trkpt>
      <trkpt lat="43.56045" lon="6.91559">
        <ele>375.58697509766</ele>
        <time>2010-03-28T13:24:09Z</time>
      </trkpt>
      <trkpt lat="43.56012" lon="6.91553">
        <ele>374.29995727539</ele>
        <time>2010-03-28T13:24:15Z</time>
      </trkpt>
      <trkpt lat="43.55999" lon="6.91544">
        <ele>375.95483398438</ele>
        <time>2010-03-28T13:24:18Z</time>
      </trkpt>
      <trkpt lat="43.5598" lon="6.91537">
        <ele>375.5803527832</ele>
        <time>2010-03-28T13:24:22Z</time>
      </trkpt>
      <trkpt lat="43.55972" lon="6.91531">
        <ele>376.4098815918</ele>
        <time>2010-03-28T13:24:24Z</time>
      </trkpt>
      <trkpt lat="43.55952" lon="6.91509">
        <ele>381.38439941406</ele>
        <time>2010-03-28T13:24:30Z</time>
      </trkpt>
      <trkpt lat="43.55939" lon="6.91506">
        <ele>380.34860229492</ele>
        <time>2010-03-28T13:24:34Z</time>
      </trkpt>
      <trkpt lat="43.55925" lon="6.9151">
        <ele>376.89358520508</ele>
        <time>2010-03-28T13:24:39Z</time>
      </trkpt>
      <trkpt lat="43.55917" lon="6.91505">
        <ele>377.34979248047</ele>
        <time>2010-03-28T13:24:44Z</time>
      </trkpt>
      <trkpt lat="43.55914" lon="6.91498">
        <ele>378.62683105469</ele>
        <time>2010-03-28T13:24:49Z</time>
      </trkpt>
      <trkpt lat="43.5591" lon="6.91499">
        <ele>377.49334716797</ele>
        <time>2010-03-28T13:24:51Z</time>
      </trkpt>
      <trkpt lat="43.55895" lon="6.91504">
        <ele>372.49887084961</ele>
        <time>2010-03-28T13:24:56Z</time>
      </trkpt>
      <trkpt lat="43.55893" lon="6.91505">
        <ele>371.56100463867</ele>
        <time>2010-03-28T13:24:57Z</time>
      </trkpt>
      <trkpt lat="43.55882" lon="6.91522">
        <ele>364.0026550293</ele>
        <time>2010-03-28T13:25:03Z</time>
      </trkpt>
      <trkpt lat="43.55879" lon="6.91528">
        <ele>361.73455810547</ele>
        <time>2010-03-28T13:25:05Z</time>
      </trkpt>
      <trkpt lat="43.55871" lon="6.91533">
        <ele>358.83395385742</ele>
        <time>2010-03-28T13:25:08Z</time>
      </trkpt>
      <trkpt lat="43.55864" lon="6.91546">
        <ele>354.12210083008</ele>
        <time>2010-03-28T13:25:12Z</time>
      </trkpt>
      <trkpt lat="43.55856" lon="6.91547">
        <ele>352.74829101562</ele>
        <time>2010-03-28T13:25:15Z</time>
      </trkpt>
      <trkpt lat="43.55846" lon="6.91553">
        <ele>349.70700073242</ele>
        <time>2010-03-28T13:25:19Z</time>
      </trkpt>
      <trkpt lat="43.55841" lon="6.91551">
        <ele>349.32534790039</ele>
        <time>2010-03-28T13:25:22Z</time>
      </trkpt>
      <trkpt lat="43.55839" lon="6.91546">
        <ele>350.13186645508</ele>
        <time>2010-03-28T13:25:25Z</time>
      </trkpt>
      <trkpt lat="43.55833" lon="6.91542">
        <ele>349.95443725586</ele>
        <time>2010-03-28T13:25:29Z</time>
      </trkpt>
      <trkpt lat="43.55822" lon="6.9155">
        <ele>346.46908569336</ele>
        <time>2010-03-28T13:25:33Z</time>
      </trkpt>
      <trkpt lat="43.5581" lon="6.91564">
        <ele>342.71264648438</ele>
        <time>2010-03-28T13:25:38Z</time>
      </trkpt>
      <trkpt lat="43.55807" lon="6.91561">
        <ele>342.765625</ele>
        <time>2010-03-28T13:25:40Z</time>
      </trkpt>
      <trkpt lat="43.55793" lon="6.9156">
        <ele>340.94564819336</ele>
        <time>2010-03-28T13:25:45Z</time>
      </trkpt>
      <trkpt lat="43.55782" lon="6.91573">
        <ele>338.75387573242</ele>
        <time>2010-03-28T13:25:49Z</time>
      </trkpt>
      <trkpt lat="43.55777" lon="6.91593">
        <ele>335.77453613281</ele>
        <time>2010-03-28T13:25:53Z</time>
      </trkpt>
      <trkpt lat="43.55768" lon="6.916">
        <ele>333.9973449707</ele>
        <time>2010-03-28T13:25:56Z</time>
      </trkpt>
      <trkpt lat="43.55759" lon="6.91606">
        <ele>332.26968383789</ele>
        <time>2010-03-28T13:25:59Z</time>
      </trkpt>
      <trkpt lat="43.55754" lon="6.91627">
        <ele>328.21298217773</ele>
        <time>2010-03-28T13:26:02Z</time>
      </trkpt>
      <trkpt lat="43.55753" lon="6.91646">
        <ele>324.61700439453</ele>
        <time>2010-03-28T13:26:05Z</time>
      </trkpt>
      <trkpt lat="43.55748" lon="6.91678">
        <ele>318.42544555664</ele>
        <time>2010-03-28T13:26:10Z</time>
      </trkpt>
      <trkpt lat="43.55746" lon="6.91697">
        <ele>314.26760864258</ele>
        <time>2010-03-28T13:26:14Z</time>
      </trkpt>
      <trkpt lat="43.55742" lon="6.91701">
        <ele>313.16070556641</ele>
        <time>2010-03-28T13:26:15Z</time>
      </trkpt>
      <trkpt lat="43.55713" lon="6.9172">
        <ele>308.64163208008</ele>
        <time>2010-03-28T13:26:20Z</time>
      </trkpt>
      <trkpt lat="43.55702" lon="6.91724">
        <ele>307.85284423828</ele>
        <time>2010-03-28T13:26:22Z</time>
      </trkpt>
      <trkpt lat="43.55669" lon="6.91738">
        <ele>306.01187133789</ele>
        <time>2010-03-28T13:26:27Z</time>
      </trkpt>
      <trkpt lat="43.55657" lon="6.91737">
        <ele>305.17108154297</ele>
        <time>2010-03-28T13:26:29Z</time>
      </trkpt>
      <trkpt lat="43.55627" lon="6.91727">
        <ele>302.68041992188</ele>
        <time>2010-03-28T13:26:35Z</time>
      </trkpt>
      <trkpt lat="43.55615" lon="6.91727">
        <ele>301.35397338867</ele>
        <time>2010-03-28T13:26:38Z</time>
      </trkpt>
      <trkpt lat="43.5561" lon="6.91732">
        <ele>300.84362792969</ele>
        <time>2010-03-28T13:26:40Z</time>
      </trkpt>
      <trkpt lat="43.55588" lon="6.91749">
        <ele>299.28619384766</ele>
        <time>2010-03-28T13:26:46Z</time>
      </trkpt>
      <trkpt lat="43.55577" lon="6.91763">
        <ele>295.91036987305</ele>
        <time>2010-03-28T13:26:49Z</time>
      </trkpt>
      <trkpt lat="43.55566" lon="6.91795">
        <ele>289.30560302734</ele>
        <time>2010-03-28T13:26:54Z</time>
      </trkpt>
      <trkpt lat="43.55555" lon="6.91806">
        <ele>286.36782836914</ele>
        <time>2010-03-28T13:26:57Z</time>
      </trkpt>
      <trkpt lat="43.55544" lon="6.9181">
        <ele>284.28680419922</ele>
        <time>2010-03-28T13:27:01Z</time>
      </trkpt>
      <trkpt lat="43.55543" lon="6.91818">
        <ele>283.30422973633</ele>
        <time>2010-03-28T13:27:04Z</time>
      </trkpt>
      <trkpt lat="43.55541" lon="6.91829">
        <ele>281.83825683594</ele>
        <time>2010-03-28T13:27:07Z</time>
      </trkpt>
      <trkpt lat="43.55536" lon="6.91843">
        <ele>279.05279541016</ele>
        <time>2010-03-28T13:27:11Z</time>
      </trkpt>
      <trkpt lat="43.55525" lon="6.91848">
        <ele>277.34341430664</ele>
        <time>2010-03-28T13:27:15Z</time>
      </trkpt>
      <trkpt lat="43.55517" lon="6.91844">
        <ele>277.25042724609</ele>
        <time>2010-03-28T13:27:19Z</time>
      </trkpt>
      <trkpt lat="43.55511" lon="6.91853">
        <ele>275.40969848633</ele>
        <time>2010-03-28T13:27:23Z</time>
      </trkpt>
      <trkpt lat="43.55514" lon="6.91863">
        <ele>274.18115234375</ele>
        <time>2010-03-28T13:27:26Z</time>
      </trkpt>
      <trkpt lat="43.55515" lon="6.91871">
        <ele>273.06326293945</ele>
        <time>2010-03-28T13:27:30Z</time>
      </trkpt>
      <trkpt lat="43.55506" lon="6.91882">
        <ele>271.29623413086</ele>
        <time>2010-03-28T13:27:34Z</time>
      </trkpt>
      <trkpt lat="43.55488" lon="6.91911">
        <ele>267.97189331055</ele>
        <time>2010-03-28T13:27:40Z</time>
      </trkpt>
      <trkpt lat="43.55483" lon="6.91919">
        <ele>267.27035522461</ele>
        <time>2010-03-28T13:27:42Z</time>
      </trkpt>
      <trkpt lat="43.55482" lon="6.91935">
        <ele>264.7551574707</ele>
        <time>2010-03-28T13:27:45Z</time>
      </trkpt>
      <trkpt lat="43.55483" lon="6.91951">
        <ele>262.07479858398</ele>
        <time>2010-03-28T13:27:49Z</time>
      </trkpt>
      <trkpt lat="43.55485" lon="6.91965">
        <ele>259.54174804688</ele>
        <time>2010-03-28T13:27:53Z</time>
      </trkpt>
      <trkpt lat="43.55487" lon="6.91977">
        <ele>257.39169311523</ele>
        <time>2010-03-28T13:27:56Z</time>
      </trkpt>
      <trkpt lat="43.55495" lon="6.91991">
        <ele>254.27645874023</ele>
        <time>2010-03-28T13:27:59Z</time>
      </trkpt>
      <trkpt lat="43.55497" lon="6.92007">
        <ele>250.53820800781</ele>
        <time>2010-03-28T13:28:02Z</time>
      </trkpt>
      <trkpt lat="43.55496" lon="6.92033">
        <ele>243.70857238769</ele>
        <time>2010-03-28T13:28:07Z</time>
      </trkpt>
      <trkpt lat="43.55495" lon="6.92051">
        <ele>239.20616149902</ele>
        <time>2010-03-28T13:28:10Z</time>
      </trkpt>
      <trkpt lat="43.55492" lon="6.92073">
        <ele>233.75399780273</ele>
        <time>2010-03-28T13:28:15Z</time>
      </trkpt>
      <trkpt lat="43.55496" lon="6.92092">
        <ele>228.4192199707</ele>
        <time>2010-03-28T13:28:20Z</time>
      </trkpt>
      <trkpt lat="43.55492" lon="6.92107">
        <ele>225.45684814453</ele>
        <time>2010-03-28T13:28:24Z</time>
      </trkpt>
      <trkpt lat="43.55497" lon="6.92124">
        <ele>221.10554504394</ele>
        <time>2010-03-28T13:28:28Z</time>
      </trkpt>
      <trkpt lat="43.55497" lon="6.92135">
        <ele>218.58976745606</ele>
        <time>2010-03-28T13:28:32Z</time>
      </trkpt>
      <trkpt lat="43.55497" lon="6.92136">
        <ele>218.30378723144</ele>
        <time>2010-03-28T13:28:40Z</time>
      </trkpt>
      <trkpt lat="43.55499" lon="6.92136">
        <ele>217.98985290527</ele>
        <time>2010-03-28T13:28:41Z</time>
      </trkpt>
      <trkpt lat="43.55512" lon="6.92129">
        <ele>217.52188110352</ele>
        <time>2010-03-28T13:28:46Z</time>
      </trkpt>
      <trkpt lat="43.55526" lon="6.92109">
        <ele>219.9114074707</ele>
        <time>2010-03-28T13:28:50Z</time>
      </trkpt>
      <trkpt lat="43.5553" lon="6.92096">
        <ele>222.09951782227</ele>
        <time>2010-03-28T13:28:52Z</time>
      </trkpt>
      <trkpt lat="43.55534" lon="6.92083">
        <ele>224.30998229981</ele>
        <time>2010-03-28T13:28:54Z</time>
      </trkpt>
      <trkpt lat="43.55539" lon="6.9207">
        <ele>227.01316833496</ele>
        <time>2010-03-28T13:28:56Z</time>
      </trkpt>
      <trkpt lat="43.55556" lon="6.92053">
        <ele>228.72766113281</ele>
        <time>2010-03-28T13:29:00Z</time>
      </trkpt>
      <trkpt lat="43.55574" lon="6.92056">
        <ele>225.1483001709</ele>
        <time>2010-03-28T13:29:07Z</time>
      </trkpt>
      <trkpt lat="43.55593" lon="6.92058">
        <ele>222.87023925781</ele>
        <time>2010-03-28T13:29:13Z</time>
      </trkpt>
      <trkpt lat="43.55616" lon="6.92061">
        <ele>221.62582397461</ele>
        <time>2010-03-28T13:29:18Z</time>
      </trkpt>
      <trkpt lat="43.55632" lon="6.92065">
        <ele>220.70657348633</ele>
        <time>2010-03-28T13:29:21Z</time>
      </trkpt>
      <trkpt lat="43.55647" lon="6.92081">
        <ele>217.32807922363</ele>
        <time>2010-03-28T13:29:25Z</time>
      </trkpt>
      <trkpt lat="43.55643" lon="6.92087">
        <ele>216.05073547363</ele>
        <time>2010-03-28T13:29:27Z</time>
      </trkpt>
      <trkpt lat="43.55623" lon="6.92097">
        <ele>213.83242797852</ele>
        <time>2010-03-28T13:29:35Z</time>
      </trkpt>
      <trkpt lat="43.55613" lon="6.92114">
        <ele>210.07539367676</ele>
        <time>2010-03-28T13:29:40Z</time>
      </trkpt>
      <trkpt lat="43.55613" lon="6.92139">
        <ele>204.91812133789</ele>
        <time>2010-03-28T13:29:44Z</time>
      </trkpt>
      <trkpt lat="43.55615" lon="6.92151">
        <ele>202.47520446777</ele>
        <time>2010-03-28T13:29:46Z</time>
      </trkpt>
      <trkpt lat="43.55627" lon="6.92188">
        <ele>196.62353515625</ele>
        <time>2010-03-28T13:29:52Z</time>
      </trkpt>
      <trkpt lat="43.5564" lon="6.9221">
        <ele>194.79725646973</ele>
        <time>2010-03-28T13:29:56Z</time>
      </trkpt>
      <trkpt lat="43.55645" lon="6.92218">
        <ele>194.17469787598</ele>
        <time>2010-03-28T13:29:59Z</time>
      </trkpt>
      <trkpt lat="43.55648" lon="6.92232">
        <ele>192.88984680176</ele>
        <time>2010-03-28T13:30:03Z</time>
      </trkpt>
      <trkpt lat="43.55653" lon="6.92254">
        <ele>190.90435791016</ele>
        <time>2010-03-28T13:30:07Z</time>
      </trkpt>
      <trkpt lat="43.55664" lon="6.92275">
        <ele>190.37072753906</ele>
        <time>2010-03-28T13:30:11Z</time>
      </trkpt>
      <trkpt lat="43.55665" lon="6.9228">
        <ele>190.12356567383</ele>
        <time>2010-03-28T13:30:12Z</time>
      </trkpt>
      <trkpt lat="43.55657" lon="6.92294">
        <ele>186.8194732666</ele>
        <time>2010-03-28T13:30:16Z</time>
      </trkpt>
      <trkpt lat="43.55654" lon="6.92297">
        <ele>185.6982421875</ele>
        <time>2010-03-28T13:30:17Z</time>
      </trkpt>
      <trkpt lat="43.5564" lon="6.92309">
        <ele>181.37835693359</ele>
        <time>2010-03-28T13:30:20Z</time>
      </trkpt>
      <trkpt lat="43.55635" lon="6.92316">
        <ele>179.33770751953</ele>
        <time>2010-03-28T13:30:24Z</time>
      </trkpt>
      <trkpt lat="43.55634" lon="6.92318">
        <ele>178.99822998047</ele>
        <time>2010-03-28T13:30:32Z</time>
      </trkpt>
      <trkpt lat="43.55634" lon="6.92318">
        <ele>178.87431335449</ele>
        <time>2010-03-28T13:30:43Z</time>
      </trkpt>
      <trkpt lat="43.55633" lon="6.92318">
        <ele>178.74992370606</ele>
        <time>2010-03-28T13:30:45Z</time>
      </trkpt>
      <trkpt lat="43.5563" lon="6.92305">
        <ele>179.87022399902</ele>
        <time>2010-03-28T13:30:49Z</time>
      </trkpt>
      <trkpt lat="43.55629" lon="6.92283">
        <ele>182.46076965332</ele>
        <time>2010-03-28T13:30:52Z</time>
      </trkpt>
      <trkpt lat="43.55624" lon="6.92267">
        <ele>183.58688354492</ele>
        <time>2010-03-28T13:30:54Z</time>
      </trkpt>
      <trkpt lat="43.55606" lon="6.92262">
        <ele>180.7071685791</ele>
        <time>2010-03-28T13:30:58Z</time>
      </trkpt>
      <trkpt lat="43.55602" lon="6.92267">
        <ele>179.28100585938</ele>
        <time>2010-03-28T13:30:59Z</time>
      </trkpt>
      <trkpt lat="43.55594" lon="6.92278">
        <ele>176.11622619629</ele>
        <time>2010-03-28T13:31:01Z</time>
      </trkpt>
      <trkpt lat="43.5557" lon="6.92309">
        <ele>170.52401733398</ele>
        <time>2010-03-28T13:31:06Z</time>
      </trkpt>
      <trkpt lat="43.55566" lon="6.92314">
        <ele>169.95260620117</ele>
        <time>2010-03-28T13:31:07Z</time>
      </trkpt>
      <trkpt lat="43.5555" lon="6.92333">
        <ele>167.73205566406</ele>
        <time>2010-03-28T13:31:12Z</time>
      </trkpt>
      <trkpt lat="43.55543" lon="6.92344">
        <ele>166.29406738281</ele>
        <time>2010-03-28T13:31:16Z</time>
      </trkpt>
      <trkpt lat="43.55532" lon="6.92346">
        <ele>166.41995239258</ele>
        <time>2010-03-28T13:31:19Z</time>
      </trkpt>
      <trkpt lat="43.55517" lon="6.92337">
        <ele>168.46803283691</ele>
        <time>2010-03-28T13:31:23Z</time>
      </trkpt>
      <trkpt lat="43.55505" lon="6.9234">
        <ele>168.58224487305</ele>
        <time>2010-03-28T13:31:26Z</time>
      </trkpt>
      <trkpt lat="43.55487" lon="6.92344">
        <ele>169.17724609375</ele>
        <time>2010-03-28T13:31:31Z</time>
      </trkpt>
      <trkpt lat="43.55484" lon="6.92344">
        <ele>169.53924560547</ele>
        <time>2010-03-28T13:31:32Z</time>
      </trkpt>
      <trkpt lat="43.55468" lon="6.92332">
        <ele>173.33769226074</ele>
        <time>2010-03-28T13:31:38Z</time>
      </trkpt>
      <trkpt lat="43.55459" lon="6.92338">
        <ele>172.96896362305</ele>
        <time>2010-03-28T13:31:41Z</time>
      </trkpt>
      <trkpt lat="43.55448" lon="6.92351">
        <ele>171.73365783691</ele>
        <time>2010-03-28T13:31:46Z</time>
      </trkpt>
      <trkpt lat="43.55443" lon="6.92361">
        <ele>170.2939453125</ele>
        <time>2010-03-28T13:31:51Z</time>
      </trkpt>
      <trkpt lat="43.55441" lon="6.92366">
        <ele>169.63580322266</ele>
        <time>2010-03-28T13:31:56Z</time>
      </trkpt>
      <trkpt lat="43.55441" lon="6.92369">
        <ele>169.1142578125</ele>
        <time>2010-03-28T13:31:58Z</time>
      </trkpt>
      <trkpt lat="43.5544" lon="6.92372">
        <ele>168.5968170166</ele>
        <time>2010-03-28T13:31:59Z</time>
      </trkpt>
      <trkpt lat="43.55437" lon="6.92391">
        <ele>165.40888977051</ele>
        <time>2010-03-28T13:32:03Z</time>
      </trkpt>
      <trkpt lat="43.55426" lon="6.92414">
        <ele>162.4365234375</ele>
        <time>2010-03-28T13:32:07Z</time>
      </trkpt>
      <trkpt lat="43.55412" lon="6.92433">
        <ele>160.15864562988</ele>
        <time>2010-03-28T13:32:10Z</time>
      </trkpt>
      <trkpt lat="43.55389" lon="6.92477">
        <ele>153.56488037109</ele>
        <time>2010-03-28T13:32:15Z</time>
      </trkpt>
      <trkpt lat="43.55375" lon="6.92522">
        <ele>147.2412109375</ele>
        <time>2010-03-28T13:32:19Z</time>
      </trkpt>
      <trkpt lat="43.55368" lon="6.9254">
        <ele>145.16789245606</ele>
        <time>2010-03-28T13:32:21Z</time>
      </trkpt>
      <trkpt lat="43.55356" lon="6.9256">
        <ele>143.95335388184</ele>
        <time>2010-03-28T13:32:25Z</time>
      </trkpt>
      <trkpt lat="43.55341" lon="6.92588">
        <ele>142.75076293945</ele>
        <time>2010-03-28T13:32:31Z</time>
      </trkpt>
      <trkpt lat="43.55333" lon="6.92608">
        <ele>140.90080261231</ele>
        <time>2010-03-28T13:32:35Z</time>
      </trkpt>
      <trkpt lat="43.55326" lon="6.92622">
        <ele>139.32666015625</ele>
        <time>2010-03-28T13:32:39Z</time>
      </trkpt>
      <trkpt lat="43.55317" lon="6.92628">
        <ele>139.5080871582</ele>
        <time>2010-03-28T13:32:43Z</time>
      </trkpt>
      <trkpt lat="43.55318" lon="6.92638">
        <ele>137.63876342773</ele>
        <time>2010-03-28T13:32:47Z</time>
      </trkpt>
      <trkpt lat="43.55322" lon="6.92643">
        <ele>136.37432861328</ele>
        <time>2010-03-28T13:32:49Z</time>
      </trkpt>
      <trkpt lat="43.55327" lon="6.92648">
        <ele>134.98277282715</ele>
        <time>2010-03-28T13:32:51Z</time>
      </trkpt>
      <trkpt lat="43.55333" lon="6.92652">
        <ele>133.59466552734</ele>
        <time>2010-03-28T13:32:53Z</time>
      </trkpt>
      <trkpt lat="43.55337" lon="6.92653">
        <ele>132.16577148438</ele>
        <time>2010-03-28T13:32:55Z</time>
      </trkpt>
      <trkpt lat="43.55335" lon="6.92665">
        <ele>130.72029113769</ele>
        <time>2010-03-28T13:32:59Z</time>
      </trkpt>
      <trkpt lat="43.55333" lon="6.92672">
        <ele>130.48085021973</ele>
        <time>2010-03-28T13:33:02Z</time>
      </trkpt>
      <trkpt lat="43.55339" lon="6.92675">
        <ele>128.40357971191</ele>
        <time>2010-03-28T13:33:05Z</time>
      </trkpt>
      <trkpt lat="43.55339" lon="6.92678">
        <ele>128.00559997559</ele>
        <time>2010-03-28T13:33:06Z</time>
      </trkpt>
      <trkpt lat="43.55337" lon="6.92686">
        <ele>127.67992401123</ele>
        <time>2010-03-28T13:33:08Z</time>
      </trkpt>
      <trkpt lat="43.55344" lon="6.92693">
        <ele>124.76863861084</ele>
        <time>2010-03-28T13:33:12Z</time>
      </trkpt>
      <trkpt lat="43.55347" lon="6.92696">
        <ele>123.43662261963</ele>
        <time>2010-03-28T13:33:15Z</time>
      </trkpt>
      <trkpt lat="43.55342" lon="6.92707">
        <ele>123.42680358887</ele>
        <time>2010-03-28T13:33:19Z</time>
      </trkpt>
      <trkpt lat="43.5534" lon="6.92716">
        <ele>123.21867370606</ele>
        <time>2010-03-28T13:33:22Z</time>
      </trkpt>
      <trkpt lat="43.55337" lon="6.92718">
        <ele>123.71041870117</ele>
        <time>2010-03-28T13:33:24Z</time>
      </trkpt>
      <trkpt lat="43.55338" lon="6.92728">
        <ele>122.26370239258</ele>
        <time>2010-03-28T13:33:28Z</time>
      </trkpt>
      <trkpt lat="43.55348" lon="6.92732">
        <ele>118.79886627197</ele>
        <time>2010-03-28T13:33:32Z</time>
      </trkpt>
      <trkpt lat="43.55354" lon="6.92739">
        <ele>116.44879150391</ele>
        <time>2010-03-28T13:33:35Z</time>
      </trkpt>
      <trkpt lat="43.55358" lon="6.92745">
        <ele>114.54499053955</ele>
        <time>2010-03-28T13:33:37Z</time>
      </trkpt>
      <trkpt lat="43.55368" lon="6.92761">
        <ele>110.29870605469</ele>
        <time>2010-03-28T13:33:41Z</time>
      </trkpt>
      <trkpt lat="43.5537" lon="6.92772">
        <ele>109.00056457519</ele>
        <time>2010-03-28T13:33:43Z</time>
      </trkpt>
      <trkpt lat="43.55383" lon="6.92802">
        <ele>103.73709869385</ele>
        <time>2010-03-28T13:33:48Z</time>
      </trkpt>
      <trkpt lat="43.55387" lon="6.92823">
        <ele>101.31158447266</ele>
        <time>2010-03-28T13:33:52Z</time>
      </trkpt>
      <trkpt lat="43.55384" lon="6.92842">
        <ele>101.24712371826</ele>
        <time>2010-03-28T13:33:57Z</time>
      </trkpt>
      <trkpt lat="43.55387" lon="6.92882">
        <ele>98.098495483398</ele>
        <time>2010-03-28T13:34:03Z</time>
      </trkpt>
      <trkpt lat="43.55392" lon="6.92924">
        <ele>94.310760498047</ele>
        <time>2010-03-28T13:34:08Z</time>
      </trkpt>
      <trkpt lat="43.55391" lon="6.92952">
        <ele>93.391334533691</ele>
        <time>2010-03-28T13:34:12Z</time>
      </trkpt>
      <trkpt lat="43.55389" lon="6.92961">
        <ele>93.348693847656</ele>
        <time>2010-03-28T13:34:15Z</time>
      </trkpt>
      <trkpt lat="43.55388" lon="6.92975">
        <ele>92.879051208496</ele>
        <time>2010-03-28T13:34:21Z</time>
      </trkpt>
      <trkpt lat="43.55386" lon="6.9298">
        <ele>93.05005645752</ele>
        <time>2010-03-28T13:34:24Z</time>
      </trkpt>
      <trkpt lat="43.55387" lon="6.9299">
        <ele>92.338134765625</ele>
        <time>2010-03-28T13:34:28Z</time>
      </trkpt>
      <trkpt lat="43.55386" lon="6.92994">
        <ele>92.394493103027</ele>
        <time>2010-03-28T13:34:33Z</time>
      </trkpt>
      <trkpt lat="43.55383" lon="6.92994">
        <ele>93.207633972168</ele>
        <time>2010-03-28T13:34:43Z</time>
      </trkpt>
      <trkpt lat="43.55383" lon="6.92995">
        <ele>93.197547912598</ele>
        <time>2010-03-28T13:34:44Z</time>
      </trkpt>
      <trkpt lat="43.55384" lon="6.92998">
        <ele>92.83455657959</ele>
        <time>2010-03-28T13:34:50Z</time>
      </trkpt>
      <trkpt lat="43.55384" lon="6.92999">
        <ele>92.75154876709</ele>
        <time>2010-03-28T13:34:51Z</time>
      </trkpt>
      <trkpt lat="43.55384" lon="6.93012">
        <ele>91.659698486328</ele>
        <time>2010-03-28T13:34:56Z</time>
      </trkpt>
      <trkpt lat="43.55383" lon="6.93031">
        <ele>90.745315551758</ele>
        <time>2010-03-28T13:35:01Z</time>
      </trkpt>
      <trkpt lat="43.55384" lon="6.93045">
        <ele>89.259872436523</ele>
        <time>2010-03-28T13:35:04Z</time>
      </trkpt>
      <trkpt lat="43.55383" lon="6.93079">
        <ele>87.131271362305</ele>
        <time>2010-03-28T13:35:10Z</time>
      </trkpt>
      <trkpt lat="43.55381" lon="6.93088">
        <ele>86.621429443359</ele>
        <time>2010-03-28T13:35:13Z</time>
      </trkpt>
      <trkpt lat="43.55383" lon="6.93098">
        <ele>84.990325927734</ele>
        <time>2010-03-28T13:35:17Z</time>
      </trkpt>
      <trkpt lat="43.55384" lon="6.93118">
        <ele>81.983512878418</ele>
        <time>2010-03-28T13:35:22Z</time>
      </trkpt>
      <trkpt lat="43.55384" lon="6.93127">
        <ele>80.749099731445</ele>
        <time>2010-03-28T13:35:24Z</time>
      </trkpt>
      <trkpt lat="43.55386" lon="6.93134">
        <ele>79.529853820801</ele>
        <time>2010-03-28T13:35:26Z</time>
      </trkpt>
      <trkpt lat="43.55392" lon="6.93138">
        <ele>77.639175415039</ele>
        <time>2010-03-28T13:35:29Z</time>
      </trkpt>
      <trkpt lat="43.55403" lon="6.93138">
        <ele>75.426147460938</ele>
        <time>2010-03-28T13:35:33Z</time>
      </trkpt>
      <trkpt lat="43.55403" lon="6.93143">
        <ele>74.96312713623</ele>
        <time>2010-03-28T13:35:35Z</time>
      </trkpt>
      <trkpt lat="43.55405" lon="6.93149">
        <ele>73.772239685059</ele>
        <time>2010-03-28T13:35:38Z</time>
      </trkpt>
      <trkpt lat="43.55408" lon="6.93151">
        <ele>73.053359985352</ele>
        <time>2010-03-28T13:35:39Z</time>
      </trkpt>
      <trkpt lat="43.55423" lon="6.93164">
        <ele>69.323081970215</ele>
        <time>2010-03-28T13:35:44Z</time>
      </trkpt>
      <trkpt lat="43.55426" lon="6.93166">
        <ele>68.546485900879</ele>
        <time>2010-03-28T13:35:45Z</time>
      </trkpt>
      <trkpt lat="43.55426" lon="6.93182">
        <ele>66.155570983887</ele>
        <time>2010-03-28T13:35:49Z</time>
      </trkpt>
      <trkpt lat="43.55423" lon="6.93189">
        <ele>65.508728027344</ele>
        <time>2010-03-28T13:35:53Z</time>
      </trkpt>
      <trkpt lat="43.55429" lon="6.93196">
        <ele>63.495559692383</ele>
        <time>2010-03-28T13:35:55Z</time>
      </trkpt>
      <trkpt lat="43.55442" lon="6.93204">
        <ele>60.38614654541</ele>
        <time>2010-03-28T13:35:59Z</time>
      </trkpt>
      <trkpt lat="43.55444" lon="6.93205">
        <ele>59.838363647461</ele>
        <time>2010-03-28T13:36:00Z</time>
      </trkpt>
      <trkpt lat="43.55447" lon="6.93215">
        <ele>58.003993988037</ele>
        <time>2010-03-28T13:36:04Z</time>
      </trkpt>
      <trkpt lat="43.55449" lon="6.93221">
        <ele>56.759464263916</ele>
        <time>2010-03-28T13:36:07Z</time>
      </trkpt>
      <trkpt lat="43.55449" lon="6.93232">
        <ele>55.122379302979</ele>
        <time>2010-03-28T13:36:10Z</time>
      </trkpt>
      <trkpt lat="43.55449" lon="6.93248">
        <ele>52.555755615234</ele>
        <time>2010-03-28T13:36:14Z</time>
      </trkpt>
      <trkpt lat="43.55447" lon="6.93264">
        <ele>50.424045562744</ele>
        <time>2010-03-28T13:36:18Z</time>
      </trkpt>
      <trkpt lat="43.55453" lon="6.93273">
        <ele>48.292919158936</ele>
        <time>2010-03-28T13:36:21Z</time>
      </trkpt>
      <trkpt lat="43.55452" lon="6.9328">
        <ele>47.363471984863</ele>
        <time>2010-03-28T13:36:24Z</time>
      </trkpt>
      <trkpt lat="43.5545" lon="6.9328">
        <ele>47.53332901001</ele>
        <time>2010-03-28T13:36:28Z</time>
      </trkpt>
      <trkpt lat="43.55448" lon="6.93281">
        <ele>47.797760009766</ele>
        <time>2010-03-28T13:36:35Z</time>
      </trkpt>
      <trkpt lat="43.55446" lon="6.93286">
        <ele>47.279846191406</ele>
        <time>2010-03-28T13:36:39Z</time>
      </trkpt>
      <trkpt lat="43.55448" lon="6.93288">
        <ele>46.836822509766</ele>
        <time>2010-03-28T13:36:42Z</time>
      </trkpt>
      <trkpt lat="43.55454" lon="6.93296">
        <ele>44.68355178833</ele>
        <time>2010-03-28T13:36:48Z</time>
      </trkpt>
      <trkpt lat="43.55458" lon="6.933">
        <ele>43.439769744873</ele>
        <time>2010-03-28T13:36:51Z</time>
      </trkpt>
      <trkpt lat="43.55473" lon="6.93298">
        <ele>41.834045410156</ele>
        <time>2010-03-28T13:36:55Z</time>
      </trkpt>
      <trkpt lat="43.55486" lon="6.9328">
        <ele>42.696239471436</ele>
        <time>2010-03-28T13:36:59Z</time>
      </trkpt>
      <trkpt lat="43.55496" lon="6.93278">
        <ele>41.567897796631</ele>
        <time>2010-03-28T13:37:02Z</time>
      </trkpt>
      <trkpt lat="43.55503" lon="6.93286">
        <ele>40.12085723877</ele>
        <time>2010-03-28T13:37:05Z</time>
      </trkpt>
      <trkpt lat="43.55506" lon="6.9328">
        <ele>41.29626083374</ele>
        <time>2010-03-28T13:37:08Z</time>
      </trkpt>
      <trkpt lat="43.55503" lon="6.93255">
        <ele>44.642303466797</ele>
        <time>2010-03-28T13:37:12Z</time>
      </trkpt>
      <trkpt lat="43.55495" lon="6.9323">
        <ele>48.727657318115</ele>
        <time>2010-03-28T13:37:18Z</time>
      </trkpt>
      <trkpt lat="43.55497" lon="6.93204">
        <ele>51.956554412842</ele>
        <time>2010-03-28T13:37:23Z</time>
      </trkpt>
      <trkpt lat="43.55503" lon="6.93178">
        <ele>55.840412139893</ele>
        <time>2010-03-28T13:37:29Z</time>
      </trkpt>
      <trkpt lat="43.55498" lon="6.93152">
        <ele>59.320991516113</ele>
        <time>2010-03-28T13:37:34Z</time>
      </trkpt>
      <trkpt lat="43.55493" lon="6.9313">
        <ele>63.191184997559</ele>
        <time>2010-03-28T13:37:39Z</time>
      </trkpt>
      <trkpt lat="43.55488" lon="6.93109">
        <ele>66.800750732422</ele>
        <time>2010-03-28T13:37:45Z</time>
      </trkpt>
      <trkpt lat="43.55485" lon="6.93088">
        <ele>70.012641906738</ele>
        <time>2010-03-28T13:37:49Z</time>
      </trkpt>
      <trkpt lat="43.55482" lon="6.93068">
        <ele>72.864234924316</ele>
        <time>2010-03-28T13:37:53Z</time>
      </trkpt>
      <trkpt lat="43.55482" lon="6.93062">
        <ele>73.672653198242</ele>
        <time>2010-03-28T13:37:56Z</time>
      </trkpt>
      <trkpt lat="43.55482" lon="6.93062">
        <ele>73.577026367188</ele>
        <time>2010-03-28T13:37:57Z</time>
      </trkpt>
      <trkpt lat="43.55484" lon="6.93063">
        <ele>73.430694580078</ele>
        <time>2010-03-28T13:37:59Z</time>
      </trkpt>
      <trkpt lat="43.55485" lon="6.93063">
        <ele>73.339851379395</ele>
        <time>2010-03-28T13:38:00Z</time>
      </trkpt>
      <trkpt lat="43.55492" lon="6.93072">
        <ele>71.32787322998</ele>
        <time>2010-03-28T13:38:05Z</time>
      </trkpt>
      <trkpt lat="43.55499" lon="6.93088">
        <ele>68.450294494629</ele>
        <time>2010-03-28T13:38:08Z</time>
      </trkpt>
      <trkpt lat="43.55501" lon="6.93093">
        <ele>67.723617553711</ele>
        <time>2010-03-28T13:38:09Z</time>
      </trkpt>
      <trkpt lat="43.55503" lon="6.93099">
        <ele>67.434547424316</ele>
        <time>2010-03-28T13:38:10Z</time>
      </trkpt>
      <trkpt lat="43.5551" lon="6.9312">
        <ele>65.714294433594</ele>
        <time>2010-03-28T13:38:15Z</time>
      </trkpt>
      <trkpt lat="43.55513" lon="6.93138">
        <ele>63.568195343018</ele>
        <time>2010-03-28T13:38:19Z</time>
      </trkpt>
      <trkpt lat="43.55515" lon="6.93147">
        <ele>62.340484619141</ele>
        <time>2010-03-28T13:38:21Z</time>
      </trkpt>
      <trkpt lat="43.55523" lon="6.9316">
        <ele>61.735824584961</ele>
        <time>2010-03-28T13:38:25Z</time>
      </trkpt>
      <trkpt lat="43.55529" lon="6.93163">
        <ele>62.14559173584</ele>
        <time>2010-03-28T13:38:27Z</time>
      </trkpt>
      <trkpt lat="43.55531" lon="6.93164">
        <ele>62.310287475586</ele>
        <time>2010-03-28T13:38:28Z</time>
      </trkpt>
      <trkpt lat="43.55533" lon="6.93165">
        <ele>62.335300445557</ele>
        <time>2010-03-28T13:38:29Z</time>
      </trkpt>
      <trkpt lat="43.55532" lon="6.93178">
        <ele>60.31201171875</ele>
        <time>2010-03-28T13:38:33Z</time>
      </trkpt>
      <trkpt lat="43.55532" lon="6.93191">
        <ele>58.128837585449</ele>
        <time>2010-03-28T13:38:38Z</time>
      </trkpt>
      <trkpt lat="43.55532" lon="6.93197">
        <ele>57.128772735596</ele>
        <time>2010-03-28T13:38:41Z</time>
      </trkpt>
      <trkpt lat="43.55532" lon="6.93199">
        <ele>56.812961578369</ele>
        <time>2010-03-28T13:38:42Z</time>
      </trkpt>
      <trkpt lat="43.55532" lon="6.93217">
        <ele>54.133296966553</ele>
        <time>2010-03-28T13:38:48Z</time>
      </trkpt>
      <trkpt lat="43.55538" lon="6.93228">
        <ele>53.084651947021</ele>
        <time>2010-03-28T13:38:51Z</time>
      </trkpt>
      <trkpt lat="43.55543" lon="6.9324">
        <ele>51.830078125</ele>
        <time>2010-03-28T13:38:55Z</time>
      </trkpt>
      <trkpt lat="43.55544" lon="6.93242">
        <ele>51.591281890869</ele>
        <time>2010-03-28T13:38:56Z</time>
      </trkpt>
      <trkpt lat="43.55552" lon="6.93261">
        <ele>49.375080108643</ele>
        <time>2010-03-28T13:39:02Z</time>
      </trkpt>
      <trkpt lat="43.55558" lon="6.93272">
        <ele>48.397472381592</ele>
        <time>2010-03-28T13:39:06Z</time>
      </trkpt>
      <trkpt lat="43.55568" lon="6.9329">
        <ele>46.592063903809</ele>
        <time>2010-03-28T13:39:11Z</time>
      </trkpt>
      <trkpt lat="43.55573" lon="6.93301">
        <ele>45.283443450928</ele>
        <time>2010-03-28T13:39:14Z</time>
      </trkpt>
      <trkpt lat="43.55582" lon="6.9332">
        <ele>42.995525360107</ele>
        <time>2010-03-28T13:39:19Z</time>
      </trkpt>
      <trkpt lat="43.5558" lon="6.9334">
        <ele>39.942764282227</ele>
        <time>2010-03-28T13:39:24Z</time>
      </trkpt>
      <trkpt lat="43.55578" lon="6.93347">
        <ele>38.974842071533</ele>
        <time>2010-03-28T13:39:26Z</time>
      </trkpt>
      <trkpt lat="43.55562" lon="6.93372">
        <ele>34.73025894165</ele>
        <time>2010-03-28T13:39:31Z</time>
      </trkpt>
      <trkpt lat="43.5556" lon="6.93379">
        <ele>33.713924407959</ele>
        <time>2010-03-28T13:39:32Z</time>
      </trkpt>
      <trkpt lat="43.5556" lon="6.9341">
        <ele>30.213962554932</ele>
        <time>2010-03-28T13:39:38Z</time>
      </trkpt>
      <trkpt lat="43.5555" lon="6.93433">
        <ele>27.086483001709</ele>
        <time>2010-03-28T13:39:43Z</time>
      </trkpt>
      <trkpt lat="43.55551" lon="6.93438">
        <ele>26.849225997925</ele>
        <time>2010-03-28T13:39:44Z</time>
      </trkpt>
      <trkpt lat="43.55563" lon="6.93465">
        <ele>25.74847984314</ele>
        <time>2010-03-28T13:39:51Z</time>
      </trkpt>
      <trkpt lat="43.55571" lon="6.93482">
        <ele>24.895582199097</ele>
        <time>2010-03-28T13:39:57Z</time>
      </trkpt>
      <trkpt lat="43.55574" lon="6.9349">
        <ele>24.397087097168</ele>
        <time>2010-03-28T13:40:00Z</time>
      </trkpt>
      <trkpt lat="43.55575" lon="6.93491">
        <ele>24.274559020996</ele>
        <time>2010-03-28T13:40:11Z</time>
      </trkpt>
      <trkpt lat="43.55571" lon="6.93493">
        <ele>23.89107131958</ele>
        <time>2010-03-28T13:40:40Z</time>
      </trkpt>
      <trkpt lat="43.55573" lon="6.93489">
        <ele>24.382665634155</ele>
        <time>2010-03-28T13:41:08Z</time>
      </trkpt>
      <trkpt lat="43.55571" lon="6.9349">
        <ele>24.137210845947</ele>
        <time>2010-03-28T13:41:23Z</time>
      </trkpt>
      <trkpt lat="43.55574" lon="6.93489">
        <ele>24.488075256348</ele>
        <time>2010-03-28T13:41:50Z</time>
      </trkpt>
      <trkpt lat="43.55575" lon="6.93489">
        <ele>24.526466369629</ele>
        <time>2010-03-28T13:42:15Z</time>
      </trkpt>
      <trkpt lat="43.55576" lon="6.93487">
        <ele>24.721271514893</ele>
        <time>2010-03-28T13:42:37Z</time>
      </trkpt>
      <trkpt lat="43.55576" lon="6.93488">
        <ele>24.620145797729</ele>
        <time>2010-03-28T13:42:38Z</time>
      </trkpt>
      <trkpt lat="43.55586" lon="6.93502">
        <ele>24.652523040771</ele>
        <time>2010-03-28T13:42:44Z</time>
      </trkpt>
      <trkpt lat="43.55593" lon="6.93506">
        <ele>26.723945617676</ele>
        <time>2010-03-28T13:42:47Z</time>
      </trkpt>
      <trkpt lat="43.55606" lon="6.93505">
        <ele>30.529811859131</ele>
        <time>2010-03-28T13:42:51Z</time>
      </trkpt>
      <trkpt lat="43.55616" lon="6.93524">
        <ele>32.212966918945</ele>
        <time>2010-03-28T13:42:55Z</time>
      </trkpt>
      <trkpt lat="43.55604" lon="6.9354">
        <ele>27.831325531006</ele>
        <time>2010-03-28T13:42:58Z</time>
      </trkpt>
      <trkpt lat="43.55594" lon="6.93556">
        <ele>24.226823806763</ele>
        <time>2010-03-28T13:43:00Z</time>
      </trkpt>
      <trkpt lat="43.55569" lon="6.93632">
        <ele>18.583847045898</ele>
        <time>2010-03-28T13:43:07Z</time>
      </trkpt>
      <trkpt lat="43.55566" lon="6.93645">
        <ele>18.26070022583</ele>
        <time>2010-03-28T13:43:08Z</time>
      </trkpt>
      <trkpt lat="43.5554" lon="6.93682">
        <ele>17.206890106201</ele>
        <time>2010-03-28T13:43:12Z</time>
      </trkpt>
      <trkpt lat="43.55524" lon="6.93698">
        <ele>16.654613494873</ele>
        <time>2010-03-28T13:43:14Z</time>
      </trkpt>
      <trkpt lat="43.555" lon="6.93742">
        <ele>15.195964813232</ele>
        <time>2010-03-28T13:43:18Z</time>
      </trkpt>
      <trkpt lat="43.55492" lon="6.93765">
        <ele>14.901381492615</ele>
        <time>2010-03-28T13:43:20Z</time>
      </trkpt>
      <trkpt lat="43.55491" lon="6.93787">
        <ele>14.618750572205</ele>
        <time>2010-03-28T13:43:22Z</time>
      </trkpt>
      <trkpt lat="43.55502" lon="6.938">
        <ele>14.439891815186</ele>
        <time>2010-03-28T13:43:24Z</time>
      </trkpt>
      <trkpt lat="43.5551" lon="6.93803">
        <ele>14.519634246826</ele>
        <time>2010-03-28T13:43:25Z</time>
      </trkpt>
      <trkpt lat="43.5554" lon="6.93814">
        <ele>14.818832397461</ele>
        <time>2010-03-28T13:43:29Z</time>
      </trkpt>
      <trkpt lat="43.55569" lon="6.93836">
        <ele>14.796089172363</ele>
        <time>2010-03-28T13:43:33Z</time>
      </trkpt>
      <trkpt lat="43.55596" lon="6.93847">
        <ele>15.262351989746</ele>
        <time>2010-03-28T13:43:36Z</time>
      </trkpt>
      <trkpt lat="43.55621" lon="6.93844">
        <ele>16.163213729858</ele>
        <time>2010-03-28T13:43:39Z</time>
      </trkpt>
      <trkpt lat="43.55633" lon="6.9385">
        <ele>16.473516464233</ele>
        <time>2010-03-28T13:43:42Z</time>
      </trkpt>
      <trkpt lat="43.55621" lon="6.93861">
        <ele>15.867424011231</ele>
        <time>2010-03-28T13:43:44Z</time>
      </trkpt>
      <trkpt lat="43.55619" lon="6.93864">
        <ele>15.762296676636</ele>
        <time>2010-03-28T13:43:45Z</time>
      </trkpt>
      <trkpt lat="43.55611" lon="6.93871">
        <ele>15.401836395264</ele>
        <time>2010-03-28T13:43:47Z</time>
      </trkpt>
      <trkpt lat="43.55597" lon="6.93903">
        <ele>14.52133846283</ele>
        <time>2010-03-28T13:43:52Z</time>
      </trkpt>
      <trkpt lat="43.55588" lon="6.93937">
        <ele>13.852275848389</ele>
        <time>2010-03-28T13:43:57Z</time>
      </trkpt>
      <trkpt lat="43.55584" lon="6.93947">
        <ele>13.657633781433</ele>
        <time>2010-03-28T13:44:00Z</time>
      </trkpt>
      <trkpt lat="43.55585" lon="6.93947">
        <ele>13.66338634491</ele>
        <time>2010-03-28T13:44:01Z</time>
      </trkpt>
      <trkpt lat="43.55586" lon="6.93947">
        <ele>13.697491645813</ele>
        <time>2010-03-28T13:44:09Z</time>
      </trkpt>
      <trkpt lat="43.55587" lon="6.93957">
        <ele>13.570575714111</ele>
        <time>2010-03-28T13:44:13Z</time>
      </trkpt>
      <trkpt lat="43.55582" lon="6.9398">
        <ele>13.224243164062</ele>
        <time>2010-03-28T13:44:17Z</time>
      </trkpt>
      <trkpt lat="43.55573" lon="6.94022">
        <ele>12.343551635742</ele>
        <time>2010-03-28T13:44:23Z</time>
      </trkpt>
      <trkpt lat="43.55571" lon="6.94029">
        <ele>12.159301757812</ele>
        <time>2010-03-28T13:44:24Z</time>
      </trkpt>
      <trkpt lat="43.55561" lon="6.94046">
        <ele>11.621429443359</ele>
        <time>2010-03-28T13:44:27Z</time>
      </trkpt>
      <trkpt lat="43.55551" lon="6.94074">
        <ele>10.830642700195</ele>
        <time>2010-03-28T13:44:31Z</time>
      </trkpt>
      <trkpt lat="43.5554" lon="6.94103">
        <ele>10.243270874023</ele>
        <time>2010-03-28T13:44:35Z</time>
      </trkpt>
      <trkpt lat="43.55533" lon="6.94115">
        <ele>10.016677856445</ele>
        <time>2010-03-28T13:44:37Z</time>
      </trkpt>
      <trkpt lat="43.55534" lon="6.94138">
        <ele>9.7477416992188</ele>
        <time>2010-03-28T13:44:40Z</time>
      </trkpt>
      <trkpt lat="43.55537" lon="6.94142">
        <ele>9.7431640625</ele>
        <time>2010-03-28T13:44:41Z</time>
      </trkpt>
      <trkpt lat="43.55535" lon="6.94168">
        <ele>9.3923349380493</ele>
        <time>2010-03-28T13:44:45Z</time>
      </trkpt>
      <trkpt lat="43.5553" lon="6.94207">
        <ele>8.7066316604614</ele>
        <time>2010-03-28T13:44:50Z</time>
      </trkpt>
      <trkpt lat="43.55529" lon="6.94221">
        <ele>8.4695920944214</ele>
        <time>2010-03-28T13:44:52Z</time>
      </trkpt>
      <trkpt lat="43.55526" lon="6.94241">
        <ele>8.1461734771728</ele>
        <time>2010-03-28T13:44:55Z</time>
      </trkpt>
      <trkpt lat="43.55524" lon="6.94254">
        <ele>7.9512252807617</ele>
        <time>2010-03-28T13:44:57Z</time>
      </trkpt>
      <trkpt lat="43.55523" lon="6.94261">
        <ele>7.8688278198242</ele>
        <time>2010-03-28T13:44:58Z</time>
      </trkpt>
      <trkpt lat="43.55516" lon="6.9431">
        <ele>7.2846069335938</ele>
        <time>2010-03-28T13:45:05Z</time>
      </trkpt>
      <trkpt lat="43.55507" lon="6.94356">
        <ele>6.4476928710938</ele>
        <time>2010-03-28T13:45:12Z</time>
      </trkpt>
      <trkpt lat="43.55503" lon="6.94368">
        <ele>6.1615905761719</ele>
        <time>2010-03-28T13:45:14Z</time>
      </trkpt>
      <trkpt lat="43.55494" lon="6.94379">
        <ele>5.8679857254028</ele>
        <time>2010-03-28T13:45:18Z</time>
      </trkpt>
      <trkpt lat="43.55464" lon="6.94374">
        <ele>5.7986898422241</ele>
        <time>2010-03-28T13:45:26Z</time>
      </trkpt>
      <trkpt lat="43.55447" lon="6.94371">
        <ele>5.7429146766663</ele>
        <time>2010-03-28T13:45:30Z</time>
      </trkpt>
      <trkpt lat="43.55438" lon="6.9437">
        <ele>5.7054748535156</ele>
        <time>2010-03-28T13:45:32Z</time>
      </trkpt>
      <trkpt lat="43.55434" lon="6.94369">
        <ele>5.6935558319092</ele>
        <time>2010-03-28T13:45:33Z</time>
      </trkpt>
      <trkpt lat="43.55426" lon="6.94362">
        <ele>5.7285656929016</ele>
        <time>2010-03-28T13:45:37Z</time>
      </trkpt>
      <trkpt lat="43.55429" lon="6.94353">
        <ele>5.8695850372314</ele>
        <time>2010-03-28T13:45:41Z</time>
      </trkpt>
      <trkpt lat="43.55432" lon="6.94346">
        <ele>6.0012912750244</ele>
        <time>2010-03-28T13:45:45Z</time>
      </trkpt>
      <trkpt lat="43.55434" lon="6.94335">
        <ele>6.1827692985535</ele>
        <time>2010-03-28T13:45:48Z</time>
      </trkpt>
      <trkpt lat="43.55437" lon="6.94315">
        <ele>6.618420124054</ele>
        <time>2010-03-28T13:45:52Z</time>
      </trkpt>
      <trkpt lat="43.55437" lon="6.94311">
        <ele>6.7207579612732</ele>
        <time>2010-03-28T13:45:53Z</time>
      </trkpt>
      <trkpt lat="43.55442" lon="6.94281">
        <ele>7.3723397254944</ele>
        <time>2010-03-28T13:45:59Z</time>
      </trkpt>
      <trkpt lat="43.55446" lon="6.94247">
        <ele>8.0324783325195</ele>
        <time>2010-03-28T13:46:05Z</time>
      </trkpt>
      <trkpt lat="43.5545" lon="6.94221">
        <ele>8.3431854248047</ele>
        <time>2010-03-28T13:46:10Z</time>
      </trkpt>
      <trkpt lat="43.55454" lon="6.94208">
        <ele>8.5091247558594</ele>
        <time>2010-03-28T13:46:13Z</time>
      </trkpt>
      <trkpt lat="43.55457" lon="6.94182">
        <ele>8.8163986206055</ele>
        <time>2010-03-28T13:46:18Z</time>
      </trkpt>
      <trkpt lat="43.55456" lon="6.94164">
        <ele>9.0321197509766</ele>
        <time>2010-03-28T13:46:21Z</time>
      </trkpt>
      <trkpt lat="43.55446" lon="6.94149">
        <ele>9.210075378418</ele>
        <time>2010-03-28T13:46:25Z</time>
      </trkpt>
      <trkpt lat="43.55441" lon="6.94155">
        <ele>9.1414108276367</ele>
        <time>2010-03-28T13:46:27Z</time>
      </trkpt>
      <trkpt lat="43.5544" lon="6.94163">
        <ele>9.0458526611328</ele>
        <time>2010-03-28T13:46:29Z</time>
      </trkpt>
      <trkpt lat="43.55435" lon="6.94191">
        <ele>8.7071075439453</ele>
        <time>2010-03-28T13:46:35Z</time>
      </trkpt>
      <trkpt lat="43.55429" lon="6.94224">
        <ele>8.3088531494141</ele>
        <time>2010-03-28T13:46:41Z</time>
      </trkpt>
      <trkpt lat="43.55423" lon="6.94269">
        <ele>7.5692048072815</ele>
        <time>2010-03-28T13:46:48Z</time>
      </trkpt>
      <trkpt lat="43.55421" lon="6.9428">
        <ele>7.3027725219727</ele>
        <time>2010-03-28T13:46:50Z</time>
      </trkpt>
      <trkpt lat="43.5542" lon="6.94286">
        <ele>7.1635112762451</ele>
        <time>2010-03-28T13:46:51Z</time>
      </trkpt>
      <trkpt lat="43.55415" lon="6.94316">
        <ele>6.4022827148438</ele>
        <time>2010-03-28T13:46:56Z</time>
      </trkpt>
      <trkpt lat="43.55411" lon="6.94338">
        <ele>5.8788938522339</ele>
        <time>2010-03-28T13:47:00Z</time>
      </trkpt>
      <trkpt lat="43.55402" lon="6.94351">
        <ele>5.6468315124512</ele>
        <time>2010-03-28T13:47:05Z</time>
      </trkpt>
      <trkpt lat="43.55399" lon="6.9435">
        <ele>5.6257400512695</ele>
        <time>2010-03-28T13:47:06Z</time>
      </trkpt>
      <trkpt lat="43.55378" lon="6.94348">
        <ele>5.4427933692932</ele>
        <time>2010-03-28T13:47:11Z</time>
      </trkpt>
      <trkpt lat="43.55353" lon="6.94341">
        <ele>5.2154245376587</ele>
        <time>2010-03-28T13:47:17Z</time>
      </trkpt>
      <trkpt lat="43.55342" lon="6.9434">
        <ele>5.0972399711609</ele>
        <time>2010-03-28T13:47:20Z</time>
      </trkpt>
      <trkpt lat="43.55315" lon="6.94336">
        <ele>4.775634765625</ele>
        <time>2010-03-28T13:47:27Z</time>
      </trkpt>
      <trkpt lat="43.55302" lon="6.94337">
        <ele>4.6199951171875</ele>
        <time>2010-03-28T13:47:30Z</time>
      </trkpt>
      <trkpt lat="43.55283" lon="6.94333">
        <ele>4.4075775146484</ele>
        <time>2010-03-28T13:47:35Z</time>
      </trkpt>
      <trkpt lat="43.55252" lon="6.94322">
        <ele>4.2965698242188</ele>
        <time>2010-03-28T13:47:42Z</time>
      </trkpt>
      <trkpt lat="43.55211" lon="6.94315">
        <ele>4.4307403564453</ele>
        <time>2010-03-28T13:47:51Z</time>
      </trkpt>
      <trkpt lat="43.5518" lon="6.94308">
        <ele>4.6046905517578</ele>
        <time>2010-03-28T13:47:58Z</time>
      </trkpt>
      <trkpt lat="43.55163" lon="6.94304">
        <ele>4.6857271194458</ele>
        <time>2010-03-28T13:48:02Z</time>
      </trkpt>
      <trkpt lat="43.5514" lon="6.94298">
        <ele>4.7055778503418</ele>
        <time>2010-03-28T13:48:08Z</time>
      </trkpt>
      <trkpt lat="43.55123" lon="6.94292">
        <ele>4.737624168396</ele>
        <time>2010-03-28T13:48:14Z</time>
      </trkpt>
      <trkpt lat="43.55119" lon="6.94289">
        <ele>4.7484655380249</ele>
        <time>2010-03-28T13:48:16Z</time>
      </trkpt>
      <trkpt lat="43.55114" lon="6.94292">
        <ele>4.6835651397705</ele>
        <time>2010-03-28T13:48:21Z</time>
      </trkpt>
      <trkpt lat="43.55111" lon="6.94299">
        <ele>4.5437302589417</ele>
        <time>2010-03-28T13:48:28Z</time>
      </trkpt>
      <trkpt lat="43.5511" lon="6.94307">
        <ele>4.4155926704407</ele>
        <time>2010-03-28T13:48:31Z</time>
      </trkpt>
      <trkpt lat="43.55106" lon="6.9432">
        <ele>4.2113313674927</ele>
        <time>2010-03-28T13:48:36Z</time>
      </trkpt>
      <trkpt lat="43.55106" lon="6.94322">
        <ele>4.1698246002197</ele>
        <time>2010-03-28T13:48:37Z</time>
      </trkpt>
      <trkpt lat="43.55103" lon="6.94339">
        <ele>4</ele>
        <time>2010-03-28T13:48:42Z</time>
      </trkpt>
      <trkpt lat="43.55103" lon="6.94344">
        <ele>4</ele>
        <time>2010-03-28T13:48:44Z</time>
      </trkpt>
      <trkpt lat="43.55098" lon="6.94345">
        <ele>4</ele>
        <time>2010-03-28T13:48:48Z</time>
      </trkpt>
      <trkpt lat="43.55079" lon="6.94339">
        <ele>4</ele>
        <time>2010-03-28T13:48:54Z</time>
      </trkpt>
      <trkpt lat="43.5506" lon="6.94334">
        <ele>4</ele>
        <time>2010-03-28T13:49:00Z</time>
      </trkpt>
      <trkpt lat="43.55038" lon="6.94329">
        <ele>4.0477142333984</ele>
        <time>2010-03-28T13:49:06Z</time>
      </trkpt>
      <trkpt lat="43.55012" lon="6.94328">
        <ele>4.0688858032227</ele>
        <time>2010-03-28T13:49:13Z</time>
      </trkpt>
      <trkpt lat="43.54998" lon="6.94335">
        <ele>4</ele>
        <time>2010-03-28T13:49:17Z</time>
      </trkpt>
      <trkpt lat="43.54982" lon="6.9434">
        <ele>4</ele>
        <time>2010-03-28T13:49:22Z</time>
      </trkpt>
      <trkpt lat="43.54969" lon="6.94346">
        <ele>4</ele>
        <time>2010-03-28T13:49:27Z</time>
      </trkpt>
      <trkpt lat="43.54958" lon="6.94345">
        <ele>4</ele>
        <time>2010-03-28T13:49:31Z</time>
      </trkpt>
      <trkpt lat="43.54943" lon="6.94347">
        <ele>4</ele>
        <time>2010-03-28T13:49:36Z</time>
      </trkpt>
      <trkpt lat="43.54929" lon="6.9436">
        <ele>4</ele>
        <time>2010-03-28T13:49:39Z</time>
      </trkpt>
      <trkpt lat="43.54914" lon="6.94364">
        <ele>3.9691162109375</ele>
        <time>2010-03-28T13:49:43Z</time>
      </trkpt>
      <trkpt lat="43.54882" lon="6.9436">
        <ele>3.5891723632812</ele>
        <time>2010-03-28T13:49:51Z</time>
      </trkpt>
      <trkpt lat="43.54862" lon="6.94355">
        <ele>3.3465576171875</ele>
        <time>2010-03-28T13:49:55Z</time>
      </trkpt>
      <trkpt lat="43.54842" lon="6.9435">
        <ele>3.099365234375</ele>
        <time>2010-03-28T13:49:59Z</time>
      </trkpt>
      <trkpt lat="43.54817" lon="6.94338">
        <ele>3</ele>
        <time>2010-03-28T13:50:04Z</time>
      </trkpt>
      <trkpt lat="43.54787" lon="6.94312">
        <ele>3.5005493164062</ele>
        <time>2010-03-28T13:50:11Z</time>
      </trkpt>
      <trkpt lat="43.54766" lon="6.9431">
        <ele>3.5577697753906</ele>
        <time>2010-03-28T13:50:15Z</time>
      </trkpt>
      <trkpt lat="43.54753" lon="6.94312">
        <ele>3.5028381347656</ele>
        <time>2010-03-28T13:50:18Z</time>
      </trkpt>
      <trkpt lat="43.54731" lon="6.94346">
        <ele>3.189975976944</ele>
        <time>2010-03-28T13:50:23Z</time>
      </trkpt>
      <trkpt lat="43.54724" lon="6.94355">
        <ele>3.2324292659759</ele>
        <time>2010-03-28T13:50:26Z</time>
      </trkpt>
      <trkpt lat="43.54715" lon="6.94358">
        <ele>3.3015463352203</ele>
        <time>2010-03-28T13:50:28Z</time>
      </trkpt>
      <trkpt lat="43.54679" lon="6.94384">
        <ele>3.3368575572967</ele>
        <time>2010-03-28T13:50:36Z</time>
      </trkpt>
      <trkpt lat="43.5465" lon="6.94409">
        <ele>3.1053447723389</ele>
        <time>2010-03-28T13:50:43Z</time>
      </trkpt>
      <trkpt lat="43.54639" lon="6.94419">
        <ele>3</ele>
        <time>2010-03-28T13:50:46Z</time>
      </trkpt>
      <trkpt lat="43.54623" lon="6.94433">
        <ele>3</ele>
        <time>2010-03-28T13:50:50Z</time>
      </trkpt>
      <trkpt lat="43.54588" lon="6.94461">
        <ele>3</ele>
        <time>2010-03-28T13:50:58Z</time>
      </trkpt>
      <trkpt lat="43.54558" lon="6.94486">
        <ele>3.0517485141754</ele>
        <time>2010-03-28T13:51:05Z</time>
      </trkpt>
      <trkpt lat="43.54542" lon="6.94497">
        <ele>3.0190145969391</ele>
        <time>2010-03-28T13:51:09Z</time>
      </trkpt>
      <trkpt lat="43.54525" lon="6.94511">
        <ele>3</ele>
        <time>2010-03-28T13:51:13Z</time>
      </trkpt>
      <trkpt lat="43.54493" lon="6.94533">
        <ele>2.9645192623138</ele>
        <time>2010-03-28T13:51:21Z</time>
      </trkpt>
      <trkpt lat="43.54476" lon="6.94548">
        <ele>2.8336658477783</ele>
        <time>2010-03-28T13:51:25Z</time>
      </trkpt>
      <trkpt lat="43.5447" lon="6.94563">
        <ele>2.726728439331</ele>
        <time>2010-03-28T13:51:30Z</time>
      </trkpt>
      <trkpt lat="43.5447" lon="6.94568">
        <ele>2.7095100879669</ele>
        <time>2010-03-28T13:51:31Z</time>
      </trkpt>
      <trkpt lat="43.54473" lon="6.94582">
        <ele>2.6811096668243</ele>
        <time>2010-03-28T13:51:34Z</time>
      </trkpt>
      <trkpt lat="43.54478" lon="6.94602">
        <ele>2.741455078125</ele>
        <time>2010-03-28T13:51:38Z</time>
      </trkpt>
      <trkpt lat="43.54481" lon="6.94621">
        <ele>2.7734985351562</ele>
        <time>2010-03-28T13:51:42Z</time>
      </trkpt>
      <trkpt lat="43.54479" lon="6.94657">
        <ele>2.7506103515625</ele>
        <time>2010-03-28T13:51:49Z</time>
      </trkpt>
      <trkpt lat="43.54472" lon="6.94687">
        <ele>2.6590576171875</ele>
        <time>2010-03-28T13:51:55Z</time>
      </trkpt>
      <trkpt lat="43.54472" lon="6.94697">
        <ele>2.6590576171875</ele>
        <time>2010-03-28T13:51:57Z</time>
      </trkpt>
      <trkpt lat="43.54482" lon="6.94708">
        <ele>2.7872314453125</ele>
        <time>2010-03-28T13:52:01Z</time>
      </trkpt>
      <trkpt lat="43.54494" lon="6.94717">
        <ele>2.924560546875</ele>
        <time>2010-03-28T13:52:05Z</time>
      </trkpt>
      <trkpt lat="43.54503" lon="6.94723">
        <ele>3</ele>
        <time>2010-03-28T13:52:08Z</time>
      </trkpt>
      <trkpt lat="43.5451" lon="6.94725">
        <ele>3</ele>
        <time>2010-03-28T13:52:10Z</time>
      </trkpt>
      <trkpt lat="43.54514" lon="6.94726">
        <ele>3</ele>
        <time>2010-03-28T13:52:11Z</time>
      </trkpt>
      <trkpt lat="43.54533" lon="6.94727">
        <ele>3</ele>
        <time>2010-03-28T13:52:16Z</time>
      </trkpt>
      <trkpt lat="43.54556" lon="6.94728">
        <ele>3</ele>
        <time>2010-03-28T13:52:22Z</time>
      </trkpt>
      <trkpt lat="43.54568" lon="6.94725">
        <ele>3</ele>
        <time>2010-03-28T13:52:26Z</time>
      </trkpt>
      <trkpt lat="43.54579" lon="6.94729">
        <ele>3</ele>
        <time>2010-03-28T13:52:31Z</time>
      </trkpt>
      <trkpt lat="43.54581" lon="6.94732">
        <ele>3</ele>
        <time>2010-03-28T13:52:33Z</time>
      </trkpt>
      <trkpt lat="43.54582" lon="6.94733">
        <ele>3</ele>
        <time>2010-03-28T13:52:34Z</time>
      </trkpt>
      <trkpt lat="43.54583" lon="6.94734">
        <ele>3.0002458095551</ele>
        <time>2010-03-28T13:52:35Z</time>
      </trkpt>
      <trkpt lat="43.54586" lon="6.94736">
        <ele>3.0231544971466</ele>
        <time>2010-03-28T13:52:41Z</time>
      </trkpt>
      <trkpt lat="43.54588" lon="6.94739">
        <ele>3.0480139255524</ele>
        <time>2010-03-28T13:52:47Z</time>
      </trkpt>
      <trkpt lat="43.54588" lon="6.94744">
        <ele>3.0510165691376</ele>
        <time>2010-03-28T13:52:53Z</time>
      </trkpt>
      <trkpt lat="43.54588" lon="6.94747">
        <ele>3.0486149787903</ele>
        <time>2010-03-28T13:52:56Z</time>
      </trkpt>
      <trkpt lat="43.54588" lon="6.94762">
        <ele>3.1883537769318</ele>
        <time>2010-03-28T13:53:01Z</time>
      </trkpt>
      <trkpt lat="43.54586" lon="6.94793">
        <ele>3.526495218277</ele>
        <time>2010-03-28T13:53:08Z</time>
      </trkpt>
      <trkpt lat="43.54583" lon="6.94823">
        <ele>3.877703666687</ele>
        <time>2010-03-28T13:53:14Z</time>
      </trkpt>
      <trkpt lat="43.54581" lon="6.94859">
        <ele>3.9728393554688</ele>
        <time>2010-03-28T13:53:21Z</time>
      </trkpt>
      <trkpt lat="43.5458" lon="6.94894">
        <ele>3.9545288085938</ele>
        <time>2010-03-28T13:53:27Z</time>
      </trkpt>
      <trkpt lat="43.54577" lon="6.94935">
        <ele>3.9270629882812</ele>
        <time>2010-03-28T13:53:34Z</time>
      </trkpt>
      <trkpt lat="43.54577" lon="6.9494">
        <ele>3.9224853515625</ele>
        <time>2010-03-28T13:53:35Z</time>
      </trkpt>
      <trkpt lat="43.54576" lon="6.94947">
        <ele>3.9087524414062</ele>
        <time>2010-03-28T13:53:39Z</time>
      </trkpt>
      <trkpt lat="43.54572" lon="6.94948">
        <ele>3.8675537109375</ele>
        <time>2010-03-28T13:53:52Z</time>
      </trkpt>
      <trkpt lat="43.54552" lon="6.9495">
        <ele>3.6295166015625</ele>
        <time>2010-03-28T13:53:58Z</time>
      </trkpt>
      <trkpt lat="43.5452" lon="6.94946">
        <ele>3.2449951171875</ele>
        <time>2010-03-28T13:54:05Z</time>
      </trkpt>
      <trkpt lat="43.5449" lon="6.94928">
        <ele>2.899795293808</ele>
        <time>2010-03-28T13:54:12Z</time>
      </trkpt>
      <trkpt lat="43.54486" lon="6.94926">
        <ele>2.848283290863</ele>
        <time>2010-03-28T13:54:13Z</time>
      </trkpt>
      <trkpt lat="43.54445" lon="6.94903">
        <ele>2.3432006835938</ele>
        <time>2010-03-28T13:54:22Z</time>
      </trkpt>
      <trkpt lat="43.54404" lon="6.94879">
        <ele>2</ele>
        <time>2010-03-28T13:54:30Z</time>
      </trkpt>
      <trkpt lat="43.54373" lon="6.9486">
        <ele>2</ele>
        <time>2010-03-28T13:54:36Z</time>
      </trkpt>
      <trkpt lat="43.54351" lon="6.94851">
        <ele>2</ele>
        <time>2010-03-28T13:54:40Z</time>
      </trkpt>
      <trkpt lat="43.54345" lon="6.9485">
        <ele>2</ele>
        <time>2010-03-28T13:54:41Z</time>
      </trkpt>
      <trkpt lat="43.54327" lon="6.94843">
        <ele>2</ele>
        <time>2010-03-28T13:54:44Z</time>
      </trkpt>
      <trkpt lat="43.54316" lon="6.94836">
        <ele>2</ele>
        <time>2010-03-28T13:54:46Z</time>
      </trkpt>
      <trkpt lat="43.54278" lon="6.94802">
        <ele>2</ele>
        <time>2010-03-28T13:54:54Z</time>
      </trkpt>
      <trkpt lat="43.54268" lon="6.94794">
        <ele>2</ele>
        <time>2010-03-28T13:54:56Z</time>
      </trkpt>
      <trkpt lat="43.54259" lon="6.94786">
        <ele>2</ele>
        <time>2010-03-28T13:54:58Z</time>
      </trkpt>
      <trkpt lat="43.54222" lon="6.94763">
        <ele>2</ele>
        <time>2010-03-28T13:55:05Z</time>
      </trkpt>
      <trkpt lat="43.54217" lon="6.9476">
        <ele>2</ele>
        <time>2010-03-28T13:55:06Z</time>
      </trkpt>
      <trkpt lat="43.54177" lon="6.94743">
        <ele>2</ele>
        <time>2010-03-28T13:55:13Z</time>
      </trkpt>
      <trkpt lat="43.54126" lon="6.94723">
        <ele>2</ele>
        <time>2010-03-28T13:55:22Z</time>
      </trkpt>
      <trkpt lat="43.54097" lon="6.94713">
        <ele>2</ele>
        <time>2010-03-28T13:55:27Z</time>
      </trkpt>
      <trkpt lat="43.54038" lon="6.94695">
        <ele>1.4588623046875</ele>
        <time>2010-03-28T13:55:37Z</time>
      </trkpt>
      <trkpt lat="43.53994" lon="6.94688">
        <ele>1</ele>
        <time>2010-03-28T13:55:44Z</time>
      </trkpt>
      <trkpt lat="43.5395" lon="6.94679">
        <ele>1</ele>
        <time>2010-03-28T13:55:51Z</time>
      </trkpt>
      <trkpt lat="43.53898" lon="6.94676">
        <ele>1</ele>
        <time>2010-03-28T13:55:59Z</time>
      </trkpt>
      <trkpt lat="43.53861" lon="6.9469">
        <ele>1</ele>
        <time>2010-03-28T13:56:05Z</time>
      </trkpt>
      <trkpt lat="43.53833" lon="6.94704">
        <ele>1</ele>
        <time>2010-03-28T13:56:10Z</time>
      </trkpt>
      <trkpt lat="43.53827" lon="6.94707">
        <ele>1</ele>
        <time>2010-03-28T13:56:11Z</time>
      </trkpt>
      <trkpt lat="43.53821" lon="6.94711">
        <ele>1</ele>
        <time>2010-03-28T13:56:12Z</time>
      </trkpt>
      <trkpt lat="43.5379" lon="6.94718">
        <ele>1</ele>
        <time>2010-03-28T13:56:17Z</time>
      </trkpt>
      <trkpt lat="43.53761" lon="6.94726">
        <ele>1</ele>
        <time>2010-03-28T13:56:22Z</time>
      </trkpt>
      <trkpt lat="43.53755" lon="6.94725">
        <ele>1</ele>
        <time>2010-03-28T13:56:23Z</time>
      </trkpt>
      <trkpt lat="43.53736" lon="6.94723">
        <ele>1</ele>
        <time>2010-03-28T13:56:26Z</time>
      </trkpt>
      <trkpt lat="43.53718" lon="6.9471">
        <ele>1</ele>
        <time>2010-03-28T13:56:30Z</time>
      </trkpt>
      <trkpt lat="43.53707" lon="6.94692">
        <ele>1</ele>
        <time>2010-03-28T13:56:34Z</time>
      </trkpt>
      <trkpt lat="43.53694" lon="6.94682">
        <ele>1</ele>
        <time>2010-03-28T13:56:37Z</time>
      </trkpt>
      <trkpt lat="43.53684" lon="6.94688">
        <ele>1</ele>
        <time>2010-03-28T13:56:39Z</time>
      </trkpt>
      <trkpt lat="43.53673" lon="6.94693">
        <ele>1</ele>
        <time>2010-03-28T13:56:44Z</time>
      </trkpt>
      <trkpt lat="43.53672" lon="6.94688">
        <ele>1</ele>
        <time>2010-03-28T13:56:46Z</time>
      </trkpt>
      <trkpt lat="43.53664" lon="6.94669">
        <ele>1</ele>
        <time>2010-03-28T13:56:50Z</time>
      </trkpt>
      <trkpt lat="43.53642" lon="6.94645">
        <ele>1</ele>
        <time>2010-03-28T13:56:55Z</time>
      </trkpt>
      <trkpt lat="43.53624" lon="6.94637">
        <ele>1</ele>
        <time>2010-03-28T13:56:59Z</time>
      </trkpt>
      <trkpt lat="43.53618" lon="6.94635">
        <ele>1</ele>
        <time>2010-03-28T13:57:02Z</time>
      </trkpt>
      <trkpt lat="43.53617" lon="6.94634">
        <ele>1</ele>
        <time>2010-03-28T13:57:04Z</time>
      </trkpt>
    </trkseg>
  </trk>
</gpx>